<?xml version="1.0" encoding="UTF-8" standalone="no" ?>
<gpx xmlns="http://www.topografix.com/GPX/1/1" xmlns:xsi="http://www.w3.org/2001/XMLSchema-instance" xsi:schemaLocation="http://www.topografix.com/GPX/1/1 http://www.topografix.com/GPX/1/1/gpx.xsd" version="1.1" creator="VisuGPX - https://www.visugpx.com">
  <metadata>
    <name>Jura méridional par les chemins de traverse</name>
    <desc><![CDATA[Une rando bien sympathique pour un debut d\'année mais une rando assez physique tout de meme. Comptez plutot 1350 mètres de D  au lieu de 1700.  40 % route , 30 % chemins, 30 % single. Comptez entre 500 et 1000 mètres linéaire de poussage.]]></desc>
  </metadata>
  <trk>
    <name><![CDATA[Clergeon-Sapenay-Merieu]]></name>
    <trkseg>
      <trkpt lat="45.79063" lon="5.94659">
        <ele>356.78637695312</ele>
        <time>2012-03-17T06:05:28Z</time>
      </trkpt>
      <trkpt lat="45.79062" lon="5.94658">
        <ele>355.34448242188</ele>
        <time>2012-03-17T06:05:31Z</time>
      </trkpt>
      <trkpt lat="45.79061" lon="5.94658">
        <ele>355.34448242188</ele>
        <time>2012-03-17T06:05:32Z</time>
      </trkpt>
      <trkpt lat="45.79052" lon="5.94658">
        <ele>354.86376953125</ele>
        <time>2012-03-17T06:05:37Z</time>
      </trkpt>
      <trkpt lat="45.79046" lon="5.94656">
        <ele>354.86376953125</ele>
        <time>2012-03-17T06:05:40Z</time>
      </trkpt>
      <trkpt lat="45.79025" lon="5.94651">
        <ele>355.34448242188</ele>
        <time>2012-03-17T06:05:48Z</time>
      </trkpt>
      <trkpt lat="45.78994" lon="5.94647">
        <ele>355.8251953125</ele>
        <time>2012-03-17T06:05:57Z</time>
      </trkpt>
      <trkpt lat="45.78965" lon="5.94638">
        <ele>356.78637695312</ele>
        <time>2012-03-17T06:06:06Z</time>
      </trkpt>
      <trkpt lat="45.78941" lon="5.94631">
        <ele>357.26708984375</ele>
        <time>2012-03-17T06:06:14Z</time>
      </trkpt>
      <trkpt lat="45.7892" lon="5.94626">
        <ele>357.26708984375</ele>
        <time>2012-03-17T06:06:22Z</time>
      </trkpt>
      <trkpt lat="45.78895" lon="5.94619">
        <ele>357.74780273438</ele>
        <time>2012-03-17T06:06:31Z</time>
      </trkpt>
      <trkpt lat="45.78893" lon="5.94618">
        <ele>357.74780273438</ele>
        <time>2012-03-17T06:06:32Z</time>
      </trkpt>
      <trkpt lat="45.78887" lon="5.94601">
        <ele>357.26708984375</ele>
        <time>2012-03-17T06:06:37Z</time>
      </trkpt>
      <trkpt lat="45.78886" lon="5.94584">
        <ele>356.78637695312</ele>
        <time>2012-03-17T06:06:41Z</time>
      </trkpt>
      <trkpt lat="45.78886" lon="5.94568">
        <ele>357.26708984375</ele>
        <time>2012-03-17T06:06:45Z</time>
      </trkpt>
      <trkpt lat="45.78873" lon="5.94539">
        <ele>357.26708984375</ele>
        <time>2012-03-17T06:06:53Z</time>
      </trkpt>
      <trkpt lat="45.78864" lon="5.9451">
        <ele>357.74780273438</ele>
        <time>2012-03-17T06:07:01Z</time>
      </trkpt>
      <trkpt lat="45.7887" lon="5.94488">
        <ele>357.26708984375</ele>
        <time>2012-03-17T06:07:07Z</time>
      </trkpt>
      <trkpt lat="45.78876" lon="5.94461">
        <ele>355.8251953125</ele>
        <time>2012-03-17T06:07:14Z</time>
      </trkpt>
      <trkpt lat="45.78883" lon="5.94434">
        <ele>355.34448242188</ele>
        <time>2012-03-17T06:07:21Z</time>
      </trkpt>
      <trkpt lat="45.78893" lon="5.94405">
        <ele>354.86376953125</ele>
        <time>2012-03-17T06:07:29Z</time>
      </trkpt>
      <trkpt lat="45.78906" lon="5.94374">
        <ele>354.38317871094</ele>
        <time>2012-03-17T06:07:38Z</time>
      </trkpt>
      <trkpt lat="45.78917" lon="5.94351">
        <ele>354.38317871094</ele>
        <time>2012-03-17T06:07:45Z</time>
      </trkpt>
      <trkpt lat="45.78931" lon="5.94332">
        <ele>353.90258789062</ele>
        <time>2012-03-17T06:07:52Z</time>
      </trkpt>
      <trkpt lat="45.78942" lon="5.94313">
        <ele>354.38317871094</ele>
        <time>2012-03-17T06:07:59Z</time>
      </trkpt>
      <trkpt lat="45.78957" lon="5.94291">
        <ele>354.86376953125</ele>
        <time>2012-03-17T06:08:08Z</time>
      </trkpt>
      <trkpt lat="45.78965" lon="5.94279">
        <ele>355.34448242188</ele>
        <time>2012-03-17T06:08:13Z</time>
      </trkpt>
      <trkpt lat="45.78975" lon="5.94271">
        <ele>357.26708984375</ele>
        <time>2012-03-17T06:08:18Z</time>
      </trkpt>
      <trkpt lat="45.7898" lon="5.94271">
        <ele>357.74780273438</ele>
        <time>2012-03-17T06:08:20Z</time>
      </trkpt>
      <trkpt lat="45.78984" lon="5.94273">
        <ele>357.74780273438</ele>
        <time>2012-03-17T06:08:22Z</time>
      </trkpt>
      <trkpt lat="45.78987" lon="5.94274">
        <ele>358.22839355469</ele>
        <time>2012-03-17T06:08:23Z</time>
      </trkpt>
      <trkpt lat="45.79003" lon="5.94283">
        <ele>359.67041015625</ele>
        <time>2012-03-17T06:08:30Z</time>
      </trkpt>
      <trkpt lat="45.79024" lon="5.94289">
        <ele>362.07373046875</ele>
        <time>2012-03-17T06:08:39Z</time>
      </trkpt>
      <trkpt lat="45.7904" lon="5.94278">
        <ele>362.07373046875</ele>
        <time>2012-03-17T06:08:47Z</time>
      </trkpt>
      <trkpt lat="45.79054" lon="5.94263">
        <ele>363.51574707031</ele>
        <time>2012-03-17T06:08:56Z</time>
      </trkpt>
      <trkpt lat="45.79067" lon="5.94248">
        <ele>365.43835449219</ele>
        <time>2012-03-17T06:09:06Z</time>
      </trkpt>
      <trkpt lat="45.79078" lon="5.94233">
        <ele>368.322265625</ele>
        <time>2012-03-17T06:09:15Z</time>
      </trkpt>
      <trkpt lat="45.79087" lon="5.94224">
        <ele>368.80297851562</ele>
        <time>2012-03-17T06:09:21Z</time>
      </trkpt>
      <trkpt lat="45.79093" lon="5.94219">
        <ele>369.76428222656</ele>
        <time>2012-03-17T06:09:25Z</time>
      </trkpt>
      <trkpt lat="45.79095" lon="5.94218">
        <ele>369.76428222656</ele>
        <time>2012-03-17T06:09:26Z</time>
      </trkpt>
      <trkpt lat="45.79097" lon="5.94217">
        <ele>370.24487304688</ele>
        <time>2012-03-17T06:09:27Z</time>
      </trkpt>
      <trkpt lat="45.7911" lon="5.94211">
        <ele>371.68688964844</ele>
        <time>2012-03-17T06:09:35Z</time>
      </trkpt>
      <trkpt lat="45.79121" lon="5.94206">
        <ele>373.60949707031</ele>
        <time>2012-03-17T06:09:42Z</time>
      </trkpt>
      <trkpt lat="45.79136" lon="5.94199">
        <ele>376.01281738281</ele>
        <time>2012-03-17T06:09:51Z</time>
      </trkpt>
      <trkpt lat="45.79152" lon="5.94192">
        <ele>377.93542480469</ele>
        <time>2012-03-17T06:10:00Z</time>
      </trkpt>
      <trkpt lat="45.79159" lon="5.94189">
        <ele>378.89685058594</ele>
        <time>2012-03-17T06:10:04Z</time>
      </trkpt>
      <trkpt lat="45.79161" lon="5.94188">
        <ele>379.37744140625</ele>
        <time>2012-03-17T06:10:05Z</time>
      </trkpt>
      <trkpt lat="45.79174" lon="5.94182">
        <ele>380.81945800781</ele>
        <time>2012-03-17T06:10:13Z</time>
      </trkpt>
      <trkpt lat="45.79181" lon="5.94179">
        <ele>381.78063964844</ele>
        <time>2012-03-17T06:10:17Z</time>
      </trkpt>
      <trkpt lat="45.79188" lon="5.94174">
        <ele>382.26135253906</ele>
        <time>2012-03-17T06:10:21Z</time>
      </trkpt>
      <trkpt lat="45.79192" lon="5.94172">
        <ele>382.74206542969</ele>
        <time>2012-03-17T06:10:23Z</time>
      </trkpt>
      <trkpt lat="45.79197" lon="5.94169">
        <ele>383.22265625</ele>
        <time>2012-03-17T06:10:26Z</time>
      </trkpt>
      <trkpt lat="45.79198" lon="5.94168">
        <ele>383.22265625</ele>
        <time>2012-03-17T06:10:27Z</time>
      </trkpt>
      <trkpt lat="45.79216" lon="5.94157">
        <ele>384.66479492188</ele>
        <time>2012-03-17T06:10:37Z</time>
      </trkpt>
      <trkpt lat="45.79229" lon="5.94148">
        <ele>385.6259765625</ele>
        <time>2012-03-17T06:10:45Z</time>
      </trkpt>
      <trkpt lat="45.7924" lon="5.94131">
        <ele>387.06799316406</ele>
        <time>2012-03-17T06:10:53Z</time>
      </trkpt>
      <trkpt lat="45.7925" lon="5.94105">
        <ele>388.029296875</ele>
        <time>2012-03-17T06:11:04Z</time>
      </trkpt>
      <trkpt lat="45.79256" lon="5.9409">
        <ele>388.99060058594</ele>
        <time>2012-03-17T06:11:10Z</time>
      </trkpt>
      <trkpt lat="45.79269" lon="5.9407">
        <ele>390.4326171875</ele>
        <time>2012-03-17T06:11:20Z</time>
      </trkpt>
      <trkpt lat="45.7928" lon="5.94054">
        <ele>391.39379882812</ele>
        <time>2012-03-17T06:11:28Z</time>
      </trkpt>
      <trkpt lat="45.79288" lon="5.94038">
        <ele>391.39379882812</ele>
        <time>2012-03-17T06:11:35Z</time>
      </trkpt>
      <trkpt lat="45.79298" lon="5.94014">
        <ele>392.35534667969</ele>
        <time>2012-03-17T06:11:44Z</time>
      </trkpt>
      <trkpt lat="45.79303" lon="5.93994">
        <ele>392.8359375</ele>
        <time>2012-03-17T06:11:51Z</time>
      </trkpt>
      <trkpt lat="45.79305" lon="5.93978">
        <ele>392.8359375</ele>
        <time>2012-03-17T06:11:57Z</time>
      </trkpt>
      <trkpt lat="45.79308" lon="5.93962">
        <ele>393.31652832031</ele>
        <time>2012-03-17T06:12:03Z</time>
      </trkpt>
      <trkpt lat="45.79314" lon="5.93942">
        <ele>394.27795410156</ele>
        <time>2012-03-17T06:12:11Z</time>
      </trkpt>
      <trkpt lat="45.79318" lon="5.93922">
        <ele>396.20056152344</ele>
        <time>2012-03-17T06:12:19Z</time>
      </trkpt>
      <trkpt lat="45.79322" lon="5.93904">
        <ele>397.64245605469</ele>
        <time>2012-03-17T06:12:27Z</time>
      </trkpt>
      <trkpt lat="45.79325" lon="5.93887">
        <ele>398.60375976562</ele>
        <time>2012-03-17T06:12:34Z</time>
      </trkpt>
      <trkpt lat="45.79327" lon="5.9387">
        <ele>400.52648925781</ele>
        <time>2012-03-17T06:12:42Z</time>
      </trkpt>
      <trkpt lat="45.79328" lon="5.93866">
        <ele>401.00708007812</ele>
        <time>2012-03-17T06:12:44Z</time>
      </trkpt>
      <trkpt lat="45.79327" lon="5.93864">
        <ele>401.48779296875</ele>
        <time>2012-03-17T06:12:49Z</time>
      </trkpt>
      <trkpt lat="45.79325" lon="5.93872">
        <ele>401.48779296875</ele>
        <time>2012-03-17T06:12:54Z</time>
      </trkpt>
      <trkpt lat="45.79326" lon="5.93874">
        <ele>402.44909667969</ele>
        <time>2012-03-17T06:13:00Z</time>
      </trkpt>
      <trkpt lat="45.79325" lon="5.93873">
        <ele>402.9296875</ele>
        <time>2012-03-17T06:13:06Z</time>
      </trkpt>
      <trkpt lat="45.79325" lon="5.93873">
        <ele>402.44909667969</ele>
        <time>2012-03-17T06:13:18Z</time>
      </trkpt>
      <trkpt lat="45.79326" lon="5.93868">
        <ele>402.9296875</ele>
        <time>2012-03-17T06:13:27Z</time>
      </trkpt>
      <trkpt lat="45.79325" lon="5.93867">
        <ele>402.9296875</ele>
        <time>2012-03-17T06:13:28Z</time>
      </trkpt>
      <trkpt lat="45.79326" lon="5.93859">
        <ele>402.9296875</ele>
        <time>2012-03-17T06:13:32Z</time>
      </trkpt>
      <trkpt lat="45.7933" lon="5.93845">
        <ele>404.85229492188</ele>
        <time>2012-03-17T06:13:39Z</time>
      </trkpt>
      <trkpt lat="45.79335" lon="5.93826">
        <ele>405.81372070312</ele>
        <time>2012-03-17T06:13:48Z</time>
      </trkpt>
      <trkpt lat="45.7934" lon="5.93809">
        <ele>405.3330078125</ele>
        <time>2012-03-17T06:13:56Z</time>
      </trkpt>
      <trkpt lat="45.79345" lon="5.9379">
        <ele>405.81372070312</ele>
        <time>2012-03-17T06:14:04Z</time>
      </trkpt>
      <trkpt lat="45.79351" lon="5.93766">
        <ele>406.77490234375</ele>
        <time>2012-03-17T06:14:13Z</time>
      </trkpt>
      <trkpt lat="45.79356" lon="5.93744">
        <ele>408.21704101562</ele>
        <time>2012-03-17T06:14:21Z</time>
      </trkpt>
      <trkpt lat="45.79362" lon="5.93723">
        <ele>408.69763183594</ele>
        <time>2012-03-17T06:14:29Z</time>
      </trkpt>
      <trkpt lat="45.79367" lon="5.93701">
        <ele>409.65905761719</ele>
        <time>2012-03-17T06:14:38Z</time>
      </trkpt>
      <trkpt lat="45.79366" lon="5.93684">
        <ele>410.1396484375</ele>
        <time>2012-03-17T06:14:45Z</time>
      </trkpt>
      <trkpt lat="45.79358" lon="5.93668">
        <ele>410.1396484375</ele>
        <time>2012-03-17T06:14:52Z</time>
      </trkpt>
      <trkpt lat="45.79345" lon="5.93647">
        <ele>411.10095214844</ele>
        <time>2012-03-17T06:15:02Z</time>
      </trkpt>
      <trkpt lat="45.7933" lon="5.93623">
        <ele>411.10095214844</ele>
        <time>2012-03-17T06:15:12Z</time>
      </trkpt>
      <trkpt lat="45.79322" lon="5.93608">
        <ele>412.06225585938</ele>
        <time>2012-03-17T06:15:18Z</time>
      </trkpt>
      <trkpt lat="45.79308" lon="5.93585">
        <ele>412.06225585938</ele>
        <time>2012-03-17T06:15:27Z</time>
      </trkpt>
      <trkpt lat="45.79296" lon="5.93555">
        <ele>411.58166503906</ele>
        <time>2012-03-17T06:15:37Z</time>
      </trkpt>
      <trkpt lat="45.79287" lon="5.93528">
        <ele>411.58166503906</ele>
        <time>2012-03-17T06:15:46Z</time>
      </trkpt>
      <trkpt lat="45.79282" lon="5.93507">
        <ele>412.54284667969</ele>
        <time>2012-03-17T06:15:53Z</time>
      </trkpt>
      <trkpt lat="45.79271" lon="5.93467">
        <ele>413.50427246094</ele>
        <time>2012-03-17T06:16:04Z</time>
      </trkpt>
      <trkpt lat="45.79276" lon="5.93442">
        <ele>414.46545410156</ele>
        <time>2012-03-17T06:16:11Z</time>
      </trkpt>
      <trkpt lat="45.79291" lon="5.93417">
        <ele>415.42687988281</ele>
        <time>2012-03-17T06:16:20Z</time>
      </trkpt>
      <trkpt lat="45.79309" lon="5.93396">
        <ele>415.42687988281</ele>
        <time>2012-03-17T06:16:29Z</time>
      </trkpt>
      <trkpt lat="45.7932" lon="5.93386">
        <ele>415.42687988281</ele>
        <time>2012-03-17T06:16:34Z</time>
      </trkpt>
      <trkpt lat="45.79324" lon="5.93382">
        <ele>415.42687988281</ele>
        <time>2012-03-17T06:16:36Z</time>
      </trkpt>
      <trkpt lat="45.79351" lon="5.9336">
        <ele>416.38818359375</ele>
        <time>2012-03-17T06:16:48Z</time>
      </trkpt>
      <trkpt lat="45.79361" lon="5.9335">
        <ele>416.86889648438</ele>
        <time>2012-03-17T06:16:53Z</time>
      </trkpt>
      <trkpt lat="45.79368" lon="5.93345">
        <ele>417.349609375</ele>
        <time>2012-03-17T06:16:56Z</time>
      </trkpt>
      <trkpt lat="45.79375" lon="5.9334">
        <ele>417.83020019531</ele>
        <time>2012-03-17T06:16:59Z</time>
      </trkpt>
      <trkpt lat="45.79397" lon="5.93319">
        <ele>418.79150390625</ele>
        <time>2012-03-17T06:17:10Z</time>
      </trkpt>
      <trkpt lat="45.79406" lon="5.93307">
        <ele>419.27221679688</ele>
        <time>2012-03-17T06:17:17Z</time>
      </trkpt>
      <trkpt lat="45.79419" lon="5.93292">
        <ele>420.2333984375</ele>
        <time>2012-03-17T06:17:25Z</time>
      </trkpt>
      <trkpt lat="45.79431" lon="5.93279">
        <ele>421.67541503906</ele>
        <time>2012-03-17T06:17:33Z</time>
      </trkpt>
      <trkpt lat="45.79447" lon="5.93264">
        <ele>422.15600585938</ele>
        <time>2012-03-17T06:17:41Z</time>
      </trkpt>
      <trkpt lat="45.79466" lon="5.93252">
        <ele>423.11743164062</ele>
        <time>2012-03-17T06:17:50Z</time>
      </trkpt>
      <trkpt lat="45.79479" lon="5.93244">
        <ele>423.59802246094</ele>
        <time>2012-03-17T06:17:57Z</time>
      </trkpt>
      <trkpt lat="45.7949" lon="5.93241">
        <ele>424.55944824219</ele>
        <time>2012-03-17T06:18:04Z</time>
      </trkpt>
      <trkpt lat="45.795" lon="5.93235">
        <ele>424.55944824219</ele>
        <time>2012-03-17T06:18:09Z</time>
      </trkpt>
      <trkpt lat="45.79514" lon="5.93228">
        <ele>423.59802246094</ele>
        <time>2012-03-17T06:18:15Z</time>
      </trkpt>
      <trkpt lat="45.79527" lon="5.93212">
        <ele>422.15600585938</ele>
        <time>2012-03-17T06:18:22Z</time>
      </trkpt>
      <trkpt lat="45.79541" lon="5.93186">
        <ele>421.67541503906</ele>
        <time>2012-03-17T06:18:31Z</time>
      </trkpt>
      <trkpt lat="45.79556" lon="5.93155">
        <ele>420.71411132812</ele>
        <time>2012-03-17T06:18:42Z</time>
      </trkpt>
      <trkpt lat="45.79572" lon="5.93124">
        <ele>421.67541503906</ele>
        <time>2012-03-17T06:18:53Z</time>
      </trkpt>
      <trkpt lat="45.79591" lon="5.93092">
        <ele>422.15600585938</ele>
        <time>2012-03-17T06:19:05Z</time>
      </trkpt>
      <trkpt lat="45.796" lon="5.93088">
        <ele>423.59802246094</ele>
        <time>2012-03-17T06:19:10Z</time>
      </trkpt>
      <trkpt lat="45.79601" lon="5.93088">
        <ele>423.59802246094</ele>
        <time>2012-03-17T06:19:11Z</time>
      </trkpt>
      <trkpt lat="45.79613" lon="5.93091">
        <ele>425.52075195312</ele>
        <time>2012-03-17T06:19:18Z</time>
      </trkpt>
      <trkpt lat="45.79619" lon="5.93094">
        <ele>426.96276855469</ele>
        <time>2012-03-17T06:19:22Z</time>
      </trkpt>
      <trkpt lat="45.7962" lon="5.93095">
        <ele>427.443359375</ele>
        <time>2012-03-17T06:19:23Z</time>
      </trkpt>
      <trkpt lat="45.79622" lon="5.93096">
        <ele>427.92395019531</ele>
        <time>2012-03-17T06:19:24Z</time>
      </trkpt>
      <trkpt lat="45.79627" lon="5.93102">
        <ele>428.88537597656</ele>
        <time>2012-03-17T06:19:28Z</time>
      </trkpt>
      <trkpt lat="45.7963" lon="5.93105">
        <ele>429.36596679688</ele>
        <time>2012-03-17T06:19:30Z</time>
      </trkpt>
      <trkpt lat="45.79631" lon="5.93107">
        <ele>429.36596679688</ele>
        <time>2012-03-17T06:19:31Z</time>
      </trkpt>
      <trkpt lat="45.79642" lon="5.93122">
        <ele>431.28857421875</ele>
        <time>2012-03-17T06:19:40Z</time>
      </trkpt>
      <trkpt lat="45.79652" lon="5.93137">
        <ele>432.73071289062</ele>
        <time>2012-03-17T06:19:48Z</time>
      </trkpt>
      <trkpt lat="45.79662" lon="5.93147">
        <ele>433.69189453125</ele>
        <time>2012-03-17T06:19:55Z</time>
      </trkpt>
      <trkpt lat="45.79674" lon="5.93151">
        <ele>434.6533203125</ele>
        <time>2012-03-17T06:20:02Z</time>
      </trkpt>
      <trkpt lat="45.79689" lon="5.9315">
        <ele>436.09521484375</ele>
        <time>2012-03-17T06:20:10Z</time>
      </trkpt>
      <trkpt lat="45.79708" lon="5.93148">
        <ele>437.05651855469</ele>
        <time>2012-03-17T06:20:21Z</time>
      </trkpt>
      <trkpt lat="45.79719" lon="5.93141">
        <ele>437.05651855469</ele>
        <time>2012-03-17T06:20:28Z</time>
      </trkpt>
      <trkpt lat="45.79726" lon="5.93125">
        <ele>439.45971679688</ele>
        <time>2012-03-17T06:20:36Z</time>
      </trkpt>
      <trkpt lat="45.79728" lon="5.93108">
        <ele>441.38244628906</ele>
        <time>2012-03-17T06:20:43Z</time>
      </trkpt>
      <trkpt lat="45.79731" lon="5.9309">
        <ele>443.30505371094</ele>
        <time>2012-03-17T06:20:50Z</time>
      </trkpt>
      <trkpt lat="45.79733" lon="5.93087">
        <ele>443.78576660156</ele>
        <time>2012-03-17T06:20:52Z</time>
      </trkpt>
      <trkpt lat="45.7974" lon="5.93077">
        <ele>443.78576660156</ele>
        <time>2012-03-17T06:20:59Z</time>
      </trkpt>
      <trkpt lat="45.7975" lon="5.9306">
        <ele>444.7470703125</ele>
        <time>2012-03-17T06:21:08Z</time>
      </trkpt>
      <trkpt lat="45.79763" lon="5.93059">
        <ele>447.15026855469</ele>
        <time>2012-03-17T06:21:16Z</time>
      </trkpt>
      <trkpt lat="45.79777" lon="5.93064">
        <ele>449.07299804688</ele>
        <time>2012-03-17T06:21:25Z</time>
      </trkpt>
      <trkpt lat="45.79791" lon="5.9307">
        <ele>450.99560546875</ele>
        <time>2012-03-17T06:21:34Z</time>
      </trkpt>
      <trkpt lat="45.79804" lon="5.93074">
        <ele>451.95703125</ele>
        <time>2012-03-17T06:21:42Z</time>
      </trkpt>
      <trkpt lat="45.79819" lon="5.93078">
        <ele>453.39892578125</ele>
        <time>2012-03-17T06:21:51Z</time>
      </trkpt>
      <trkpt lat="45.79829" lon="5.93078">
        <ele>454.36022949219</ele>
        <time>2012-03-17T06:21:57Z</time>
      </trkpt>
      <trkpt lat="45.79843" lon="5.93082">
        <ele>456.28295898438</ele>
        <time>2012-03-17T06:22:05Z</time>
      </trkpt>
      <trkpt lat="45.79856" lon="5.93085">
        <ele>457.24426269531</ele>
        <time>2012-03-17T06:22:13Z</time>
      </trkpt>
      <trkpt lat="45.79862" lon="5.93086">
        <ele>457.72497558594</ele>
        <time>2012-03-17T06:22:20Z</time>
      </trkpt>
      <trkpt lat="45.79868" lon="5.9309">
        <ele>458.68615722656</ele>
        <time>2012-03-17T06:22:26Z</time>
      </trkpt>
      <trkpt lat="45.79876" lon="5.93093">
        <ele>458.20556640625</ele>
        <time>2012-03-17T06:22:33Z</time>
      </trkpt>
      <trkpt lat="45.79884" lon="5.93096">
        <ele>457.24426269531</ele>
        <time>2012-03-17T06:22:40Z</time>
      </trkpt>
      <trkpt lat="45.79892" lon="5.93098">
        <ele>457.24426269531</ele>
        <time>2012-03-17T06:22:47Z</time>
      </trkpt>
      <trkpt lat="45.79902" lon="5.93102">
        <ele>456.76354980469</ele>
        <time>2012-03-17T06:22:54Z</time>
      </trkpt>
      <trkpt lat="45.79914" lon="5.93108">
        <ele>459.16687011719</ele>
        <time>2012-03-17T06:23:02Z</time>
      </trkpt>
      <trkpt lat="45.79919" lon="5.9311">
        <ele>460.12817382812</ele>
        <time>2012-03-17T06:23:07Z</time>
      </trkpt>
      <trkpt lat="45.7992" lon="5.93111">
        <ele>462.05078125</ele>
        <time>2012-03-17T06:23:12Z</time>
      </trkpt>
      <trkpt lat="45.79921" lon="5.93112">
        <ele>465.41552734375</ele>
        <time>2012-03-17T06:23:23Z</time>
      </trkpt>
      <trkpt lat="45.79921" lon="5.93112">
        <ele>465.89611816406</ele>
        <time>2012-03-17T06:23:29Z</time>
      </trkpt>
      <trkpt lat="45.79922" lon="5.93111">
        <ele>465.41552734375</ele>
        <time>2012-03-17T06:23:33Z</time>
      </trkpt>
      <trkpt lat="45.79922" lon="5.9311">
        <ele>463.97338867188</ele>
        <time>2012-03-17T06:23:42Z</time>
      </trkpt>
      <trkpt lat="45.79922" lon="5.9311">
        <ele>464.4541015625</ele>
        <time>2012-03-17T06:23:52Z</time>
      </trkpt>
      <trkpt lat="45.79923" lon="5.9311">
        <ele>464.93481445312</ele>
        <time>2012-03-17T06:24:00Z</time>
      </trkpt>
      <trkpt lat="45.79923" lon="5.9311">
        <ele>469.2607421875</ele>
        <time>2012-03-17T06:24:17Z</time>
      </trkpt>
      <trkpt lat="45.79926" lon="5.93112">
        <ele>469.2607421875</ele>
        <time>2012-03-17T06:24:21Z</time>
      </trkpt>
      <trkpt lat="45.79926" lon="5.93113">
        <ele>468.78002929688</ele>
        <time>2012-03-17T06:24:29Z</time>
      </trkpt>
      <trkpt lat="45.79928" lon="5.93113">
        <ele>469.2607421875</ele>
        <time>2012-03-17T06:24:35Z</time>
      </trkpt>
      <trkpt lat="45.79939" lon="5.93116">
        <ele>471.18334960938</ele>
        <time>2012-03-17T06:24:44Z</time>
      </trkpt>
      <trkpt lat="45.79949" lon="5.93119">
        <ele>471.66394042969</ele>
        <time>2012-03-17T06:24:53Z</time>
      </trkpt>
      <trkpt lat="45.79959" lon="5.93119">
        <ele>472.62536621094</ele>
        <time>2012-03-17T06:25:01Z</time>
      </trkpt>
      <trkpt lat="45.79963" lon="5.93118">
        <ele>473.10607910156</ele>
        <time>2012-03-17T06:25:05Z</time>
      </trkpt>
      <trkpt lat="45.79969" lon="5.93115">
        <ele>473.58666992188</ele>
        <time>2012-03-17T06:25:10Z</time>
      </trkpt>
      <trkpt lat="45.79974" lon="5.93114">
        <ele>474.54797363281</ele>
        <time>2012-03-17T06:25:14Z</time>
      </trkpt>
      <trkpt lat="45.79978" lon="5.93113">
        <ele>475.50927734375</ele>
        <time>2012-03-17T06:25:19Z</time>
      </trkpt>
      <trkpt lat="45.79978" lon="5.93114">
        <ele>476.47058105469</ele>
        <time>2012-03-17T06:25:29Z</time>
      </trkpt>
      <trkpt lat="45.79981" lon="5.9311">
        <ele>476.47058105469</ele>
        <time>2012-03-17T06:25:36Z</time>
      </trkpt>
      <trkpt lat="45.7999" lon="5.93105">
        <ele>475.50927734375</ele>
        <time>2012-03-17T06:25:44Z</time>
      </trkpt>
      <trkpt lat="45.80001" lon="5.93099">
        <ele>475.98986816406</ele>
        <time>2012-03-17T06:25:52Z</time>
      </trkpt>
      <trkpt lat="45.80008" lon="5.93094">
        <ele>476.47058105469</ele>
        <time>2012-03-17T06:25:57Z</time>
      </trkpt>
      <trkpt lat="45.80016" lon="5.9309">
        <ele>476.95129394531</ele>
        <time>2012-03-17T06:26:03Z</time>
      </trkpt>
      <trkpt lat="45.80028" lon="5.93083">
        <ele>477.91247558594</ele>
        <time>2012-03-17T06:26:11Z</time>
      </trkpt>
      <trkpt lat="45.80042" lon="5.93079">
        <ele>477.43188476562</ele>
        <time>2012-03-17T06:26:19Z</time>
      </trkpt>
      <trkpt lat="45.80056" lon="5.93081">
        <ele>475.50927734375</ele>
        <time>2012-03-17T06:26:28Z</time>
      </trkpt>
      <trkpt lat="45.80069" lon="5.93089">
        <ele>476.95129394531</ele>
        <time>2012-03-17T06:26:36Z</time>
      </trkpt>
      <trkpt lat="45.80084" lon="5.93098">
        <ele>477.43188476562</ele>
        <time>2012-03-17T06:26:45Z</time>
      </trkpt>
      <trkpt lat="45.80101" lon="5.93111">
        <ele>482.23852539062</ele>
        <time>2012-03-17T06:26:55Z</time>
      </trkpt>
      <trkpt lat="45.80118" lon="5.93121">
        <ele>485.12243652344</ele>
        <time>2012-03-17T06:27:05Z</time>
      </trkpt>
      <trkpt lat="45.80136" lon="5.93133">
        <ele>487.04504394531</ele>
        <time>2012-03-17T06:27:15Z</time>
      </trkpt>
      <trkpt lat="45.80155" lon="5.93142">
        <ele>488.48718261719</ele>
        <time>2012-03-17T06:27:25Z</time>
      </trkpt>
      <trkpt lat="45.80165" lon="5.93143">
        <ele>489.44836425781</ele>
        <time>2012-03-17T06:27:31Z</time>
      </trkpt>
      <trkpt lat="45.80177" lon="5.93131">
        <ele>490.89038085938</ele>
        <time>2012-03-17T06:27:39Z</time>
      </trkpt>
      <trkpt lat="45.80179" lon="5.93116">
        <ele>491.37097167969</ele>
        <time>2012-03-17T06:27:45Z</time>
      </trkpt>
      <trkpt lat="45.80179" lon="5.93094">
        <ele>492.33239746094</ele>
        <time>2012-03-17T06:27:53Z</time>
      </trkpt>
      <trkpt lat="45.80184" lon="5.93079">
        <ele>493.29357910156</ele>
        <time>2012-03-17T06:27:59Z</time>
      </trkpt>
      <trkpt lat="45.80201" lon="5.93067">
        <ele>495.21618652344</ele>
        <time>2012-03-17T06:28:09Z</time>
      </trkpt>
      <trkpt lat="45.80218" lon="5.93059">
        <ele>496.65832519531</ele>
        <time>2012-03-17T06:28:18Z</time>
      </trkpt>
      <trkpt lat="45.80233" lon="5.9305">
        <ele>498.58093261719</ele>
        <time>2012-03-17T06:28:27Z</time>
      </trkpt>
      <trkpt lat="45.80247" lon="5.93044">
        <ele>499.54223632812</ele>
        <time>2012-03-17T06:28:35Z</time>
      </trkpt>
      <trkpt lat="45.80262" lon="5.9304">
        <ele>500.98413085938</ele>
        <time>2012-03-17T06:28:44Z</time>
      </trkpt>
      <trkpt lat="45.80277" lon="5.93035">
        <ele>502.42614746094</ele>
        <time>2012-03-17T06:28:53Z</time>
      </trkpt>
      <trkpt lat="45.80278" lon="5.9302">
        <ele>503.8681640625</ele>
        <time>2012-03-17T06:28:59Z</time>
      </trkpt>
      <trkpt lat="45.80276" lon="5.92991">
        <ele>505.79089355469</ele>
        <time>2012-03-17T06:29:11Z</time>
      </trkpt>
      <trkpt lat="45.80269" lon="5.92966">
        <ele>505.79089355469</ele>
        <time>2012-03-17T06:29:21Z</time>
      </trkpt>
      <trkpt lat="45.80254" lon="5.92939">
        <ele>506.75207519531</ele>
        <time>2012-03-17T06:29:33Z</time>
      </trkpt>
      <trkpt lat="45.80244" lon="5.9292">
        <ele>508.19409179688</ele>
        <time>2012-03-17T06:29:42Z</time>
      </trkpt>
      <trkpt lat="45.80232" lon="5.92899">
        <ele>509.15539550781</ele>
        <time>2012-03-17T06:29:52Z</time>
      </trkpt>
      <trkpt lat="45.80227" lon="5.92881">
        <ele>510.59729003906</ele>
        <time>2012-03-17T06:30:00Z</time>
      </trkpt>
      <trkpt lat="45.80225" lon="5.9287">
        <ele>511.07800292969</ele>
        <time>2012-03-17T06:30:05Z</time>
      </trkpt>
      <trkpt lat="45.80223" lon="5.9285">
        <ele>511.55871582031</ele>
        <time>2012-03-17T06:30:14Z</time>
      </trkpt>
      <trkpt lat="45.8022" lon="5.92827">
        <ele>513.4814453125</ele>
        <time>2012-03-17T06:30:24Z</time>
      </trkpt>
      <trkpt lat="45.80212" lon="5.92803">
        <ele>516.365234375</ele>
        <time>2012-03-17T06:30:35Z</time>
      </trkpt>
      <trkpt lat="45.80201" lon="5.92792">
        <ele>518.28784179688</ele>
        <time>2012-03-17T06:30:43Z</time>
      </trkpt>
      <trkpt lat="45.80186" lon="5.92782">
        <ele>520.69128417969</ele>
        <time>2012-03-17T06:30:53Z</time>
      </trkpt>
      <trkpt lat="45.80174" lon="5.92774">
        <ele>522.13317871094</ele>
        <time>2012-03-17T06:31:01Z</time>
      </trkpt>
      <trkpt lat="45.80161" lon="5.92766">
        <ele>523.09460449219</ele>
        <time>2012-03-17T06:31:11Z</time>
      </trkpt>
      <trkpt lat="45.80145" lon="5.92752">
        <ele>525.97839355469</ele>
        <time>2012-03-17T06:31:23Z</time>
      </trkpt>
      <trkpt lat="45.80136" lon="5.92739">
        <ele>527.90100097656</ele>
        <time>2012-03-17T06:31:31Z</time>
      </trkpt>
      <trkpt lat="45.80135" lon="5.92727">
        <ele>528.86254882812</ele>
        <time>2012-03-17T06:31:37Z</time>
      </trkpt>
      <trkpt lat="45.8014" lon="5.92716">
        <ele>529.34313964844</ele>
        <time>2012-03-17T06:31:43Z</time>
      </trkpt>
      <trkpt lat="45.80149" lon="5.9271">
        <ele>528.86254882812</ele>
        <time>2012-03-17T06:31:50Z</time>
      </trkpt>
      <trkpt lat="45.80162" lon="5.92711">
        <ele>529.34313964844</ele>
        <time>2012-03-17T06:31:58Z</time>
      </trkpt>
      <trkpt lat="45.80171" lon="5.92714">
        <ele>528.3818359375</ele>
        <time>2012-03-17T06:32:04Z</time>
      </trkpt>
      <trkpt lat="45.80185" lon="5.92717">
        <ele>530.30444335938</ele>
        <time>2012-03-17T06:32:12Z</time>
      </trkpt>
      <trkpt lat="45.80199" lon="5.92714">
        <ele>532.70776367188</ele>
        <time>2012-03-17T06:32:20Z</time>
      </trkpt>
      <trkpt lat="45.80213" lon="5.92704">
        <ele>536.07238769531</ele>
        <time>2012-03-17T06:32:29Z</time>
      </trkpt>
      <trkpt lat="45.80223" lon="5.92687">
        <ele>537.03369140625</ele>
        <time>2012-03-17T06:32:38Z</time>
      </trkpt>
      <trkpt lat="45.8023" lon="5.92669">
        <ele>537.03369140625</ele>
        <time>2012-03-17T06:32:46Z</time>
      </trkpt>
      <trkpt lat="45.80236" lon="5.9265">
        <ele>537.03369140625</ele>
        <time>2012-03-17T06:32:54Z</time>
      </trkpt>
      <trkpt lat="45.80243" lon="5.92629">
        <ele>538.47570800781</ele>
        <time>2012-03-17T06:33:03Z</time>
      </trkpt>
      <trkpt lat="45.80252" lon="5.9261">
        <ele>538.95629882812</ele>
        <time>2012-03-17T06:33:12Z</time>
      </trkpt>
      <trkpt lat="45.80261" lon="5.92593">
        <ele>539.43688964844</ele>
        <time>2012-03-17T06:33:20Z</time>
      </trkpt>
      <trkpt lat="45.80268" lon="5.92571">
        <ele>542.32092285156</ele>
        <time>2012-03-17T06:33:29Z</time>
      </trkpt>
      <trkpt lat="45.80272" lon="5.92556">
        <ele>543.76281738281</ele>
        <time>2012-03-17T06:33:36Z</time>
      </trkpt>
      <trkpt lat="45.80272" lon="5.92542">
        <ele>542.80151367188</ele>
        <time>2012-03-17T06:33:41Z</time>
      </trkpt>
      <trkpt lat="45.80271" lon="5.92524">
        <ele>545.20483398438</ele>
        <time>2012-03-17T06:33:48Z</time>
      </trkpt>
      <trkpt lat="45.8027" lon="5.92504">
        <ele>544.72424316406</ele>
        <time>2012-03-17T06:33:56Z</time>
      </trkpt>
      <trkpt lat="45.80264" lon="5.9249">
        <ele>546.64685058594</ele>
        <time>2012-03-17T06:34:02Z</time>
      </trkpt>
      <trkpt lat="45.80254" lon="5.92478">
        <ele>550.4921875</ele>
        <time>2012-03-17T06:34:08Z</time>
      </trkpt>
      <trkpt lat="45.80239" lon="5.92476">
        <ele>550.97265625</ele>
        <time>2012-03-17T06:34:15Z</time>
      </trkpt>
      <trkpt lat="45.80225" lon="5.92488">
        <ele>550.97265625</ele>
        <time>2012-03-17T06:34:23Z</time>
      </trkpt>
      <trkpt lat="45.8022" lon="5.92503">
        <ele>555.779296875</ele>
        <time>2012-03-17T06:34:29Z</time>
      </trkpt>
      <trkpt lat="45.80214" lon="5.92523">
        <ele>559.14404296875</ele>
        <time>2012-03-17T06:34:36Z</time>
      </trkpt>
      <trkpt lat="45.80206" lon="5.92534">
        <ele>558.66333007812</ele>
        <time>2012-03-17T06:34:42Z</time>
      </trkpt>
      <trkpt lat="45.80193" lon="5.92527">
        <ele>559.14404296875</ele>
        <time>2012-03-17T06:34:50Z</time>
      </trkpt>
      <trkpt lat="45.80188" lon="5.9251">
        <ele>558.66333007812</ele>
        <time>2012-03-17T06:34:58Z</time>
      </trkpt>
      <trkpt lat="45.80186" lon="5.92499">
        <ele>558.18286132812</ele>
        <time>2012-03-17T06:35:03Z</time>
      </trkpt>
      <trkpt lat="45.80183" lon="5.92486">
        <ele>557.7021484375</ele>
        <time>2012-03-17T06:35:08Z</time>
      </trkpt>
      <trkpt lat="45.80176" lon="5.92471">
        <ele>558.66333007812</ele>
        <time>2012-03-17T06:35:15Z</time>
      </trkpt>
      <trkpt lat="45.80164" lon="5.92449">
        <ele>560.5859375</ele>
        <time>2012-03-17T06:35:25Z</time>
      </trkpt>
      <trkpt lat="45.80154" lon="5.92431">
        <ele>562.50854492188</ele>
        <time>2012-03-17T06:35:34Z</time>
      </trkpt>
      <trkpt lat="45.80143" lon="5.92417">
        <ele>565.87329101562</ele>
        <time>2012-03-17T06:35:42Z</time>
      </trkpt>
      <trkpt lat="45.8013" lon="5.92407">
        <ele>569.71850585938</ele>
        <time>2012-03-17T06:35:50Z</time>
      </trkpt>
      <trkpt lat="45.80115" lon="5.92403">
        <ele>571.16040039062</ele>
        <time>2012-03-17T06:35:58Z</time>
      </trkpt>
      <trkpt lat="45.801" lon="5.92396">
        <ele>572.12182617188</ele>
        <time>2012-03-17T06:36:06Z</time>
      </trkpt>
      <trkpt lat="45.80088" lon="5.92393">
        <ele>574.04443359375</ele>
        <time>2012-03-17T06:36:13Z</time>
      </trkpt>
      <trkpt lat="45.80076" lon="5.92388">
        <ele>576.44775390625</ele>
        <time>2012-03-17T06:36:19Z</time>
      </trkpt>
      <trkpt lat="45.80061" lon="5.92379">
        <ele>581.25439453125</ele>
        <time>2012-03-17T06:36:28Z</time>
      </trkpt>
      <trkpt lat="45.80051" lon="5.92368">
        <ele>580.77368164062</ele>
        <time>2012-03-17T06:36:35Z</time>
      </trkpt>
      <trkpt lat="45.80042" lon="5.92352">
        <ele>579.33154296875</ele>
        <time>2012-03-17T06:36:42Z</time>
      </trkpt>
      <trkpt lat="45.80033" lon="5.92334">
        <ele>577.8896484375</ele>
        <time>2012-03-17T06:36:50Z</time>
      </trkpt>
      <trkpt lat="45.80025" lon="5.92314">
        <ele>576.44775390625</ele>
        <time>2012-03-17T06:36:58Z</time>
      </trkpt>
      <trkpt lat="45.80018" lon="5.92299">
        <ele>576.44775390625</ele>
        <time>2012-03-17T06:37:05Z</time>
      </trkpt>
      <trkpt lat="45.80011" lon="5.92281">
        <ele>577.4091796875</ele>
        <time>2012-03-17T06:37:12Z</time>
      </trkpt>
      <trkpt lat="45.80002" lon="5.92261">
        <ele>576.44775390625</ele>
        <time>2012-03-17T06:37:20Z</time>
      </trkpt>
      <trkpt lat="45.79991" lon="5.92243">
        <ele>574.04443359375</ele>
        <time>2012-03-17T06:37:29Z</time>
      </trkpt>
      <trkpt lat="45.79975" lon="5.92221">
        <ele>575.96704101562</ele>
        <time>2012-03-17T06:37:39Z</time>
      </trkpt>
      <trkpt lat="45.79962" lon="5.92204">
        <ele>577.8896484375</ele>
        <time>2012-03-17T06:37:47Z</time>
      </trkpt>
      <trkpt lat="45.79951" lon="5.92189">
        <ele>578.37036132812</ele>
        <time>2012-03-17T06:37:54Z</time>
      </trkpt>
      <trkpt lat="45.79936" lon="5.92166">
        <ele>579.33154296875</ele>
        <time>2012-03-17T06:38:03Z</time>
      </trkpt>
      <trkpt lat="45.79927" lon="5.92153">
        <ele>579.33154296875</ele>
        <time>2012-03-17T06:38:08Z</time>
      </trkpt>
      <trkpt lat="45.79923" lon="5.92148">
        <ele>579.33154296875</ele>
        <time>2012-03-17T06:38:10Z</time>
      </trkpt>
      <trkpt lat="45.79921" lon="5.92145">
        <ele>579.33154296875</ele>
        <time>2012-03-17T06:38:11Z</time>
      </trkpt>
      <trkpt lat="45.79901" lon="5.92116">
        <ele>579.81225585938</ele>
        <time>2012-03-17T06:38:22Z</time>
      </trkpt>
      <trkpt lat="45.7989" lon="5.92099">
        <ele>580.77368164062</ele>
        <time>2012-03-17T06:38:29Z</time>
      </trkpt>
      <trkpt lat="45.79878" lon="5.92083">
        <ele>580.77368164062</ele>
        <time>2012-03-17T06:38:35Z</time>
      </trkpt>
      <trkpt lat="45.79872" lon="5.92089">
        <ele>581.25439453125</ele>
        <time>2012-03-17T06:38:39Z</time>
      </trkpt>
      <trkpt lat="45.7987" lon="5.92101">
        <ele>581.25439453125</ele>
        <time>2012-03-17T06:38:43Z</time>
      </trkpt>
      <trkpt lat="45.79868" lon="5.92108">
        <ele>580.77368164062</ele>
        <time>2012-03-17T06:38:46Z</time>
      </trkpt>
      <trkpt lat="45.79861" lon="5.92123">
        <ele>580.77368164062</ele>
        <time>2012-03-17T06:38:52Z</time>
      </trkpt>
      <trkpt lat="45.79852" lon="5.92136">
        <ele>579.81225585938</ele>
        <time>2012-03-17T06:38:58Z</time>
      </trkpt>
      <trkpt lat="45.79847" lon="5.92138">
        <ele>579.81225585938</ele>
        <time>2012-03-17T06:39:03Z</time>
      </trkpt>
      <trkpt lat="45.79847" lon="5.92139">
        <ele>579.81225585938</ele>
        <time>2012-03-17T06:39:09Z</time>
      </trkpt>
      <trkpt lat="45.79849" lon="5.92136">
        <ele>579.81225585938</ele>
        <time>2012-03-17T06:39:18Z</time>
      </trkpt>
      <trkpt lat="45.7985" lon="5.92136">
        <ele>579.81225585938</ele>
        <time>2012-03-17T06:39:19Z</time>
      </trkpt>
      <trkpt lat="45.79857" lon="5.92131">
        <ele>580.29296875</ele>
        <time>2012-03-17T06:39:23Z</time>
      </trkpt>
      <trkpt lat="45.79861" lon="5.92124">
        <ele>580.29296875</ele>
        <time>2012-03-17T06:39:26Z</time>
      </trkpt>
      <trkpt lat="45.79868" lon="5.921">
        <ele>579.81225585938</ele>
        <time>2012-03-17T06:39:35Z</time>
      </trkpt>
      <trkpt lat="45.79869" lon="5.9208">
        <ele>579.33154296875</ele>
        <time>2012-03-17T06:39:42Z</time>
      </trkpt>
      <trkpt lat="45.79863" lon="5.92056">
        <ele>578.85107421875</ele>
        <time>2012-03-17T06:39:49Z</time>
      </trkpt>
      <trkpt lat="45.79853" lon="5.92018">
        <ele>579.33154296875</ele>
        <time>2012-03-17T06:40:00Z</time>
      </trkpt>
      <trkpt lat="45.79844" lon="5.91983">
        <ele>579.81225585938</ele>
        <time>2012-03-17T06:40:10Z</time>
      </trkpt>
      <trkpt lat="45.79839" lon="5.91951">
        <ele>581.25439453125</ele>
        <time>2012-03-17T06:40:19Z</time>
      </trkpt>
      <trkpt lat="45.79839" lon="5.91934">
        <ele>581.73486328125</ele>
        <time>2012-03-17T06:40:25Z</time>
      </trkpt>
      <trkpt lat="45.79842" lon="5.91911">
        <ele>581.73486328125</ele>
        <time>2012-03-17T06:40:32Z</time>
      </trkpt>
      <trkpt lat="45.79844" lon="5.919">
        <ele>582.21557617188</ele>
        <time>2012-03-17T06:40:36Z</time>
      </trkpt>
      <trkpt lat="45.79848" lon="5.91888">
        <ele>582.6962890625</ele>
        <time>2012-03-17T06:40:40Z</time>
      </trkpt>
      <trkpt lat="45.79859" lon="5.91869">
        <ele>582.21557617188</ele>
        <time>2012-03-17T06:40:47Z</time>
      </trkpt>
      <trkpt lat="45.79868" lon="5.91846">
        <ele>583.1767578125</ele>
        <time>2012-03-17T06:40:54Z</time>
      </trkpt>
      <trkpt lat="45.79875" lon="5.91831">
        <ele>583.65747070312</ele>
        <time>2012-03-17T06:40:59Z</time>
      </trkpt>
      <trkpt lat="45.79886" lon="5.91805">
        <ele>585.099609375</ele>
        <time>2012-03-17T06:41:08Z</time>
      </trkpt>
      <trkpt lat="45.79894" lon="5.91791">
        <ele>586.54150390625</ele>
        <time>2012-03-17T06:41:14Z</time>
      </trkpt>
      <trkpt lat="45.79906" lon="5.91774">
        <ele>588.94506835938</ele>
        <time>2012-03-17T06:41:22Z</time>
      </trkpt>
      <trkpt lat="45.7992" lon="5.91764">
        <ele>590.38696289062</ele>
        <time>2012-03-17T06:41:30Z</time>
      </trkpt>
      <trkpt lat="45.79933" lon="5.91755">
        <ele>591.82885742188</ele>
        <time>2012-03-17T06:41:37Z</time>
      </trkpt>
      <trkpt lat="45.79951" lon="5.91748">
        <ele>593.75146484375</ele>
        <time>2012-03-17T06:41:46Z</time>
      </trkpt>
      <trkpt lat="45.79964" lon="5.91745">
        <ele>595.193359375</ele>
        <time>2012-03-17T06:41:53Z</time>
      </trkpt>
      <trkpt lat="45.79984" lon="5.91749">
        <ele>596.15478515625</ele>
        <time>2012-03-17T06:42:02Z</time>
      </trkpt>
      <trkpt lat="45.79987" lon="5.91748">
        <ele>596.15478515625</ele>
        <time>2012-03-17T06:42:04Z</time>
      </trkpt>
      <trkpt lat="45.7999" lon="5.9175">
        <ele>596.15478515625</ele>
        <time>2012-03-17T06:42:11Z</time>
      </trkpt>
      <trkpt lat="45.79999" lon="5.91752">
        <ele>596.63549804688</ele>
        <time>2012-03-17T06:42:16Z</time>
      </trkpt>
      <trkpt lat="45.80018" lon="5.91752">
        <ele>598.07739257812</ele>
        <time>2012-03-17T06:42:25Z</time>
      </trkpt>
      <trkpt lat="45.80033" lon="5.91748">
        <ele>597.5966796875</ele>
        <time>2012-03-17T06:42:31Z</time>
      </trkpt>
      <trkpt lat="45.80045" lon="5.9175">
        <ele>597.11596679688</ele>
        <time>2012-03-17T06:42:36Z</time>
      </trkpt>
      <trkpt lat="45.80064" lon="5.9176">
        <ele>597.5966796875</ele>
        <time>2012-03-17T06:42:43Z</time>
      </trkpt>
      <trkpt lat="45.80074" lon="5.91766">
        <ele>597.5966796875</ele>
        <time>2012-03-17T06:42:47Z</time>
      </trkpt>
      <trkpt lat="45.80087" lon="5.9177">
        <ele>596.63549804688</ele>
        <time>2012-03-17T06:42:52Z</time>
      </trkpt>
      <trkpt lat="45.80106" lon="5.91769">
        <ele>597.5966796875</ele>
        <time>2012-03-17T06:42:59Z</time>
      </trkpt>
      <trkpt lat="45.80124" lon="5.91768">
        <ele>600</ele>
        <time>2012-03-17T06:43:06Z</time>
      </trkpt>
      <trkpt lat="45.80143" lon="5.91763">
        <ele>600.48071289062</ele>
        <time>2012-03-17T06:43:14Z</time>
      </trkpt>
      <trkpt lat="45.80169" lon="5.91757">
        <ele>600.96118164062</ele>
        <time>2012-03-17T06:43:25Z</time>
      </trkpt>
      <trkpt lat="45.80192" lon="5.91754">
        <ele>602.8837890625</ele>
        <time>2012-03-17T06:43:35Z</time>
      </trkpt>
      <trkpt lat="45.80212" lon="5.9175">
        <ele>602.8837890625</ele>
        <time>2012-03-17T06:43:44Z</time>
      </trkpt>
      <trkpt lat="45.80231" lon="5.91747">
        <ele>604.326171875</ele>
        <time>2012-03-17T06:43:52Z</time>
      </trkpt>
      <trkpt lat="45.80249" lon="5.91745">
        <ele>607.2099609375</ele>
        <time>2012-03-17T06:44:00Z</time>
      </trkpt>
      <trkpt lat="45.80265" lon="5.9174">
        <ele>607.69067382812</ele>
        <time>2012-03-17T06:44:08Z</time>
      </trkpt>
      <trkpt lat="45.80268" lon="5.91737">
        <ele>607.2099609375</ele>
        <time>2012-03-17T06:44:10Z</time>
      </trkpt>
      <trkpt lat="45.80269" lon="5.91735">
        <ele>607.69067382812</ele>
        <time>2012-03-17T06:44:21Z</time>
      </trkpt>
      <trkpt lat="45.80269" lon="5.91733">
        <ele>608.65185546875</ele>
        <time>2012-03-17T06:44:30Z</time>
      </trkpt>
      <trkpt lat="45.80269" lon="5.91733">
        <ele>609.13256835938</ele>
        <time>2012-03-17T06:44:33Z</time>
      </trkpt>
      <trkpt lat="45.8027" lon="5.91732">
        <ele>609.13256835938</ele>
        <time>2012-03-17T06:44:42Z</time>
      </trkpt>
      <trkpt lat="45.8027" lon="5.91731">
        <ele>609.13256835938</ele>
        <time>2012-03-17T06:44:44Z</time>
      </trkpt>
      <trkpt lat="45.80271" lon="5.91729">
        <ele>609.13256835938</ele>
        <time>2012-03-17T06:44:46Z</time>
      </trkpt>
      <trkpt lat="45.80274" lon="5.91726">
        <ele>609.13256835938</ele>
        <time>2012-03-17T06:44:49Z</time>
      </trkpt>
      <trkpt lat="45.80279" lon="5.91719">
        <ele>609.13256835938</ele>
        <time>2012-03-17T06:44:54Z</time>
      </trkpt>
      <trkpt lat="45.80286" lon="5.9171">
        <ele>609.13256835938</ele>
        <time>2012-03-17T06:45:00Z</time>
      </trkpt>
      <trkpt lat="45.80298" lon="5.91699">
        <ele>611.05517578125</ele>
        <time>2012-03-17T06:45:08Z</time>
      </trkpt>
      <trkpt lat="45.80307" lon="5.91693">
        <ele>612.0166015625</ele>
        <time>2012-03-17T06:45:14Z</time>
      </trkpt>
      <trkpt lat="45.80318" lon="5.91684">
        <ele>613.93896484375</ele>
        <time>2012-03-17T06:45:21Z</time>
      </trkpt>
      <trkpt lat="45.80331" lon="5.91679">
        <ele>618.26489257812</ele>
        <time>2012-03-17T06:45:29Z</time>
      </trkpt>
      <trkpt lat="45.80341" lon="5.91674">
        <ele>619.22631835938</ele>
        <time>2012-03-17T06:45:35Z</time>
      </trkpt>
      <trkpt lat="45.80352" lon="5.91672">
        <ele>620.18774414062</ele>
        <time>2012-03-17T06:45:42Z</time>
      </trkpt>
      <trkpt lat="45.80365" lon="5.91669">
        <ele>621.14916992188</ele>
        <time>2012-03-17T06:45:50Z</time>
      </trkpt>
      <trkpt lat="45.80377" lon="5.91667">
        <ele>623.07177734375</ele>
        <time>2012-03-17T06:45:58Z</time>
      </trkpt>
      <trkpt lat="45.80386" lon="5.91667">
        <ele>623.55249023438</ele>
        <time>2012-03-17T06:46:04Z</time>
      </trkpt>
      <trkpt lat="45.80387" lon="5.91667">
        <ele>623.55249023438</ele>
        <time>2012-03-17T06:46:10Z</time>
      </trkpt>
      <trkpt lat="45.80387" lon="5.91667">
        <ele>624.513671875</ele>
        <time>2012-03-17T06:46:16Z</time>
      </trkpt>
      <trkpt lat="45.80386" lon="5.91668">
        <ele>625.47485351562</ele>
        <time>2012-03-17T06:46:24Z</time>
      </trkpt>
      <trkpt lat="45.80385" lon="5.91665">
        <ele>625.95556640625</ele>
        <time>2012-03-17T06:46:34Z</time>
      </trkpt>
      <trkpt lat="45.80385" lon="5.91663">
        <ele>627.39770507812</ele>
        <time>2012-03-17T06:46:40Z</time>
      </trkpt>
      <trkpt lat="45.80384" lon="5.91663">
        <ele>627.39770507812</ele>
        <time>2012-03-17T06:46:42Z</time>
      </trkpt>
      <trkpt lat="45.80384" lon="5.91663">
        <ele>627.39770507812</ele>
        <time>2012-03-17T06:46:43Z</time>
      </trkpt>
      <trkpt lat="45.80384" lon="5.91664">
        <ele>628.83959960938</ele>
        <time>2012-03-17T06:46:48Z</time>
      </trkpt>
      <trkpt lat="45.80384" lon="5.91664">
        <ele>629.80078125</ele>
        <time>2012-03-17T06:46:53Z</time>
      </trkpt>
      <trkpt lat="45.80385" lon="5.91664">
        <ele>629.32006835938</ele>
        <time>2012-03-17T06:47:03Z</time>
      </trkpt>
      <trkpt lat="45.80386" lon="5.91664">
        <ele>629.32006835938</ele>
        <time>2012-03-17T06:47:10Z</time>
      </trkpt>
      <trkpt lat="45.80386" lon="5.91662">
        <ele>627.87817382812</ele>
        <time>2012-03-17T06:47:21Z</time>
      </trkpt>
      <trkpt lat="45.80386" lon="5.91661">
        <ele>626.9169921875</ele>
        <time>2012-03-17T06:47:23Z</time>
      </trkpt>
      <trkpt lat="45.80391" lon="5.91659">
        <ele>625.95556640625</ele>
        <time>2012-03-17T06:47:28Z</time>
      </trkpt>
      <trkpt lat="45.80393" lon="5.91659">
        <ele>625.95556640625</ele>
        <time>2012-03-17T06:47:29Z</time>
      </trkpt>
      <trkpt lat="45.80396" lon="5.91659">
        <ele>625.47485351562</ele>
        <time>2012-03-17T06:47:31Z</time>
      </trkpt>
      <trkpt lat="45.80398" lon="5.91659">
        <ele>625.47485351562</ele>
        <time>2012-03-17T06:47:32Z</time>
      </trkpt>
      <trkpt lat="45.8041" lon="5.91657">
        <ele>625.47485351562</ele>
        <time>2012-03-17T06:47:40Z</time>
      </trkpt>
      <trkpt lat="45.80415" lon="5.91657">
        <ele>625.47485351562</ele>
        <time>2012-03-17T06:47:44Z</time>
      </trkpt>
      <trkpt lat="45.80421" lon="5.91655">
        <ele>625.47485351562</ele>
        <time>2012-03-17T06:47:49Z</time>
      </trkpt>
      <trkpt lat="45.80423" lon="5.91656">
        <ele>624.99438476562</ele>
        <time>2012-03-17T06:47:57Z</time>
      </trkpt>
      <trkpt lat="45.80424" lon="5.91656">
        <ele>625.95556640625</ele>
        <time>2012-03-17T06:48:05Z</time>
      </trkpt>
      <trkpt lat="45.80425" lon="5.91656">
        <ele>626.43627929688</ele>
        <time>2012-03-17T06:48:10Z</time>
      </trkpt>
      <trkpt lat="45.80425" lon="5.91656">
        <ele>627.39770507812</ele>
        <time>2012-03-17T06:48:18Z</time>
      </trkpt>
      <trkpt lat="45.80425" lon="5.91655">
        <ele>628.35888671875</ele>
        <time>2012-03-17T06:48:28Z</time>
      </trkpt>
      <trkpt lat="45.80428" lon="5.91656">
        <ele>627.87817382812</ele>
        <time>2012-03-17T06:48:33Z</time>
      </trkpt>
      <trkpt lat="45.80434" lon="5.91654">
        <ele>626.9169921875</ele>
        <time>2012-03-17T06:48:38Z</time>
      </trkpt>
      <trkpt lat="45.80442" lon="5.91652">
        <ele>627.39770507812</ele>
        <time>2012-03-17T06:48:42Z</time>
      </trkpt>
      <trkpt lat="45.80455" lon="5.91649">
        <ele>628.35888671875</ele>
        <time>2012-03-17T06:48:50Z</time>
      </trkpt>
      <trkpt lat="45.80468" lon="5.91646">
        <ele>628.83959960938</ele>
        <time>2012-03-17T06:48:57Z</time>
      </trkpt>
      <trkpt lat="45.80475" lon="5.91643">
        <ele>629.32006835938</ele>
        <time>2012-03-17T06:49:01Z</time>
      </trkpt>
      <trkpt lat="45.80487" lon="5.91637">
        <ele>630.28149414062</ele>
        <time>2012-03-17T06:49:08Z</time>
      </trkpt>
      <trkpt lat="45.80505" lon="5.91621">
        <ele>630.28149414062</ele>
        <time>2012-03-17T06:49:20Z</time>
      </trkpt>
      <trkpt lat="45.80517" lon="5.91607">
        <ele>631.24291992188</ele>
        <time>2012-03-17T06:49:28Z</time>
      </trkpt>
      <trkpt lat="45.80531" lon="5.91597">
        <ele>632.68481445312</ele>
        <time>2012-03-17T06:49:36Z</time>
      </trkpt>
      <trkpt lat="45.80547" lon="5.91588">
        <ele>635.08813476562</ele>
        <time>2012-03-17T06:49:45Z</time>
      </trkpt>
      <trkpt lat="45.80563" lon="5.9158">
        <ele>637.0107421875</ele>
        <time>2012-03-17T06:49:54Z</time>
      </trkpt>
      <trkpt lat="45.80575" lon="5.91573">
        <ele>637.49145507812</ele>
        <time>2012-03-17T06:50:01Z</time>
      </trkpt>
      <trkpt lat="45.80584" lon="5.91566">
        <ele>637.97216796875</ele>
        <time>2012-03-17T06:50:08Z</time>
      </trkpt>
      <trkpt lat="45.8059" lon="5.91562">
        <ele>637.97216796875</ele>
        <time>2012-03-17T06:50:14Z</time>
      </trkpt>
      <trkpt lat="45.80591" lon="5.91565">
        <ele>637.97216796875</ele>
        <time>2012-03-17T06:50:18Z</time>
      </trkpt>
      <trkpt lat="45.80589" lon="5.91564">
        <ele>637.49145507812</ele>
        <time>2012-03-17T06:50:22Z</time>
      </trkpt>
      <trkpt lat="45.80587" lon="5.91565">
        <ele>637.0107421875</ele>
        <time>2012-03-17T06:50:28Z</time>
      </trkpt>
      <trkpt lat="45.8059" lon="5.91562">
        <ele>636.5302734375</ele>
        <time>2012-03-17T06:50:30Z</time>
      </trkpt>
      <trkpt lat="45.806" lon="5.91553">
        <ele>637.0107421875</ele>
        <time>2012-03-17T06:50:35Z</time>
      </trkpt>
      <trkpt lat="45.80611" lon="5.91543">
        <ele>637.97216796875</ele>
        <time>2012-03-17T06:50:41Z</time>
      </trkpt>
      <trkpt lat="45.80628" lon="5.91541">
        <ele>636.5302734375</ele>
        <time>2012-03-17T06:50:47Z</time>
      </trkpt>
      <trkpt lat="45.80636" lon="5.91553">
        <ele>635.08813476562</ele>
        <time>2012-03-17T06:50:51Z</time>
      </trkpt>
      <trkpt lat="45.80642" lon="5.91561">
        <ele>634.12670898438</ele>
        <time>2012-03-17T06:50:54Z</time>
      </trkpt>
      <trkpt lat="45.80657" lon="5.91574">
        <ele>631.72338867188</ele>
        <time>2012-03-17T06:51:00Z</time>
      </trkpt>
      <trkpt lat="45.80676" lon="5.91579">
        <ele>630.28149414062</ele>
        <time>2012-03-17T06:51:05Z</time>
      </trkpt>
      <trkpt lat="45.80694" lon="5.91586">
        <ele>627.87817382812</ele>
        <time>2012-03-17T06:51:10Z</time>
      </trkpt>
      <trkpt lat="45.80704" lon="5.9159">
        <ele>627.39770507812</ele>
        <time>2012-03-17T06:51:12Z</time>
      </trkpt>
      <trkpt lat="45.80732" lon="5.91584">
        <ele>624.513671875</ele>
        <time>2012-03-17T06:51:16Z</time>
      </trkpt>
      <trkpt lat="45.80739" lon="5.9158">
        <ele>624.03295898438</ele>
        <time>2012-03-17T06:51:17Z</time>
      </trkpt>
      <trkpt lat="45.80798" lon="5.91535">
        <ele>619.70703125</ele>
        <time>2012-03-17T06:51:25Z</time>
      </trkpt>
      <trkpt lat="45.80836" lon="5.91505">
        <ele>616.82299804688</ele>
        <time>2012-03-17T06:51:30Z</time>
      </trkpt>
      <trkpt lat="45.8087" lon="5.91478">
        <ele>617.3037109375</ele>
        <time>2012-03-17T06:51:35Z</time>
      </trkpt>
      <trkpt lat="45.80902" lon="5.91455">
        <ele>617.3037109375</ele>
        <time>2012-03-17T06:51:41Z</time>
      </trkpt>
      <trkpt lat="45.80911" lon="5.9145">
        <ele>617.7841796875</ele>
        <time>2012-03-17T06:51:43Z</time>
      </trkpt>
      <trkpt lat="45.80937" lon="5.91434">
        <ele>617.7841796875</ele>
        <time>2012-03-17T06:51:50Z</time>
      </trkpt>
      <trkpt lat="45.80951" lon="5.91429">
        <ele>617.3037109375</ele>
        <time>2012-03-17T06:51:54Z</time>
      </trkpt>
      <trkpt lat="45.80954" lon="5.91427">
        <ele>617.3037109375</ele>
        <time>2012-03-17T06:51:55Z</time>
      </trkpt>
      <trkpt lat="45.8097" lon="5.91422">
        <ele>615.86181640625</ele>
        <time>2012-03-17T06:52:00Z</time>
      </trkpt>
      <trkpt lat="45.8097" lon="5.91422">
        <ele>615.86181640625</ele>
        <time>2012-03-17T06:52:03Z</time>
      </trkpt>
      <trkpt lat="45.8097" lon="5.91423">
        <ele>614.900390625</ele>
        <time>2012-03-17T06:52:13Z</time>
      </trkpt>
      <trkpt lat="45.8097" lon="5.91422">
        <ele>614.41967773438</ele>
        <time>2012-03-17T06:52:17Z</time>
      </trkpt>
      <trkpt lat="45.8098" lon="5.91417">
        <ele>614.41967773438</ele>
        <time>2012-03-17T06:52:22Z</time>
      </trkpt>
      <trkpt lat="45.81004" lon="5.9141">
        <ele>613.93896484375</ele>
        <time>2012-03-17T06:52:30Z</time>
      </trkpt>
      <trkpt lat="45.81019" lon="5.91405">
        <ele>614.41967773438</ele>
        <time>2012-03-17T06:52:35Z</time>
      </trkpt>
      <trkpt lat="45.81049" lon="5.91394">
        <ele>613.93896484375</ele>
        <time>2012-03-17T06:52:44Z</time>
      </trkpt>
      <trkpt lat="45.81078" lon="5.91383">
        <ele>613.93896484375</ele>
        <time>2012-03-17T06:52:51Z</time>
      </trkpt>
      <trkpt lat="45.81113" lon="5.91368">
        <ele>613.93896484375</ele>
        <time>2012-03-17T06:53:00Z</time>
      </trkpt>
      <trkpt lat="45.81144" lon="5.91353">
        <ele>614.41967773438</ele>
        <time>2012-03-17T06:53:08Z</time>
      </trkpt>
      <trkpt lat="45.81158" lon="5.91347">
        <ele>614.900390625</ele>
        <time>2012-03-17T06:53:12Z</time>
      </trkpt>
      <trkpt lat="45.81175" lon="5.91339">
        <ele>616.34228515625</ele>
        <time>2012-03-17T06:53:17Z</time>
      </trkpt>
      <trkpt lat="45.81192" lon="5.91329">
        <ele>615.86181640625</ele>
        <time>2012-03-17T06:53:23Z</time>
      </trkpt>
      <trkpt lat="45.81211" lon="5.91318">
        <ele>614.41967773438</ele>
        <time>2012-03-17T06:53:29Z</time>
      </trkpt>
      <trkpt lat="45.81233" lon="5.91295">
        <ele>612.4970703125</ele>
        <time>2012-03-17T06:53:36Z</time>
      </trkpt>
      <trkpt lat="45.81252" lon="5.9127">
        <ele>610.57446289062</ele>
        <time>2012-03-17T06:53:41Z</time>
      </trkpt>
      <trkpt lat="45.81279" lon="5.91232">
        <ele>608.65185546875</ele>
        <time>2012-03-17T06:53:47Z</time>
      </trkpt>
      <trkpt lat="45.81302" lon="5.91213">
        <ele>609.13256835938</ele>
        <time>2012-03-17T06:53:52Z</time>
      </trkpt>
      <trkpt lat="45.8132" lon="5.91207">
        <ele>609.61328125</ele>
        <time>2012-03-17T06:53:57Z</time>
      </trkpt>
      <trkpt lat="45.81332" lon="5.91207">
        <ele>610.09375</ele>
        <time>2012-03-17T06:54:02Z</time>
      </trkpt>
      <trkpt lat="45.81343" lon="5.91208">
        <ele>610.57446289062</ele>
        <time>2012-03-17T06:54:07Z</time>
      </trkpt>
      <trkpt lat="45.81351" lon="5.91208">
        <ele>610.57446289062</ele>
        <time>2012-03-17T06:54:10Z</time>
      </trkpt>
      <trkpt lat="45.81357" lon="5.91209">
        <ele>610.57446289062</ele>
        <time>2012-03-17T06:54:12Z</time>
      </trkpt>
      <trkpt lat="45.8136" lon="5.91209">
        <ele>610.57446289062</ele>
        <time>2012-03-17T06:54:13Z</time>
      </trkpt>
      <trkpt lat="45.81387" lon="5.9121">
        <ele>611.53588867188</ele>
        <time>2012-03-17T06:54:22Z</time>
      </trkpt>
      <trkpt lat="45.81408" lon="5.91212">
        <ele>612.4970703125</ele>
        <time>2012-03-17T06:54:30Z</time>
      </trkpt>
      <trkpt lat="45.8143" lon="5.91214">
        <ele>612.4970703125</ele>
        <time>2012-03-17T06:54:39Z</time>
      </trkpt>
      <trkpt lat="45.81446" lon="5.91217">
        <ele>612.97778320312</ele>
        <time>2012-03-17T06:54:47Z</time>
      </trkpt>
      <trkpt lat="45.81455" lon="5.91219">
        <ele>612.4970703125</ele>
        <time>2012-03-17T06:54:54Z</time>
      </trkpt>
      <trkpt lat="45.81457" lon="5.9122">
        <ele>612.4970703125</ele>
        <time>2012-03-17T06:54:56Z</time>
      </trkpt>
      <trkpt lat="45.81459" lon="5.91221">
        <ele>612.4970703125</ele>
        <time>2012-03-17T06:54:58Z</time>
      </trkpt>
      <trkpt lat="45.81459" lon="5.9122">
        <ele>612.4970703125</ele>
        <time>2012-03-17T06:55:04Z</time>
      </trkpt>
      <trkpt lat="45.8146" lon="5.91217">
        <ele>612.0166015625</ele>
        <time>2012-03-17T06:55:08Z</time>
      </trkpt>
      <trkpt lat="45.81453" lon="5.91218">
        <ele>612.4970703125</ele>
        <time>2012-03-17T06:55:12Z</time>
      </trkpt>
      <trkpt lat="45.81453" lon="5.91211">
        <ele>612.4970703125</ele>
        <time>2012-03-17T06:55:15Z</time>
      </trkpt>
      <trkpt lat="45.81454" lon="5.9121">
        <ele>612.4970703125</ele>
        <time>2012-03-17T06:55:16Z</time>
      </trkpt>
      <trkpt lat="45.81457" lon="5.91209">
        <ele>613.45849609375</ele>
        <time>2012-03-17T06:55:22Z</time>
      </trkpt>
      <trkpt lat="45.81457" lon="5.91209">
        <ele>613.93896484375</ele>
        <time>2012-03-17T06:55:29Z</time>
      </trkpt>
      <trkpt lat="45.81456" lon="5.91209">
        <ele>613.93896484375</ele>
        <time>2012-03-17T06:55:38Z</time>
      </trkpt>
      <trkpt lat="45.81458" lon="5.9121">
        <ele>613.93896484375</ele>
        <time>2012-03-17T06:55:44Z</time>
      </trkpt>
      <trkpt lat="45.81459" lon="5.9121">
        <ele>614.41967773438</ele>
        <time>2012-03-17T06:55:51Z</time>
      </trkpt>
      <trkpt lat="45.81459" lon="5.9121">
        <ele>614.41967773438</ele>
        <time>2012-03-17T06:55:56Z</time>
      </trkpt>
      <trkpt lat="45.81459" lon="5.91209">
        <ele>614.41967773438</ele>
        <time>2012-03-17T06:56:05Z</time>
      </trkpt>
      <trkpt lat="45.81459" lon="5.91209">
        <ele>614.41967773438</ele>
        <time>2012-03-17T06:56:16Z</time>
      </trkpt>
      <trkpt lat="45.81459" lon="5.91209">
        <ele>614.900390625</ele>
        <time>2012-03-17T06:56:32Z</time>
      </trkpt>
      <trkpt lat="45.81459" lon="5.91209">
        <ele>614.41967773438</ele>
        <time>2012-03-17T06:56:49Z</time>
      </trkpt>
      <trkpt lat="45.81459" lon="5.91208">
        <ele>614.41967773438</ele>
        <time>2012-03-17T06:56:54Z</time>
      </trkpt>
      <trkpt lat="45.81459" lon="5.91208">
        <ele>613.93896484375</ele>
        <time>2012-03-17T06:57:10Z</time>
      </trkpt>
      <trkpt lat="45.81459" lon="5.91208">
        <ele>614.41967773438</ele>
        <time>2012-03-17T06:57:19Z</time>
      </trkpt>
      <trkpt lat="45.81461" lon="5.91206">
        <ele>614.900390625</ele>
        <time>2012-03-17T06:57:23Z</time>
      </trkpt>
      <trkpt lat="45.81464" lon="5.91204">
        <ele>614.900390625</ele>
        <time>2012-03-17T06:57:25Z</time>
      </trkpt>
      <trkpt lat="45.81473" lon="5.91202">
        <ele>615.38110351562</ele>
        <time>2012-03-17T06:57:31Z</time>
      </trkpt>
      <trkpt lat="45.81483" lon="5.91198">
        <ele>616.34228515625</ele>
        <time>2012-03-17T06:57:39Z</time>
      </trkpt>
      <trkpt lat="45.81496" lon="5.91192">
        <ele>617.3037109375</ele>
        <time>2012-03-17T06:57:47Z</time>
      </trkpt>
      <trkpt lat="45.81501" lon="5.91189">
        <ele>617.7841796875</ele>
        <time>2012-03-17T06:57:50Z</time>
      </trkpt>
      <trkpt lat="45.81514" lon="5.91181">
        <ele>618.74560546875</ele>
        <time>2012-03-17T06:57:58Z</time>
      </trkpt>
      <trkpt lat="45.81526" lon="5.9116">
        <ele>620.66845703125</ele>
        <time>2012-03-17T06:58:07Z</time>
      </trkpt>
      <trkpt lat="45.81531" lon="5.91145">
        <ele>622.1103515625</ele>
        <time>2012-03-17T06:58:11Z</time>
      </trkpt>
      <trkpt lat="45.81532" lon="5.91132">
        <ele>623.07177734375</ele>
        <time>2012-03-17T06:58:15Z</time>
      </trkpt>
      <trkpt lat="45.81534" lon="5.9112">
        <ele>624.03295898438</ele>
        <time>2012-03-17T06:58:20Z</time>
      </trkpt>
      <trkpt lat="45.81543" lon="5.91101">
        <ele>624.99438476562</ele>
        <time>2012-03-17T06:58:29Z</time>
      </trkpt>
      <trkpt lat="45.81555" lon="5.91091">
        <ele>625.47485351562</ele>
        <time>2012-03-17T06:58:36Z</time>
      </trkpt>
      <trkpt lat="45.8157" lon="5.91081">
        <ele>626.9169921875</ele>
        <time>2012-03-17T06:58:44Z</time>
      </trkpt>
      <trkpt lat="45.81579" lon="5.91069">
        <ele>627.39770507812</ele>
        <time>2012-03-17T06:58:51Z</time>
      </trkpt>
      <trkpt lat="45.81583" lon="5.91059">
        <ele>627.39770507812</ele>
        <time>2012-03-17T06:58:56Z</time>
      </trkpt>
      <trkpt lat="45.81587" lon="5.91053">
        <ele>627.39770507812</ele>
        <time>2012-03-17T06:59:00Z</time>
      </trkpt>
      <trkpt lat="45.81591" lon="5.91046">
        <ele>627.87817382812</ele>
        <time>2012-03-17T06:59:06Z</time>
      </trkpt>
      <trkpt lat="45.81591" lon="5.91045">
        <ele>628.35888671875</ele>
        <time>2012-03-17T06:59:10Z</time>
      </trkpt>
      <trkpt lat="45.81592" lon="5.91046">
        <ele>628.83959960938</ele>
        <time>2012-03-17T06:59:16Z</time>
      </trkpt>
      <trkpt lat="45.81593" lon="5.91045">
        <ele>628.83959960938</ele>
        <time>2012-03-17T06:59:24Z</time>
      </trkpt>
      <trkpt lat="45.81592" lon="5.91046">
        <ele>629.32006835938</ele>
        <time>2012-03-17T06:59:31Z</time>
      </trkpt>
      <trkpt lat="45.81592" lon="5.91046">
        <ele>629.80078125</ele>
        <time>2012-03-17T06:59:37Z</time>
      </trkpt>
      <trkpt lat="45.81591" lon="5.91046">
        <ele>628.83959960938</ele>
        <time>2012-03-17T06:59:48Z</time>
      </trkpt>
      <trkpt lat="45.81591" lon="5.91046">
        <ele>628.35888671875</ele>
        <time>2012-03-17T06:59:55Z</time>
      </trkpt>
      <trkpt lat="45.81591" lon="5.91045">
        <ele>628.35888671875</ele>
        <time>2012-03-17T07:00:01Z</time>
      </trkpt>
      <trkpt lat="45.81592" lon="5.91045">
        <ele>628.35888671875</ele>
        <time>2012-03-17T07:00:09Z</time>
      </trkpt>
      <trkpt lat="45.81592" lon="5.91045">
        <ele>627.87817382812</ele>
        <time>2012-03-17T07:00:12Z</time>
      </trkpt>
      <trkpt lat="45.81592" lon="5.91045">
        <ele>627.87817382812</ele>
        <time>2012-03-17T07:00:17Z</time>
      </trkpt>
      <trkpt lat="45.81591" lon="5.91046">
        <ele>627.87817382812</ele>
        <time>2012-03-17T07:00:26Z</time>
      </trkpt>
      <trkpt lat="45.81591" lon="5.91046">
        <ele>627.87817382812</ele>
        <time>2012-03-17T07:00:29Z</time>
      </trkpt>
      <trkpt lat="45.81591" lon="5.91046">
        <ele>627.87817382812</ele>
        <time>2012-03-17T07:00:30Z</time>
      </trkpt>
      <trkpt lat="45.81592" lon="5.91045">
        <ele>628.83959960938</ele>
        <time>2012-03-17T07:00:37Z</time>
      </trkpt>
      <trkpt lat="45.81592" lon="5.91045">
        <ele>628.83959960938</ele>
        <time>2012-03-17T07:00:40Z</time>
      </trkpt>
      <trkpt lat="45.81592" lon="5.91046">
        <ele>628.83959960938</ele>
        <time>2012-03-17T07:00:42Z</time>
      </trkpt>
      <trkpt lat="45.81592" lon="5.91046">
        <ele>628.83959960938</ele>
        <time>2012-03-17T07:00:43Z</time>
      </trkpt>
      <trkpt lat="45.81592" lon="5.91046">
        <ele>629.32006835938</ele>
        <time>2012-03-17T07:00:52Z</time>
      </trkpt>
      <trkpt lat="45.81592" lon="5.91046">
        <ele>629.32006835938</ele>
        <time>2012-03-17T07:00:56Z</time>
      </trkpt>
      <trkpt lat="45.81591" lon="5.91045">
        <ele>628.83959960938</ele>
        <time>2012-03-17T07:01:03Z</time>
      </trkpt>
      <trkpt lat="45.81591" lon="5.91044">
        <ele>627.87817382812</ele>
        <time>2012-03-17T07:01:09Z</time>
      </trkpt>
      <trkpt lat="45.81591" lon="5.91043">
        <ele>628.35888671875</ele>
        <time>2012-03-17T07:01:12Z</time>
      </trkpt>
      <trkpt lat="45.81592" lon="5.91043">
        <ele>628.35888671875</ele>
        <time>2012-03-17T07:01:13Z</time>
      </trkpt>
      <trkpt lat="45.81593" lon="5.91043">
        <ele>628.35888671875</ele>
        <time>2012-03-17T07:01:23Z</time>
      </trkpt>
      <trkpt lat="45.81593" lon="5.91043">
        <ele>627.87817382812</ele>
        <time>2012-03-17T07:01:26Z</time>
      </trkpt>
      <trkpt lat="45.81593" lon="5.91043">
        <ele>627.87817382812</ele>
        <time>2012-03-17T07:01:33Z</time>
      </trkpt>
      <trkpt lat="45.81593" lon="5.91044">
        <ele>627.87817382812</ele>
        <time>2012-03-17T07:01:42Z</time>
      </trkpt>
      <trkpt lat="45.81593" lon="5.91044">
        <ele>627.39770507812</ele>
        <time>2012-03-17T07:01:47Z</time>
      </trkpt>
      <trkpt lat="45.81596" lon="5.9104">
        <ele>626.9169921875</ele>
        <time>2012-03-17T07:01:52Z</time>
      </trkpt>
      <trkpt lat="45.81608" lon="5.91031">
        <ele>626.43627929688</ele>
        <time>2012-03-17T07:01:58Z</time>
      </trkpt>
      <trkpt lat="45.81618" lon="5.91029">
        <ele>626.43627929688</ele>
        <time>2012-03-17T07:02:02Z</time>
      </trkpt>
      <trkpt lat="45.81638" lon="5.91028">
        <ele>626.9169921875</ele>
        <time>2012-03-17T07:02:10Z</time>
      </trkpt>
      <trkpt lat="45.81661" lon="5.91026">
        <ele>627.39770507812</ele>
        <time>2012-03-17T07:02:17Z</time>
      </trkpt>
      <trkpt lat="45.81681" lon="5.91022">
        <ele>627.39770507812</ele>
        <time>2012-03-17T07:02:24Z</time>
      </trkpt>
      <trkpt lat="45.81681" lon="5.9102">
        <ele>625.95556640625</ele>
        <time>2012-03-17T07:02:35Z</time>
      </trkpt>
      <trkpt lat="45.81683" lon="5.9102">
        <ele>625.47485351562</ele>
        <time>2012-03-17T07:02:38Z</time>
      </trkpt>
      <trkpt lat="45.81685" lon="5.9102">
        <ele>625.47485351562</ele>
        <time>2012-03-17T07:02:39Z</time>
      </trkpt>
      <trkpt lat="45.81693" lon="5.91018">
        <ele>624.513671875</ele>
        <time>2012-03-17T07:02:43Z</time>
      </trkpt>
      <trkpt lat="45.81716" lon="5.91015">
        <ele>622.59106445312</ele>
        <time>2012-03-17T07:02:51Z</time>
      </trkpt>
      <trkpt lat="45.81737" lon="5.91005">
        <ele>621.14916992188</ele>
        <time>2012-03-17T07:02:57Z</time>
      </trkpt>
      <trkpt lat="45.81744" lon="5.90988">
        <ele>620.66845703125</ele>
        <time>2012-03-17T07:03:01Z</time>
      </trkpt>
      <trkpt lat="45.81748" lon="5.90953">
        <ele>620.18774414062</ele>
        <time>2012-03-17T07:03:08Z</time>
      </trkpt>
      <trkpt lat="45.81749" lon="5.9094">
        <ele>620.66845703125</ele>
        <time>2012-03-17T07:03:12Z</time>
      </trkpt>
      <trkpt lat="45.81749" lon="5.90939">
        <ele>621.14916992188</ele>
        <time>2012-03-17T07:03:18Z</time>
      </trkpt>
      <trkpt lat="45.8175" lon="5.90928">
        <ele>620.66845703125</ele>
        <time>2012-03-17T07:03:22Z</time>
      </trkpt>
      <trkpt lat="45.81753" lon="5.90908">
        <ele>620.18774414062</ele>
        <time>2012-03-17T07:03:27Z</time>
      </trkpt>
      <trkpt lat="45.81754" lon="5.90904">
        <ele>620.18774414062</ele>
        <time>2012-03-17T07:03:28Z</time>
      </trkpt>
      <trkpt lat="45.81763" lon="5.90874">
        <ele>619.70703125</ele>
        <time>2012-03-17T07:03:36Z</time>
      </trkpt>
      <trkpt lat="45.81768" lon="5.90857">
        <ele>618.26489257812</ele>
        <time>2012-03-17T07:03:41Z</time>
      </trkpt>
      <trkpt lat="45.8177" lon="5.90844">
        <ele>617.3037109375</ele>
        <time>2012-03-17T07:03:44Z</time>
      </trkpt>
      <trkpt lat="45.8176" lon="5.90836">
        <ele>614.900390625</ele>
        <time>2012-03-17T07:03:48Z</time>
      </trkpt>
      <trkpt lat="45.81757" lon="5.90836">
        <ele>613.93896484375</ele>
        <time>2012-03-17T07:03:49Z</time>
      </trkpt>
      <trkpt lat="45.81731" lon="5.90832">
        <ele>607.69067382812</ele>
        <time>2012-03-17T07:03:56Z</time>
      </trkpt>
      <trkpt lat="45.81726" lon="5.90827">
        <ele>605.28735351562</ele>
        <time>2012-03-17T07:03:58Z</time>
      </trkpt>
      <trkpt lat="45.81728" lon="5.90815">
        <ele>598.07739257812</ele>
        <time>2012-03-17T07:04:02Z</time>
      </trkpt>
      <trkpt lat="45.81739" lon="5.90803">
        <ele>599.03857421875</ele>
        <time>2012-03-17T07:04:06Z</time>
      </trkpt>
      <trkpt lat="45.81742" lon="5.90801">
        <ele>598.55786132812</ele>
        <time>2012-03-17T07:04:07Z</time>
      </trkpt>
      <trkpt lat="45.81769" lon="5.90788">
        <ele>597.5966796875</ele>
        <time>2012-03-17T07:04:13Z</time>
      </trkpt>
      <trkpt lat="45.81785" lon="5.9078">
        <ele>597.5966796875</ele>
        <time>2012-03-17T07:04:17Z</time>
      </trkpt>
      <trkpt lat="45.81802" lon="5.90772">
        <ele>596.63549804688</ele>
        <time>2012-03-17T07:04:22Z</time>
      </trkpt>
      <trkpt lat="45.81821" lon="5.90764">
        <ele>594.71264648438</ele>
        <time>2012-03-17T07:04:26Z</time>
      </trkpt>
      <trkpt lat="45.8185" lon="5.90761">
        <ele>592.3095703125</ele>
        <time>2012-03-17T07:04:32Z</time>
      </trkpt>
      <trkpt lat="45.81878" lon="5.90752">
        <ele>592.79028320312</ele>
        <time>2012-03-17T07:04:37Z</time>
      </trkpt>
      <trkpt lat="45.81883" lon="5.9075">
        <ele>592.79028320312</ele>
        <time>2012-03-17T07:04:38Z</time>
      </trkpt>
      <trkpt lat="45.81904" lon="5.90752">
        <ele>592.3095703125</ele>
        <time>2012-03-17T07:04:42Z</time>
      </trkpt>
      <trkpt lat="45.81934" lon="5.90745">
        <ele>589.90625</ele>
        <time>2012-03-17T07:04:47Z</time>
      </trkpt>
      <trkpt lat="45.81943" lon="5.90741">
        <ele>587.9833984375</ele>
        <time>2012-03-17T07:04:49Z</time>
      </trkpt>
      <trkpt lat="45.81958" lon="5.90733">
        <ele>587.02197265625</ele>
        <time>2012-03-17T07:04:53Z</time>
      </trkpt>
      <trkpt lat="45.81975" lon="5.90731">
        <ele>587.02197265625</ele>
        <time>2012-03-17T07:04:58Z</time>
      </trkpt>
      <trkpt lat="45.81992" lon="5.90733">
        <ele>587.9833984375</ele>
        <time>2012-03-17T07:05:05Z</time>
      </trkpt>
      <trkpt lat="45.82006" lon="5.90734">
        <ele>587.9833984375</ele>
        <time>2012-03-17T07:05:08Z</time>
      </trkpt>
      <trkpt lat="45.82023" lon="5.90733">
        <ele>589.42553710938</ele>
        <time>2012-03-17T07:05:11Z</time>
      </trkpt>
      <trkpt lat="45.82042" lon="5.90729">
        <ele>585.580078125</ele>
        <time>2012-03-17T07:05:15Z</time>
      </trkpt>
      <trkpt lat="45.8205" lon="5.90729">
        <ele>585.099609375</ele>
        <time>2012-03-17T07:05:17Z</time>
      </trkpt>
      <trkpt lat="45.82071" lon="5.90732">
        <ele>583.1767578125</ele>
        <time>2012-03-17T07:05:23Z</time>
      </trkpt>
      <trkpt lat="45.82074" lon="5.90732">
        <ele>582.6962890625</ele>
        <time>2012-03-17T07:05:24Z</time>
      </trkpt>
      <trkpt lat="45.82089" lon="5.90732">
        <ele>583.65747070312</ele>
        <time>2012-03-17T07:05:28Z</time>
      </trkpt>
      <trkpt lat="45.82096" lon="5.90733">
        <ele>583.65747070312</ele>
        <time>2012-03-17T07:05:30Z</time>
      </trkpt>
      <trkpt lat="45.821" lon="5.90733">
        <ele>583.65747070312</ele>
        <time>2012-03-17T07:05:31Z</time>
      </trkpt>
      <trkpt lat="45.82122" lon="5.90726">
        <ele>589.42553710938</ele>
        <time>2012-03-17T07:05:37Z</time>
      </trkpt>
      <trkpt lat="45.82137" lon="5.90722">
        <ele>592.79028320312</ele>
        <time>2012-03-17T07:05:42Z</time>
      </trkpt>
      <trkpt lat="45.82149" lon="5.90719">
        <ele>592.3095703125</ele>
        <time>2012-03-17T07:05:47Z</time>
      </trkpt>
      <trkpt lat="45.82153" lon="5.90714">
        <ele>591.34814453125</ele>
        <time>2012-03-17T07:05:49Z</time>
      </trkpt>
      <trkpt lat="45.82146" lon="5.90695">
        <ele>584.13818359375</ele>
        <time>2012-03-17T07:05:53Z</time>
      </trkpt>
      <trkpt lat="45.82139" lon="5.90674">
        <ele>575.005859375</ele>
        <time>2012-03-17T07:05:57Z</time>
      </trkpt>
      <trkpt lat="45.82138" lon="5.90671">
        <ele>573.56396484375</ele>
        <time>2012-03-17T07:05:58Z</time>
      </trkpt>
      <trkpt lat="45.82146" lon="5.90655">
        <ele>569.71850585938</ele>
        <time>2012-03-17T07:06:01Z</time>
      </trkpt>
      <trkpt lat="45.82153" lon="5.90635">
        <ele>564.91186523438</ele>
        <time>2012-03-17T07:06:04Z</time>
      </trkpt>
      <trkpt lat="45.82165" lon="5.90634">
        <ele>557.7021484375</ele>
        <time>2012-03-17T07:06:08Z</time>
      </trkpt>
      <trkpt lat="45.82167" lon="5.90636">
        <ele>555.779296875</ele>
        <time>2012-03-17T07:06:09Z</time>
      </trkpt>
      <trkpt lat="45.82179" lon="5.90648">
        <ele>552.41455078125</ele>
        <time>2012-03-17T07:06:14Z</time>
      </trkpt>
      <trkpt lat="45.82197" lon="5.90659">
        <ele>551.45336914062</ele>
        <time>2012-03-17T07:06:19Z</time>
      </trkpt>
      <trkpt lat="45.82211" lon="5.90669">
        <ele>554.81787109375</ele>
        <time>2012-03-17T07:06:24Z</time>
      </trkpt>
      <trkpt lat="45.8222" lon="5.90676">
        <ele>554.81787109375</ele>
        <time>2012-03-17T07:06:27Z</time>
      </trkpt>
      <trkpt lat="45.82233" lon="5.90686">
        <ele>552.89526367188</ele>
        <time>2012-03-17T07:06:31Z</time>
      </trkpt>
      <trkpt lat="45.82247" lon="5.90696">
        <ele>552.41455078125</ele>
        <time>2012-03-17T07:06:36Z</time>
      </trkpt>
      <trkpt lat="45.82253" lon="5.907">
        <ele>551.93408203125</ele>
        <time>2012-03-17T07:06:39Z</time>
      </trkpt>
      <trkpt lat="45.82264" lon="5.90702">
        <ele>550.97265625</ele>
        <time>2012-03-17T07:06:45Z</time>
      </trkpt>
      <trkpt lat="45.82275" lon="5.90701">
        <ele>553.85668945312</ele>
        <time>2012-03-17T07:06:49Z</time>
      </trkpt>
      <trkpt lat="45.82284" lon="5.90697">
        <ele>556.26000976562</ele>
        <time>2012-03-17T07:06:52Z</time>
      </trkpt>
      <trkpt lat="45.82287" lon="5.90698">
        <ele>555.29858398438</ele>
        <time>2012-03-17T07:06:53Z</time>
      </trkpt>
      <trkpt lat="45.82305" lon="5.90702">
        <ele>560.10522460938</ele>
        <time>2012-03-17T07:06:59Z</time>
      </trkpt>
      <trkpt lat="45.8232" lon="5.90708">
        <ele>565.87329101562</ele>
        <time>2012-03-17T07:07:05Z</time>
      </trkpt>
      <trkpt lat="45.8233" lon="5.90715">
        <ele>563.95043945312</ele>
        <time>2012-03-17T07:07:11Z</time>
      </trkpt>
      <trkpt lat="45.82341" lon="5.90721">
        <ele>564.43115234375</ele>
        <time>2012-03-17T07:07:15Z</time>
      </trkpt>
      <trkpt lat="45.82349" lon="5.90726">
        <ele>565.392578125</ele>
        <time>2012-03-17T07:07:18Z</time>
      </trkpt>
      <trkpt lat="45.82355" lon="5.9073">
        <ele>565.392578125</ele>
        <time>2012-03-17T07:07:20Z</time>
      </trkpt>
      <trkpt lat="45.82358" lon="5.90731">
        <ele>566.35375976562</ele>
        <time>2012-03-17T07:07:21Z</time>
      </trkpt>
      <trkpt lat="45.82374" lon="5.90741">
        <ele>568.2763671875</ele>
        <time>2012-03-17T07:07:27Z</time>
      </trkpt>
      <trkpt lat="45.82387" lon="5.90747">
        <ele>569.23779296875</ele>
        <time>2012-03-17T07:07:32Z</time>
      </trkpt>
      <trkpt lat="45.82394" lon="5.9075">
        <ele>569.23779296875</ele>
        <time>2012-03-17T07:07:35Z</time>
      </trkpt>
      <trkpt lat="45.82414" lon="5.90754">
        <ele>568.2763671875</ele>
        <time>2012-03-17T07:07:41Z</time>
      </trkpt>
      <trkpt lat="45.82429" lon="5.90759">
        <ele>564.43115234375</ele>
        <time>2012-03-17T07:07:46Z</time>
      </trkpt>
      <trkpt lat="45.82457" lon="5.90769">
        <ele>559.14404296875</ele>
        <time>2012-03-17T07:07:56Z</time>
      </trkpt>
      <trkpt lat="45.82479" lon="5.90776">
        <ele>558.66333007812</ele>
        <time>2012-03-17T07:08:04Z</time>
      </trkpt>
      <trkpt lat="45.82504" lon="5.90784">
        <ele>559.14404296875</ele>
        <time>2012-03-17T07:08:14Z</time>
      </trkpt>
      <trkpt lat="45.82515" lon="5.90787">
        <ele>559.14404296875</ele>
        <time>2012-03-17T07:08:19Z</time>
      </trkpt>
      <trkpt lat="45.82529" lon="5.9079">
        <ele>558.18286132812</ele>
        <time>2012-03-17T07:08:23Z</time>
      </trkpt>
      <trkpt lat="45.82553" lon="5.90797">
        <ele>555.779296875</ele>
        <time>2012-03-17T07:08:29Z</time>
      </trkpt>
      <trkpt lat="45.82566" lon="5.90797">
        <ele>555.29858398438</ele>
        <time>2012-03-17T07:08:33Z</time>
      </trkpt>
      <trkpt lat="45.82588" lon="5.90798">
        <ele>554.81787109375</ele>
        <time>2012-03-17T07:08:38Z</time>
      </trkpt>
      <trkpt lat="45.82605" lon="5.90801">
        <ele>553.85668945312</ele>
        <time>2012-03-17T07:08:42Z</time>
      </trkpt>
      <trkpt lat="45.82618" lon="5.90804">
        <ele>552.89526367188</ele>
        <time>2012-03-17T07:08:45Z</time>
      </trkpt>
      <trkpt lat="45.82625" lon="5.90805">
        <ele>551.45336914062</ele>
        <time>2012-03-17T07:08:47Z</time>
      </trkpt>
      <trkpt lat="45.8265" lon="5.90812">
        <ele>549.05004882812</ele>
        <time>2012-03-17T07:08:54Z</time>
      </trkpt>
      <trkpt lat="45.82669" lon="5.90818">
        <ele>547.60815429688</ele>
        <time>2012-03-17T07:09:00Z</time>
      </trkpt>
      <trkpt lat="45.82691" lon="5.90821">
        <ele>546.64685058594</ele>
        <time>2012-03-17T07:09:08Z</time>
      </trkpt>
      <trkpt lat="45.82708" lon="5.90823">
        <ele>548.5693359375</ele>
        <time>2012-03-17T07:09:13Z</time>
      </trkpt>
      <trkpt lat="45.82716" lon="5.90826">
        <ele>548.0888671875</ele>
        <time>2012-03-17T07:09:18Z</time>
      </trkpt>
      <trkpt lat="45.82722" lon="5.90828">
        <ele>548.5693359375</ele>
        <time>2012-03-17T07:09:22Z</time>
      </trkpt>
      <trkpt lat="45.82723" lon="5.9083">
        <ele>549.05004882812</ele>
        <time>2012-03-17T07:09:23Z</time>
      </trkpt>
      <trkpt lat="45.82724" lon="5.90832">
        <ele>549.05004882812</ele>
        <time>2012-03-17T07:09:24Z</time>
      </trkpt>
      <trkpt lat="45.82728" lon="5.90833">
        <ele>549.53076171875</ele>
        <time>2012-03-17T07:09:26Z</time>
      </trkpt>
      <trkpt lat="45.82733" lon="5.90834">
        <ele>549.53076171875</ele>
        <time>2012-03-17T07:09:29Z</time>
      </trkpt>
      <trkpt lat="45.82729" lon="5.90833">
        <ele>548.0888671875</ele>
        <time>2012-03-17T07:09:34Z</time>
      </trkpt>
      <trkpt lat="45.82722" lon="5.90826">
        <ele>546.64685058594</ele>
        <time>2012-03-17T07:09:37Z</time>
      </trkpt>
      <trkpt lat="45.82719" lon="5.90806">
        <ele>544.24365234375</ele>
        <time>2012-03-17T07:09:41Z</time>
      </trkpt>
      <trkpt lat="45.82719" lon="5.90799">
        <ele>542.80151367188</ele>
        <time>2012-03-17T07:09:43Z</time>
      </trkpt>
      <trkpt lat="45.82735" lon="5.90794">
        <ele>540.87890625</ele>
        <time>2012-03-17T07:09:48Z</time>
      </trkpt>
      <trkpt lat="45.82749" lon="5.90792">
        <ele>539.43688964844</ele>
        <time>2012-03-17T07:09:51Z</time>
      </trkpt>
      <trkpt lat="45.82763" lon="5.90785">
        <ele>538.95629882812</ele>
        <time>2012-03-17T07:09:56Z</time>
      </trkpt>
      <trkpt lat="45.82771" lon="5.90771">
        <ele>537.51428222656</ele>
        <time>2012-03-17T07:10:02Z</time>
      </trkpt>
      <trkpt lat="45.8277" lon="5.90759">
        <ele>536.07238769531</ele>
        <time>2012-03-17T07:10:05Z</time>
      </trkpt>
      <trkpt lat="45.8276" lon="5.90737">
        <ele>533.18835449219</ele>
        <time>2012-03-17T07:10:10Z</time>
      </trkpt>
      <trkpt lat="45.82758" lon="5.90733">
        <ele>532.22705078125</ele>
        <time>2012-03-17T07:10:13Z</time>
      </trkpt>
      <trkpt lat="45.82756" lon="5.90724">
        <ele>532.22705078125</ele>
        <time>2012-03-17T07:10:18Z</time>
      </trkpt>
      <trkpt lat="45.82759" lon="5.90702">
        <ele>528.86254882812</ele>
        <time>2012-03-17T07:10:23Z</time>
      </trkpt>
      <trkpt lat="45.82763" lon="5.90674">
        <ele>524.53649902344</ele>
        <time>2012-03-17T07:10:28Z</time>
      </trkpt>
      <trkpt lat="45.82767" lon="5.90644">
        <ele>521.65258789062</ele>
        <time>2012-03-17T07:10:34Z</time>
      </trkpt>
      <trkpt lat="45.82771" lon="5.90621">
        <ele>520.21057128906</ele>
        <time>2012-03-17T07:10:39Z</time>
      </trkpt>
      <trkpt lat="45.82773" lon="5.90611">
        <ele>519.72985839844</ele>
        <time>2012-03-17T07:10:41Z</time>
      </trkpt>
      <trkpt lat="45.82776" lon="5.90595">
        <ele>518.28784179688</ele>
        <time>2012-03-17T07:10:44Z</time>
      </trkpt>
      <trkpt lat="45.82779" lon="5.90571">
        <ele>515.88464355469</ele>
        <time>2012-03-17T07:10:50Z</time>
      </trkpt>
      <trkpt lat="45.82778" lon="5.90551">
        <ele>511.55871582031</ele>
        <time>2012-03-17T07:10:56Z</time>
      </trkpt>
      <trkpt lat="45.82783" lon="5.90537">
        <ele>507.23278808594</ele>
        <time>2012-03-17T07:11:01Z</time>
      </trkpt>
      <trkpt lat="45.8279" lon="5.90519">
        <ele>503.38745117188</ele>
        <time>2012-03-17T07:11:06Z</time>
      </trkpt>
      <trkpt lat="45.82804" lon="5.90502">
        <ele>500.98413085938</ele>
        <time>2012-03-17T07:11:11Z</time>
      </trkpt>
      <trkpt lat="45.82819" lon="5.90504">
        <ele>499.54223632812</ele>
        <time>2012-03-17T07:11:15Z</time>
      </trkpt>
      <trkpt lat="45.8283" lon="5.90508">
        <ele>499.54223632812</ele>
        <time>2012-03-17T07:11:19Z</time>
      </trkpt>
      <trkpt lat="45.82838" lon="5.90509">
        <ele>500.02294921875</ele>
        <time>2012-03-17T07:11:24Z</time>
      </trkpt>
      <trkpt lat="45.82849" lon="5.90511">
        <ele>498.58093261719</ele>
        <time>2012-03-17T07:11:29Z</time>
      </trkpt>
      <trkpt lat="45.82859" lon="5.90513">
        <ele>497.61962890625</ele>
        <time>2012-03-17T07:11:33Z</time>
      </trkpt>
      <trkpt lat="45.82875" lon="5.9051">
        <ele>498.58093261719</ele>
        <time>2012-03-17T07:11:40Z</time>
      </trkpt>
      <trkpt lat="45.82887" lon="5.90511">
        <ele>498.58093261719</ele>
        <time>2012-03-17T07:11:44Z</time>
      </trkpt>
      <trkpt lat="45.82899" lon="5.90515">
        <ele>495.69689941406</ele>
        <time>2012-03-17T07:11:49Z</time>
      </trkpt>
      <trkpt lat="45.82907" lon="5.90517">
        <ele>493.29357910156</ele>
        <time>2012-03-17T07:11:52Z</time>
      </trkpt>
      <trkpt lat="45.82916" lon="5.90511">
        <ele>489.44836425781</ele>
        <time>2012-03-17T07:11:58Z</time>
      </trkpt>
      <trkpt lat="45.8292" lon="5.90507">
        <ele>488.9677734375</ele>
        <time>2012-03-17T07:12:02Z</time>
      </trkpt>
      <trkpt lat="45.82921" lon="5.90507">
        <ele>489.44836425781</ele>
        <time>2012-03-17T07:12:09Z</time>
      </trkpt>
      <trkpt lat="45.8292" lon="5.90507">
        <ele>488.48718261719</ele>
        <time>2012-03-17T07:12:16Z</time>
      </trkpt>
      <trkpt lat="45.82921" lon="5.90504">
        <ele>487.52563476562</ele>
        <time>2012-03-17T07:12:24Z</time>
      </trkpt>
      <trkpt lat="45.8292" lon="5.90503">
        <ele>484.64184570312</ele>
        <time>2012-03-17T07:12:31Z</time>
      </trkpt>
      <trkpt lat="45.8292" lon="5.90501">
        <ele>485.60302734375</ele>
        <time>2012-03-17T07:12:36Z</time>
      </trkpt>
      <trkpt lat="45.8292" lon="5.90501">
        <ele>485.60302734375</ele>
        <time>2012-03-17T07:12:40Z</time>
      </trkpt>
      <trkpt lat="45.82922" lon="5.90501">
        <ele>485.12243652344</ele>
        <time>2012-03-17T07:12:44Z</time>
      </trkpt>
      <trkpt lat="45.82925" lon="5.90501">
        <ele>484.64184570312</ele>
        <time>2012-03-17T07:12:50Z</time>
      </trkpt>
      <trkpt lat="45.8293" lon="5.90506">
        <ele>485.60302734375</ele>
        <time>2012-03-17T07:12:56Z</time>
      </trkpt>
      <trkpt lat="45.82932" lon="5.90508">
        <ele>485.12243652344</ele>
        <time>2012-03-17T07:13:00Z</time>
      </trkpt>
      <trkpt lat="45.82933" lon="5.90508">
        <ele>485.60302734375</ele>
        <time>2012-03-17T07:13:01Z</time>
      </trkpt>
      <trkpt lat="45.82941" lon="5.90505">
        <ele>480.79663085938</ele>
        <time>2012-03-17T07:13:07Z</time>
      </trkpt>
      <trkpt lat="45.82951" lon="5.90502">
        <ele>479.83508300781</ele>
        <time>2012-03-17T07:13:13Z</time>
      </trkpt>
      <trkpt lat="45.82953" lon="5.90495">
        <ele>475.98986816406</ele>
        <time>2012-03-17T07:13:18Z</time>
      </trkpt>
      <trkpt lat="45.82956" lon="5.90484">
        <ele>474.06726074219</ele>
        <time>2012-03-17T07:13:23Z</time>
      </trkpt>
      <trkpt lat="45.82958" lon="5.90458">
        <ele>472.62536621094</ele>
        <time>2012-03-17T07:13:30Z</time>
      </trkpt>
      <trkpt lat="45.82961" lon="5.90442">
        <ele>474.06726074219</ele>
        <time>2012-03-17T07:13:35Z</time>
      </trkpt>
      <trkpt lat="45.82961" lon="5.90443">
        <ele>473.10607910156</ele>
        <time>2012-03-17T07:13:38Z</time>
      </trkpt>
      <trkpt lat="45.82961" lon="5.90443">
        <ele>472.62536621094</ele>
        <time>2012-03-17T07:13:39Z</time>
      </trkpt>
      <trkpt lat="45.82959" lon="5.90444">
        <ele>470.22192382812</ele>
        <time>2012-03-17T07:13:47Z</time>
      </trkpt>
      <trkpt lat="45.8296" lon="5.90443">
        <ele>470.22192382812</ele>
        <time>2012-03-17T07:13:48Z</time>
      </trkpt>
      <trkpt lat="45.8297" lon="5.90444">
        <ele>468.78002929688</ele>
        <time>2012-03-17T07:13:52Z</time>
      </trkpt>
      <trkpt lat="45.8298" lon="5.90456">
        <ele>466.857421875</ele>
        <time>2012-03-17T07:13:56Z</time>
      </trkpt>
      <trkpt lat="45.83006" lon="5.9048">
        <ele>463.49279785156</ele>
        <time>2012-03-17T07:14:05Z</time>
      </trkpt>
      <trkpt lat="45.83016" lon="5.90488">
        <ele>463.49279785156</ele>
        <time>2012-03-17T07:14:09Z</time>
      </trkpt>
      <trkpt lat="45.83021" lon="5.90492">
        <ele>463.49279785156</ele>
        <time>2012-03-17T07:14:12Z</time>
      </trkpt>
      <trkpt lat="45.83027" lon="5.9049">
        <ele>463.01208496094</ele>
        <time>2012-03-17T07:14:16Z</time>
      </trkpt>
      <trkpt lat="45.8303" lon="5.90489">
        <ele>463.01208496094</ele>
        <time>2012-03-17T07:14:17Z</time>
      </trkpt>
      <trkpt lat="45.83032" lon="5.90489">
        <ele>463.01208496094</ele>
        <time>2012-03-17T07:14:18Z</time>
      </trkpt>
      <trkpt lat="45.83048" lon="5.90491">
        <ele>461.57019042969</ele>
        <time>2012-03-17T07:14:24Z</time>
      </trkpt>
      <trkpt lat="45.83065" lon="5.90499">
        <ele>460.60876464844</ele>
        <time>2012-03-17T07:14:31Z</time>
      </trkpt>
      <trkpt lat="45.83072" lon="5.905">
        <ele>461.08947753906</ele>
        <time>2012-03-17T07:14:35Z</time>
      </trkpt>
      <trkpt lat="45.83085" lon="5.90508">
        <ele>461.57019042969</ele>
        <time>2012-03-17T07:14:41Z</time>
      </trkpt>
      <trkpt lat="45.83089" lon="5.90515">
        <ele>460.12817382812</ele>
        <time>2012-03-17T07:14:45Z</time>
      </trkpt>
      <trkpt lat="45.8309" lon="5.90517">
        <ele>460.12817382812</ele>
        <time>2012-03-17T07:14:46Z</time>
      </trkpt>
      <trkpt lat="45.83096" lon="5.90518">
        <ele>460.60876464844</ele>
        <time>2012-03-17T07:14:50Z</time>
      </trkpt>
      <trkpt lat="45.83102" lon="5.90518">
        <ele>460.60876464844</ele>
        <time>2012-03-17T07:14:53Z</time>
      </trkpt>
      <trkpt lat="45.83116" lon="5.90523">
        <ele>463.97338867188</ele>
        <time>2012-03-17T07:15:01Z</time>
      </trkpt>
      <trkpt lat="45.83125" lon="5.90529">
        <ele>462.05078125</ele>
        <time>2012-03-17T07:15:07Z</time>
      </trkpt>
      <trkpt lat="45.83138" lon="5.90532">
        <ele>463.01208496094</ele>
        <time>2012-03-17T07:15:14Z</time>
      </trkpt>
      <trkpt lat="45.83151" lon="5.90534">
        <ele>460.60876464844</ele>
        <time>2012-03-17T07:15:21Z</time>
      </trkpt>
      <trkpt lat="45.83163" lon="5.90537">
        <ele>461.08947753906</ele>
        <time>2012-03-17T07:15:28Z</time>
      </trkpt>
      <trkpt lat="45.8317" lon="5.90534">
        <ele>462.05078125</ele>
        <time>2012-03-17T07:15:35Z</time>
      </trkpt>
      <trkpt lat="45.83169" lon="5.90532">
        <ele>464.93481445312</ele>
        <time>2012-03-17T07:15:41Z</time>
      </trkpt>
      <trkpt lat="45.83171" lon="5.90532">
        <ele>465.41552734375</ele>
        <time>2012-03-17T07:15:42Z</time>
      </trkpt>
      <trkpt lat="45.83181" lon="5.90532">
        <ele>465.41552734375</ele>
        <time>2012-03-17T07:15:49Z</time>
      </trkpt>
      <trkpt lat="45.83184" lon="5.90533">
        <ele>464.93481445312</ele>
        <time>2012-03-17T07:15:51Z</time>
      </trkpt>
      <trkpt lat="45.83197" lon="5.90539">
        <ele>462.05078125</ele>
        <time>2012-03-17T07:16:00Z</time>
      </trkpt>
      <trkpt lat="45.83199" lon="5.9054">
        <ele>461.57019042969</ele>
        <time>2012-03-17T07:16:02Z</time>
      </trkpt>
      <trkpt lat="45.83206" lon="5.90543">
        <ele>461.57019042969</ele>
        <time>2012-03-17T07:16:06Z</time>
      </trkpt>
      <trkpt lat="45.83222" lon="5.90553">
        <ele>459.16687011719</ele>
        <time>2012-03-17T07:16:14Z</time>
      </trkpt>
      <trkpt lat="45.83234" lon="5.90562">
        <ele>457.24426269531</ele>
        <time>2012-03-17T07:16:20Z</time>
      </trkpt>
      <trkpt lat="45.83245" lon="5.90569">
        <ele>457.24426269531</ele>
        <time>2012-03-17T07:16:25Z</time>
      </trkpt>
      <trkpt lat="45.83256" lon="5.90575">
        <ele>455.80224609375</ele>
        <time>2012-03-17T07:16:30Z</time>
      </trkpt>
      <trkpt lat="45.83263" lon="5.90579">
        <ele>453.39892578125</ele>
        <time>2012-03-17T07:16:35Z</time>
      </trkpt>
      <trkpt lat="45.8327" lon="5.90582">
        <ele>456.28295898438</ele>
        <time>2012-03-17T07:16:43Z</time>
      </trkpt>
      <trkpt lat="45.83284" lon="5.90581">
        <ele>455.80224609375</ele>
        <time>2012-03-17T07:16:47Z</time>
      </trkpt>
      <trkpt lat="45.83307" lon="5.90587">
        <ele>455.32153320312</ele>
        <time>2012-03-17T07:16:53Z</time>
      </trkpt>
      <trkpt lat="45.83321" lon="5.90594">
        <ele>454.36022949219</ele>
        <time>2012-03-17T07:16:58Z</time>
      </trkpt>
      <trkpt lat="45.8334" lon="5.90594">
        <ele>452.91821289062</ele>
        <time>2012-03-17T07:17:03Z</time>
      </trkpt>
      <trkpt lat="45.83351" lon="5.90586">
        <ele>452.91821289062</ele>
        <time>2012-03-17T07:17:08Z</time>
      </trkpt>
      <trkpt lat="45.83355" lon="5.90584">
        <ele>453.39892578125</ele>
        <time>2012-03-17T07:17:10Z</time>
      </trkpt>
      <trkpt lat="45.83361" lon="5.90582">
        <ele>452.43762207031</ele>
        <time>2012-03-17T07:17:12Z</time>
      </trkpt>
      <trkpt lat="45.83367" lon="5.90581">
        <ele>451.47631835938</ele>
        <time>2012-03-17T07:17:14Z</time>
      </trkpt>
      <trkpt lat="45.83369" lon="5.90579">
        <ele>450.99560546875</ele>
        <time>2012-03-17T07:17:15Z</time>
      </trkpt>
      <trkpt lat="45.83372" lon="5.90575">
        <ele>449.5537109375</ele>
        <time>2012-03-17T07:17:17Z</time>
      </trkpt>
      <trkpt lat="45.83373" lon="5.90571">
        <ele>448.59240722656</ele>
        <time>2012-03-17T07:17:19Z</time>
      </trkpt>
      <trkpt lat="45.83371" lon="5.90556">
        <ele>449.07299804688</ele>
        <time>2012-03-17T07:17:25Z</time>
      </trkpt>
      <trkpt lat="45.83371" lon="5.9054">
        <ele>449.5537109375</ele>
        <time>2012-03-17T07:17:31Z</time>
      </trkpt>
      <trkpt lat="45.83371" lon="5.90531">
        <ele>451.95703125</ele>
        <time>2012-03-17T07:17:37Z</time>
      </trkpt>
      <trkpt lat="45.83368" lon="5.90534">
        <ele>446.18908691406</ele>
        <time>2012-03-17T07:17:43Z</time>
      </trkpt>
      <trkpt lat="45.83367" lon="5.90538">
        <ele>443.30505371094</ele>
        <time>2012-03-17T07:17:48Z</time>
      </trkpt>
      <trkpt lat="45.83366" lon="5.90535">
        <ele>445.22766113281</ele>
        <time>2012-03-17T07:18:11Z</time>
      </trkpt>
      <trkpt lat="45.83364" lon="5.90537">
        <ele>442.34387207031</ele>
        <time>2012-03-17T07:18:14Z</time>
      </trkpt>
      <trkpt lat="45.83363" lon="5.90537">
        <ele>441.86315917969</ele>
        <time>2012-03-17T07:18:15Z</time>
      </trkpt>
      <trkpt lat="45.83363" lon="5.90536">
        <ele>441.38244628906</ele>
        <time>2012-03-17T07:18:20Z</time>
      </trkpt>
      <trkpt lat="45.83363" lon="5.90536">
        <ele>441.38244628906</ele>
        <time>2012-03-17T07:18:21Z</time>
      </trkpt>
      <trkpt lat="45.83363" lon="5.90535">
        <ele>441.86315917969</ele>
        <time>2012-03-17T07:18:28Z</time>
      </trkpt>
      <trkpt lat="45.83363" lon="5.90534">
        <ele>448.59240722656</ele>
        <time>2012-03-17T07:18:51Z</time>
      </trkpt>
      <trkpt lat="45.83367" lon="5.90537">
        <ele>450.51501464844</ele>
        <time>2012-03-17T07:19:22Z</time>
      </trkpt>
      <trkpt lat="45.83365" lon="5.90534">
        <ele>447.15026855469</ele>
        <time>2012-03-17T07:19:29Z</time>
      </trkpt>
      <trkpt lat="45.83361" lon="5.90523">
        <ele>447.15026855469</ele>
        <time>2012-03-17T07:19:36Z</time>
      </trkpt>
      <trkpt lat="45.83361" lon="5.90522">
        <ele>447.15026855469</ele>
        <time>2012-03-17T07:19:37Z</time>
      </trkpt>
      <trkpt lat="45.8336" lon="5.90516">
        <ele>447.15026855469</ele>
        <time>2012-03-17T07:19:41Z</time>
      </trkpt>
      <trkpt lat="45.8336" lon="5.90514">
        <ele>447.15026855469</ele>
        <time>2012-03-17T07:19:42Z</time>
      </trkpt>
      <trkpt lat="45.83359" lon="5.90513">
        <ele>448.11181640625</ele>
        <time>2012-03-17T07:19:43Z</time>
      </trkpt>
      <trkpt lat="45.83356" lon="5.90501">
        <ele>451.95703125</ele>
        <time>2012-03-17T07:19:49Z</time>
      </trkpt>
      <trkpt lat="45.83358" lon="5.90492">
        <ele>450.99560546875</ele>
        <time>2012-03-17T07:19:54Z</time>
      </trkpt>
      <trkpt lat="45.83364" lon="5.90488">
        <ele>450.99560546875</ele>
        <time>2012-03-17T07:19:59Z</time>
      </trkpt>
      <trkpt lat="45.83381" lon="5.90487">
        <ele>452.43762207031</ele>
        <time>2012-03-17T07:20:06Z</time>
      </trkpt>
      <trkpt lat="45.83393" lon="5.90484">
        <ele>454.36022949219</ele>
        <time>2012-03-17T07:20:11Z</time>
      </trkpt>
      <trkpt lat="45.83407" lon="5.90475">
        <ele>451.47631835938</ele>
        <time>2012-03-17T07:20:16Z</time>
      </trkpt>
      <trkpt lat="45.83421" lon="5.90468">
        <ele>449.5537109375</ele>
        <time>2012-03-17T07:20:21Z</time>
      </trkpt>
      <trkpt lat="45.83429" lon="5.90463">
        <ele>448.11181640625</ele>
        <time>2012-03-17T07:20:24Z</time>
      </trkpt>
      <trkpt lat="45.83438" lon="5.90459">
        <ele>447.15026855469</ele>
        <time>2012-03-17T07:20:27Z</time>
      </trkpt>
      <trkpt lat="45.83451" lon="5.90459">
        <ele>445.22766113281</ele>
        <time>2012-03-17T07:20:32Z</time>
      </trkpt>
      <trkpt lat="45.83453" lon="5.90458">
        <ele>444.26647949219</ele>
        <time>2012-03-17T07:20:37Z</time>
      </trkpt>
      <trkpt lat="45.83454" lon="5.90457">
        <ele>445.22766113281</ele>
        <time>2012-03-17T07:20:41Z</time>
      </trkpt>
      <trkpt lat="45.83453" lon="5.90454">
        <ele>443.78576660156</ele>
        <time>2012-03-17T07:20:50Z</time>
      </trkpt>
      <trkpt lat="45.8345" lon="5.90446">
        <ele>447.15026855469</ele>
        <time>2012-03-17T07:21:08Z</time>
      </trkpt>
      <trkpt lat="45.83453" lon="5.90447">
        <ele>448.59240722656</ele>
        <time>2012-03-17T07:21:15Z</time>
      </trkpt>
      <trkpt lat="45.83455" lon="5.90451">
        <ele>447.15026855469</ele>
        <time>2012-03-17T07:21:19Z</time>
      </trkpt>
      <trkpt lat="45.83455" lon="5.90451">
        <ele>446.66967773438</ele>
        <time>2012-03-17T07:21:21Z</time>
      </trkpt>
      <trkpt lat="45.83455" lon="5.90451">
        <ele>446.18908691406</ele>
        <time>2012-03-17T07:21:22Z</time>
      </trkpt>
      <trkpt lat="45.83455" lon="5.90451">
        <ele>446.18908691406</ele>
        <time>2012-03-17T07:21:23Z</time>
      </trkpt>
      <trkpt lat="45.83455" lon="5.90451">
        <ele>445.70837402344</ele>
        <time>2012-03-17T07:21:27Z</time>
      </trkpt>
      <trkpt lat="45.83456" lon="5.9045">
        <ele>446.18908691406</ele>
        <time>2012-03-17T07:21:32Z</time>
      </trkpt>
      <trkpt lat="45.83456" lon="5.9045">
        <ele>446.18908691406</ele>
        <time>2012-03-17T07:21:34Z</time>
      </trkpt>
      <trkpt lat="45.83456" lon="5.9045">
        <ele>446.18908691406</ele>
        <time>2012-03-17T07:21:37Z</time>
      </trkpt>
      <trkpt lat="45.83456" lon="5.90449">
        <ele>445.22766113281</ele>
        <time>2012-03-17T07:21:48Z</time>
      </trkpt>
      <trkpt lat="45.8346" lon="5.90442">
        <ele>442.82446289062</ele>
        <time>2012-03-17T07:21:54Z</time>
      </trkpt>
      <trkpt lat="45.83461" lon="5.90441">
        <ele>442.34387207031</ele>
        <time>2012-03-17T07:21:55Z</time>
      </trkpt>
      <trkpt lat="45.83474" lon="5.90435">
        <ele>441.38244628906</ele>
        <time>2012-03-17T07:22:01Z</time>
      </trkpt>
      <trkpt lat="45.8348" lon="5.90423">
        <ele>443.30505371094</ele>
        <time>2012-03-17T07:22:05Z</time>
      </trkpt>
      <trkpt lat="45.8348" lon="5.90403">
        <ele>447.15026855469</ele>
        <time>2012-03-17T07:22:13Z</time>
      </trkpt>
      <trkpt lat="45.8348" lon="5.90397">
        <ele>448.11181640625</ele>
        <time>2012-03-17T07:22:16Z</time>
      </trkpt>
      <trkpt lat="45.83477" lon="5.90384">
        <ele>451.47631835938</ele>
        <time>2012-03-17T07:22:22Z</time>
      </trkpt>
      <trkpt lat="45.83477" lon="5.90374">
        <ele>454.36022949219</ele>
        <time>2012-03-17T07:22:26Z</time>
      </trkpt>
      <trkpt lat="45.83477" lon="5.90368">
        <ele>455.80224609375</ele>
        <time>2012-03-17T07:22:28Z</time>
      </trkpt>
      <trkpt lat="45.83474" lon="5.90356">
        <ele>457.72497558594</ele>
        <time>2012-03-17T07:22:34Z</time>
      </trkpt>
      <trkpt lat="45.83468" lon="5.90345">
        <ele>457.24426269531</ele>
        <time>2012-03-17T07:22:40Z</time>
      </trkpt>
      <trkpt lat="45.83463" lon="5.90331">
        <ele>458.20556640625</ele>
        <time>2012-03-17T07:22:47Z</time>
      </trkpt>
      <trkpt lat="45.83456" lon="5.90316">
        <ele>459.16687011719</ele>
        <time>2012-03-17T07:22:55Z</time>
      </trkpt>
      <trkpt lat="45.83449" lon="5.90299">
        <ele>460.60876464844</ele>
        <time>2012-03-17T07:23:04Z</time>
      </trkpt>
      <trkpt lat="45.83444" lon="5.90279">
        <ele>465.89611816406</ele>
        <time>2012-03-17T07:23:14Z</time>
      </trkpt>
      <trkpt lat="45.83437" lon="5.90264">
        <ele>467.81872558594</ele>
        <time>2012-03-17T07:23:22Z</time>
      </trkpt>
      <trkpt lat="45.8343" lon="5.90247">
        <ele>468.29931640625</ele>
        <time>2012-03-17T07:23:31Z</time>
      </trkpt>
      <trkpt lat="45.83424" lon="5.90233">
        <ele>467.33813476562</ele>
        <time>2012-03-17T07:23:39Z</time>
      </trkpt>
      <trkpt lat="45.83421" lon="5.9022">
        <ele>465.89611816406</ele>
        <time>2012-03-17T07:23:47Z</time>
      </trkpt>
      <trkpt lat="45.8342" lon="5.90214">
        <ele>466.857421875</ele>
        <time>2012-03-17T07:23:50Z</time>
      </trkpt>
      <trkpt lat="45.83417" lon="5.902">
        <ele>471.18334960938</ele>
        <time>2012-03-17T07:23:57Z</time>
      </trkpt>
      <trkpt lat="45.83417" lon="5.90198">
        <ele>471.66394042969</ele>
        <time>2012-03-17T07:23:58Z</time>
      </trkpt>
      <trkpt lat="45.83414" lon="5.90184">
        <ele>474.06726074219</ele>
        <time>2012-03-17T07:24:05Z</time>
      </trkpt>
      <trkpt lat="45.83408" lon="5.90167">
        <ele>476.95129394531</ele>
        <time>2012-03-17T07:24:13Z</time>
      </trkpt>
      <trkpt lat="45.83404" lon="5.90152">
        <ele>479.3544921875</ele>
        <time>2012-03-17T07:24:20Z</time>
      </trkpt>
      <trkpt lat="45.83401" lon="5.90141">
        <ele>476.95129394531</ele>
        <time>2012-03-17T07:24:26Z</time>
      </trkpt>
      <trkpt lat="45.83398" lon="5.90129">
        <ele>473.10607910156</ele>
        <time>2012-03-17T07:24:33Z</time>
      </trkpt>
      <trkpt lat="45.83399" lon="5.90111">
        <ele>472.14465332031</ele>
        <time>2012-03-17T07:24:42Z</time>
      </trkpt>
      <trkpt lat="45.83399" lon="5.90097">
        <ele>470.22192382812</ele>
        <time>2012-03-17T07:24:50Z</time>
      </trkpt>
      <trkpt lat="45.83399" lon="5.90081">
        <ele>468.29931640625</ele>
        <time>2012-03-17T07:24:58Z</time>
      </trkpt>
      <trkpt lat="45.83398" lon="5.90066">
        <ele>470.22192382812</ele>
        <time>2012-03-17T07:25:04Z</time>
      </trkpt>
      <trkpt lat="45.83396" lon="5.90045">
        <ele>472.14465332031</ele>
        <time>2012-03-17T07:25:13Z</time>
      </trkpt>
      <trkpt lat="45.83395" lon="5.90027">
        <ele>473.10607910156</ele>
        <time>2012-03-17T07:25:21Z</time>
      </trkpt>
      <trkpt lat="45.83396" lon="5.90019">
        <ele>473.58666992188</ele>
        <time>2012-03-17T07:25:25Z</time>
      </trkpt>
      <trkpt lat="45.83394" lon="5.9001">
        <ele>474.54797363281</ele>
        <time>2012-03-17T07:25:30Z</time>
      </trkpt>
      <trkpt lat="45.83393" lon="5.89995">
        <ele>474.54797363281</ele>
        <time>2012-03-17T07:25:38Z</time>
      </trkpt>
      <trkpt lat="45.83393" lon="5.89987">
        <ele>474.06726074219</ele>
        <time>2012-03-17T07:25:42Z</time>
      </trkpt>
      <trkpt lat="45.83388" lon="5.89969">
        <ele>476.95129394531</ele>
        <time>2012-03-17T07:25:51Z</time>
      </trkpt>
      <trkpt lat="45.83384" lon="5.89958">
        <ele>480.79663085938</ele>
        <time>2012-03-17T07:25:58Z</time>
      </trkpt>
      <trkpt lat="45.8338" lon="5.8994">
        <ele>484.64184570312</ele>
        <time>2012-03-17T07:26:07Z</time>
      </trkpt>
      <trkpt lat="45.83375" lon="5.89923">
        <ele>487.04504394531</ele>
        <time>2012-03-17T07:26:16Z</time>
      </trkpt>
      <trkpt lat="45.8337" lon="5.8991">
        <ele>489.44836425781</ele>
        <time>2012-03-17T07:26:23Z</time>
      </trkpt>
      <trkpt lat="45.83363" lon="5.89896">
        <ele>490.89038085938</ele>
        <time>2012-03-17T07:26:31Z</time>
      </trkpt>
      <trkpt lat="45.83362" lon="5.89886">
        <ele>491.37097167969</ele>
        <time>2012-03-17T07:26:37Z</time>
      </trkpt>
      <trkpt lat="45.83363" lon="5.89869">
        <ele>493.29357910156</ele>
        <time>2012-03-17T07:26:45Z</time>
      </trkpt>
      <trkpt lat="45.83364" lon="5.89867">
        <ele>493.77429199219</ele>
        <time>2012-03-17T07:26:46Z</time>
      </trkpt>
      <trkpt lat="45.83372" lon="5.89865">
        <ele>496.177734375</ele>
        <time>2012-03-17T07:26:53Z</time>
      </trkpt>
      <trkpt lat="45.83374" lon="5.89868">
        <ele>495.69689941406</ele>
        <time>2012-03-17T07:26:55Z</time>
      </trkpt>
      <trkpt lat="45.83381" lon="5.8987">
        <ele>499.0615234375</ele>
        <time>2012-03-17T07:26:58Z</time>
      </trkpt>
      <trkpt lat="45.8339" lon="5.89883">
        <ele>498.10034179688</ele>
        <time>2012-03-17T07:27:07Z</time>
      </trkpt>
      <trkpt lat="45.83398" lon="5.89895">
        <ele>497.61962890625</ele>
        <time>2012-03-17T07:27:15Z</time>
      </trkpt>
      <trkpt lat="45.83406" lon="5.89901">
        <ele>498.58093261719</ele>
        <time>2012-03-17T07:27:21Z</time>
      </trkpt>
      <trkpt lat="45.83412" lon="5.89894">
        <ele>499.54223632812</ele>
        <time>2012-03-17T07:27:27Z</time>
      </trkpt>
      <trkpt lat="45.83406" lon="5.8988">
        <ele>500.50354003906</ele>
        <time>2012-03-17T07:27:35Z</time>
      </trkpt>
      <trkpt lat="45.83398" lon="5.89871">
        <ele>501.94555664062</ele>
        <time>2012-03-17T07:27:41Z</time>
      </trkpt>
      <trkpt lat="45.83391" lon="5.89862">
        <ele>503.38745117188</ele>
        <time>2012-03-17T07:27:48Z</time>
      </trkpt>
      <trkpt lat="45.8339" lon="5.89849">
        <ele>504.34887695312</ele>
        <time>2012-03-17T07:27:54Z</time>
      </trkpt>
      <trkpt lat="45.83391" lon="5.89847">
        <ele>504.82946777344</ele>
        <time>2012-03-17T07:27:55Z</time>
      </trkpt>
      <trkpt lat="45.83397" lon="5.89843">
        <ele>506.271484375</ele>
        <time>2012-03-17T07:27:59Z</time>
      </trkpt>
      <trkpt lat="45.83414" lon="5.8984">
        <ele>508.19409179688</ele>
        <time>2012-03-17T07:28:09Z</time>
      </trkpt>
      <trkpt lat="45.83427" lon="5.89839">
        <ele>509.15539550781</ele>
        <time>2012-03-17T07:28:17Z</time>
      </trkpt>
      <trkpt lat="45.83445" lon="5.8984">
        <ele>510.11669921875</ele>
        <time>2012-03-17T07:28:27Z</time>
      </trkpt>
      <trkpt lat="45.83458" lon="5.89847">
        <ele>511.07800292969</ele>
        <time>2012-03-17T07:28:36Z</time>
      </trkpt>
      <trkpt lat="45.83471" lon="5.89861">
        <ele>513.00073242188</ele>
        <time>2012-03-17T07:28:46Z</time>
      </trkpt>
      <trkpt lat="45.83481" lon="5.89874">
        <ele>513.96203613281</ele>
        <time>2012-03-17T07:28:55Z</time>
      </trkpt>
      <trkpt lat="45.83488" lon="5.89886">
        <ele>514.92333984375</ele>
        <time>2012-03-17T07:29:02Z</time>
      </trkpt>
      <trkpt lat="45.83496" lon="5.89898">
        <ele>515.88464355469</ele>
        <time>2012-03-17T07:29:10Z</time>
      </trkpt>
      <trkpt lat="45.83503" lon="5.89911">
        <ele>517.32666015625</ele>
        <time>2012-03-17T07:29:17Z</time>
      </trkpt>
      <trkpt lat="45.83512" lon="5.89924">
        <ele>518.7685546875</ele>
        <time>2012-03-17T07:29:25Z</time>
      </trkpt>
      <trkpt lat="45.83524" lon="5.8993">
        <ele>520.69128417969</ele>
        <time>2012-03-17T07:29:33Z</time>
      </trkpt>
      <trkpt lat="45.83538" lon="5.89925">
        <ele>522.61389160156</ele>
        <time>2012-03-17T07:29:42Z</time>
      </trkpt>
      <trkpt lat="45.83548" lon="5.89912">
        <ele>524.05578613281</ele>
        <time>2012-03-17T07:29:50Z</time>
      </trkpt>
      <trkpt lat="45.83548" lon="5.89903">
        <ele>524.53649902344</ele>
        <time>2012-03-17T07:29:54Z</time>
      </trkpt>
      <trkpt lat="45.83541" lon="5.89886">
        <ele>525.97839355469</ele>
        <time>2012-03-17T07:30:02Z</time>
      </trkpt>
      <trkpt lat="45.83533" lon="5.89874">
        <ele>526.93981933594</ele>
        <time>2012-03-17T07:30:09Z</time>
      </trkpt>
      <trkpt lat="45.83523" lon="5.89856">
        <ele>527.42041015625</ele>
        <time>2012-03-17T07:30:18Z</time>
      </trkpt>
      <trkpt lat="45.83514" lon="5.8983">
        <ele>529.82373046875</ele>
        <time>2012-03-17T07:30:30Z</time>
      </trkpt>
      <trkpt lat="45.8351" lon="5.89814">
        <ele>531.26574707031</ele>
        <time>2012-03-17T07:30:37Z</time>
      </trkpt>
      <trkpt lat="45.83506" lon="5.898">
        <ele>532.70776367188</ele>
        <time>2012-03-17T07:30:44Z</time>
      </trkpt>
      <trkpt lat="45.83501" lon="5.89781">
        <ele>534.63037109375</ele>
        <time>2012-03-17T07:30:53Z</time>
      </trkpt>
      <trkpt lat="45.83497" lon="5.89769">
        <ele>535.11096191406</ele>
        <time>2012-03-17T07:30:59Z</time>
      </trkpt>
      <trkpt lat="45.83489" lon="5.89753">
        <ele>536.07238769531</ele>
        <time>2012-03-17T07:31:08Z</time>
      </trkpt>
      <trkpt lat="45.8348" lon="5.89743">
        <ele>537.51428222656</ele>
        <time>2012-03-17T07:31:15Z</time>
      </trkpt>
      <trkpt lat="45.83469" lon="5.89727">
        <ele>537.51428222656</ele>
        <time>2012-03-17T07:31:26Z</time>
      </trkpt>
      <trkpt lat="45.83464" lon="5.89715">
        <ele>538.47570800781</ele>
        <time>2012-03-17T07:31:33Z</time>
      </trkpt>
      <trkpt lat="45.83465" lon="5.8971">
        <ele>538.95629882812</ele>
        <time>2012-03-17T07:31:36Z</time>
      </trkpt>
      <trkpt lat="45.83462" lon="5.89711">
        <ele>539.43688964844</ele>
        <time>2012-03-17T07:31:42Z</time>
      </trkpt>
      <trkpt lat="45.83468" lon="5.8971">
        <ele>539.91760253906</ele>
        <time>2012-03-17T07:31:45Z</time>
      </trkpt>
      <trkpt lat="45.83472" lon="5.89705">
        <ele>540.39831542969</ele>
        <time>2012-03-17T07:31:48Z</time>
      </trkpt>
      <trkpt lat="45.83476" lon="5.89705">
        <ele>540.87890625</ele>
        <time>2012-03-17T07:31:51Z</time>
      </trkpt>
      <trkpt lat="45.83489" lon="5.89706">
        <ele>541.35949707031</ele>
        <time>2012-03-17T07:32:00Z</time>
      </trkpt>
      <trkpt lat="45.83503" lon="5.89713">
        <ele>541.35949707031</ele>
        <time>2012-03-17T07:32:09Z</time>
      </trkpt>
      <trkpt lat="45.83514" lon="5.89717">
        <ele>543.28210449219</ele>
        <time>2012-03-17T07:32:16Z</time>
      </trkpt>
      <trkpt lat="45.83524" lon="5.89723">
        <ele>544.72424316406</ele>
        <time>2012-03-17T07:32:23Z</time>
      </trkpt>
      <trkpt lat="45.83533" lon="5.89729">
        <ele>545.685546875</ele>
        <time>2012-03-17T07:32:30Z</time>
      </trkpt>
      <trkpt lat="45.83546" lon="5.89736">
        <ele>547.12744140625</ele>
        <time>2012-03-17T07:32:38Z</time>
      </trkpt>
      <trkpt lat="45.83546" lon="5.89736">
        <ele>547.60815429688</ele>
        <time>2012-03-17T07:32:54Z</time>
      </trkpt>
      <trkpt lat="45.8355" lon="5.89737">
        <ele>548.0888671875</ele>
        <time>2012-03-17T07:33:00Z</time>
      </trkpt>
      <trkpt lat="45.83562" lon="5.89743">
        <ele>549.53076171875</ele>
        <time>2012-03-17T07:33:07Z</time>
      </trkpt>
      <trkpt lat="45.83576" lon="5.8975">
        <ele>550.4921875</ele>
        <time>2012-03-17T07:33:15Z</time>
      </trkpt>
      <trkpt lat="45.83591" lon="5.89757">
        <ele>551.93408203125</ele>
        <time>2012-03-17T07:33:23Z</time>
      </trkpt>
      <trkpt lat="45.83607" lon="5.89764">
        <ele>553.3759765625</ele>
        <time>2012-03-17T07:33:32Z</time>
      </trkpt>
      <trkpt lat="45.83625" lon="5.89773">
        <ele>554.81787109375</ele>
        <time>2012-03-17T07:33:41Z</time>
      </trkpt>
      <trkpt lat="45.83635" lon="5.89778">
        <ele>555.29858398438</ele>
        <time>2012-03-17T07:33:46Z</time>
      </trkpt>
      <trkpt lat="45.83649" lon="5.89782">
        <ele>556.26000976562</ele>
        <time>2012-03-17T07:33:53Z</time>
      </trkpt>
      <trkpt lat="45.83664" lon="5.89787">
        <ele>557.7021484375</ele>
        <time>2012-03-17T07:34:01Z</time>
      </trkpt>
      <trkpt lat="45.83676" lon="5.89788">
        <ele>558.18286132812</ele>
        <time>2012-03-17T07:34:07Z</time>
      </trkpt>
      <trkpt lat="45.83689" lon="5.89786">
        <ele>560.10522460938</ele>
        <time>2012-03-17T07:34:14Z</time>
      </trkpt>
      <trkpt lat="45.83693" lon="5.89775">
        <ele>560.5859375</ele>
        <time>2012-03-17T07:34:19Z</time>
      </trkpt>
      <trkpt lat="45.83692" lon="5.89769">
        <ele>561.06665039062</ele>
        <time>2012-03-17T07:34:22Z</time>
      </trkpt>
      <trkpt lat="45.83681" lon="5.89757">
        <ele>563.46997070312</ele>
        <time>2012-03-17T07:34:30Z</time>
      </trkpt>
      <trkpt lat="45.83669" lon="5.89753">
        <ele>564.91186523438</ele>
        <time>2012-03-17T07:34:38Z</time>
      </trkpt>
      <trkpt lat="45.83655" lon="5.89748">
        <ele>565.87329101562</ele>
        <time>2012-03-17T07:34:47Z</time>
      </trkpt>
      <trkpt lat="45.83646" lon="5.89742">
        <ele>566.83447265625</ele>
        <time>2012-03-17T07:34:54Z</time>
      </trkpt>
      <trkpt lat="45.83636" lon="5.89734">
        <ele>567.79565429688</ele>
        <time>2012-03-17T07:35:03Z</time>
      </trkpt>
      <trkpt lat="45.8363" lon="5.89726">
        <ele>568.2763671875</ele>
        <time>2012-03-17T07:35:08Z</time>
      </trkpt>
      <trkpt lat="45.83617" lon="5.89717">
        <ele>569.23779296875</ele>
        <time>2012-03-17T07:35:16Z</time>
      </trkpt>
      <trkpt lat="45.83612" lon="5.89713">
        <ele>569.23779296875</ele>
        <time>2012-03-17T07:35:21Z</time>
      </trkpt>
      <trkpt lat="45.83612" lon="5.89713">
        <ele>570.19897460938</ele>
        <time>2012-03-17T07:35:26Z</time>
      </trkpt>
      <trkpt lat="45.83612" lon="5.89713">
        <ele>570.19897460938</ele>
        <time>2012-03-17T07:35:30Z</time>
      </trkpt>
      <trkpt lat="45.83612" lon="5.89713">
        <ele>570.6796875</ele>
        <time>2012-03-17T07:35:34Z</time>
      </trkpt>
      <trkpt lat="45.83612" lon="5.89713">
        <ele>570.6796875</ele>
        <time>2012-03-17T07:35:40Z</time>
      </trkpt>
      <trkpt lat="45.83612" lon="5.89712">
        <ele>570.6796875</ele>
        <time>2012-03-17T07:35:44Z</time>
      </trkpt>
      <trkpt lat="45.83612" lon="5.89712">
        <ele>570.19897460938</ele>
        <time>2012-03-17T07:35:50Z</time>
      </trkpt>
      <trkpt lat="45.83612" lon="5.89713">
        <ele>569.71850585938</ele>
        <time>2012-03-17T07:35:54Z</time>
      </trkpt>
      <trkpt lat="45.83612" lon="5.89712">
        <ele>569.71850585938</ele>
        <time>2012-03-17T07:35:55Z</time>
      </trkpt>
      <trkpt lat="45.83612" lon="5.89712">
        <ele>569.23779296875</ele>
        <time>2012-03-17T07:36:04Z</time>
      </trkpt>
      <trkpt lat="45.83609" lon="5.89709">
        <ele>569.71850585938</ele>
        <time>2012-03-17T07:36:13Z</time>
      </trkpt>
      <trkpt lat="45.83599" lon="5.897">
        <ele>570.6796875</ele>
        <time>2012-03-17T07:36:21Z</time>
      </trkpt>
      <trkpt lat="45.83592" lon="5.89693">
        <ele>571.16040039062</ele>
        <time>2012-03-17T07:36:28Z</time>
      </trkpt>
      <trkpt lat="45.83591" lon="5.89691">
        <ele>571.16040039062</ele>
        <time>2012-03-17T07:36:30Z</time>
      </trkpt>
      <trkpt lat="45.83587" lon="5.89688">
        <ele>572.12182617188</ele>
        <time>2012-03-17T07:36:34Z</time>
      </trkpt>
      <trkpt lat="45.83582" lon="5.89682">
        <ele>571.64086914062</ele>
        <time>2012-03-17T07:36:40Z</time>
      </trkpt>
      <trkpt lat="45.83575" lon="5.89674">
        <ele>572.6025390625</ele>
        <time>2012-03-17T07:36:47Z</time>
      </trkpt>
      <trkpt lat="45.83565" lon="5.89666">
        <ele>573.56396484375</ele>
        <time>2012-03-17T07:36:54Z</time>
      </trkpt>
      <trkpt lat="45.83564" lon="5.89665">
        <ele>573.56396484375</ele>
        <time>2012-03-17T07:36:55Z</time>
      </trkpt>
      <trkpt lat="45.83552" lon="5.89657">
        <ele>575.005859375</ele>
        <time>2012-03-17T07:37:04Z</time>
      </trkpt>
      <trkpt lat="45.83545" lon="5.8965">
        <ele>575.486328125</ele>
        <time>2012-03-17T07:37:10Z</time>
      </trkpt>
      <trkpt lat="45.83539" lon="5.89642">
        <ele>576.44775390625</ele>
        <time>2012-03-17T07:37:15Z</time>
      </trkpt>
      <trkpt lat="45.83535" lon="5.8963">
        <ele>577.8896484375</ele>
        <time>2012-03-17T07:37:21Z</time>
      </trkpt>
      <trkpt lat="45.83533" lon="5.8962">
        <ele>578.85107421875</ele>
        <time>2012-03-17T07:37:26Z</time>
      </trkpt>
      <trkpt lat="45.8353" lon="5.89603">
        <ele>580.77368164062</ele>
        <time>2012-03-17T07:37:34Z</time>
      </trkpt>
      <trkpt lat="45.83526" lon="5.89588">
        <ele>581.73486328125</ele>
        <time>2012-03-17T07:37:41Z</time>
      </trkpt>
      <trkpt lat="45.83525" lon="5.89571">
        <ele>582.21557617188</ele>
        <time>2012-03-17T07:37:49Z</time>
      </trkpt>
      <trkpt lat="45.83526" lon="5.89557">
        <ele>583.1767578125</ele>
        <time>2012-03-17T07:37:55Z</time>
      </trkpt>
      <trkpt lat="45.83532" lon="5.89544">
        <ele>585.099609375</ele>
        <time>2012-03-17T07:38:02Z</time>
      </trkpt>
      <trkpt lat="45.83539" lon="5.89532">
        <ele>586.06079101562</ele>
        <time>2012-03-17T07:38:10Z</time>
      </trkpt>
      <trkpt lat="45.83546" lon="5.89515">
        <ele>586.54150390625</ele>
        <time>2012-03-17T07:38:19Z</time>
      </trkpt>
      <trkpt lat="45.83553" lon="5.895">
        <ele>588.46435546875</ele>
        <time>2012-03-17T07:38:27Z</time>
      </trkpt>
      <trkpt lat="45.83555" lon="5.89495">
        <ele>590.38696289062</ele>
        <time>2012-03-17T07:38:32Z</time>
      </trkpt>
      <trkpt lat="45.83556" lon="5.89495">
        <ele>591.34814453125</ele>
        <time>2012-03-17T07:38:41Z</time>
      </trkpt>
      <trkpt lat="45.83556" lon="5.89495">
        <ele>591.34814453125</ele>
        <time>2012-03-17T07:38:44Z</time>
      </trkpt>
      <trkpt lat="45.83556" lon="5.89495">
        <ele>591.34814453125</ele>
        <time>2012-03-17T07:38:49Z</time>
      </trkpt>
      <trkpt lat="45.83556" lon="5.89495">
        <ele>591.34814453125</ele>
        <time>2012-03-17T07:38:52Z</time>
      </trkpt>
      <trkpt lat="45.83555" lon="5.89495">
        <ele>591.82885742188</ele>
        <time>2012-03-17T07:39:00Z</time>
      </trkpt>
      <trkpt lat="45.83556" lon="5.89494">
        <ele>592.3095703125</ele>
        <time>2012-03-17T07:39:06Z</time>
      </trkpt>
      <trkpt lat="45.8356" lon="5.89485">
        <ele>591.82885742188</ele>
        <time>2012-03-17T07:39:11Z</time>
      </trkpt>
      <trkpt lat="45.83563" lon="5.89481">
        <ele>591.82885742188</ele>
        <time>2012-03-17T07:39:14Z</time>
      </trkpt>
      <trkpt lat="45.83567" lon="5.89472">
        <ele>592.3095703125</ele>
        <time>2012-03-17T07:39:19Z</time>
      </trkpt>
      <trkpt lat="45.83576" lon="5.89456">
        <ele>593.27075195312</ele>
        <time>2012-03-17T07:39:27Z</time>
      </trkpt>
      <trkpt lat="45.83586" lon="5.8944">
        <ele>593.75146484375</ele>
        <time>2012-03-17T07:39:36Z</time>
      </trkpt>
      <trkpt lat="45.83586" lon="5.89424">
        <ele>594.71264648438</ele>
        <time>2012-03-17T07:39:44Z</time>
      </trkpt>
      <trkpt lat="45.83577" lon="5.89412">
        <ele>596.15478515625</ele>
        <time>2012-03-17T07:39:53Z</time>
      </trkpt>
      <trkpt lat="45.83572" lon="5.89408">
        <ele>597.5966796875</ele>
        <time>2012-03-17T07:39:57Z</time>
      </trkpt>
      <trkpt lat="45.83569" lon="5.89402">
        <ele>599.03857421875</ele>
        <time>2012-03-17T07:40:01Z</time>
      </trkpt>
      <trkpt lat="45.83562" lon="5.89399">
        <ele>600</ele>
        <time>2012-03-17T07:40:06Z</time>
      </trkpt>
      <trkpt lat="45.83551" lon="5.89392">
        <ele>600.96118164062</ele>
        <time>2012-03-17T07:40:15Z</time>
      </trkpt>
      <trkpt lat="45.83548" lon="5.89387">
        <ele>601.44189453125</ele>
        <time>2012-03-17T07:40:19Z</time>
      </trkpt>
      <trkpt lat="45.8355" lon="5.89376">
        <ele>602.40307617188</ele>
        <time>2012-03-17T07:40:25Z</time>
      </trkpt>
      <trkpt lat="45.83558" lon="5.89361">
        <ele>604.326171875</ele>
        <time>2012-03-17T07:40:34Z</time>
      </trkpt>
      <trkpt lat="45.83562" lon="5.89347">
        <ele>605.28735351562</ele>
        <time>2012-03-17T07:40:41Z</time>
      </trkpt>
      <trkpt lat="45.83555" lon="5.89334">
        <ele>607.2099609375</ele>
        <time>2012-03-17T07:40:48Z</time>
      </trkpt>
      <trkpt lat="45.83545" lon="5.89324">
        <ele>609.13256835938</ele>
        <time>2012-03-17T07:40:55Z</time>
      </trkpt>
      <trkpt lat="45.83541" lon="5.89318">
        <ele>610.09375</ele>
        <time>2012-03-17T07:40:59Z</time>
      </trkpt>
      <trkpt lat="45.83538" lon="5.89316">
        <ele>610.57446289062</ele>
        <time>2012-03-17T07:41:02Z</time>
      </trkpt>
      <trkpt lat="45.83533" lon="5.89308">
        <ele>611.53588867188</ele>
        <time>2012-03-17T07:41:08Z</time>
      </trkpt>
      <trkpt lat="45.83529" lon="5.893">
        <ele>612.4970703125</ele>
        <time>2012-03-17T07:41:13Z</time>
      </trkpt>
      <trkpt lat="45.83523" lon="5.89289">
        <ele>614.41967773438</ele>
        <time>2012-03-17T07:41:21Z</time>
      </trkpt>
      <trkpt lat="45.83524" lon="5.89276">
        <ele>613.93896484375</ele>
        <time>2012-03-17T07:41:28Z</time>
      </trkpt>
      <trkpt lat="45.83524" lon="5.89262">
        <ele>614.41967773438</ele>
        <time>2012-03-17T07:41:36Z</time>
      </trkpt>
      <trkpt lat="45.83521" lon="5.89246">
        <ele>616.34228515625</ele>
        <time>2012-03-17T07:41:45Z</time>
      </trkpt>
      <trkpt lat="45.83519" lon="5.89234">
        <ele>617.7841796875</ele>
        <time>2012-03-17T07:41:52Z</time>
      </trkpt>
      <trkpt lat="45.83516" lon="5.89221">
        <ele>617.7841796875</ele>
        <time>2012-03-17T07:41:59Z</time>
      </trkpt>
      <trkpt lat="45.83514" lon="5.89211">
        <ele>618.26489257812</ele>
        <time>2012-03-17T07:42:06Z</time>
      </trkpt>
      <trkpt lat="45.83514" lon="5.8921">
        <ele>618.74560546875</ele>
        <time>2012-03-17T07:42:12Z</time>
      </trkpt>
      <trkpt lat="45.83513" lon="5.89209">
        <ele>618.26489257812</ele>
        <time>2012-03-17T07:42:16Z</time>
      </trkpt>
      <trkpt lat="45.83512" lon="5.89204">
        <ele>617.7841796875</ele>
        <time>2012-03-17T07:42:26Z</time>
      </trkpt>
      <trkpt lat="45.83513" lon="5.89207">
        <ele>615.86181640625</ele>
        <time>2012-03-17T07:42:36Z</time>
      </trkpt>
      <trkpt lat="45.83512" lon="5.89211">
        <ele>616.82299804688</ele>
        <time>2012-03-17T07:42:42Z</time>
      </trkpt>
      <trkpt lat="45.83512" lon="5.89212">
        <ele>618.74560546875</ele>
        <time>2012-03-17T07:42:46Z</time>
      </trkpt>
      <trkpt lat="45.83512" lon="5.89212">
        <ele>622.59106445312</ele>
        <time>2012-03-17T07:42:56Z</time>
      </trkpt>
      <trkpt lat="45.83511" lon="5.8921">
        <ele>624.03295898438</ele>
        <time>2012-03-17T07:43:11Z</time>
      </trkpt>
      <trkpt lat="45.83511" lon="5.89212">
        <ele>625.95556640625</ele>
        <time>2012-03-17T07:43:22Z</time>
      </trkpt>
      <trkpt lat="45.83512" lon="5.89213">
        <ele>626.9169921875</ele>
        <time>2012-03-17T07:43:41Z</time>
      </trkpt>
      <trkpt lat="45.83509" lon="5.89214">
        <ele>626.9169921875</ele>
        <time>2012-03-17T07:43:54Z</time>
      </trkpt>
      <trkpt lat="45.83508" lon="5.89211">
        <ele>627.87817382812</ele>
        <time>2012-03-17T07:43:58Z</time>
      </trkpt>
      <trkpt lat="45.83508" lon="5.89202">
        <ele>627.87817382812</ele>
        <time>2012-03-17T07:44:04Z</time>
      </trkpt>
      <trkpt lat="45.83509" lon="5.89197">
        <ele>628.35888671875</ele>
        <time>2012-03-17T07:44:07Z</time>
      </trkpt>
      <trkpt lat="45.83516" lon="5.89188">
        <ele>627.87817382812</ele>
        <time>2012-03-17T07:44:14Z</time>
      </trkpt>
      <trkpt lat="45.83523" lon="5.89186">
        <ele>627.39770507812</ele>
        <time>2012-03-17T07:44:19Z</time>
      </trkpt>
      <trkpt lat="45.83532" lon="5.89192">
        <ele>627.39770507812</ele>
        <time>2012-03-17T07:44:26Z</time>
      </trkpt>
      <trkpt lat="45.83538" lon="5.89198">
        <ele>627.39770507812</ele>
        <time>2012-03-17T07:44:31Z</time>
      </trkpt>
      <trkpt lat="45.83548" lon="5.8921">
        <ele>627.39770507812</ele>
        <time>2012-03-17T07:44:39Z</time>
      </trkpt>
      <trkpt lat="45.83559" lon="5.89221">
        <ele>628.83959960938</ele>
        <time>2012-03-17T07:44:48Z</time>
      </trkpt>
      <trkpt lat="45.83575" lon="5.89231">
        <ele>630.28149414062</ele>
        <time>2012-03-17T07:44:58Z</time>
      </trkpt>
      <trkpt lat="45.83595" lon="5.89238">
        <ele>631.72338867188</ele>
        <time>2012-03-17T07:45:09Z</time>
      </trkpt>
      <trkpt lat="45.83604" lon="5.89231">
        <ele>632.68481445312</ele>
        <time>2012-03-17T07:45:15Z</time>
      </trkpt>
      <trkpt lat="45.83605" lon="5.8922">
        <ele>633.64599609375</ele>
        <time>2012-03-17T07:45:20Z</time>
      </trkpt>
      <trkpt lat="45.83599" lon="5.89211">
        <ele>634.12670898438</ele>
        <time>2012-03-17T07:45:26Z</time>
      </trkpt>
      <trkpt lat="45.83588" lon="5.89202">
        <ele>635.56860351562</ele>
        <time>2012-03-17T07:45:34Z</time>
      </trkpt>
      <trkpt lat="45.83579" lon="5.89187">
        <ele>636.5302734375</ele>
        <time>2012-03-17T07:45:43Z</time>
      </trkpt>
      <trkpt lat="45.83574" lon="5.89171">
        <ele>637.49145507812</ele>
        <time>2012-03-17T07:45:51Z</time>
      </trkpt>
      <trkpt lat="45.83572" lon="5.89158">
        <ele>637.97216796875</ele>
        <time>2012-03-17T07:45:57Z</time>
      </trkpt>
      <trkpt lat="45.83571" lon="5.89142">
        <ele>638.93359375</ele>
        <time>2012-03-17T07:46:05Z</time>
      </trkpt>
      <trkpt lat="45.83571" lon="5.89121">
        <ele>640.37548828125</ele>
        <time>2012-03-17T07:46:15Z</time>
      </trkpt>
      <trkpt lat="45.83567" lon="5.89107">
        <ele>640.85595703125</ele>
        <time>2012-03-17T07:46:22Z</time>
      </trkpt>
      <trkpt lat="45.83559" lon="5.89092">
        <ele>641.8173828125</ele>
        <time>2012-03-17T07:46:30Z</time>
      </trkpt>
      <trkpt lat="45.83559" lon="5.89076">
        <ele>643.73999023438</ele>
        <time>2012-03-17T07:46:37Z</time>
      </trkpt>
      <trkpt lat="45.83567" lon="5.8907">
        <ele>646.14331054688</ele>
        <time>2012-03-17T07:46:43Z</time>
      </trkpt>
      <trkpt lat="45.8357" lon="5.89071">
        <ele>647.1044921875</ele>
        <time>2012-03-17T07:46:45Z</time>
      </trkpt>
      <trkpt lat="45.83579" lon="5.89079">
        <ele>649.02709960938</ele>
        <time>2012-03-17T07:46:52Z</time>
      </trkpt>
      <trkpt lat="45.83585" lon="5.89094">
        <ele>650.46923828125</ele>
        <time>2012-03-17T07:47:00Z</time>
      </trkpt>
      <trkpt lat="45.83591" lon="5.8911">
        <ele>651.43041992188</ele>
        <time>2012-03-17T07:47:09Z</time>
      </trkpt>
      <trkpt lat="45.83601" lon="5.89118">
        <ele>652.39184570312</ele>
        <time>2012-03-17T07:47:17Z</time>
      </trkpt>
      <trkpt lat="45.83605" lon="5.89118">
        <ele>652.39184570312</ele>
        <time>2012-03-17T07:47:20Z</time>
      </trkpt>
      <trkpt lat="45.83606" lon="5.89118">
        <ele>652.87255859375</ele>
        <time>2012-03-17T07:47:26Z</time>
      </trkpt>
      <trkpt lat="45.83606" lon="5.89118">
        <ele>652.87255859375</ele>
        <time>2012-03-17T07:47:36Z</time>
      </trkpt>
      <trkpt lat="45.83606" lon="5.89118">
        <ele>652.87255859375</ele>
        <time>2012-03-17T07:47:44Z</time>
      </trkpt>
      <trkpt lat="45.83605" lon="5.89117">
        <ele>652.87255859375</ele>
        <time>2012-03-17T07:47:51Z</time>
      </trkpt>
      <trkpt lat="45.83606" lon="5.89117">
        <ele>652.87255859375</ele>
        <time>2012-03-17T07:47:53Z</time>
      </trkpt>
      <trkpt lat="45.83614" lon="5.89111">
        <ele>654.31469726562</ele>
        <time>2012-03-17T07:48:00Z</time>
      </trkpt>
      <trkpt lat="45.83618" lon="5.89099">
        <ele>654.79516601562</ele>
        <time>2012-03-17T07:48:08Z</time>
      </trkpt>
      <trkpt lat="45.83614" lon="5.89085">
        <ele>656.23706054688</ele>
        <time>2012-03-17T07:48:16Z</time>
      </trkpt>
      <trkpt lat="45.83604" lon="5.89073">
        <ele>657.67919921875</ele>
        <time>2012-03-17T07:48:25Z</time>
      </trkpt>
      <trkpt lat="45.836" lon="5.89057">
        <ele>658.64038085938</ele>
        <time>2012-03-17T07:48:34Z</time>
      </trkpt>
      <trkpt lat="45.83598" lon="5.89043">
        <ele>659.60180664062</ele>
        <time>2012-03-17T07:48:41Z</time>
      </trkpt>
      <trkpt lat="45.83596" lon="5.89031">
        <ele>661.04370117188</ele>
        <time>2012-03-17T07:48:47Z</time>
      </trkpt>
      <trkpt lat="45.83595" lon="5.89012">
        <ele>662.96630859375</ele>
        <time>2012-03-17T07:48:56Z</time>
      </trkpt>
      <trkpt lat="45.83595" lon="5.88993">
        <ele>663.44702148438</ele>
        <time>2012-03-17T07:49:05Z</time>
      </trkpt>
      <trkpt lat="45.83598" lon="5.88978">
        <ele>663.44702148438</ele>
        <time>2012-03-17T07:49:12Z</time>
      </trkpt>
      <trkpt lat="45.83601" lon="5.88964">
        <ele>663.92749023438</ele>
        <time>2012-03-17T07:49:20Z</time>
      </trkpt>
      <trkpt lat="45.83603" lon="5.88952">
        <ele>663.92749023438</ele>
        <time>2012-03-17T07:49:27Z</time>
      </trkpt>
      <trkpt lat="45.83603" lon="5.8894">
        <ele>663.44702148438</ele>
        <time>2012-03-17T07:49:35Z</time>
      </trkpt>
      <trkpt lat="45.83603" lon="5.8893">
        <ele>663.44702148438</ele>
        <time>2012-03-17T07:49:41Z</time>
      </trkpt>
      <trkpt lat="45.83598" lon="5.8892">
        <ele>665.36962890625</ele>
        <time>2012-03-17T07:49:48Z</time>
      </trkpt>
      <trkpt lat="45.83593" lon="5.88907">
        <ele>667.77270507812</ele>
        <time>2012-03-17T07:49:54Z</time>
      </trkpt>
      <trkpt lat="45.83591" lon="5.88899">
        <ele>671.1376953125</ele>
        <time>2012-03-17T07:50:00Z</time>
      </trkpt>
      <trkpt lat="45.83591" lon="5.88898">
        <ele>673.541015625</ele>
        <time>2012-03-17T07:50:09Z</time>
      </trkpt>
      <trkpt lat="45.83588" lon="5.88896">
        <ele>673.541015625</ele>
        <time>2012-03-17T07:50:14Z</time>
      </trkpt>
      <trkpt lat="45.83586" lon="5.88893">
        <ele>675.46337890625</ele>
        <time>2012-03-17T07:50:21Z</time>
      </trkpt>
      <trkpt lat="45.83582" lon="5.8889">
        <ele>676.4248046875</ele>
        <time>2012-03-17T07:50:28Z</time>
      </trkpt>
      <trkpt lat="45.83577" lon="5.88887">
        <ele>678.34741210938</ele>
        <time>2012-03-17T07:50:37Z</time>
      </trkpt>
      <trkpt lat="45.83573" lon="5.88884">
        <ele>679.78930664062</ele>
        <time>2012-03-17T07:50:46Z</time>
      </trkpt>
      <trkpt lat="45.83571" lon="5.88881">
        <ele>678.828125</ele>
        <time>2012-03-17T07:50:56Z</time>
      </trkpt>
      <trkpt lat="45.83566" lon="5.88878">
        <ele>680.75073242188</ele>
        <time>2012-03-17T07:51:05Z</time>
      </trkpt>
      <trkpt lat="45.8356" lon="5.88875">
        <ele>681.7119140625</ele>
        <time>2012-03-17T07:51:14Z</time>
      </trkpt>
      <trkpt lat="45.83554" lon="5.88871">
        <ele>683.63452148438</ele>
        <time>2012-03-17T07:51:25Z</time>
      </trkpt>
      <trkpt lat="45.8355" lon="5.88867">
        <ele>685.55737304688</ele>
        <time>2012-03-17T07:51:34Z</time>
      </trkpt>
      <trkpt lat="45.83545" lon="5.88864">
        <ele>687.96069335938</ele>
        <time>2012-03-17T07:51:45Z</time>
      </trkpt>
      <trkpt lat="45.83539" lon="5.88859">
        <ele>688.44140625</ele>
        <time>2012-03-17T07:51:53Z</time>
      </trkpt>
      <trkpt lat="45.83537" lon="5.88857">
        <ele>688.44140625</ele>
        <time>2012-03-17T07:51:59Z</time>
      </trkpt>
      <trkpt lat="45.83536" lon="5.88852">
        <ele>689.40258789062</ele>
        <time>2012-03-17T07:52:05Z</time>
      </trkpt>
      <trkpt lat="45.83535" lon="5.88847">
        <ele>690.36401367188</ele>
        <time>2012-03-17T07:52:12Z</time>
      </trkpt>
      <trkpt lat="45.83537" lon="5.8884">
        <ele>691.3251953125</ele>
        <time>2012-03-17T07:52:20Z</time>
      </trkpt>
      <trkpt lat="45.8354" lon="5.88832">
        <ele>692.76733398438</ele>
        <time>2012-03-17T07:52:30Z</time>
      </trkpt>
      <trkpt lat="45.8354" lon="5.88826">
        <ele>694.20922851562</ele>
        <time>2012-03-17T07:52:38Z</time>
      </trkpt>
      <trkpt lat="45.83538" lon="5.88822">
        <ele>696.61254882812</ele>
        <time>2012-03-17T07:52:46Z</time>
      </trkpt>
      <trkpt lat="45.83538" lon="5.8882">
        <ele>697.09301757812</ele>
        <time>2012-03-17T07:52:53Z</time>
      </trkpt>
      <trkpt lat="45.83537" lon="5.88816">
        <ele>697.57373046875</ele>
        <time>2012-03-17T07:53:02Z</time>
      </trkpt>
      <trkpt lat="45.83535" lon="5.88811">
        <ele>699.015625</ele>
        <time>2012-03-17T07:53:11Z</time>
      </trkpt>
      <trkpt lat="45.83532" lon="5.88805">
        <ele>700.9384765625</ele>
        <time>2012-03-17T07:53:18Z</time>
      </trkpt>
      <trkpt lat="45.8353" lon="5.88799">
        <ele>703.341796875</ele>
        <time>2012-03-17T07:53:26Z</time>
      </trkpt>
      <trkpt lat="45.83529" lon="5.88796">
        <ele>703.82250976562</ele>
        <time>2012-03-17T07:53:31Z</time>
      </trkpt>
      <trkpt lat="45.83525" lon="5.88789">
        <ele>704.30322265625</ele>
        <time>2012-03-17T07:53:39Z</time>
      </trkpt>
      <trkpt lat="45.83524" lon="5.88786">
        <ele>705.26440429688</ele>
        <time>2012-03-17T07:53:46Z</time>
      </trkpt>
      <trkpt lat="45.83522" lon="5.88786">
        <ele>705.7451171875</ele>
        <time>2012-03-17T07:53:58Z</time>
      </trkpt>
      <trkpt lat="45.83519" lon="5.88788">
        <ele>709.10961914062</ele>
        <time>2012-03-17T07:54:11Z</time>
      </trkpt>
      <trkpt lat="45.83519" lon="5.8879">
        <ele>711.0322265625</ele>
        <time>2012-03-17T07:54:20Z</time>
      </trkpt>
      <trkpt lat="45.83518" lon="5.88789">
        <ele>711.0322265625</ele>
        <time>2012-03-17T07:54:25Z</time>
      </trkpt>
      <trkpt lat="45.83518" lon="5.88779">
        <ele>709.59033203125</ele>
        <time>2012-03-17T07:54:33Z</time>
      </trkpt>
      <trkpt lat="45.83518" lon="5.88775">
        <ele>708.1484375</ele>
        <time>2012-03-17T07:54:42Z</time>
      </trkpt>
      <trkpt lat="45.83517" lon="5.88772">
        <ele>710.07080078125</ele>
        <time>2012-03-17T07:54:47Z</time>
      </trkpt>
      <trkpt lat="45.83515" lon="5.88763">
        <ele>710.55151367188</ele>
        <time>2012-03-17T07:54:56Z</time>
      </trkpt>
      <trkpt lat="45.83514" lon="5.88759">
        <ele>711.51293945312</ele>
        <time>2012-03-17T07:55:02Z</time>
      </trkpt>
      <trkpt lat="45.83513" lon="5.88755">
        <ele>712.47412109375</ele>
        <time>2012-03-17T07:55:11Z</time>
      </trkpt>
      <trkpt lat="45.83513" lon="5.88756">
        <ele>711.99365234375</ele>
        <time>2012-03-17T07:55:17Z</time>
      </trkpt>
      <trkpt lat="45.8351" lon="5.88752">
        <ele>711.51293945312</ele>
        <time>2012-03-17T07:55:30Z</time>
      </trkpt>
      <trkpt lat="45.83506" lon="5.88744">
        <ele>713.435546875</ele>
        <time>2012-03-17T07:55:40Z</time>
      </trkpt>
      <trkpt lat="45.83502" lon="5.8874">
        <ele>715.35815429688</ele>
        <time>2012-03-17T07:55:48Z</time>
      </trkpt>
      <trkpt lat="45.83499" lon="5.88735">
        <ele>716.80029296875</ele>
        <time>2012-03-17T07:55:55Z</time>
      </trkpt>
      <trkpt lat="45.83495" lon="5.88728">
        <ele>718.2421875</ele>
        <time>2012-03-17T07:56:03Z</time>
      </trkpt>
      <trkpt lat="45.83491" lon="5.88721">
        <ele>720.16479492188</ele>
        <time>2012-03-17T07:56:11Z</time>
      </trkpt>
      <trkpt lat="45.83488" lon="5.88716">
        <ele>721.12622070312</ele>
        <time>2012-03-17T07:56:17Z</time>
      </trkpt>
      <trkpt lat="45.83485" lon="5.88711">
        <ele>721.60668945312</ele>
        <time>2012-03-17T07:56:24Z</time>
      </trkpt>
      <trkpt lat="45.83482" lon="5.88704">
        <ele>723.048828125</ele>
        <time>2012-03-17T07:56:31Z</time>
      </trkpt>
      <trkpt lat="45.83484" lon="5.887">
        <ele>723.048828125</ele>
        <time>2012-03-17T07:56:37Z</time>
      </trkpt>
      <trkpt lat="45.83487" lon="5.88697">
        <ele>723.048828125</ele>
        <time>2012-03-17T07:56:45Z</time>
      </trkpt>
      <trkpt lat="45.8349" lon="5.88698">
        <ele>724.97143554688</ele>
        <time>2012-03-17T07:56:52Z</time>
      </trkpt>
      <trkpt lat="45.83489" lon="5.88698">
        <ele>726.89404296875</ele>
        <time>2012-03-17T07:56:57Z</time>
      </trkpt>
      <trkpt lat="45.83491" lon="5.88699">
        <ele>728.3359375</ele>
        <time>2012-03-17T07:57:05Z</time>
      </trkpt>
      <trkpt lat="45.83494" lon="5.88701">
        <ele>730.25854492188</ele>
        <time>2012-03-17T07:57:13Z</time>
      </trkpt>
      <trkpt lat="45.83498" lon="5.88701">
        <ele>732.18139648438</ele>
        <time>2012-03-17T07:57:20Z</time>
      </trkpt>
      <trkpt lat="45.83502" lon="5.88702">
        <ele>734.10400390625</ele>
        <time>2012-03-17T07:57:29Z</time>
      </trkpt>
      <trkpt lat="45.83506" lon="5.88704">
        <ele>736.02661132812</ele>
        <time>2012-03-17T07:57:38Z</time>
      </trkpt>
      <trkpt lat="45.83511" lon="5.88705">
        <ele>737.94921875</ele>
        <time>2012-03-17T07:57:47Z</time>
      </trkpt>
      <trkpt lat="45.83514" lon="5.88707">
        <ele>738.42993164062</ele>
        <time>2012-03-17T07:57:55Z</time>
      </trkpt>
      <trkpt lat="45.83519" lon="5.88708">
        <ele>739.87182617188</ele>
        <time>2012-03-17T07:58:03Z</time>
      </trkpt>
      <trkpt lat="45.83525" lon="5.88709">
        <ele>741.31372070312</ele>
        <time>2012-03-17T07:58:12Z</time>
      </trkpt>
      <trkpt lat="45.8353" lon="5.88712">
        <ele>742.755859375</ele>
        <time>2012-03-17T07:58:20Z</time>
      </trkpt>
      <trkpt lat="45.83532" lon="5.88713">
        <ele>742.27514648438</ele>
        <time>2012-03-17T07:58:27Z</time>
      </trkpt>
      <trkpt lat="45.83536" lon="5.88714">
        <ele>744.19775390625</ele>
        <time>2012-03-17T07:58:34Z</time>
      </trkpt>
      <trkpt lat="45.83543" lon="5.88713">
        <ele>746.12036132812</ele>
        <time>2012-03-17T07:58:45Z</time>
      </trkpt>
      <trkpt lat="45.83545" lon="5.88712">
        <ele>745.15893554688</ele>
        <time>2012-03-17T07:58:50Z</time>
      </trkpt>
      <trkpt lat="45.83548" lon="5.8871">
        <ele>745.15893554688</ele>
        <time>2012-03-17T07:58:54Z</time>
      </trkpt>
      <trkpt lat="45.83554" lon="5.88701">
        <ele>742.27514648438</ele>
        <time>2012-03-17T07:59:02Z</time>
      </trkpt>
      <trkpt lat="45.8356" lon="5.88692">
        <ele>740.8330078125</ele>
        <time>2012-03-17T07:59:09Z</time>
      </trkpt>
      <trkpt lat="45.83565" lon="5.88683">
        <ele>740.3525390625</ele>
        <time>2012-03-17T07:59:17Z</time>
      </trkpt>
      <trkpt lat="45.8357" lon="5.88673">
        <ele>740.8330078125</ele>
        <time>2012-03-17T07:59:26Z</time>
      </trkpt>
      <trkpt lat="45.83574" lon="5.88667">
        <ele>742.27514648438</ele>
        <time>2012-03-17T07:59:35Z</time>
      </trkpt>
      <trkpt lat="45.83578" lon="5.88657">
        <ele>744.19775390625</ele>
        <time>2012-03-17T07:59:45Z</time>
      </trkpt>
      <trkpt lat="45.83582" lon="5.88646">
        <ele>745.6396484375</ele>
        <time>2012-03-17T07:59:55Z</time>
      </trkpt>
      <trkpt lat="45.83583" lon="5.88635">
        <ele>747.56225585938</ele>
        <time>2012-03-17T08:00:04Z</time>
      </trkpt>
      <trkpt lat="45.83583" lon="5.88633">
        <ele>748.52368164062</ele>
        <time>2012-03-17T08:00:09Z</time>
      </trkpt>
      <trkpt lat="45.83583" lon="5.88633">
        <ele>749.48510742188</ele>
        <time>2012-03-17T08:00:15Z</time>
      </trkpt>
      <trkpt lat="45.83584" lon="5.88633">
        <ele>751.40771484375</ele>
        <time>2012-03-17T08:00:22Z</time>
      </trkpt>
      <trkpt lat="45.83584" lon="5.88634">
        <ele>751.88842773438</ele>
        <time>2012-03-17T08:00:32Z</time>
      </trkpt>
      <trkpt lat="45.83583" lon="5.88634">
        <ele>753.33032226562</ele>
        <time>2012-03-17T08:00:39Z</time>
      </trkpt>
      <trkpt lat="45.83583" lon="5.88634">
        <ele>753.33032226562</ele>
        <time>2012-03-17T08:00:40Z</time>
      </trkpt>
      <trkpt lat="45.83582" lon="5.88637">
        <ele>758.61743164062</ele>
        <time>2012-03-17T08:00:56Z</time>
      </trkpt>
      <trkpt lat="45.83582" lon="5.88636">
        <ele>758.13696289062</ele>
        <time>2012-03-17T08:01:05Z</time>
      </trkpt>
      <trkpt lat="45.83581" lon="5.88632">
        <ele>758.13696289062</ele>
        <time>2012-03-17T08:01:11Z</time>
      </trkpt>
      <trkpt lat="45.83581" lon="5.88626">
        <ele>758.61743164062</ele>
        <time>2012-03-17T08:01:17Z</time>
      </trkpt>
      <trkpt lat="45.83584" lon="5.88623">
        <ele>759.09814453125</ele>
        <time>2012-03-17T08:01:23Z</time>
      </trkpt>
      <trkpt lat="45.8359" lon="5.88623">
        <ele>760.05932617188</ele>
        <time>2012-03-17T08:01:30Z</time>
      </trkpt>
      <trkpt lat="45.83598" lon="5.88617">
        <ele>759.57885742188</ele>
        <time>2012-03-17T08:01:39Z</time>
      </trkpt>
      <trkpt lat="45.83603" lon="5.88611">
        <ele>760.5400390625</ele>
        <time>2012-03-17T08:01:47Z</time>
      </trkpt>
      <trkpt lat="45.83606" lon="5.88611">
        <ele>761.02075195312</ele>
        <time>2012-03-17T08:01:54Z</time>
      </trkpt>
      <trkpt lat="45.83609" lon="5.88608">
        <ele>761.02075195312</ele>
        <time>2012-03-17T08:02:06Z</time>
      </trkpt>
      <trkpt lat="45.8361" lon="5.88608">
        <ele>762.943359375</ele>
        <time>2012-03-17T08:02:16Z</time>
      </trkpt>
      <trkpt lat="45.83611" lon="5.88607">
        <ele>764.38549804688</ele>
        <time>2012-03-17T08:02:21Z</time>
      </trkpt>
      <trkpt lat="45.83609" lon="5.88607">
        <ele>764.8662109375</ele>
        <time>2012-03-17T08:02:26Z</time>
      </trkpt>
      <trkpt lat="45.83609" lon="5.88609">
        <ele>766.30810546875</ele>
        <time>2012-03-17T08:02:32Z</time>
      </trkpt>
      <trkpt lat="45.83609" lon="5.88609">
        <ele>767.75</ele>
        <time>2012-03-17T08:02:38Z</time>
      </trkpt>
      <trkpt lat="45.83609" lon="5.88607">
        <ele>767.26953125</ele>
        <time>2012-03-17T08:02:51Z</time>
      </trkpt>
      <trkpt lat="45.83609" lon="5.88606">
        <ele>767.26953125</ele>
        <time>2012-03-17T08:02:54Z</time>
      </trkpt>
      <trkpt lat="45.83606" lon="5.88606">
        <ele>769.6728515625</ele>
        <time>2012-03-17T08:03:05Z</time>
      </trkpt>
      <trkpt lat="45.83606" lon="5.88604">
        <ele>772.07592773438</ele>
        <time>2012-03-17T08:03:10Z</time>
      </trkpt>
      <trkpt lat="45.83606" lon="5.88609">
        <ele>773.03735351562</ele>
        <time>2012-03-17T08:03:20Z</time>
      </trkpt>
      <trkpt lat="45.83606" lon="5.88611">
        <ele>773.03735351562</ele>
        <time>2012-03-17T08:03:25Z</time>
      </trkpt>
      <trkpt lat="45.83606" lon="5.88613">
        <ele>773.03735351562</ele>
        <time>2012-03-17T08:03:29Z</time>
      </trkpt>
      <trkpt lat="45.83607" lon="5.88613">
        <ele>774.47924804688</ele>
        <time>2012-03-17T08:03:41Z</time>
      </trkpt>
      <trkpt lat="45.83607" lon="5.88613">
        <ele>774.47924804688</ele>
        <time>2012-03-17T08:03:48Z</time>
      </trkpt>
      <trkpt lat="45.83607" lon="5.88615">
        <ele>774.9599609375</ele>
        <time>2012-03-17T08:03:51Z</time>
      </trkpt>
      <trkpt lat="45.83608" lon="5.88616">
        <ele>774.47924804688</ele>
        <time>2012-03-17T08:03:53Z</time>
      </trkpt>
      <trkpt lat="45.83607" lon="5.88616">
        <ele>768.71142578125</ele>
        <time>2012-03-17T08:04:07Z</time>
      </trkpt>
      <trkpt lat="45.83606" lon="5.88616">
        <ele>768.23071289062</ele>
        <time>2012-03-17T08:04:09Z</time>
      </trkpt>
      <trkpt lat="45.83606" lon="5.88615">
        <ele>767.75</ele>
        <time>2012-03-17T08:04:10Z</time>
      </trkpt>
      <trkpt lat="45.83606" lon="5.88612">
        <ele>767.75</ele>
        <time>2012-03-17T08:04:13Z</time>
      </trkpt>
      <trkpt lat="45.83607" lon="5.8861">
        <ele>766.30810546875</ele>
        <time>2012-03-17T08:04:24Z</time>
      </trkpt>
      <trkpt lat="45.83609" lon="5.88612">
        <ele>766.78881835938</ele>
        <time>2012-03-17T08:04:29Z</time>
      </trkpt>
      <trkpt lat="45.83612" lon="5.8861">
        <ele>764.38549804688</ele>
        <time>2012-03-17T08:04:39Z</time>
      </trkpt>
      <trkpt lat="45.83611" lon="5.88611">
        <ele>765.82763671875</ele>
        <time>2012-03-17T08:04:44Z</time>
      </trkpt>
      <trkpt lat="45.83612" lon="5.88612">
        <ele>768.23071289062</ele>
        <time>2012-03-17T08:04:52Z</time>
      </trkpt>
      <trkpt lat="45.83611" lon="5.88605">
        <ele>764.38549804688</ele>
        <time>2012-03-17T08:05:17Z</time>
      </trkpt>
      <trkpt lat="45.83611" lon="5.88604">
        <ele>762.943359375</ele>
        <time>2012-03-17T08:05:22Z</time>
      </trkpt>
      <trkpt lat="45.8361" lon="5.88606">
        <ele>761.98217773438</ele>
        <time>2012-03-17T08:05:30Z</time>
      </trkpt>
      <trkpt lat="45.83611" lon="5.88609">
        <ele>767.26953125</ele>
        <time>2012-03-17T08:05:41Z</time>
      </trkpt>
      <trkpt lat="45.8361" lon="5.88608">
        <ele>767.26953125</ele>
        <time>2012-03-17T08:05:48Z</time>
      </trkpt>
      <trkpt lat="45.8361" lon="5.88608">
        <ele>768.23071289062</ele>
        <time>2012-03-17T08:06:00Z</time>
      </trkpt>
      <trkpt lat="45.83613" lon="5.88614">
        <ele>767.75</ele>
        <time>2012-03-17T08:06:05Z</time>
      </trkpt>
      <trkpt lat="45.83619" lon="5.88619">
        <ele>767.26953125</ele>
        <time>2012-03-17T08:06:12Z</time>
      </trkpt>
      <trkpt lat="45.83625" lon="5.88622">
        <ele>766.78881835938</ele>
        <time>2012-03-17T08:06:19Z</time>
      </trkpt>
      <trkpt lat="45.83626" lon="5.88623">
        <ele>766.78881835938</ele>
        <time>2012-03-17T08:06:20Z</time>
      </trkpt>
      <trkpt lat="45.83636" lon="5.88631">
        <ele>765.34692382812</ele>
        <time>2012-03-17T08:06:27Z</time>
      </trkpt>
      <trkpt lat="45.83644" lon="5.88638">
        <ele>767.26953125</ele>
        <time>2012-03-17T08:06:31Z</time>
      </trkpt>
      <trkpt lat="45.83644" lon="5.88639">
        <ele>766.78881835938</ele>
        <time>2012-03-17T08:06:32Z</time>
      </trkpt>
      <trkpt lat="45.8364" lon="5.88636">
        <ele>763.90454101562</ele>
        <time>2012-03-17T08:06:38Z</time>
      </trkpt>
      <trkpt lat="45.83639" lon="5.88635">
        <ele>763.42407226562</ele>
        <time>2012-03-17T08:06:39Z</time>
      </trkpt>
      <trkpt lat="45.83638" lon="5.88633">
        <ele>761.98217773438</ele>
        <time>2012-03-17T08:06:42Z</time>
      </trkpt>
      <trkpt lat="45.83634" lon="5.88627">
        <ele>759.57885742188</ele>
        <time>2012-03-17T08:06:47Z</time>
      </trkpt>
      <trkpt lat="45.8363" lon="5.88623">
        <ele>757.17553710938</ele>
        <time>2012-03-17T08:06:52Z</time>
      </trkpt>
      <trkpt lat="45.83623" lon="5.8862">
        <ele>753.33032226562</ele>
        <time>2012-03-17T08:06:59Z</time>
      </trkpt>
      <trkpt lat="45.83621" lon="5.88618">
        <ele>752.36889648438</ele>
        <time>2012-03-17T08:07:01Z</time>
      </trkpt>
      <trkpt lat="45.83619" lon="5.88617">
        <ele>753.81103515625</ele>
        <time>2012-03-17T08:07:03Z</time>
      </trkpt>
      <trkpt lat="45.83615" lon="5.88613">
        <ele>756.21411132812</ele>
        <time>2012-03-17T08:07:07Z</time>
      </trkpt>
      <trkpt lat="45.83612" lon="5.88608">
        <ele>759.09814453125</ele>
        <time>2012-03-17T08:07:12Z</time>
      </trkpt>
      <trkpt lat="45.83609" lon="5.88601">
        <ele>755.73364257812</ele>
        <time>2012-03-17T08:07:21Z</time>
      </trkpt>
      <trkpt lat="45.83603" lon="5.8859">
        <ele>756.21411132812</ele>
        <time>2012-03-17T08:07:30Z</time>
      </trkpt>
      <trkpt lat="45.83598" lon="5.88584">
        <ele>757.65625</ele>
        <time>2012-03-17T08:07:37Z</time>
      </trkpt>
      <trkpt lat="45.83595" lon="5.88581">
        <ele>760.05932617188</ele>
        <time>2012-03-17T08:07:40Z</time>
      </trkpt>
      <trkpt lat="45.83589" lon="5.88573">
        <ele>761.50146484375</ele>
        <time>2012-03-17T08:07:48Z</time>
      </trkpt>
      <trkpt lat="45.83587" lon="5.88565">
        <ele>762.46264648438</ele>
        <time>2012-03-17T08:07:54Z</time>
      </trkpt>
      <trkpt lat="45.83587" lon="5.88562">
        <ele>763.42407226562</ele>
        <time>2012-03-17T08:07:56Z</time>
      </trkpt>
      <trkpt lat="45.83593" lon="5.88559">
        <ele>765.82763671875</ele>
        <time>2012-03-17T08:08:02Z</time>
      </trkpt>
      <trkpt lat="45.83597" lon="5.88562">
        <ele>767.75</ele>
        <time>2012-03-17T08:08:08Z</time>
      </trkpt>
      <trkpt lat="45.83601" lon="5.88565">
        <ele>770.1533203125</ele>
        <time>2012-03-17T08:08:14Z</time>
      </trkpt>
      <trkpt lat="45.83607" lon="5.88569">
        <ele>771.59521484375</ele>
        <time>2012-03-17T08:08:21Z</time>
      </trkpt>
      <trkpt lat="45.83608" lon="5.88569">
        <ele>772.07592773438</ele>
        <time>2012-03-17T08:08:22Z</time>
      </trkpt>
      <trkpt lat="45.83614" lon="5.88573">
        <ele>773.51806640625</ele>
        <time>2012-03-17T08:08:28Z</time>
      </trkpt>
      <trkpt lat="45.83622" lon="5.88576">
        <ele>773.99853515625</ele>
        <time>2012-03-17T08:08:36Z</time>
      </trkpt>
      <trkpt lat="45.8363" lon="5.88578">
        <ele>776.40185546875</ele>
        <time>2012-03-17T08:08:44Z</time>
      </trkpt>
      <trkpt lat="45.83636" lon="5.88579">
        <ele>778.32446289062</ele>
        <time>2012-03-17T08:08:49Z</time>
      </trkpt>
      <trkpt lat="45.83644" lon="5.8858">
        <ele>780.24731445312</ele>
        <time>2012-03-17T08:08:56Z</time>
      </trkpt>
      <trkpt lat="45.83652" lon="5.88581">
        <ele>781.68920898438</ele>
        <time>2012-03-17T08:09:02Z</time>
      </trkpt>
      <trkpt lat="45.83661" lon="5.88583">
        <ele>784.5732421875</ele>
        <time>2012-03-17T08:09:09Z</time>
      </trkpt>
      <trkpt lat="45.83664" lon="5.88583">
        <ele>784.09252929688</ele>
        <time>2012-03-17T08:09:11Z</time>
      </trkpt>
      <trkpt lat="45.83673" lon="5.88584">
        <ele>787.45703125</ele>
        <time>2012-03-17T08:09:20Z</time>
      </trkpt>
      <trkpt lat="45.83675" lon="5.88583">
        <ele>787.45703125</ele>
        <time>2012-03-17T08:09:21Z</time>
      </trkpt>
      <trkpt lat="45.83685" lon="5.88583">
        <ele>787.45703125</ele>
        <time>2012-03-17T08:09:29Z</time>
      </trkpt>
      <trkpt lat="45.83694" lon="5.88584">
        <ele>788.41845703125</ele>
        <time>2012-03-17T08:09:38Z</time>
      </trkpt>
      <trkpt lat="45.83701" lon="5.88586">
        <ele>788.41845703125</ele>
        <time>2012-03-17T08:09:45Z</time>
      </trkpt>
      <trkpt lat="45.83708" lon="5.88586">
        <ele>788.41845703125</ele>
        <time>2012-03-17T08:09:51Z</time>
      </trkpt>
      <trkpt lat="45.83719" lon="5.88588">
        <ele>790.34106445312</ele>
        <time>2012-03-17T08:10:00Z</time>
      </trkpt>
      <trkpt lat="45.83725" lon="5.8859">
        <ele>789.8603515625</ele>
        <time>2012-03-17T08:10:04Z</time>
      </trkpt>
      <trkpt lat="45.83734" lon="5.88592">
        <ele>790.34106445312</ele>
        <time>2012-03-17T08:10:11Z</time>
      </trkpt>
      <trkpt lat="45.83737" lon="5.88593">
        <ele>790.34106445312</ele>
        <time>2012-03-17T08:10:13Z</time>
      </trkpt>
      <trkpt lat="45.83744" lon="5.88596">
        <ele>790.34106445312</ele>
        <time>2012-03-17T08:10:19Z</time>
      </trkpt>
      <trkpt lat="45.83753" lon="5.88597">
        <ele>790.34106445312</ele>
        <time>2012-03-17T08:10:26Z</time>
      </trkpt>
      <trkpt lat="45.83756" lon="5.88596">
        <ele>790.82153320312</ele>
        <time>2012-03-17T08:10:29Z</time>
      </trkpt>
      <trkpt lat="45.83766" lon="5.88597">
        <ele>793.22485351562</ele>
        <time>2012-03-17T08:10:37Z</time>
      </trkpt>
      <trkpt lat="45.83776" lon="5.88595">
        <ele>796.10913085938</ele>
        <time>2012-03-17T08:10:46Z</time>
      </trkpt>
      <trkpt lat="45.83778" lon="5.88595">
        <ele>796.58984375</ele>
        <time>2012-03-17T08:10:47Z</time>
      </trkpt>
      <trkpt lat="45.83785" lon="5.88595">
        <ele>799.95434570312</ele>
        <time>2012-03-17T08:10:53Z</time>
      </trkpt>
      <trkpt lat="45.83797" lon="5.88595">
        <ele>802.83813476562</ele>
        <time>2012-03-17T08:11:01Z</time>
      </trkpt>
      <trkpt lat="45.83805" lon="5.88588">
        <ele>803.31884765625</ele>
        <time>2012-03-17T08:11:07Z</time>
      </trkpt>
      <trkpt lat="45.83807" lon="5.88586">
        <ele>803.31884765625</ele>
        <time>2012-03-17T08:11:08Z</time>
      </trkpt>
      <trkpt lat="45.83809" lon="5.88584">
        <ele>804.2802734375</ele>
        <time>2012-03-17T08:11:10Z</time>
      </trkpt>
      <trkpt lat="45.8381" lon="5.88583">
        <ele>806.20263671875</ele>
        <time>2012-03-17T08:11:17Z</time>
      </trkpt>
      <trkpt lat="45.8381" lon="5.88583">
        <ele>807.1640625</ele>
        <time>2012-03-17T08:11:22Z</time>
      </trkpt>
      <trkpt lat="45.83811" lon="5.88585">
        <ele>810.0478515625</ele>
        <time>2012-03-17T08:11:30Z</time>
      </trkpt>
      <trkpt lat="45.83812" lon="5.88586">
        <ele>812.45141601562</ele>
        <time>2012-03-17T08:11:37Z</time>
      </trkpt>
      <trkpt lat="45.83812" lon="5.88586">
        <ele>812.45141601562</ele>
        <time>2012-03-17T08:11:38Z</time>
      </trkpt>
      <trkpt lat="45.83809" lon="5.88587">
        <ele>813.41284179688</ele>
        <time>2012-03-17T08:11:44Z</time>
      </trkpt>
      <trkpt lat="45.83809" lon="5.88586">
        <ele>814.3740234375</ele>
        <time>2012-03-17T08:11:49Z</time>
      </trkpt>
      <trkpt lat="45.83809" lon="5.88585">
        <ele>813.89331054688</ele>
        <time>2012-03-17T08:11:59Z</time>
      </trkpt>
      <trkpt lat="45.83811" lon="5.88586">
        <ele>813.41284179688</ele>
        <time>2012-03-17T08:12:13Z</time>
      </trkpt>
      <trkpt lat="45.83809" lon="5.88584">
        <ele>811.970703125</ele>
        <time>2012-03-17T08:12:21Z</time>
      </trkpt>
      <trkpt lat="45.83808" lon="5.88583">
        <ele>811.48999023438</ele>
        <time>2012-03-17T08:12:27Z</time>
      </trkpt>
      <trkpt lat="45.83808" lon="5.88581">
        <ele>812.45141601562</ele>
        <time>2012-03-17T08:12:33Z</time>
      </trkpt>
      <trkpt lat="45.83808" lon="5.88582">
        <ele>813.41284179688</ele>
        <time>2012-03-17T08:12:42Z</time>
      </trkpt>
      <trkpt lat="45.83809" lon="5.88585">
        <ele>812.93212890625</ele>
        <time>2012-03-17T08:12:51Z</time>
      </trkpt>
      <trkpt lat="45.83811" lon="5.88582">
        <ele>812.93212890625</ele>
        <time>2012-03-17T08:12:57Z</time>
      </trkpt>
      <trkpt lat="45.83811" lon="5.88582">
        <ele>812.45141601562</ele>
        <time>2012-03-17T08:13:07Z</time>
      </trkpt>
      <trkpt lat="45.83812" lon="5.88581">
        <ele>812.45141601562</ele>
        <time>2012-03-17T08:13:15Z</time>
      </trkpt>
      <trkpt lat="45.83813" lon="5.88582">
        <ele>811.970703125</ele>
        <time>2012-03-17T08:13:24Z</time>
      </trkpt>
      <trkpt lat="45.83813" lon="5.88582">
        <ele>811.00927734375</ele>
        <time>2012-03-17T08:13:31Z</time>
      </trkpt>
      <trkpt lat="45.8381" lon="5.88581">
        <ele>813.41284179688</ele>
        <time>2012-03-17T08:13:45Z</time>
      </trkpt>
      <trkpt lat="45.83811" lon="5.88582">
        <ele>815.81616210938</ele>
        <time>2012-03-17T08:13:58Z</time>
      </trkpt>
      <trkpt lat="45.83813" lon="5.88579">
        <ele>815.81616210938</ele>
        <time>2012-03-17T08:14:09Z</time>
      </trkpt>
      <trkpt lat="45.83817" lon="5.88574">
        <ele>816.77734375</ele>
        <time>2012-03-17T08:14:16Z</time>
      </trkpt>
      <trkpt lat="45.83821" lon="5.8857">
        <ele>817.25805664062</ele>
        <time>2012-03-17T08:14:22Z</time>
      </trkpt>
      <trkpt lat="45.83823" lon="5.88568">
        <ele>817.73852539062</ele>
        <time>2012-03-17T08:14:28Z</time>
      </trkpt>
      <trkpt lat="45.83827" lon="5.88567">
        <ele>819.1806640625</ele>
        <time>2012-03-17T08:14:35Z</time>
      </trkpt>
      <trkpt lat="45.83832" lon="5.88568">
        <ele>821.58374023438</ele>
        <time>2012-03-17T08:14:43Z</time>
      </trkpt>
      <trkpt lat="45.83836" lon="5.8857">
        <ele>823.02587890625</ele>
        <time>2012-03-17T08:14:50Z</time>
      </trkpt>
      <trkpt lat="45.83841" lon="5.88571">
        <ele>823.50659179688</ele>
        <time>2012-03-17T08:14:58Z</time>
      </trkpt>
      <trkpt lat="45.83846" lon="5.88571">
        <ele>825.42895507812</ele>
        <time>2012-03-17T08:15:06Z</time>
      </trkpt>
      <trkpt lat="45.83853" lon="5.88569">
        <ele>825.42895507812</ele>
        <time>2012-03-17T08:15:15Z</time>
      </trkpt>
      <trkpt lat="45.83861" lon="5.88567">
        <ele>825.90966796875</ele>
        <time>2012-03-17T08:15:24Z</time>
      </trkpt>
      <trkpt lat="45.83868" lon="5.88566">
        <ele>826.87109375</ele>
        <time>2012-03-17T08:15:33Z</time>
      </trkpt>
      <trkpt lat="45.83873" lon="5.88567">
        <ele>828.7939453125</ele>
        <time>2012-03-17T08:15:40Z</time>
      </trkpt>
      <trkpt lat="45.83879" lon="5.88568">
        <ele>829.75512695312</ele>
        <time>2012-03-17T08:15:48Z</time>
      </trkpt>
      <trkpt lat="45.83886" lon="5.88568">
        <ele>831.677734375</ele>
        <time>2012-03-17T08:15:56Z</time>
      </trkpt>
      <trkpt lat="45.83893" lon="5.88569">
        <ele>832.63916015625</ele>
        <time>2012-03-17T08:16:04Z</time>
      </trkpt>
      <trkpt lat="45.83898" lon="5.88568">
        <ele>833.11962890625</ele>
        <time>2012-03-17T08:16:12Z</time>
      </trkpt>
      <trkpt lat="45.83904" lon="5.88567">
        <ele>834.56176757812</ele>
        <time>2012-03-17T08:16:19Z</time>
      </trkpt>
      <trkpt lat="45.8391" lon="5.88568">
        <ele>835.52294921875</ele>
        <time>2012-03-17T08:16:27Z</time>
      </trkpt>
      <trkpt lat="45.83916" lon="5.88566">
        <ele>836.00366210938</ele>
        <time>2012-03-17T08:16:36Z</time>
      </trkpt>
      <trkpt lat="45.8392" lon="5.88565">
        <ele>835.04248046875</ele>
        <time>2012-03-17T08:16:42Z</time>
      </trkpt>
      <trkpt lat="45.83928" lon="5.88564">
        <ele>835.04248046875</ele>
        <time>2012-03-17T08:16:48Z</time>
      </trkpt>
      <trkpt lat="45.83933" lon="5.88561">
        <ele>834.56176757812</ele>
        <time>2012-03-17T08:16:52Z</time>
      </trkpt>
      <trkpt lat="45.83944" lon="5.88562">
        <ele>837.44555664062</ele>
        <time>2012-03-17T08:16:59Z</time>
      </trkpt>
      <trkpt lat="45.83951" lon="5.88563">
        <ele>839.3681640625</ele>
        <time>2012-03-17T08:17:05Z</time>
      </trkpt>
      <trkpt lat="45.83953" lon="5.88563">
        <ele>839.84887695312</ele>
        <time>2012-03-17T08:17:07Z</time>
      </trkpt>
      <trkpt lat="45.8396" lon="5.88562">
        <ele>839.3681640625</ele>
        <time>2012-03-17T08:17:14Z</time>
      </trkpt>
      <trkpt lat="45.83962" lon="5.88561">
        <ele>839.3681640625</ele>
        <time>2012-03-17T08:17:16Z</time>
      </trkpt>
      <trkpt lat="45.83968" lon="5.88561">
        <ele>839.3681640625</ele>
        <time>2012-03-17T08:17:21Z</time>
      </trkpt>
      <trkpt lat="45.83974" lon="5.88558">
        <ele>838.40698242188</ele>
        <time>2012-03-17T08:17:27Z</time>
      </trkpt>
      <trkpt lat="45.83975" lon="5.88557">
        <ele>837.92626953125</ele>
        <time>2012-03-17T08:17:28Z</time>
      </trkpt>
      <trkpt lat="45.83978" lon="5.88556">
        <ele>837.92626953125</ele>
        <time>2012-03-17T08:17:30Z</time>
      </trkpt>
      <trkpt lat="45.83988" lon="5.88551">
        <ele>838.40698242188</ele>
        <time>2012-03-17T08:17:39Z</time>
      </trkpt>
      <trkpt lat="45.83995" lon="5.88548">
        <ele>838.8876953125</ele>
        <time>2012-03-17T08:17:45Z</time>
      </trkpt>
      <trkpt lat="45.84001" lon="5.88545">
        <ele>838.40698242188</ele>
        <time>2012-03-17T08:17:51Z</time>
      </trkpt>
      <trkpt lat="45.84007" lon="5.88541">
        <ele>837.92626953125</ele>
        <time>2012-03-17T08:17:57Z</time>
      </trkpt>
      <trkpt lat="45.84008" lon="5.8854">
        <ele>837.92626953125</ele>
        <time>2012-03-17T08:17:58Z</time>
      </trkpt>
      <trkpt lat="45.84016" lon="5.88529">
        <ele>836.484375</ele>
        <time>2012-03-17T08:18:05Z</time>
      </trkpt>
      <trkpt lat="45.84027" lon="5.8852">
        <ele>836.96484375</ele>
        <time>2012-03-17T08:18:13Z</time>
      </trkpt>
      <trkpt lat="45.84037" lon="5.88512">
        <ele>838.8876953125</ele>
        <time>2012-03-17T08:18:20Z</time>
      </trkpt>
      <trkpt lat="45.84045" lon="5.88503">
        <ele>840.32958984375</ele>
        <time>2012-03-17T08:18:26Z</time>
      </trkpt>
      <trkpt lat="45.84054" lon="5.88497">
        <ele>843.21337890625</ele>
        <time>2012-03-17T08:18:31Z</time>
      </trkpt>
      <trkpt lat="45.84058" lon="5.88492">
        <ele>842.25219726562</ele>
        <time>2012-03-17T08:18:33Z</time>
      </trkpt>
      <trkpt lat="45.8407" lon="5.88485">
        <ele>842.73291015625</ele>
        <time>2012-03-17T08:18:40Z</time>
      </trkpt>
      <trkpt lat="45.84072" lon="5.88485">
        <ele>843.21337890625</ele>
        <time>2012-03-17T08:18:41Z</time>
      </trkpt>
      <trkpt lat="45.84082" lon="5.88483">
        <ele>845.61694335938</ele>
        <time>2012-03-17T08:18:47Z</time>
      </trkpt>
      <trkpt lat="45.84084" lon="5.88483">
        <ele>845.61694335938</ele>
        <time>2012-03-17T08:18:48Z</time>
      </trkpt>
      <trkpt lat="45.84092" lon="5.88483">
        <ele>846.57836914062</ele>
        <time>2012-03-17T08:18:53Z</time>
      </trkpt>
      <trkpt lat="45.84094" lon="5.88483">
        <ele>847.05883789062</ele>
        <time>2012-03-17T08:18:54Z</time>
      </trkpt>
      <trkpt lat="45.84104" lon="5.88485">
        <ele>848.02026367188</ele>
        <time>2012-03-17T08:18:59Z</time>
      </trkpt>
      <trkpt lat="45.84108" lon="5.88485">
        <ele>848.9814453125</ele>
        <time>2012-03-17T08:19:01Z</time>
      </trkpt>
      <trkpt lat="45.84109" lon="5.88486">
        <ele>848.9814453125</ele>
        <time>2012-03-17T08:19:02Z</time>
      </trkpt>
      <trkpt lat="45.84115" lon="5.88486">
        <ele>849.46215820312</ele>
        <time>2012-03-17T08:19:05Z</time>
      </trkpt>
      <trkpt lat="45.84123" lon="5.8848">
        <ele>849.94287109375</ele>
        <time>2012-03-17T08:19:12Z</time>
      </trkpt>
      <trkpt lat="45.84132" lon="5.88477">
        <ele>852.34594726562</ele>
        <time>2012-03-17T08:19:20Z</time>
      </trkpt>
      <trkpt lat="45.84133" lon="5.88477">
        <ele>852.34594726562</ele>
        <time>2012-03-17T08:19:21Z</time>
      </trkpt>
      <trkpt lat="45.8414" lon="5.88475">
        <ele>853.30737304688</ele>
        <time>2012-03-17T08:19:27Z</time>
      </trkpt>
      <trkpt lat="45.84147" lon="5.88467">
        <ele>854.26879882812</ele>
        <time>2012-03-17T08:19:32Z</time>
      </trkpt>
      <trkpt lat="45.84153" lon="5.88459">
        <ele>855.71069335938</ele>
        <time>2012-03-17T08:19:38Z</time>
      </trkpt>
      <trkpt lat="45.84152" lon="5.88459">
        <ele>860.03662109375</ele>
        <time>2012-03-17T08:19:44Z</time>
      </trkpt>
      <trkpt lat="45.84152" lon="5.88457">
        <ele>865.32397460938</ele>
        <time>2012-03-17T08:19:50Z</time>
      </trkpt>
      <trkpt lat="45.84156" lon="5.88457">
        <ele>866.76586914062</ele>
        <time>2012-03-17T08:20:01Z</time>
      </trkpt>
      <trkpt lat="45.84161" lon="5.88457">
        <ele>865.32397460938</ele>
        <time>2012-03-17T08:20:06Z</time>
      </trkpt>
      <trkpt lat="45.84165" lon="5.88458">
        <ele>864.36254882812</ele>
        <time>2012-03-17T08:20:09Z</time>
      </trkpt>
      <trkpt lat="45.84171" lon="5.88459">
        <ele>863.4013671875</ele>
        <time>2012-03-17T08:20:14Z</time>
      </trkpt>
      <trkpt lat="45.84176" lon="5.88459">
        <ele>862.43994140625</ele>
        <time>2012-03-17T08:20:19Z</time>
      </trkpt>
      <trkpt lat="45.84181" lon="5.88459">
        <ele>862.92065429688</ele>
        <time>2012-03-17T08:20:23Z</time>
      </trkpt>
      <trkpt lat="45.84184" lon="5.88459">
        <ele>863.4013671875</ele>
        <time>2012-03-17T08:20:26Z</time>
      </trkpt>
      <trkpt lat="45.84192" lon="5.88457">
        <ele>863.4013671875</ele>
        <time>2012-03-17T08:20:31Z</time>
      </trkpt>
      <trkpt lat="45.84201" lon="5.88456">
        <ele>863.4013671875</ele>
        <time>2012-03-17T08:20:37Z</time>
      </trkpt>
      <trkpt lat="45.84204" lon="5.88455">
        <ele>863.4013671875</ele>
        <time>2012-03-17T08:20:39Z</time>
      </trkpt>
      <trkpt lat="45.8421" lon="5.88453">
        <ele>862.43994140625</ele>
        <time>2012-03-17T08:20:44Z</time>
      </trkpt>
      <trkpt lat="45.84219" lon="5.88449">
        <ele>861.95947265625</ele>
        <time>2012-03-17T08:20:49Z</time>
      </trkpt>
      <trkpt lat="45.8422" lon="5.88448">
        <ele>861.47875976562</ele>
        <time>2012-03-17T08:20:50Z</time>
      </trkpt>
      <trkpt lat="45.84224" lon="5.88443">
        <ele>860.998046875</ele>
        <time>2012-03-17T08:20:53Z</time>
      </trkpt>
      <trkpt lat="45.84227" lon="5.88435">
        <ele>860.998046875</ele>
        <time>2012-03-17T08:20:57Z</time>
      </trkpt>
      <trkpt lat="45.84231" lon="5.88421">
        <ele>859.55590820312</ele>
        <time>2012-03-17T08:21:03Z</time>
      </trkpt>
      <trkpt lat="45.84233" lon="5.88415">
        <ele>859.0751953125</ele>
        <time>2012-03-17T08:21:06Z</time>
      </trkpt>
      <trkpt lat="45.84235" lon="5.88414">
        <ele>859.0751953125</ele>
        <time>2012-03-17T08:21:07Z</time>
      </trkpt>
      <trkpt lat="45.8424" lon="5.8841">
        <ele>859.55590820312</ele>
        <time>2012-03-17T08:21:11Z</time>
      </trkpt>
      <trkpt lat="45.84246" lon="5.88402">
        <ele>861.95947265625</ele>
        <time>2012-03-17T08:21:17Z</time>
      </trkpt>
      <trkpt lat="45.84248" lon="5.88398">
        <ele>868.6884765625</ele>
        <time>2012-03-17T08:21:24Z</time>
      </trkpt>
      <trkpt lat="45.84248" lon="5.88397">
        <ele>874.93701171875</ele>
        <time>2012-03-17T08:21:32Z</time>
      </trkpt>
      <trkpt lat="45.84248" lon="5.88398">
        <ele>877.34057617188</ele>
        <time>2012-03-17T08:21:39Z</time>
      </trkpt>
      <trkpt lat="45.84249" lon="5.88401">
        <ele>879.74365234375</ele>
        <time>2012-03-17T08:21:49Z</time>
      </trkpt>
      <trkpt lat="45.84251" lon="5.88397">
        <ele>879.74365234375</ele>
        <time>2012-03-17T08:21:56Z</time>
      </trkpt>
      <trkpt lat="45.84255" lon="5.88389">
        <ele>878.78247070312</ele>
        <time>2012-03-17T08:22:05Z</time>
      </trkpt>
      <trkpt lat="45.84258" lon="5.88383">
        <ele>878.3017578125</ele>
        <time>2012-03-17T08:22:11Z</time>
      </trkpt>
      <trkpt lat="45.8426" lon="5.8838">
        <ele>875.41748046875</ele>
        <time>2012-03-17T08:22:18Z</time>
      </trkpt>
      <trkpt lat="45.84263" lon="5.88372">
        <ele>875.41748046875</ele>
        <time>2012-03-17T08:22:26Z</time>
      </trkpt>
      <trkpt lat="45.84264" lon="5.88367">
        <ele>878.3017578125</ele>
        <time>2012-03-17T08:22:32Z</time>
      </trkpt>
      <trkpt lat="45.84267" lon="5.88358">
        <ele>877.82104492188</ele>
        <time>2012-03-17T08:22:39Z</time>
      </trkpt>
      <trkpt lat="45.84267" lon="5.88351">
        <ele>876.37915039062</ele>
        <time>2012-03-17T08:22:44Z</time>
      </trkpt>
      <trkpt lat="45.84268" lon="5.88341">
        <ele>874.93701171875</ele>
        <time>2012-03-17T08:22:53Z</time>
      </trkpt>
      <trkpt lat="45.84271" lon="5.88332">
        <ele>874.45629882812</ele>
        <time>2012-03-17T08:23:01Z</time>
      </trkpt>
      <trkpt lat="45.8427" lon="5.88331">
        <ele>874.93701171875</ele>
        <time>2012-03-17T08:23:06Z</time>
      </trkpt>
      <trkpt lat="45.84271" lon="5.88328">
        <ele>877.82104492188</ele>
        <time>2012-03-17T08:23:20Z</time>
      </trkpt>
      <trkpt lat="45.84274" lon="5.88329">
        <ele>874.93701171875</ele>
        <time>2012-03-17T08:23:27Z</time>
      </trkpt>
      <trkpt lat="45.84277" lon="5.88319">
        <ele>873.9755859375</ele>
        <time>2012-03-17T08:23:36Z</time>
      </trkpt>
      <trkpt lat="45.84278" lon="5.88311">
        <ele>873.4951171875</ele>
        <time>2012-03-17T08:23:45Z</time>
      </trkpt>
      <trkpt lat="45.84278" lon="5.88308">
        <ele>874.93701171875</ele>
        <time>2012-03-17T08:23:50Z</time>
      </trkpt>
      <trkpt lat="45.84279" lon="5.88304">
        <ele>875.89819335938</ele>
        <time>2012-03-17T08:23:53Z</time>
      </trkpt>
      <trkpt lat="45.8428" lon="5.88297">
        <ele>878.3017578125</ele>
        <time>2012-03-17T08:23:58Z</time>
      </trkpt>
      <trkpt lat="45.84283" lon="5.88284">
        <ele>878.78247070312</ele>
        <time>2012-03-17T08:24:09Z</time>
      </trkpt>
      <trkpt lat="45.84286" lon="5.88274">
        <ele>877.82104492188</ele>
        <time>2012-03-17T08:24:18Z</time>
      </trkpt>
      <trkpt lat="45.84289" lon="5.88262">
        <ele>879.26293945312</ele>
        <time>2012-03-17T08:24:27Z</time>
      </trkpt>
      <trkpt lat="45.84291" lon="5.88246">
        <ele>885.03100585938</ele>
        <time>2012-03-17T08:24:39Z</time>
      </trkpt>
      <trkpt lat="45.84296" lon="5.88231">
        <ele>888.3955078125</ele>
        <time>2012-03-17T08:24:50Z</time>
      </trkpt>
      <trkpt lat="45.84301" lon="5.88219">
        <ele>890.79858398438</ele>
        <time>2012-03-17T08:25:00Z</time>
      </trkpt>
      <trkpt lat="45.84309" lon="5.88214">
        <ele>892.24096679688</ele>
        <time>2012-03-17T08:25:09Z</time>
      </trkpt>
      <trkpt lat="45.84312" lon="5.88211">
        <ele>893.68286132812</ele>
        <time>2012-03-17T08:25:15Z</time>
      </trkpt>
      <trkpt lat="45.84316" lon="5.88208">
        <ele>894.64404296875</ele>
        <time>2012-03-17T08:25:22Z</time>
      </trkpt>
      <trkpt lat="45.8432" lon="5.88208">
        <ele>895.12475585938</ele>
        <time>2012-03-17T08:25:27Z</time>
      </trkpt>
      <trkpt lat="45.84321" lon="5.88208">
        <ele>895.12475585938</ele>
        <time>2012-03-17T08:25:34Z</time>
      </trkpt>
      <trkpt lat="45.84322" lon="5.88208">
        <ele>895.60546875</ele>
        <time>2012-03-17T08:25:49Z</time>
      </trkpt>
      <trkpt lat="45.84329" lon="5.88207">
        <ele>899.93139648438</ele>
        <time>2012-03-17T08:25:57Z</time>
      </trkpt>
      <trkpt lat="45.84335" lon="5.88207">
        <ele>902.81518554688</ele>
        <time>2012-03-17T08:26:04Z</time>
      </trkpt>
      <trkpt lat="45.84336" lon="5.88205">
        <ele>902.81518554688</ele>
        <time>2012-03-17T08:26:10Z</time>
      </trkpt>
      <trkpt lat="45.84341" lon="5.88204">
        <ele>903.77661132812</ele>
        <time>2012-03-17T08:26:15Z</time>
      </trkpt>
      <trkpt lat="45.84347" lon="5.88202">
        <ele>903.2958984375</ele>
        <time>2012-03-17T08:26:22Z</time>
      </trkpt>
      <trkpt lat="45.84361" lon="5.88195">
        <ele>904.25732421875</ele>
        <time>2012-03-17T08:26:36Z</time>
      </trkpt>
      <trkpt lat="45.8437" lon="5.88189">
        <ele>905.69921875</ele>
        <time>2012-03-17T08:26:47Z</time>
      </trkpt>
      <trkpt lat="45.84377" lon="5.88183">
        <ele>906.66040039062</ele>
        <time>2012-03-17T08:26:55Z</time>
      </trkpt>
      <trkpt lat="45.84386" lon="5.88176">
        <ele>908.58325195312</ele>
        <time>2012-03-17T08:27:06Z</time>
      </trkpt>
      <trkpt lat="45.84396" lon="5.8817">
        <ele>910.505859375</ele>
        <time>2012-03-17T08:27:18Z</time>
      </trkpt>
      <trkpt lat="45.84404" lon="5.88166">
        <ele>911.94799804688</ele>
        <time>2012-03-17T08:27:28Z</time>
      </trkpt>
      <trkpt lat="45.8441" lon="5.88164">
        <ele>914.35107421875</ele>
        <time>2012-03-17T08:27:37Z</time>
      </trkpt>
      <trkpt lat="45.84418" lon="5.88161">
        <ele>916.75439453125</ele>
        <time>2012-03-17T08:27:46Z</time>
      </trkpt>
      <trkpt lat="45.84426" lon="5.88163">
        <ele>919.63842773438</ele>
        <time>2012-03-17T08:27:55Z</time>
      </trkpt>
      <trkpt lat="45.8443" lon="5.88167">
        <ele>923.48364257812</ele>
        <time>2012-03-17T08:28:03Z</time>
      </trkpt>
      <trkpt lat="45.84433" lon="5.8817">
        <ele>926.36767578125</ele>
        <time>2012-03-17T08:28:10Z</time>
      </trkpt>
      <trkpt lat="45.84435" lon="5.88171">
        <ele>930.212890625</ele>
        <time>2012-03-17T08:28:17Z</time>
      </trkpt>
      <trkpt lat="45.8444" lon="5.88174">
        <ele>934.53881835938</ele>
        <time>2012-03-17T08:28:26Z</time>
      </trkpt>
      <trkpt lat="45.84444" lon="5.88174">
        <ele>935.98071289062</ele>
        <time>2012-03-17T08:28:33Z</time>
      </trkpt>
      <trkpt lat="45.84449" lon="5.88171">
        <ele>935.5</ele>
        <time>2012-03-17T08:28:40Z</time>
      </trkpt>
      <trkpt lat="45.84452" lon="5.88171">
        <ele>935.01953125</ele>
        <time>2012-03-17T08:28:44Z</time>
      </trkpt>
      <trkpt lat="45.84455" lon="5.88174">
        <ele>929.25146484375</ele>
        <time>2012-03-17T08:28:52Z</time>
      </trkpt>
      <trkpt lat="45.8446" lon="5.88173">
        <ele>928.77099609375</ele>
        <time>2012-03-17T08:29:11Z</time>
      </trkpt>
      <trkpt lat="45.84455" lon="5.88167">
        <ele>928.77099609375</ele>
        <time>2012-03-17T08:29:20Z</time>
      </trkpt>
      <trkpt lat="45.84458" lon="5.88175">
        <ele>918.1962890625</ele>
        <time>2012-03-17T08:29:37Z</time>
      </trkpt>
      <trkpt lat="45.84462" lon="5.88177">
        <ele>921.08032226562</ele>
        <time>2012-03-17T08:29:45Z</time>
      </trkpt>
      <trkpt lat="45.84465" lon="5.88176">
        <ele>922.04150390625</ele>
        <time>2012-03-17T08:29:48Z</time>
      </trkpt>
      <trkpt lat="45.84468" lon="5.88176">
        <ele>922.52221679688</ele>
        <time>2012-03-17T08:29:51Z</time>
      </trkpt>
      <trkpt lat="45.84476" lon="5.88174">
        <ele>925.88696289062</ele>
        <time>2012-03-17T08:30:00Z</time>
      </trkpt>
      <trkpt lat="45.84483" lon="5.88171">
        <ele>927.8095703125</ele>
        <time>2012-03-17T08:30:08Z</time>
      </trkpt>
      <trkpt lat="45.84491" lon="5.88167">
        <ele>929.73217773438</ele>
        <time>2012-03-17T08:30:16Z</time>
      </trkpt>
      <trkpt lat="45.84499" lon="5.88166">
        <ele>930.212890625</ele>
        <time>2012-03-17T08:30:24Z</time>
      </trkpt>
      <trkpt lat="45.84506" lon="5.88161">
        <ele>931.65478515625</ele>
        <time>2012-03-17T08:30:31Z</time>
      </trkpt>
      <trkpt lat="45.84509" lon="5.88159">
        <ele>932.13549804688</ele>
        <time>2012-03-17T08:30:34Z</time>
      </trkpt>
      <trkpt lat="45.84519" lon="5.8816">
        <ele>935.5</ele>
        <time>2012-03-17T08:30:45Z</time>
      </trkpt>
      <trkpt lat="45.84525" lon="5.8816">
        <ele>937.9033203125</ele>
        <time>2012-03-17T08:30:52Z</time>
      </trkpt>
      <trkpt lat="45.84531" lon="5.88161">
        <ele>940.30688476562</ele>
        <time>2012-03-17T08:31:00Z</time>
      </trkpt>
      <trkpt lat="45.84539" lon="5.88161">
        <ele>940.30688476562</ele>
        <time>2012-03-17T08:31:09Z</time>
      </trkpt>
      <trkpt lat="45.84545" lon="5.88157">
        <ele>939.82592773438</ele>
        <time>2012-03-17T08:31:17Z</time>
      </trkpt>
      <trkpt lat="45.8455" lon="5.88156">
        <ele>940.30688476562</ele>
        <time>2012-03-17T08:31:23Z</time>
      </trkpt>
      <trkpt lat="45.8455" lon="5.88149">
        <ele>939.82592773438</ele>
        <time>2012-03-17T08:31:30Z</time>
      </trkpt>
      <trkpt lat="45.84552" lon="5.88142">
        <ele>939.82592773438</ele>
        <time>2012-03-17T08:31:36Z</time>
      </trkpt>
      <trkpt lat="45.84553" lon="5.88142">
        <ele>937.42260742188</ele>
        <time>2012-03-17T08:31:48Z</time>
      </trkpt>
      <trkpt lat="45.84553" lon="5.88142">
        <ele>936.46142578125</ele>
        <time>2012-03-17T08:31:58Z</time>
      </trkpt>
      <trkpt lat="45.84553" lon="5.88142">
        <ele>935.5</ele>
        <time>2012-03-17T08:32:07Z</time>
      </trkpt>
      <trkpt lat="45.84554" lon="5.88142">
        <ele>934.53881835938</ele>
        <time>2012-03-17T08:32:16Z</time>
      </trkpt>
      <trkpt lat="45.84554" lon="5.88142">
        <ele>934.05810546875</ele>
        <time>2012-03-17T08:32:25Z</time>
      </trkpt>
      <trkpt lat="45.84554" lon="5.88142">
        <ele>934.05810546875</ele>
        <time>2012-03-17T08:32:30Z</time>
      </trkpt>
      <trkpt lat="45.84555" lon="5.88143">
        <ele>934.05810546875</ele>
        <time>2012-03-17T08:32:35Z</time>
      </trkpt>
      <trkpt lat="45.84561" lon="5.88144">
        <ele>934.53881835938</ele>
        <time>2012-03-17T08:32:43Z</time>
      </trkpt>
      <trkpt lat="45.84561" lon="5.88144">
        <ele>934.53881835938</ele>
        <time>2012-03-17T08:32:47Z</time>
      </trkpt>
      <trkpt lat="45.84562" lon="5.88144">
        <ele>935.01953125</ele>
        <time>2012-03-17T08:33:01Z</time>
      </trkpt>
      <trkpt lat="45.84562" lon="5.88144">
        <ele>935.5</ele>
        <time>2012-03-17T08:33:17Z</time>
      </trkpt>
      <trkpt lat="45.84563" lon="5.88145">
        <ele>936.46142578125</ele>
        <time>2012-03-17T08:33:44Z</time>
      </trkpt>
      <trkpt lat="45.84563" lon="5.88145">
        <ele>936.94189453125</ele>
        <time>2012-03-17T08:34:01Z</time>
      </trkpt>
      <trkpt lat="45.84563" lon="5.88145">
        <ele>936.94189453125</ele>
        <time>2012-03-17T08:34:02Z</time>
      </trkpt>
      <trkpt lat="45.84566" lon="5.88144">
        <ele>936.94189453125</ele>
        <time>2012-03-17T08:34:13Z</time>
      </trkpt>
      <trkpt lat="45.84573" lon="5.88145">
        <ele>937.9033203125</ele>
        <time>2012-03-17T08:34:18Z</time>
      </trkpt>
      <trkpt lat="45.84586" lon="5.88145">
        <ele>938.86474609375</ele>
        <time>2012-03-17T08:34:27Z</time>
      </trkpt>
      <trkpt lat="45.84599" lon="5.88145">
        <ele>939.82592773438</ele>
        <time>2012-03-17T08:34:35Z</time>
      </trkpt>
      <trkpt lat="45.8461" lon="5.88144">
        <ele>940.78735351562</ele>
        <time>2012-03-17T08:34:42Z</time>
      </trkpt>
      <trkpt lat="45.84627" lon="5.88144">
        <ele>941.74877929688</ele>
        <time>2012-03-17T08:34:52Z</time>
      </trkpt>
      <trkpt lat="45.84643" lon="5.88143">
        <ele>943.19067382812</ele>
        <time>2012-03-17T08:35:02Z</time>
      </trkpt>
      <trkpt lat="45.84656" lon="5.88143">
        <ele>944.63256835938</ele>
        <time>2012-03-17T08:35:10Z</time>
      </trkpt>
      <trkpt lat="45.84671" lon="5.88142">
        <ele>945.59399414062</ele>
        <time>2012-03-17T08:35:19Z</time>
      </trkpt>
      <trkpt lat="45.84685" lon="5.88141">
        <ele>946.55541992188</ele>
        <time>2012-03-17T08:35:28Z</time>
      </trkpt>
      <trkpt lat="45.847" lon="5.8814">
        <ele>947.5166015625</ele>
        <time>2012-03-17T08:35:37Z</time>
      </trkpt>
      <trkpt lat="45.84711" lon="5.88139">
        <ele>947.99731445312</ele>
        <time>2012-03-17T08:35:44Z</time>
      </trkpt>
      <trkpt lat="45.84724" lon="5.88141">
        <ele>948.47778320312</ele>
        <time>2012-03-17T08:35:53Z</time>
      </trkpt>
      <trkpt lat="45.84737" lon="5.8814">
        <ele>949.43920898438</ele>
        <time>2012-03-17T08:36:02Z</time>
      </trkpt>
      <trkpt lat="45.84753" lon="5.88141">
        <ele>949.919921875</ele>
        <time>2012-03-17T08:36:12Z</time>
      </trkpt>
      <trkpt lat="45.84768" lon="5.88142">
        <ele>950.88110351562</ele>
        <time>2012-03-17T08:36:21Z</time>
      </trkpt>
      <trkpt lat="45.84782" lon="5.88143">
        <ele>951.36181640625</ele>
        <time>2012-03-17T08:36:29Z</time>
      </trkpt>
      <trkpt lat="45.84794" lon="5.88145">
        <ele>951.84252929688</ele>
        <time>2012-03-17T08:36:36Z</time>
      </trkpt>
      <trkpt lat="45.84807" lon="5.88146">
        <ele>951.84252929688</ele>
        <time>2012-03-17T08:36:44Z</time>
      </trkpt>
      <trkpt lat="45.84821" lon="5.88148">
        <ele>951.84252929688</ele>
        <time>2012-03-17T08:36:54Z</time>
      </trkpt>
      <trkpt lat="45.84834" lon="5.8815">
        <ele>951.84252929688</ele>
        <time>2012-03-17T08:37:02Z</time>
      </trkpt>
      <trkpt lat="45.84848" lon="5.88152">
        <ele>951.84252929688</ele>
        <time>2012-03-17T08:37:12Z</time>
      </trkpt>
      <trkpt lat="45.84866" lon="5.88156">
        <ele>951.84252929688</ele>
        <time>2012-03-17T08:37:23Z</time>
      </trkpt>
      <trkpt lat="45.84881" lon="5.88161">
        <ele>952.32299804688</ele>
        <time>2012-03-17T08:37:32Z</time>
      </trkpt>
      <trkpt lat="45.84892" lon="5.88164">
        <ele>952.32299804688</ele>
        <time>2012-03-17T08:37:39Z</time>
      </trkpt>
      <trkpt lat="45.84907" lon="5.88171">
        <ele>952.8037109375</ele>
        <time>2012-03-17T08:37:48Z</time>
      </trkpt>
      <trkpt lat="45.84923" lon="5.88177">
        <ele>953.76513671875</ele>
        <time>2012-03-17T08:37:59Z</time>
      </trkpt>
      <trkpt lat="45.84929" lon="5.88181">
        <ele>954.24584960938</ele>
        <time>2012-03-17T08:38:03Z</time>
      </trkpt>
      <trkpt lat="45.8494" lon="5.88186">
        <ele>955.20703125</ele>
        <time>2012-03-17T08:38:12Z</time>
      </trkpt>
      <trkpt lat="45.84951" lon="5.8819">
        <ele>955.20703125</ele>
        <time>2012-03-17T08:38:20Z</time>
      </trkpt>
      <trkpt lat="45.84962" lon="5.88191">
        <ele>955.20703125</ele>
        <time>2012-03-17T08:38:28Z</time>
      </trkpt>
      <trkpt lat="45.84969" lon="5.88188">
        <ele>955.68774414062</ele>
        <time>2012-03-17T08:38:34Z</time>
      </trkpt>
      <trkpt lat="45.84974" lon="5.88179">
        <ele>955.20703125</ele>
        <time>2012-03-17T08:38:40Z</time>
      </trkpt>
      <trkpt lat="45.84977" lon="5.88176">
        <ele>955.20703125</ele>
        <time>2012-03-17T08:38:46Z</time>
      </trkpt>
      <trkpt lat="45.84978" lon="5.8818">
        <ele>954.72631835938</ele>
        <time>2012-03-17T08:38:50Z</time>
      </trkpt>
      <trkpt lat="45.84975" lon="5.8818">
        <ele>954.24584960938</ele>
        <time>2012-03-17T08:38:54Z</time>
      </trkpt>
      <trkpt lat="45.84973" lon="5.88179">
        <ele>953.76513671875</ele>
        <time>2012-03-17T08:38:56Z</time>
      </trkpt>
      <trkpt lat="45.84972" lon="5.88172">
        <ele>952.32299804688</ele>
        <time>2012-03-17T08:39:00Z</time>
      </trkpt>
      <trkpt lat="45.84968" lon="5.88157">
        <ele>954.24584960938</ele>
        <time>2012-03-17T08:39:09Z</time>
      </trkpt>
      <trkpt lat="45.84964" lon="5.88148">
        <ele>955.20703125</ele>
        <time>2012-03-17T08:39:15Z</time>
      </trkpt>
      <trkpt lat="45.8496" lon="5.8814">
        <ele>957.1298828125</ele>
        <time>2012-03-17T08:39:20Z</time>
      </trkpt>
      <trkpt lat="45.84958" lon="5.88137">
        <ele>956.16845703125</ele>
        <time>2012-03-17T08:39:23Z</time>
      </trkpt>
      <trkpt lat="45.84958" lon="5.88136">
        <ele>955.68774414062</ele>
        <time>2012-03-17T08:39:24Z</time>
      </trkpt>
      <trkpt lat="45.84953" lon="5.88128">
        <ele>955.20703125</ele>
        <time>2012-03-17T08:39:30Z</time>
      </trkpt>
      <trkpt lat="45.84949" lon="5.88123">
        <ele>955.68774414062</ele>
        <time>2012-03-17T08:39:34Z</time>
      </trkpt>
      <trkpt lat="45.84942" lon="5.88115">
        <ele>960.013671875</ele>
        <time>2012-03-17T08:39:40Z</time>
      </trkpt>
      <trkpt lat="45.84939" lon="5.88109">
        <ele>962.4169921875</ele>
        <time>2012-03-17T08:39:46Z</time>
      </trkpt>
      <trkpt lat="45.84938" lon="5.88104">
        <ele>963.37841796875</ele>
        <time>2012-03-17T08:39:52Z</time>
      </trkpt>
      <trkpt lat="45.84937" lon="5.881">
        <ele>963.85888671875</ele>
        <time>2012-03-17T08:39:57Z</time>
      </trkpt>
      <trkpt lat="45.84936" lon="5.88094">
        <ele>967.7041015625</ele>
        <time>2012-03-17T08:40:03Z</time>
      </trkpt>
      <trkpt lat="45.84935" lon="5.88087">
        <ele>970.107421875</ele>
        <time>2012-03-17T08:40:12Z</time>
      </trkpt>
      <trkpt lat="45.84934" lon="5.88083">
        <ele>971.06884765625</ele>
        <time>2012-03-17T08:40:19Z</time>
      </trkpt>
      <trkpt lat="45.84934" lon="5.88077">
        <ele>972.99169921875</ele>
        <time>2012-03-17T08:40:26Z</time>
      </trkpt>
      <trkpt lat="45.84933" lon="5.88073">
        <ele>971.54931640625</ele>
        <time>2012-03-17T08:40:32Z</time>
      </trkpt>
      <trkpt lat="45.8493" lon="5.88066">
        <ele>972.99169921875</ele>
        <time>2012-03-17T08:40:40Z</time>
      </trkpt>
      <trkpt lat="45.84929" lon="5.8806">
        <ele>973.47241210938</ele>
        <time>2012-03-17T08:40:47Z</time>
      </trkpt>
      <trkpt lat="45.84928" lon="5.88056">
        <ele>973.95288085938</ele>
        <time>2012-03-17T08:40:54Z</time>
      </trkpt>
      <trkpt lat="45.84925" lon="5.8805">
        <ele>974.91430664062</ele>
        <time>2012-03-17T08:40:59Z</time>
      </trkpt>
      <trkpt lat="45.84924" lon="5.88044">
        <ele>976.35620117188</ele>
        <time>2012-03-17T08:41:06Z</time>
      </trkpt>
      <trkpt lat="45.84925" lon="5.88037">
        <ele>978.27880859375</ele>
        <time>2012-03-17T08:41:12Z</time>
      </trkpt>
      <trkpt lat="45.84925" lon="5.88034">
        <ele>977.79809570312</ele>
        <time>2012-03-17T08:41:18Z</time>
      </trkpt>
      <trkpt lat="45.84924" lon="5.88033">
        <ele>976.35620117188</ele>
        <time>2012-03-17T08:41:23Z</time>
      </trkpt>
      <trkpt lat="45.84922" lon="5.88033">
        <ele>975.39477539062</ele>
        <time>2012-03-17T08:41:31Z</time>
      </trkpt>
      <trkpt lat="45.84919" lon="5.88034">
        <ele>976.35620117188</ele>
        <time>2012-03-17T08:41:46Z</time>
      </trkpt>
      <trkpt lat="45.84919" lon="5.88033">
        <ele>977.31762695312</ele>
        <time>2012-03-17T08:41:50Z</time>
      </trkpt>
      <trkpt lat="45.84916" lon="5.88031">
        <ele>977.31762695312</ele>
        <time>2012-03-17T08:41:53Z</time>
      </trkpt>
      <trkpt lat="45.84908" lon="5.88025">
        <ele>978.27880859375</ele>
        <time>2012-03-17T08:42:00Z</time>
      </trkpt>
      <trkpt lat="45.84896" lon="5.88018">
        <ele>977.79809570312</ele>
        <time>2012-03-17T08:42:09Z</time>
      </trkpt>
      <trkpt lat="45.84891" lon="5.88014">
        <ele>976.8369140625</ele>
        <time>2012-03-17T08:42:14Z</time>
      </trkpt>
      <trkpt lat="45.84882" lon="5.8801">
        <ele>976.35620117188</ele>
        <time>2012-03-17T08:42:21Z</time>
      </trkpt>
      <trkpt lat="45.8487" lon="5.88006">
        <ele>976.8369140625</ele>
        <time>2012-03-17T08:42:30Z</time>
      </trkpt>
      <trkpt lat="45.84854" lon="5.88003">
        <ele>977.31762695312</ele>
        <time>2012-03-17T08:42:39Z</time>
      </trkpt>
      <trkpt lat="45.84838" lon="5.88">
        <ele>977.31762695312</ele>
        <time>2012-03-17T08:42:47Z</time>
      </trkpt>
      <trkpt lat="45.8482" lon="5.87998">
        <ele>977.31762695312</ele>
        <time>2012-03-17T08:42:55Z</time>
      </trkpt>
      <trkpt lat="45.8481" lon="5.87996">
        <ele>977.31762695312</ele>
        <time>2012-03-17T08:43:00Z</time>
      </trkpt>
      <trkpt lat="45.84795" lon="5.87996">
        <ele>977.79809570312</ele>
        <time>2012-03-17T08:43:08Z</time>
      </trkpt>
      <trkpt lat="45.84779" lon="5.87986">
        <ele>978.27880859375</ele>
        <time>2012-03-17T08:43:17Z</time>
      </trkpt>
      <trkpt lat="45.8477" lon="5.87972">
        <ele>979.23999023438</ele>
        <time>2012-03-17T08:43:25Z</time>
      </trkpt>
      <trkpt lat="45.84764" lon="5.87956">
        <ele>980.20141601562</ele>
        <time>2012-03-17T08:43:32Z</time>
      </trkpt>
      <trkpt lat="45.84762" lon="5.87934">
        <ele>980.20141601562</ele>
        <time>2012-03-17T08:43:40Z</time>
      </trkpt>
      <trkpt lat="45.84759" lon="5.87914">
        <ele>980.68212890625</ele>
        <time>2012-03-17T08:43:46Z</time>
      </trkpt>
      <trkpt lat="45.84753" lon="5.87891">
        <ele>979.720703125</ele>
        <time>2012-03-17T08:43:53Z</time>
      </trkpt>
      <trkpt lat="45.8475" lon="5.87876">
        <ele>979.720703125</ele>
        <time>2012-03-17T08:43:57Z</time>
      </trkpt>
      <trkpt lat="45.84745" lon="5.87847">
        <ele>978.27880859375</ele>
        <time>2012-03-17T08:44:03Z</time>
      </trkpt>
      <trkpt lat="45.84735" lon="5.87793">
        <ele>975.87548828125</ele>
        <time>2012-03-17T08:44:12Z</time>
      </trkpt>
      <trkpt lat="45.8473" lon="5.87766">
        <ele>973.47241210938</ele>
        <time>2012-03-17T08:44:17Z</time>
      </trkpt>
      <trkpt lat="45.84731" lon="5.87752">
        <ele>972.99169921875</ele>
        <time>2012-03-17T08:44:22Z</time>
      </trkpt>
      <trkpt lat="45.84725" lon="5.87749">
        <ele>975.39477539062</ele>
        <time>2012-03-17T08:44:27Z</time>
      </trkpt>
      <trkpt lat="45.84722" lon="5.8775">
        <ele>978.75952148438</ele>
        <time>2012-03-17T08:44:32Z</time>
      </trkpt>
      <trkpt lat="45.84721" lon="5.8775">
        <ele>980.20141601562</ele>
        <time>2012-03-17T08:44:35Z</time>
      </trkpt>
      <trkpt lat="45.8472" lon="5.87749">
        <ele>982.1240234375</ele>
        <time>2012-03-17T08:44:44Z</time>
      </trkpt>
      <trkpt lat="45.84719" lon="5.87748">
        <ele>981.64331054688</ele>
        <time>2012-03-17T08:44:50Z</time>
      </trkpt>
      <trkpt lat="45.84716" lon="5.87748">
        <ele>980.68212890625</ele>
        <time>2012-03-17T08:44:59Z</time>
      </trkpt>
      <trkpt lat="45.84715" lon="5.87748">
        <ele>980.68212890625</ele>
        <time>2012-03-17T08:45:00Z</time>
      </trkpt>
      <trkpt lat="45.84713" lon="5.87748">
        <ele>980.20141601562</ele>
        <time>2012-03-17T08:45:07Z</time>
      </trkpt>
      <trkpt lat="45.84713" lon="5.87749">
        <ele>983.56591796875</ele>
        <time>2012-03-17T08:45:23Z</time>
      </trkpt>
      <trkpt lat="45.84714" lon="5.87749">
        <ele>985.00805664062</ele>
        <time>2012-03-17T08:45:28Z</time>
      </trkpt>
      <trkpt lat="45.84714" lon="5.87751">
        <ele>982.60473632812</ele>
        <time>2012-03-17T08:45:54Z</time>
      </trkpt>
      <trkpt lat="45.84715" lon="5.8775">
        <ele>983.56591796875</ele>
        <time>2012-03-17T08:46:05Z</time>
      </trkpt>
      <trkpt lat="45.84715" lon="5.8775">
        <ele>983.56591796875</ele>
        <time>2012-03-17T08:46:06Z</time>
      </trkpt>
      <trkpt lat="45.84716" lon="5.8775">
        <ele>984.04663085938</ele>
        <time>2012-03-17T08:46:14Z</time>
      </trkpt>
      <trkpt lat="45.84715" lon="5.8775">
        <ele>985.00805664062</ele>
        <time>2012-03-17T08:46:34Z</time>
      </trkpt>
      <trkpt lat="45.84716" lon="5.87749">
        <ele>985.00805664062</ele>
        <time>2012-03-17T08:46:42Z</time>
      </trkpt>
      <trkpt lat="45.84715" lon="5.87751">
        <ele>983.56591796875</ele>
        <time>2012-03-17T08:46:53Z</time>
      </trkpt>
      <trkpt lat="45.84714" lon="5.87752">
        <ele>982.60473632812</ele>
        <time>2012-03-17T08:47:08Z</time>
      </trkpt>
      <trkpt lat="45.84714" lon="5.87753">
        <ele>982.60473632812</ele>
        <time>2012-03-17T08:47:14Z</time>
      </trkpt>
      <trkpt lat="45.84713" lon="5.87752">
        <ele>983.08520507812</ele>
        <time>2012-03-17T08:47:22Z</time>
      </trkpt>
      <trkpt lat="45.84712" lon="5.87752">
        <ele>982.60473632812</ele>
        <time>2012-03-17T08:47:31Z</time>
      </trkpt>
      <trkpt lat="45.84712" lon="5.87753">
        <ele>984.04663085938</ele>
        <time>2012-03-17T08:48:11Z</time>
      </trkpt>
      <trkpt lat="45.84711" lon="5.87755">
        <ele>985.96923828125</ele>
        <time>2012-03-17T08:48:20Z</time>
      </trkpt>
      <trkpt lat="45.84711" lon="5.87754">
        <ele>985.96923828125</ele>
        <time>2012-03-17T08:48:29Z</time>
      </trkpt>
      <trkpt lat="45.84711" lon="5.87753">
        <ele>985.00805664062</ele>
        <time>2012-03-17T08:48:43Z</time>
      </trkpt>
      <trkpt lat="45.84711" lon="5.87753">
        <ele>984.52734375</ele>
        <time>2012-03-17T08:48:48Z</time>
      </trkpt>
      <trkpt lat="45.84711" lon="5.87752">
        <ele>986.44995117188</ele>
        <time>2012-03-17T08:48:56Z</time>
      </trkpt>
      <trkpt lat="45.84712" lon="5.87752">
        <ele>985.96923828125</ele>
        <time>2012-03-17T08:49:03Z</time>
      </trkpt>
      <trkpt lat="45.84713" lon="5.87751">
        <ele>985.48852539062</ele>
        <time>2012-03-17T08:49:14Z</time>
      </trkpt>
      <trkpt lat="45.84713" lon="5.87751">
        <ele>985.48852539062</ele>
        <time>2012-03-17T08:49:20Z</time>
      </trkpt>
      <trkpt lat="45.84713" lon="5.87752">
        <ele>985.00805664062</ele>
        <time>2012-03-17T08:49:33Z</time>
      </trkpt>
      <trkpt lat="45.84713" lon="5.87753">
        <ele>984.52734375</ele>
        <time>2012-03-17T08:49:55Z</time>
      </trkpt>
      <trkpt lat="45.84713" lon="5.87753">
        <ele>985.00805664062</ele>
        <time>2012-03-17T08:50:12Z</time>
      </trkpt>
      <trkpt lat="45.84713" lon="5.87754">
        <ele>986.44995117188</ele>
        <time>2012-03-17T08:50:18Z</time>
      </trkpt>
      <trkpt lat="45.84713" lon="5.87754">
        <ele>986.93041992188</ele>
        <time>2012-03-17T08:50:21Z</time>
      </trkpt>
      <trkpt lat="45.84714" lon="5.87754">
        <ele>986.44995117188</ele>
        <time>2012-03-17T08:50:27Z</time>
      </trkpt>
      <trkpt lat="45.84713" lon="5.87755">
        <ele>985.00805664062</ele>
        <time>2012-03-17T08:50:37Z</time>
      </trkpt>
      <trkpt lat="45.84712" lon="5.87756">
        <ele>984.52734375</ele>
        <time>2012-03-17T08:50:47Z</time>
      </trkpt>
      <trkpt lat="45.84712" lon="5.87756">
        <ele>985.48852539062</ele>
        <time>2012-03-17T08:50:57Z</time>
      </trkpt>
      <trkpt lat="45.84713" lon="5.87755">
        <ele>985.48852539062</ele>
        <time>2012-03-17T08:51:06Z</time>
      </trkpt>
      <trkpt lat="45.84713" lon="5.87756">
        <ele>985.48852539062</ele>
        <time>2012-03-17T08:51:13Z</time>
      </trkpt>
      <trkpt lat="45.84714" lon="5.87753">
        <ele>985.00805664062</ele>
        <time>2012-03-17T08:51:27Z</time>
      </trkpt>
      <trkpt lat="45.84713" lon="5.87751">
        <ele>983.56591796875</ele>
        <time>2012-03-17T08:51:37Z</time>
      </trkpt>
      <trkpt lat="45.847" lon="5.87747">
        <ele>982.60473632812</ele>
        <time>2012-03-17T08:51:43Z</time>
      </trkpt>
      <trkpt lat="45.84681" lon="5.87746">
        <ele>980.20141601562</ele>
        <time>2012-03-17T08:51:50Z</time>
      </trkpt>
      <trkpt lat="45.84664" lon="5.87742">
        <ele>979.720703125</ele>
        <time>2012-03-17T08:51:58Z</time>
      </trkpt>
      <trkpt lat="45.8465" lon="5.87741">
        <ele>977.31762695312</ele>
        <time>2012-03-17T08:52:05Z</time>
      </trkpt>
      <trkpt lat="45.84635" lon="5.87738">
        <ele>975.87548828125</ele>
        <time>2012-03-17T08:52:12Z</time>
      </trkpt>
      <trkpt lat="45.84628" lon="5.87736">
        <ele>976.8369140625</ele>
        <time>2012-03-17T08:52:16Z</time>
      </trkpt>
      <trkpt lat="45.84619" lon="5.87732">
        <ele>977.79809570312</ele>
        <time>2012-03-17T08:52:21Z</time>
      </trkpt>
      <trkpt lat="45.84609" lon="5.87732">
        <ele>979.23999023438</ele>
        <time>2012-03-17T08:52:26Z</time>
      </trkpt>
      <trkpt lat="45.84602" lon="5.87734">
        <ele>978.75952148438</ele>
        <time>2012-03-17T08:52:30Z</time>
      </trkpt>
      <trkpt lat="45.846" lon="5.87735">
        <ele>978.27880859375</ele>
        <time>2012-03-17T08:52:31Z</time>
      </trkpt>
      <trkpt lat="45.84595" lon="5.87737">
        <ele>977.79809570312</ele>
        <time>2012-03-17T08:52:35Z</time>
      </trkpt>
      <trkpt lat="45.84587" lon="5.87741">
        <ele>977.31762695312</ele>
        <time>2012-03-17T08:52:39Z</time>
      </trkpt>
      <trkpt lat="45.84579" lon="5.8775">
        <ele>978.75952148438</ele>
        <time>2012-03-17T08:52:45Z</time>
      </trkpt>
      <trkpt lat="45.84575" lon="5.87752">
        <ele>980.68212890625</ele>
        <time>2012-03-17T08:52:49Z</time>
      </trkpt>
      <trkpt lat="45.84574" lon="5.87752">
        <ele>981.16284179688</ele>
        <time>2012-03-17T08:52:50Z</time>
      </trkpt>
      <trkpt lat="45.8457" lon="5.87752">
        <ele>983.56591796875</ele>
        <time>2012-03-17T08:52:53Z</time>
      </trkpt>
      <trkpt lat="45.84562" lon="5.87748">
        <ele>985.48852539062</ele>
        <time>2012-03-17T08:52:59Z</time>
      </trkpt>
      <trkpt lat="45.84562" lon="5.87747">
        <ele>985.96923828125</ele>
        <time>2012-03-17T08:53:00Z</time>
      </trkpt>
      <trkpt lat="45.84555" lon="5.87739">
        <ele>988.853515625</ele>
        <time>2012-03-17T08:53:08Z</time>
      </trkpt>
      <trkpt lat="45.84554" lon="5.87735">
        <ele>990.29541015625</ele>
        <time>2012-03-17T08:53:11Z</time>
      </trkpt>
      <trkpt lat="45.84548" lon="5.87718">
        <ele>993.65991210938</ele>
        <time>2012-03-17T08:53:21Z</time>
      </trkpt>
      <trkpt lat="45.84548" lon="5.87716">
        <ele>994.140625</ele>
        <time>2012-03-17T08:53:22Z</time>
      </trkpt>
      <trkpt lat="45.84543" lon="5.87702">
        <ele>996.06323242188</ele>
        <time>2012-03-17T08:53:29Z</time>
      </trkpt>
      <trkpt lat="45.84539" lon="5.87693">
        <ele>998.46630859375</ele>
        <time>2012-03-17T08:53:35Z</time>
      </trkpt>
      <trkpt lat="45.84539" lon="5.8769">
        <ele>998.46630859375</ele>
        <time>2012-03-17T08:53:36Z</time>
      </trkpt>
      <trkpt lat="45.84537" lon="5.87682">
        <ele>998.94702148438</ele>
        <time>2012-03-17T08:53:41Z</time>
      </trkpt>
      <trkpt lat="45.84533" lon="5.87676">
        <ele>997.98583984375</ele>
        <time>2012-03-17T08:53:45Z</time>
      </trkpt>
      <trkpt lat="45.84524" lon="5.87663">
        <ele>997.98583984375</ele>
        <time>2012-03-17T08:53:53Z</time>
      </trkpt>
      <trkpt lat="45.84514" lon="5.8765">
        <ele>994.62109375</ele>
        <time>2012-03-17T08:54:00Z</time>
      </trkpt>
      <trkpt lat="45.84503" lon="5.87639">
        <ele>992.69873046875</ele>
        <time>2012-03-17T08:54:05Z</time>
      </trkpt>
      <trkpt lat="45.84494" lon="5.87628">
        <ele>991.25659179688</ele>
        <time>2012-03-17T08:54:09Z</time>
      </trkpt>
      <trkpt lat="45.8448" lon="5.87608">
        <ele>990.77587890625</ele>
        <time>2012-03-17T08:54:16Z</time>
      </trkpt>
      <trkpt lat="45.84462" lon="5.87587">
        <ele>989.333984375</ele>
        <time>2012-03-17T08:54:23Z</time>
      </trkpt>
      <trkpt lat="45.84452" lon="5.87574">
        <ele>988.853515625</ele>
        <time>2012-03-17T08:54:28Z</time>
      </trkpt>
      <trkpt lat="45.84439" lon="5.87558">
        <ele>986.93041992188</ele>
        <time>2012-03-17T08:54:35Z</time>
      </trkpt>
      <trkpt lat="45.84435" lon="5.87552">
        <ele>987.4111328125</ele>
        <time>2012-03-17T08:54:39Z</time>
      </trkpt>
      <trkpt lat="45.84435" lon="5.87552">
        <ele>989.81469726562</ele>
        <time>2012-03-17T08:54:47Z</time>
      </trkpt>
      <trkpt lat="45.84434" lon="5.87553">
        <ele>989.81469726562</ele>
        <time>2012-03-17T08:54:55Z</time>
      </trkpt>
      <trkpt lat="45.84436" lon="5.87551">
        <ele>989.333984375</ele>
        <time>2012-03-17T08:55:00Z</time>
      </trkpt>
      <trkpt lat="45.84435" lon="5.87552">
        <ele>988.853515625</ele>
        <time>2012-03-17T08:55:08Z</time>
      </trkpt>
      <trkpt lat="45.84435" lon="5.87552">
        <ele>988.853515625</ele>
        <time>2012-03-17T08:55:12Z</time>
      </trkpt>
      <trkpt lat="45.84437" lon="5.87553">
        <ele>988.853515625</ele>
        <time>2012-03-17T08:55:19Z</time>
      </trkpt>
      <trkpt lat="45.84436" lon="5.87553">
        <ele>988.853515625</ele>
        <time>2012-03-17T08:55:32Z</time>
      </trkpt>
      <trkpt lat="45.84436" lon="5.87553">
        <ele>989.81469726562</ele>
        <time>2012-03-17T08:55:37Z</time>
      </trkpt>
      <trkpt lat="45.84436" lon="5.87553">
        <ele>989.81469726562</ele>
        <time>2012-03-17T08:55:40Z</time>
      </trkpt>
      <trkpt lat="45.84435" lon="5.87555">
        <ele>988.853515625</ele>
        <time>2012-03-17T08:55:51Z</time>
      </trkpt>
      <trkpt lat="45.84433" lon="5.87555">
        <ele>988.853515625</ele>
        <time>2012-03-17T08:55:55Z</time>
      </trkpt>
      <trkpt lat="45.84429" lon="5.8755">
        <ele>988.37280273438</ele>
        <time>2012-03-17T08:56:00Z</time>
      </trkpt>
      <trkpt lat="45.84416" lon="5.87535">
        <ele>987.4111328125</ele>
        <time>2012-03-17T08:56:07Z</time>
      </trkpt>
      <trkpt lat="45.84404" lon="5.87519">
        <ele>986.44995117188</ele>
        <time>2012-03-17T08:56:14Z</time>
      </trkpt>
      <trkpt lat="45.84389" lon="5.87497">
        <ele>985.48852539062</ele>
        <time>2012-03-17T08:56:23Z</time>
      </trkpt>
      <trkpt lat="45.84371" lon="5.87473">
        <ele>985.00805664062</ele>
        <time>2012-03-17T08:56:32Z</time>
      </trkpt>
      <trkpt lat="45.84357" lon="5.8746">
        <ele>986.44995117188</ele>
        <time>2012-03-17T08:56:38Z</time>
      </trkpt>
      <trkpt lat="45.84347" lon="5.87445">
        <ele>984.52734375</ele>
        <time>2012-03-17T08:56:43Z</time>
      </trkpt>
      <trkpt lat="45.84332" lon="5.87429">
        <ele>981.16284179688</ele>
        <time>2012-03-17T08:56:50Z</time>
      </trkpt>
      <trkpt lat="45.84317" lon="5.87411">
        <ele>979.23999023438</ele>
        <time>2012-03-17T08:56:57Z</time>
      </trkpt>
      <trkpt lat="45.84307" lon="5.87401">
        <ele>980.20141601562</ele>
        <time>2012-03-17T08:57:02Z</time>
      </trkpt>
      <trkpt lat="45.84298" lon="5.87388">
        <ele>981.16284179688</ele>
        <time>2012-03-17T08:57:08Z</time>
      </trkpt>
      <trkpt lat="45.84288" lon="5.87375">
        <ele>984.04663085938</ele>
        <time>2012-03-17T08:57:14Z</time>
      </trkpt>
      <trkpt lat="45.84282" lon="5.87367">
        <ele>984.52734375</ele>
        <time>2012-03-17T08:57:18Z</time>
      </trkpt>
      <trkpt lat="45.84277" lon="5.87364">
        <ele>984.52734375</ele>
        <time>2012-03-17T08:57:20Z</time>
      </trkpt>
      <trkpt lat="45.84265" lon="5.87359">
        <ele>985.00805664062</ele>
        <time>2012-03-17T08:57:25Z</time>
      </trkpt>
      <trkpt lat="45.84248" lon="5.87358">
        <ele>985.00805664062</ele>
        <time>2012-03-17T08:57:31Z</time>
      </trkpt>
      <trkpt lat="45.84244" lon="5.87359">
        <ele>983.08520507812</ele>
        <time>2012-03-17T08:57:33Z</time>
      </trkpt>
      <trkpt lat="45.84234" lon="5.87359">
        <ele>981.64331054688</ele>
        <time>2012-03-17T08:57:38Z</time>
      </trkpt>
      <trkpt lat="45.84227" lon="5.8736">
        <ele>981.16284179688</ele>
        <time>2012-03-17T08:57:42Z</time>
      </trkpt>
      <trkpt lat="45.84222" lon="5.87361">
        <ele>980.68212890625</ele>
        <time>2012-03-17T08:57:46Z</time>
      </trkpt>
      <trkpt lat="45.84217" lon="5.87365">
        <ele>979.720703125</ele>
        <time>2012-03-17T08:57:52Z</time>
      </trkpt>
      <trkpt lat="45.84215" lon="5.87366">
        <ele>979.23999023438</ele>
        <time>2012-03-17T08:57:54Z</time>
      </trkpt>
      <trkpt lat="45.84201" lon="5.87373">
        <ele>978.27880859375</ele>
        <time>2012-03-17T08:58:00Z</time>
      </trkpt>
      <trkpt lat="45.84185" lon="5.87392">
        <ele>974.43359375</ele>
        <time>2012-03-17T08:58:06Z</time>
      </trkpt>
      <trkpt lat="45.84174" lon="5.87402">
        <ele>975.39477539062</ele>
        <time>2012-03-17T08:58:10Z</time>
      </trkpt>
      <trkpt lat="45.84159" lon="5.87413">
        <ele>977.79809570312</ele>
        <time>2012-03-17T08:58:15Z</time>
      </trkpt>
      <trkpt lat="45.84146" lon="5.87418">
        <ele>979.720703125</ele>
        <time>2012-03-17T08:58:20Z</time>
      </trkpt>
      <trkpt lat="45.84127" lon="5.87416">
        <ele>978.75952148438</ele>
        <time>2012-03-17T08:58:26Z</time>
      </trkpt>
      <trkpt lat="45.84109" lon="5.87409">
        <ele>976.8369140625</ele>
        <time>2012-03-17T08:58:31Z</time>
      </trkpt>
      <trkpt lat="45.84086" lon="5.87397">
        <ele>977.79809570312</ele>
        <time>2012-03-17T08:58:37Z</time>
      </trkpt>
      <trkpt lat="45.84074" lon="5.87396">
        <ele>976.8369140625</ele>
        <time>2012-03-17T08:58:41Z</time>
      </trkpt>
      <trkpt lat="45.84068" lon="5.87398">
        <ele>976.35620117188</ele>
        <time>2012-03-17T08:58:45Z</time>
      </trkpt>
      <trkpt lat="45.84061" lon="5.87402">
        <ele>976.8369140625</ele>
        <time>2012-03-17T08:58:49Z</time>
      </trkpt>
      <trkpt lat="45.84052" lon="5.87405">
        <ele>977.31762695312</ele>
        <time>2012-03-17T08:58:57Z</time>
      </trkpt>
      <trkpt lat="45.84052" lon="5.87411">
        <ele>977.31762695312</ele>
        <time>2012-03-17T08:59:05Z</time>
      </trkpt>
      <trkpt lat="45.84052" lon="5.8742">
        <ele>978.75952148438</ele>
        <time>2012-03-17T08:59:11Z</time>
      </trkpt>
      <trkpt lat="45.84046" lon="5.87425">
        <ele>979.23999023438</ele>
        <time>2012-03-17T08:59:17Z</time>
      </trkpt>
      <trkpt lat="45.84037" lon="5.8743">
        <ele>979.720703125</ele>
        <time>2012-03-17T08:59:24Z</time>
      </trkpt>
      <trkpt lat="45.84027" lon="5.87433">
        <ele>978.27880859375</ele>
        <time>2012-03-17T08:59:30Z</time>
      </trkpt>
      <trkpt lat="45.84014" lon="5.87443">
        <ele>975.87548828125</ele>
        <time>2012-03-17T08:59:38Z</time>
      </trkpt>
      <trkpt lat="45.83999" lon="5.87451">
        <ele>975.87548828125</ele>
        <time>2012-03-17T08:59:46Z</time>
      </trkpt>
      <trkpt lat="45.83989" lon="5.87457">
        <ele>976.35620117188</ele>
        <time>2012-03-17T08:59:53Z</time>
      </trkpt>
      <trkpt lat="45.83987" lon="5.87459">
        <ele>975.87548828125</ele>
        <time>2012-03-17T08:59:55Z</time>
      </trkpt>
      <trkpt lat="45.83986" lon="5.87468">
        <ele>976.35620117188</ele>
        <time>2012-03-17T08:59:59Z</time>
      </trkpt>
      <trkpt lat="45.83981" lon="5.87486">
        <ele>977.79809570312</ele>
        <time>2012-03-17T09:00:06Z</time>
      </trkpt>
      <trkpt lat="45.83974" lon="5.87498">
        <ele>978.27880859375</ele>
        <time>2012-03-17T09:00:12Z</time>
      </trkpt>
      <trkpt lat="45.83963" lon="5.87511">
        <ele>978.27880859375</ele>
        <time>2012-03-17T09:00:21Z</time>
      </trkpt>
      <trkpt lat="45.8395" lon="5.87524">
        <ele>978.75952148438</ele>
        <time>2012-03-17T09:00:30Z</time>
      </trkpt>
      <trkpt lat="45.8394" lon="5.87536">
        <ele>977.31762695312</ele>
        <time>2012-03-17T09:00:38Z</time>
      </trkpt>
      <trkpt lat="45.83924" lon="5.87545">
        <ele>977.31762695312</ele>
        <time>2012-03-17T09:00:47Z</time>
      </trkpt>
      <trkpt lat="45.83908" lon="5.87556">
        <ele>978.27880859375</ele>
        <time>2012-03-17T09:00:56Z</time>
      </trkpt>
      <trkpt lat="45.83904" lon="5.8756">
        <ele>978.27880859375</ele>
        <time>2012-03-17T09:00:59Z</time>
      </trkpt>
      <trkpt lat="45.83891" lon="5.87571">
        <ele>978.75952148438</ele>
        <time>2012-03-17T09:01:08Z</time>
      </trkpt>
      <trkpt lat="45.83888" lon="5.87575">
        <ele>979.23999023438</ele>
        <time>2012-03-17T09:01:11Z</time>
      </trkpt>
      <trkpt lat="45.83882" lon="5.8759">
        <ele>979.720703125</ele>
        <time>2012-03-17T09:01:21Z</time>
      </trkpt>
      <trkpt lat="45.83881" lon="5.87591">
        <ele>979.720703125</ele>
        <time>2012-03-17T09:01:22Z</time>
      </trkpt>
      <trkpt lat="45.83873" lon="5.876">
        <ele>979.720703125</ele>
        <time>2012-03-17T09:01:30Z</time>
      </trkpt>
      <trkpt lat="45.83861" lon="5.87604">
        <ele>979.23999023438</ele>
        <time>2012-03-17T09:01:38Z</time>
      </trkpt>
      <trkpt lat="45.83849" lon="5.87606">
        <ele>980.20141601562</ele>
        <time>2012-03-17T09:01:43Z</time>
      </trkpt>
      <trkpt lat="45.83844" lon="5.87607">
        <ele>981.16284179688</ele>
        <time>2012-03-17T09:01:45Z</time>
      </trkpt>
      <trkpt lat="45.83837" lon="5.87604">
        <ele>982.1240234375</ele>
        <time>2012-03-17T09:01:49Z</time>
      </trkpt>
      <trkpt lat="45.83833" lon="5.876">
        <ele>982.1240234375</ele>
        <time>2012-03-17T09:01:52Z</time>
      </trkpt>
      <trkpt lat="45.83833" lon="5.87598">
        <ele>982.60473632812</ele>
        <time>2012-03-17T09:01:53Z</time>
      </trkpt>
      <trkpt lat="45.83826" lon="5.87583">
        <ele>981.64331054688</ele>
        <time>2012-03-17T09:02:00Z</time>
      </trkpt>
      <trkpt lat="45.83822" lon="5.87566">
        <ele>982.60473632812</ele>
        <time>2012-03-17T09:02:07Z</time>
      </trkpt>
      <trkpt lat="45.83827" lon="5.87547">
        <ele>981.16284179688</ele>
        <time>2012-03-17T09:02:14Z</time>
      </trkpt>
      <trkpt lat="45.83833" lon="5.87524">
        <ele>980.68212890625</ele>
        <time>2012-03-17T09:02:22Z</time>
      </trkpt>
      <trkpt lat="45.83839" lon="5.87494">
        <ele>979.720703125</ele>
        <time>2012-03-17T09:02:32Z</time>
      </trkpt>
      <trkpt lat="45.83843" lon="5.8747">
        <ele>977.79809570312</ele>
        <time>2012-03-17T09:02:41Z</time>
      </trkpt>
      <trkpt lat="45.83838" lon="5.87458">
        <ele>977.79809570312</ele>
        <time>2012-03-17T09:02:47Z</time>
      </trkpt>
      <trkpt lat="45.83832" lon="5.87439">
        <ele>976.8369140625</ele>
        <time>2012-03-17T09:02:54Z</time>
      </trkpt>
      <trkpt lat="45.83831" lon="5.87428">
        <ele>976.8369140625</ele>
        <time>2012-03-17T09:02:57Z</time>
      </trkpt>
      <trkpt lat="45.8382" lon="5.87415">
        <ele>972.51098632812</ele>
        <time>2012-03-17T09:03:02Z</time>
      </trkpt>
      <trkpt lat="45.83818" lon="5.87414">
        <ele>972.51098632812</ele>
        <time>2012-03-17T09:03:03Z</time>
      </trkpt>
      <trkpt lat="45.83807" lon="5.87409">
        <ele>971.06884765625</ele>
        <time>2012-03-17T09:03:09Z</time>
      </trkpt>
      <trkpt lat="45.838" lon="5.87401">
        <ele>972.51098632812</ele>
        <time>2012-03-17T09:03:14Z</time>
      </trkpt>
      <trkpt lat="45.83791" lon="5.874">
        <ele>977.31762695312</ele>
        <time>2012-03-17T09:03:18Z</time>
      </trkpt>
      <trkpt lat="45.83783" lon="5.87409">
        <ele>976.8369140625</ele>
        <time>2012-03-17T09:03:23Z</time>
      </trkpt>
      <trkpt lat="45.83771" lon="5.87419">
        <ele>976.35620117188</ele>
        <time>2012-03-17T09:03:30Z</time>
      </trkpt>
      <trkpt lat="45.8376" lon="5.87429">
        <ele>977.31762695312</ele>
        <time>2012-03-17T09:03:37Z</time>
      </trkpt>
      <trkpt lat="45.83748" lon="5.87439">
        <ele>978.27880859375</ele>
        <time>2012-03-17T09:03:44Z</time>
      </trkpt>
      <trkpt lat="45.83736" lon="5.87447">
        <ele>979.23999023438</ele>
        <time>2012-03-17T09:03:51Z</time>
      </trkpt>
      <trkpt lat="45.83729" lon="5.87455">
        <ele>979.720703125</ele>
        <time>2012-03-17T09:03:57Z</time>
      </trkpt>
      <trkpt lat="45.83721" lon="5.87465">
        <ele>981.64331054688</ele>
        <time>2012-03-17T09:04:05Z</time>
      </trkpt>
      <trkpt lat="45.83718" lon="5.87475">
        <ele>983.56591796875</ele>
        <time>2012-03-17T09:04:10Z</time>
      </trkpt>
      <trkpt lat="45.83716" lon="5.87486">
        <ele>985.48852539062</ele>
        <time>2012-03-17T09:04:17Z</time>
      </trkpt>
      <trkpt lat="45.83713" lon="5.87492">
        <ele>985.00805664062</ele>
        <time>2012-03-17T09:04:22Z</time>
      </trkpt>
      <trkpt lat="45.83709" lon="5.87499">
        <ele>984.04663085938</ele>
        <time>2012-03-17T09:04:30Z</time>
      </trkpt>
      <trkpt lat="45.83703" lon="5.87503">
        <ele>983.56591796875</ele>
        <time>2012-03-17T09:04:36Z</time>
      </trkpt>
      <trkpt lat="45.83703" lon="5.87503">
        <ele>983.56591796875</ele>
        <time>2012-03-17T09:04:40Z</time>
      </trkpt>
      <trkpt lat="45.83702" lon="5.87504">
        <ele>983.08520507812</ele>
        <time>2012-03-17T09:04:52Z</time>
      </trkpt>
      <trkpt lat="45.83696" lon="5.87498">
        <ele>983.08520507812</ele>
        <time>2012-03-17T09:04:57Z</time>
      </trkpt>
      <trkpt lat="45.83693" lon="5.87491">
        <ele>982.60473632812</ele>
        <time>2012-03-17T09:05:01Z</time>
      </trkpt>
      <trkpt lat="45.83687" lon="5.87483">
        <ele>981.16284179688</ele>
        <time>2012-03-17T09:05:05Z</time>
      </trkpt>
      <trkpt lat="45.83683" lon="5.87479">
        <ele>980.20141601562</ele>
        <time>2012-03-17T09:05:08Z</time>
      </trkpt>
      <trkpt lat="45.83677" lon="5.87471">
        <ele>981.16284179688</ele>
        <time>2012-03-17T09:05:15Z</time>
      </trkpt>
      <trkpt lat="45.83668" lon="5.8747">
        <ele>980.68212890625</ele>
        <time>2012-03-17T09:05:19Z</time>
      </trkpt>
      <trkpt lat="45.83646" lon="5.87474">
        <ele>979.720703125</ele>
        <time>2012-03-17T09:05:24Z</time>
      </trkpt>
      <trkpt lat="45.83634" lon="5.87475">
        <ele>977.79809570312</ele>
        <time>2012-03-17T09:05:28Z</time>
      </trkpt>
      <trkpt lat="45.83619" lon="5.87477">
        <ele>979.23999023438</ele>
        <time>2012-03-17T09:05:35Z</time>
      </trkpt>
      <trkpt lat="45.83609" lon="5.87479">
        <ele>978.27880859375</ele>
        <time>2012-03-17T09:05:40Z</time>
      </trkpt>
      <trkpt lat="45.83601" lon="5.8748">
        <ele>978.27880859375</ele>
        <time>2012-03-17T09:05:44Z</time>
      </trkpt>
      <trkpt lat="45.83593" lon="5.87482">
        <ele>978.75952148438</ele>
        <time>2012-03-17T09:05:48Z</time>
      </trkpt>
      <trkpt lat="45.83582" lon="5.87483">
        <ele>978.75952148438</ele>
        <time>2012-03-17T09:05:54Z</time>
      </trkpt>
      <trkpt lat="45.83579" lon="5.87482">
        <ele>978.75952148438</ele>
        <time>2012-03-17T09:05:56Z</time>
      </trkpt>
      <trkpt lat="45.83579" lon="5.87482">
        <ele>978.27880859375</ele>
        <time>2012-03-17T09:06:02Z</time>
      </trkpt>
      <trkpt lat="45.83578" lon="5.87483">
        <ele>977.79809570312</ele>
        <time>2012-03-17T09:06:08Z</time>
      </trkpt>
      <trkpt lat="45.83578" lon="5.87484">
        <ele>977.31762695312</ele>
        <time>2012-03-17T09:06:17Z</time>
      </trkpt>
      <trkpt lat="45.83578" lon="5.87485">
        <ele>978.27880859375</ele>
        <time>2012-03-17T09:06:29Z</time>
      </trkpt>
      <trkpt lat="45.83578" lon="5.87487">
        <ele>979.23999023438</ele>
        <time>2012-03-17T09:06:35Z</time>
      </trkpt>
      <trkpt lat="45.83578" lon="5.87487">
        <ele>979.23999023438</ele>
        <time>2012-03-17T09:06:41Z</time>
      </trkpt>
      <trkpt lat="45.83578" lon="5.87485">
        <ele>977.31762695312</ele>
        <time>2012-03-17T09:06:49Z</time>
      </trkpt>
      <trkpt lat="45.83578" lon="5.87484">
        <ele>976.8369140625</ele>
        <time>2012-03-17T09:06:58Z</time>
      </trkpt>
      <trkpt lat="45.83578" lon="5.87486">
        <ele>977.31762695312</ele>
        <time>2012-03-17T09:07:07Z</time>
      </trkpt>
      <trkpt lat="45.83578" lon="5.87486">
        <ele>977.31762695312</ele>
        <time>2012-03-17T09:07:19Z</time>
      </trkpt>
      <trkpt lat="45.83578" lon="5.87485">
        <ele>977.31762695312</ele>
        <time>2012-03-17T09:07:34Z</time>
      </trkpt>
      <trkpt lat="45.83578" lon="5.87489">
        <ele>977.31762695312</ele>
        <time>2012-03-17T09:07:39Z</time>
      </trkpt>
      <trkpt lat="45.83578" lon="5.875">
        <ele>976.35620117188</ele>
        <time>2012-03-17T09:07:43Z</time>
      </trkpt>
      <trkpt lat="45.83575" lon="5.87509">
        <ele>975.39477539062</ele>
        <time>2012-03-17T09:07:49Z</time>
      </trkpt>
      <trkpt lat="45.83575" lon="5.8751">
        <ele>975.39477539062</ele>
        <time>2012-03-17T09:07:50Z</time>
      </trkpt>
      <trkpt lat="45.83579" lon="5.87522">
        <ele>973.47241210938</ele>
        <time>2012-03-17T09:07:56Z</time>
      </trkpt>
      <trkpt lat="45.83583" lon="5.87535">
        <ele>972.0302734375</ele>
        <time>2012-03-17T09:08:02Z</time>
      </trkpt>
      <trkpt lat="45.83583" lon="5.87536">
        <ele>972.51098632812</ele>
        <time>2012-03-17T09:08:08Z</time>
      </trkpt>
      <trkpt lat="45.83582" lon="5.87543">
        <ele>970.58813476562</ele>
        <time>2012-03-17T09:08:16Z</time>
      </trkpt>
      <trkpt lat="45.83582" lon="5.8755">
        <ele>967.7041015625</ele>
        <time>2012-03-17T09:08:23Z</time>
      </trkpt>
      <trkpt lat="45.83582" lon="5.87555">
        <ele>965.30102539062</ele>
        <time>2012-03-17T09:08:26Z</time>
      </trkpt>
      <trkpt lat="45.83581" lon="5.8756">
        <ele>963.37841796875</ele>
        <time>2012-03-17T09:08:29Z</time>
      </trkpt>
      <trkpt lat="45.83579" lon="5.87569">
        <ele>960.49438476562</ele>
        <time>2012-03-17T09:08:37Z</time>
      </trkpt>
      <trkpt lat="45.83578" lon="5.87575">
        <ele>956.64916992188</ele>
        <time>2012-03-17T09:08:44Z</time>
      </trkpt>
      <trkpt lat="45.83576" lon="5.87585">
        <ele>951.84252929688</ele>
        <time>2012-03-17T09:08:52Z</time>
      </trkpt>
      <trkpt lat="45.83575" lon="5.87592">
        <ele>949.43920898438</ele>
        <time>2012-03-17T09:08:58Z</time>
      </trkpt>
      <trkpt lat="45.83576" lon="5.87594">
        <ele>948.47778320312</ele>
        <time>2012-03-17T09:09:01Z</time>
      </trkpt>
      <trkpt lat="45.83577" lon="5.87607">
        <ele>943.67138671875</ele>
        <time>2012-03-17T09:09:05Z</time>
      </trkpt>
      <trkpt lat="45.83572" lon="5.87635">
        <ele>935.98071289062</ele>
        <time>2012-03-17T09:09:10Z</time>
      </trkpt>
      <trkpt lat="45.83556" lon="5.87652">
        <ele>932.13549804688</ele>
        <time>2012-03-17T09:09:15Z</time>
      </trkpt>
      <trkpt lat="45.83543" lon="5.87654">
        <ele>930.69360351562</ele>
        <time>2012-03-17T09:09:20Z</time>
      </trkpt>
      <trkpt lat="45.83535" lon="5.87648">
        <ele>930.212890625</ele>
        <time>2012-03-17T09:09:25Z</time>
      </trkpt>
      <trkpt lat="45.83524" lon="5.87637">
        <ele>929.25146484375</ele>
        <time>2012-03-17T09:09:32Z</time>
      </trkpt>
      <trkpt lat="45.83515" lon="5.87631">
        <ele>929.25146484375</ele>
        <time>2012-03-17T09:09:38Z</time>
      </trkpt>
      <trkpt lat="45.83508" lon="5.87625">
        <ele>929.25146484375</ele>
        <time>2012-03-17T09:09:43Z</time>
      </trkpt>
      <trkpt lat="45.83502" lon="5.8762">
        <ele>929.25146484375</ele>
        <time>2012-03-17T09:09:47Z</time>
      </trkpt>
      <trkpt lat="45.83488" lon="5.87606">
        <ele>928.29028320312</ele>
        <time>2012-03-17T09:09:56Z</time>
      </trkpt>
      <trkpt lat="45.83475" lon="5.87589">
        <ele>927.3291015625</ele>
        <time>2012-03-17T09:10:05Z</time>
      </trkpt>
      <trkpt lat="45.83467" lon="5.87577">
        <ele>926.84838867188</ele>
        <time>2012-03-17T09:10:11Z</time>
      </trkpt>
      <trkpt lat="45.83456" lon="5.87558">
        <ele>926.36767578125</ele>
        <time>2012-03-17T09:10:19Z</time>
      </trkpt>
      <trkpt lat="45.8345" lon="5.87531">
        <ele>925.40625</ele>
        <time>2012-03-17T09:10:29Z</time>
      </trkpt>
      <trkpt lat="45.83447" lon="5.87513">
        <ele>924.92578125</ele>
        <time>2012-03-17T09:10:35Z</time>
      </trkpt>
      <trkpt lat="45.83442" lon="5.87491">
        <ele>924.92578125</ele>
        <time>2012-03-17T09:10:42Z</time>
      </trkpt>
      <trkpt lat="45.83436" lon="5.87468">
        <ele>924.44506835938</ele>
        <time>2012-03-17T09:10:50Z</time>
      </trkpt>
      <trkpt lat="45.83428" lon="5.87446">
        <ele>925.40625</ele>
        <time>2012-03-17T09:10:58Z</time>
      </trkpt>
      <trkpt lat="45.8342" lon="5.87421">
        <ele>925.88696289062</ele>
        <time>2012-03-17T09:11:07Z</time>
      </trkpt>
      <trkpt lat="45.83419" lon="5.87408">
        <ele>926.36767578125</ele>
        <time>2012-03-17T09:11:12Z</time>
      </trkpt>
      <trkpt lat="45.83422" lon="5.87408">
        <ele>926.36767578125</ele>
        <time>2012-03-17T09:11:16Z</time>
      </trkpt>
      <trkpt lat="45.83421" lon="5.87412">
        <ele>925.88696289062</ele>
        <time>2012-03-17T09:11:18Z</time>
      </trkpt>
      <trkpt lat="45.8342" lon="5.87425">
        <ele>925.40625</ele>
        <time>2012-03-17T09:11:24Z</time>
      </trkpt>
      <trkpt lat="45.83421" lon="5.87419">
        <ele>924.44506835938</ele>
        <time>2012-03-17T09:11:29Z</time>
      </trkpt>
      <trkpt lat="45.8342" lon="5.87414">
        <ele>923.96411132812</ele>
        <time>2012-03-17T09:11:31Z</time>
      </trkpt>
      <trkpt lat="45.83419" lon="5.87397">
        <ele>923.48364257812</ele>
        <time>2012-03-17T09:11:38Z</time>
      </trkpt>
      <trkpt lat="45.8342" lon="5.87376">
        <ele>923.48364257812</ele>
        <time>2012-03-17T09:11:46Z</time>
      </trkpt>
      <trkpt lat="45.8342" lon="5.87357">
        <ele>923.96411132812</ele>
        <time>2012-03-17T09:11:53Z</time>
      </trkpt>
      <trkpt lat="45.83415" lon="5.87338">
        <ele>923.48364257812</ele>
        <time>2012-03-17T09:12:00Z</time>
      </trkpt>
      <trkpt lat="45.83409" lon="5.87329">
        <ele>923.96411132812</ele>
        <time>2012-03-17T09:12:05Z</time>
      </trkpt>
      <trkpt lat="45.83402" lon="5.87317">
        <ele>925.88696289062</ele>
        <time>2012-03-17T09:12:11Z</time>
      </trkpt>
      <trkpt lat="45.83397" lon="5.87314">
        <ele>926.84838867188</ele>
        <time>2012-03-17T09:12:13Z</time>
      </trkpt>
      <trkpt lat="45.83392" lon="5.87313">
        <ele>927.3291015625</ele>
        <time>2012-03-17T09:12:16Z</time>
      </trkpt>
      <trkpt lat="45.83379" lon="5.8731">
        <ele>927.3291015625</ele>
        <time>2012-03-17T09:12:22Z</time>
      </trkpt>
      <trkpt lat="45.83367" lon="5.8731">
        <ele>926.84838867188</ele>
        <time>2012-03-17T09:12:28Z</time>
      </trkpt>
      <trkpt lat="45.83357" lon="5.87312">
        <ele>926.36767578125</ele>
        <time>2012-03-17T09:12:33Z</time>
      </trkpt>
      <trkpt lat="45.83352" lon="5.87313">
        <ele>926.36767578125</ele>
        <time>2012-03-17T09:12:35Z</time>
      </trkpt>
      <trkpt lat="45.83344" lon="5.87312">
        <ele>926.36767578125</ele>
        <time>2012-03-17T09:12:40Z</time>
      </trkpt>
      <trkpt lat="45.83332" lon="5.87309">
        <ele>923.0029296875</ele>
        <time>2012-03-17T09:12:46Z</time>
      </trkpt>
      <trkpt lat="45.83319" lon="5.87303">
        <ele>922.52221679688</ele>
        <time>2012-03-17T09:12:53Z</time>
      </trkpt>
      <trkpt lat="45.83313" lon="5.87301">
        <ele>923.0029296875</ele>
        <time>2012-03-17T09:12:56Z</time>
      </trkpt>
      <trkpt lat="45.83302" lon="5.87301">
        <ele>923.0029296875</ele>
        <time>2012-03-17T09:13:02Z</time>
      </trkpt>
      <trkpt lat="45.83289" lon="5.87296">
        <ele>922.52221679688</ele>
        <time>2012-03-17T09:13:09Z</time>
      </trkpt>
      <trkpt lat="45.83278" lon="5.87292">
        <ele>923.48364257812</ele>
        <time>2012-03-17T09:13:14Z</time>
      </trkpt>
      <trkpt lat="45.83263" lon="5.87288">
        <ele>922.52221679688</ele>
        <time>2012-03-17T09:13:19Z</time>
      </trkpt>
      <trkpt lat="45.83252" lon="5.87288">
        <ele>920.599609375</ele>
        <time>2012-03-17T09:13:24Z</time>
      </trkpt>
      <trkpt lat="45.83249" lon="5.87291">
        <ele>918.67700195312</ele>
        <time>2012-03-17T09:13:27Z</time>
      </trkpt>
      <trkpt lat="45.83244" lon="5.87298">
        <ele>914.83178710938</ele>
        <time>2012-03-17T09:13:34Z</time>
      </trkpt>
      <trkpt lat="45.8324" lon="5.87303">
        <ele>913.87036132812</ele>
        <time>2012-03-17T09:13:38Z</time>
      </trkpt>
      <trkpt lat="45.83229" lon="5.87316">
        <ele>915.3125</ele>
        <time>2012-03-17T09:13:44Z</time>
      </trkpt>
      <trkpt lat="45.83218" lon="5.87333">
        <ele>914.83178710938</ele>
        <time>2012-03-17T09:13:51Z</time>
      </trkpt>
      <trkpt lat="45.83214" lon="5.8735">
        <ele>913.87036132812</ele>
        <time>2012-03-17T09:13:55Z</time>
      </trkpt>
      <trkpt lat="45.83212" lon="5.87368">
        <ele>912.9091796875</ele>
        <time>2012-03-17T09:13:59Z</time>
      </trkpt>
      <trkpt lat="45.83208" lon="5.87394">
        <ele>912.42846679688</ele>
        <time>2012-03-17T09:14:05Z</time>
      </trkpt>
      <trkpt lat="45.83211" lon="5.87408">
        <ele>910.505859375</ele>
        <time>2012-03-17T09:14:10Z</time>
      </trkpt>
      <trkpt lat="45.83212" lon="5.87413">
        <ele>908.58325195312</ele>
        <time>2012-03-17T09:14:13Z</time>
      </trkpt>
      <trkpt lat="45.8321" lon="5.87423">
        <ele>906.1796875</ele>
        <time>2012-03-17T09:14:20Z</time>
      </trkpt>
      <trkpt lat="45.83208" lon="5.87428">
        <ele>905.21850585938</ele>
        <time>2012-03-17T09:14:22Z</time>
      </trkpt>
      <trkpt lat="45.83199" lon="5.87443">
        <ele>904.25732421875</ele>
        <time>2012-03-17T09:14:28Z</time>
      </trkpt>
      <trkpt lat="45.83193" lon="5.8745">
        <ele>904.25732421875</ele>
        <time>2012-03-17T09:14:31Z</time>
      </trkpt>
      <trkpt lat="45.83182" lon="5.87441">
        <ele>905.21850585938</ele>
        <time>2012-03-17T09:14:38Z</time>
      </trkpt>
      <trkpt lat="45.8317" lon="5.87422">
        <ele>904.73779296875</ele>
        <time>2012-03-17T09:14:47Z</time>
      </trkpt>
      <trkpt lat="45.83163" lon="5.87414">
        <ele>905.69921875</ele>
        <time>2012-03-17T09:14:51Z</time>
      </trkpt>
      <trkpt lat="45.83154" lon="5.87404">
        <ele>905.69921875</ele>
        <time>2012-03-17T09:14:57Z</time>
      </trkpt>
      <trkpt lat="45.83143" lon="5.87388">
        <ele>905.69921875</ele>
        <time>2012-03-17T09:15:04Z</time>
      </trkpt>
      <trkpt lat="45.83128" lon="5.87368">
        <ele>906.1796875</ele>
        <time>2012-03-17T09:15:12Z</time>
      </trkpt>
      <trkpt lat="45.83115" lon="5.87356">
        <ele>905.21850585938</ele>
        <time>2012-03-17T09:15:17Z</time>
      </trkpt>
      <trkpt lat="45.83096" lon="5.87338">
        <ele>904.25732421875</ele>
        <time>2012-03-17T09:15:23Z</time>
      </trkpt>
      <trkpt lat="45.83092" lon="5.87335">
        <ele>903.77661132812</ele>
        <time>2012-03-17T09:15:24Z</time>
      </trkpt>
      <trkpt lat="45.83081" lon="5.87342">
        <ele>902.33447265625</ele>
        <time>2012-03-17T09:15:28Z</time>
      </trkpt>
      <trkpt lat="45.83076" lon="5.87347">
        <ele>900.892578125</ele>
        <time>2012-03-17T09:15:30Z</time>
      </trkpt>
      <trkpt lat="45.83061" lon="5.87361">
        <ele>898.96997070312</ele>
        <time>2012-03-17T09:15:37Z</time>
      </trkpt>
      <trkpt lat="45.83055" lon="5.87363">
        <ele>899.45068359375</ele>
        <time>2012-03-17T09:15:40Z</time>
      </trkpt>
      <trkpt lat="45.8305" lon="5.87364">
        <ele>899.45068359375</ele>
        <time>2012-03-17T09:15:42Z</time>
      </trkpt>
      <trkpt lat="45.83045" lon="5.87365">
        <ele>900.412109375</ele>
        <time>2012-03-17T09:15:44Z</time>
      </trkpt>
      <trkpt lat="45.83043" lon="5.87366">
        <ele>900.412109375</ele>
        <time>2012-03-17T09:15:45Z</time>
      </trkpt>
      <trkpt lat="45.83041" lon="5.87366">
        <ele>900.412109375</ele>
        <time>2012-03-17T09:15:46Z</time>
      </trkpt>
      <trkpt lat="45.83022" lon="5.87372">
        <ele>899.45068359375</ele>
        <time>2012-03-17T09:15:53Z</time>
      </trkpt>
      <trkpt lat="45.83014" lon="5.87374">
        <ele>899.93139648438</ele>
        <time>2012-03-17T09:15:56Z</time>
      </trkpt>
      <trkpt lat="45.83002" lon="5.87379">
        <ele>900.892578125</ele>
        <time>2012-03-17T09:16:03Z</time>
      </trkpt>
      <trkpt lat="45.82995" lon="5.87382">
        <ele>902.33447265625</ele>
        <time>2012-03-17T09:16:07Z</time>
      </trkpt>
      <trkpt lat="45.82991" lon="5.87382">
        <ele>903.77661132812</ele>
        <time>2012-03-17T09:16:10Z</time>
      </trkpt>
      <trkpt lat="45.82985" lon="5.87383">
        <ele>904.25732421875</ele>
        <time>2012-03-17T09:16:13Z</time>
      </trkpt>
      <trkpt lat="45.82979" lon="5.87383">
        <ele>904.25732421875</ele>
        <time>2012-03-17T09:16:17Z</time>
      </trkpt>
      <trkpt lat="45.82968" lon="5.87385">
        <ele>905.21850585938</ele>
        <time>2012-03-17T09:16:23Z</time>
      </trkpt>
      <trkpt lat="45.82958" lon="5.87384">
        <ele>905.69921875</ele>
        <time>2012-03-17T09:16:28Z</time>
      </trkpt>
      <trkpt lat="45.8295" lon="5.87366">
        <ele>907.14111328125</ele>
        <time>2012-03-17T09:16:36Z</time>
      </trkpt>
      <trkpt lat="45.82945" lon="5.87353">
        <ele>909.54467773438</ele>
        <time>2012-03-17T09:16:43Z</time>
      </trkpt>
      <trkpt lat="45.82939" lon="5.87332">
        <ele>910.505859375</ele>
        <time>2012-03-17T09:16:50Z</time>
      </trkpt>
      <trkpt lat="45.82927" lon="5.87317">
        <ele>908.10278320312</ele>
        <time>2012-03-17T09:16:55Z</time>
      </trkpt>
      <trkpt lat="45.82918" lon="5.87311">
        <ele>907.14111328125</ele>
        <time>2012-03-17T09:16:59Z</time>
      </trkpt>
      <trkpt lat="45.82906" lon="5.87317">
        <ele>905.21850585938</ele>
        <time>2012-03-17T09:17:04Z</time>
      </trkpt>
      <trkpt lat="45.82899" lon="5.87317">
        <ele>905.21850585938</ele>
        <time>2012-03-17T09:17:09Z</time>
      </trkpt>
      <trkpt lat="45.8289" lon="5.87311">
        <ele>905.21850585938</ele>
        <time>2012-03-17T09:17:14Z</time>
      </trkpt>
      <trkpt lat="45.82883" lon="5.873">
        <ele>905.69921875</ele>
        <time>2012-03-17T09:17:21Z</time>
      </trkpt>
      <trkpt lat="45.82875" lon="5.87291">
        <ele>906.66040039062</ele>
        <time>2012-03-17T09:17:27Z</time>
      </trkpt>
      <trkpt lat="45.82864" lon="5.87286">
        <ele>906.66040039062</ele>
        <time>2012-03-17T09:17:34Z</time>
      </trkpt>
      <trkpt lat="45.82851" lon="5.87281">
        <ele>905.69921875</ele>
        <time>2012-03-17T09:17:40Z</time>
      </trkpt>
      <trkpt lat="45.8285" lon="5.87281">
        <ele>905.69921875</ele>
        <time>2012-03-17T09:17:41Z</time>
      </trkpt>
      <trkpt lat="45.8284" lon="5.87281">
        <ele>905.21850585938</ele>
        <time>2012-03-17T09:17:47Z</time>
      </trkpt>
      <trkpt lat="45.82829" lon="5.87277">
        <ele>903.2958984375</ele>
        <time>2012-03-17T09:17:52Z</time>
      </trkpt>
      <trkpt lat="45.82821" lon="5.87274">
        <ele>902.33447265625</ele>
        <time>2012-03-17T09:17:55Z</time>
      </trkpt>
      <trkpt lat="45.82806" lon="5.8727">
        <ele>900.412109375</ele>
        <time>2012-03-17T09:18:02Z</time>
      </trkpt>
      <trkpt lat="45.82793" lon="5.87275">
        <ele>899.93139648438</ele>
        <time>2012-03-17T09:18:07Z</time>
      </trkpt>
      <trkpt lat="45.8279" lon="5.87279">
        <ele>900.892578125</ele>
        <time>2012-03-17T09:18:09Z</time>
      </trkpt>
      <trkpt lat="45.82779" lon="5.87292">
        <ele>899.93139648438</ele>
        <time>2012-03-17T09:18:16Z</time>
      </trkpt>
      <trkpt lat="45.82777" lon="5.87293">
        <ele>899.45068359375</ele>
        <time>2012-03-17T09:18:17Z</time>
      </trkpt>
      <trkpt lat="45.82771" lon="5.87298">
        <ele>898.4892578125</ele>
        <time>2012-03-17T09:18:21Z</time>
      </trkpt>
      <trkpt lat="45.82763" lon="5.87309">
        <ele>895.12475585938</ele>
        <time>2012-03-17T09:18:26Z</time>
      </trkpt>
      <trkpt lat="45.82756" lon="5.87313">
        <ele>892.7216796875</ele>
        <time>2012-03-17T09:18:29Z</time>
      </trkpt>
      <trkpt lat="45.82742" lon="5.87312">
        <ele>887.91479492188</ele>
        <time>2012-03-17T09:18:35Z</time>
      </trkpt>
      <trkpt lat="45.82728" lon="5.87313">
        <ele>885.51147460938</ele>
        <time>2012-03-17T09:18:39Z</time>
      </trkpt>
      <trkpt lat="45.82711" lon="5.87312">
        <ele>882.14697265625</ele>
        <time>2012-03-17T09:18:44Z</time>
      </trkpt>
      <trkpt lat="45.82707" lon="5.87312">
        <ele>881.66625976562</ele>
        <time>2012-03-17T09:18:46Z</time>
      </trkpt>
      <trkpt lat="45.827" lon="5.87305">
        <ele>882.14697265625</ele>
        <time>2012-03-17T09:18:51Z</time>
      </trkpt>
      <trkpt lat="45.82695" lon="5.87295">
        <ele>881.18579101562</ele>
        <time>2012-03-17T09:18:56Z</time>
      </trkpt>
      <trkpt lat="45.82692" lon="5.87281">
        <ele>882.14697265625</ele>
        <time>2012-03-17T09:19:03Z</time>
      </trkpt>
      <trkpt lat="45.82688" lon="5.87285">
        <ele>883.10815429688</ele>
        <time>2012-03-17T09:19:08Z</time>
      </trkpt>
      <trkpt lat="45.82683" lon="5.87293">
        <ele>882.14697265625</ele>
        <time>2012-03-17T09:19:11Z</time>
      </trkpt>
      <trkpt lat="45.82676" lon="5.87307">
        <ele>882.62768554688</ele>
        <time>2012-03-17T09:19:16Z</time>
      </trkpt>
      <trkpt lat="45.82666" lon="5.87312">
        <ele>884.55029296875</ele>
        <time>2012-03-17T09:19:21Z</time>
      </trkpt>
      <trkpt lat="45.82656" lon="5.87313">
        <ele>882.14697265625</ele>
        <time>2012-03-17T09:19:25Z</time>
      </trkpt>
      <trkpt lat="45.82643" lon="5.87329">
        <ele>876.37915039062</ele>
        <time>2012-03-17T09:19:31Z</time>
      </trkpt>
      <trkpt lat="45.82629" lon="5.87338">
        <ele>876.37915039062</ele>
        <time>2012-03-17T09:19:34Z</time>
      </trkpt>
      <trkpt lat="45.82622" lon="5.87355">
        <ele>878.3017578125</ele>
        <time>2012-03-17T09:19:37Z</time>
      </trkpt>
      <trkpt lat="45.82616" lon="5.8737">
        <ele>880.22436523438</ele>
        <time>2012-03-17T09:19:40Z</time>
      </trkpt>
      <trkpt lat="45.82609" lon="5.8739">
        <ele>881.66625976562</ele>
        <time>2012-03-17T09:19:47Z</time>
      </trkpt>
      <trkpt lat="45.82607" lon="5.87403">
        <ele>881.18579101562</ele>
        <time>2012-03-17T09:19:53Z</time>
      </trkpt>
      <trkpt lat="45.82604" lon="5.87416">
        <ele>880.22436523438</ele>
        <time>2012-03-17T09:19:59Z</time>
      </trkpt>
      <trkpt lat="45.82603" lon="5.8742">
        <ele>880.705078125</ele>
        <time>2012-03-17T09:20:01Z</time>
      </trkpt>
      <trkpt lat="45.826" lon="5.87434">
        <ele>883.5888671875</ele>
        <time>2012-03-17T09:20:08Z</time>
      </trkpt>
      <trkpt lat="45.82602" lon="5.87447">
        <ele>883.10815429688</ele>
        <time>2012-03-17T09:20:14Z</time>
      </trkpt>
      <trkpt lat="45.82601" lon="5.87468">
        <ele>882.62768554688</ele>
        <time>2012-03-17T09:20:21Z</time>
      </trkpt>
      <trkpt lat="45.826" lon="5.87473">
        <ele>885.03100585938</ele>
        <time>2012-03-17T09:20:25Z</time>
      </trkpt>
      <trkpt lat="45.82598" lon="5.87471">
        <ele>887.91479492188</ele>
        <time>2012-03-17T09:20:33Z</time>
      </trkpt>
      <trkpt lat="45.826" lon="5.87464">
        <ele>901.37329101562</ele>
        <time>2012-03-17T09:20:47Z</time>
      </trkpt>
      <trkpt lat="45.82598" lon="5.87465">
        <ele>896.56689453125</ele>
        <time>2012-03-17T09:20:51Z</time>
      </trkpt>
      <trkpt lat="45.82598" lon="5.87466">
        <ele>894.64404296875</ele>
        <time>2012-03-17T09:20:52Z</time>
      </trkpt>
      <trkpt lat="45.82595" lon="5.87472">
        <ele>895.60546875</ele>
        <time>2012-03-17T09:21:04Z</time>
      </trkpt>
      <trkpt lat="45.82595" lon="5.87473">
        <ele>894.16357421875</ele>
        <time>2012-03-17T09:21:15Z</time>
      </trkpt>
      <trkpt lat="45.82596" lon="5.87476">
        <ele>894.16357421875</ele>
        <time>2012-03-17T09:21:24Z</time>
      </trkpt>
      <trkpt lat="45.82598" lon="5.87485">
        <ele>893.2021484375</ele>
        <time>2012-03-17T09:21:28Z</time>
      </trkpt>
      <trkpt lat="45.82597" lon="5.87488">
        <ele>893.68286132812</ele>
        <time>2012-03-17T09:21:29Z</time>
      </trkpt>
      <trkpt lat="45.82597" lon="5.87491">
        <ele>893.2021484375</ele>
        <time>2012-03-17T09:21:31Z</time>
      </trkpt>
      <trkpt lat="45.82597" lon="5.87493">
        <ele>893.68286132812</ele>
        <time>2012-03-17T09:21:32Z</time>
      </trkpt>
      <trkpt lat="45.826" lon="5.87498">
        <ele>892.7216796875</ele>
        <time>2012-03-17T09:21:35Z</time>
      </trkpt>
      <trkpt lat="45.82601" lon="5.87519">
        <ele>891.76000976562</ele>
        <time>2012-03-17T09:21:42Z</time>
      </trkpt>
      <trkpt lat="45.82602" lon="5.87535">
        <ele>888.87622070312</ele>
        <time>2012-03-17T09:21:47Z</time>
      </trkpt>
      <trkpt lat="45.82605" lon="5.87548">
        <ele>886.47290039062</ele>
        <time>2012-03-17T09:21:52Z</time>
      </trkpt>
      <trkpt lat="45.82607" lon="5.87555">
        <ele>885.03100585938</ele>
        <time>2012-03-17T09:21:55Z</time>
      </trkpt>
      <trkpt lat="45.82607" lon="5.87575">
        <ele>884.55029296875</ele>
        <time>2012-03-17T09:22:03Z</time>
      </trkpt>
      <trkpt lat="45.82604" lon="5.87586">
        <ele>884.55029296875</ele>
        <time>2012-03-17T09:22:08Z</time>
      </trkpt>
      <trkpt lat="45.82602" lon="5.87593">
        <ele>885.51147460938</ele>
        <time>2012-03-17T09:22:12Z</time>
      </trkpt>
      <trkpt lat="45.826" lon="5.87603">
        <ele>887.91479492188</ele>
        <time>2012-03-17T09:22:17Z</time>
      </trkpt>
      <trkpt lat="45.82599" lon="5.8761">
        <ele>891.279296875</ele>
        <time>2012-03-17T09:22:21Z</time>
      </trkpt>
      <trkpt lat="45.82598" lon="5.87621">
        <ele>891.279296875</ele>
        <time>2012-03-17T09:22:26Z</time>
      </trkpt>
      <trkpt lat="45.82597" lon="5.87633">
        <ele>891.279296875</ele>
        <time>2012-03-17T09:22:32Z</time>
      </trkpt>
      <trkpt lat="45.82594" lon="5.87652">
        <ele>893.2021484375</ele>
        <time>2012-03-17T09:22:40Z</time>
      </trkpt>
      <trkpt lat="45.82594" lon="5.87655">
        <ele>892.7216796875</ele>
        <time>2012-03-17T09:22:42Z</time>
      </trkpt>
      <trkpt lat="45.82594" lon="5.8766">
        <ele>892.7216796875</ele>
        <time>2012-03-17T09:22:45Z</time>
      </trkpt>
      <trkpt lat="45.82594" lon="5.87668">
        <ele>892.24096679688</ele>
        <time>2012-03-17T09:22:51Z</time>
      </trkpt>
      <trkpt lat="45.82589" lon="5.87681">
        <ele>890.31811523438</ele>
        <time>2012-03-17T09:23:00Z</time>
      </trkpt>
      <trkpt lat="45.82584" lon="5.87692">
        <ele>891.76000976562</ele>
        <time>2012-03-17T09:23:06Z</time>
      </trkpt>
      <trkpt lat="45.82577" lon="5.87701">
        <ele>893.2021484375</ele>
        <time>2012-03-17T09:23:13Z</time>
      </trkpt>
      <trkpt lat="45.82569" lon="5.87703">
        <ele>893.68286132812</ele>
        <time>2012-03-17T09:23:19Z</time>
      </trkpt>
      <trkpt lat="45.82559" lon="5.87699">
        <ele>893.68286132812</ele>
        <time>2012-03-17T09:23:26Z</time>
      </trkpt>
      <trkpt lat="45.82544" lon="5.87692">
        <ele>894.16357421875</ele>
        <time>2012-03-17T09:23:35Z</time>
      </trkpt>
      <trkpt lat="45.82533" lon="5.87684">
        <ele>895.60546875</ele>
        <time>2012-03-17T09:23:42Z</time>
      </trkpt>
      <trkpt lat="45.82519" lon="5.87672">
        <ele>897.52807617188</ele>
        <time>2012-03-17T09:23:52Z</time>
      </trkpt>
      <trkpt lat="45.82511" lon="5.87666">
        <ele>897.52807617188</ele>
        <time>2012-03-17T09:23:59Z</time>
      </trkpt>
      <trkpt lat="45.82504" lon="5.87658">
        <ele>898.96997070312</ele>
        <time>2012-03-17T09:24:06Z</time>
      </trkpt>
      <trkpt lat="45.82502" lon="5.87655">
        <ele>899.45068359375</ele>
        <time>2012-03-17T09:24:11Z</time>
      </trkpt>
      <trkpt lat="45.82502" lon="5.87655">
        <ele>899.45068359375</ele>
        <time>2012-03-17T09:24:20Z</time>
      </trkpt>
      <trkpt lat="45.82502" lon="5.87654">
        <ele>898.0087890625</ele>
        <time>2012-03-17T09:24:31Z</time>
      </trkpt>
      <trkpt lat="45.82502" lon="5.87653">
        <ele>897.52807617188</ele>
        <time>2012-03-17T09:24:44Z</time>
      </trkpt>
      <trkpt lat="45.82502" lon="5.87654">
        <ele>898.0087890625</ele>
        <time>2012-03-17T09:24:47Z</time>
      </trkpt>
      <trkpt lat="45.82498" lon="5.87649">
        <ele>898.96997070312</ele>
        <time>2012-03-17T09:24:52Z</time>
      </trkpt>
      <trkpt lat="45.82494" lon="5.87643">
        <ele>899.45068359375</ele>
        <time>2012-03-17T09:24:57Z</time>
      </trkpt>
      <trkpt lat="45.82488" lon="5.87634">
        <ele>900.892578125</ele>
        <time>2012-03-17T09:25:05Z</time>
      </trkpt>
      <trkpt lat="45.82483" lon="5.87627">
        <ele>901.85400390625</ele>
        <time>2012-03-17T09:25:11Z</time>
      </trkpt>
      <trkpt lat="45.82476" lon="5.87618">
        <ele>903.2958984375</ele>
        <time>2012-03-17T09:25:18Z</time>
      </trkpt>
      <trkpt lat="45.82469" lon="5.87608">
        <ele>905.21850585938</ele>
        <time>2012-03-17T09:25:26Z</time>
      </trkpt>
      <trkpt lat="45.82467" lon="5.87605">
        <ele>905.69921875</ele>
        <time>2012-03-17T09:25:28Z</time>
      </trkpt>
      <trkpt lat="45.82463" lon="5.87611">
        <ele>905.69921875</ele>
        <time>2012-03-17T09:25:33Z</time>
      </trkpt>
      <trkpt lat="45.82462" lon="5.87614">
        <ele>905.69921875</ele>
        <time>2012-03-17T09:25:39Z</time>
      </trkpt>
      <trkpt lat="45.82462" lon="5.87616">
        <ele>906.66040039062</ele>
        <time>2012-03-17T09:25:43Z</time>
      </trkpt>
      <trkpt lat="45.82462" lon="5.87621">
        <ele>908.10278320312</ele>
        <time>2012-03-17T09:25:48Z</time>
      </trkpt>
      <trkpt lat="45.82461" lon="5.87625">
        <ele>909.54467773438</ele>
        <time>2012-03-17T09:25:53Z</time>
      </trkpt>
      <trkpt lat="45.82459" lon="5.87631">
        <ele>911.46728515625</ele>
        <time>2012-03-17T09:26:00Z</time>
      </trkpt>
      <trkpt lat="45.82459" lon="5.87644">
        <ele>914.83178710938</ele>
        <time>2012-03-17T09:26:07Z</time>
      </trkpt>
      <trkpt lat="45.82455" lon="5.87661">
        <ele>911.46728515625</ele>
        <time>2012-03-17T09:26:14Z</time>
      </trkpt>
      <trkpt lat="45.82454" lon="5.87676">
        <ele>907.14111328125</ele>
        <time>2012-03-17T09:26:20Z</time>
      </trkpt>
      <trkpt lat="45.82452" lon="5.87689">
        <ele>903.77661132812</ele>
        <time>2012-03-17T09:26:26Z</time>
      </trkpt>
      <trkpt lat="45.82447" lon="5.87708">
        <ele>904.25732421875</ele>
        <time>2012-03-17T09:26:33Z</time>
      </trkpt>
      <trkpt lat="45.82443" lon="5.87722">
        <ele>906.66040039062</ele>
        <time>2012-03-17T09:26:39Z</time>
      </trkpt>
      <trkpt lat="45.82438" lon="5.87747">
        <ele>912.42846679688</ele>
        <time>2012-03-17T09:26:49Z</time>
      </trkpt>
      <trkpt lat="45.82434" lon="5.87765">
        <ele>916.75439453125</ele>
        <time>2012-03-17T09:26:56Z</time>
      </trkpt>
      <trkpt lat="45.82429" lon="5.87779">
        <ele>920.599609375</ele>
        <time>2012-03-17T09:27:02Z</time>
      </trkpt>
      <trkpt lat="45.82425" lon="5.87794">
        <ele>924.44506835938</ele>
        <time>2012-03-17T09:27:06Z</time>
      </trkpt>
      <trkpt lat="45.82417" lon="5.87818">
        <ele>929.73217773438</ele>
        <time>2012-03-17T09:27:11Z</time>
      </trkpt>
      <trkpt lat="45.82408" lon="5.87841">
        <ele>931.65478515625</ele>
        <time>2012-03-17T09:27:16Z</time>
      </trkpt>
      <trkpt lat="45.82399" lon="5.87858">
        <ele>928.29028320312</ele>
        <time>2012-03-17T09:27:20Z</time>
      </trkpt>
      <trkpt lat="45.82388" lon="5.87875">
        <ele>922.52221679688</ele>
        <time>2012-03-17T09:27:25Z</time>
      </trkpt>
      <trkpt lat="45.82377" lon="5.87877">
        <ele>916.27368164062</ele>
        <time>2012-03-17T09:27:29Z</time>
      </trkpt>
      <trkpt lat="45.82361" lon="5.87866">
        <ele>910.02514648438</ele>
        <time>2012-03-17T09:27:33Z</time>
      </trkpt>
      <trkpt lat="45.8235" lon="5.87853">
        <ele>905.69921875</ele>
        <time>2012-03-17T09:27:36Z</time>
      </trkpt>
      <trkpt lat="45.82335" lon="5.87847">
        <ele>903.2958984375</ele>
        <time>2012-03-17T09:27:40Z</time>
      </trkpt>
      <trkpt lat="45.82317" lon="5.87844">
        <ele>899.93139648438</ele>
        <time>2012-03-17T09:27:45Z</time>
      </trkpt>
      <trkpt lat="45.82293" lon="5.87835">
        <ele>896.08618164062</ele>
        <time>2012-03-17T09:27:52Z</time>
      </trkpt>
      <trkpt lat="45.82268" lon="5.87829">
        <ele>892.7216796875</ele>
        <time>2012-03-17T09:27:57Z</time>
      </trkpt>
      <trkpt lat="45.82246" lon="5.87825">
        <ele>891.279296875</ele>
        <time>2012-03-17T09:28:01Z</time>
      </trkpt>
      <trkpt lat="45.82237" lon="5.87824">
        <ele>890.31811523438</ele>
        <time>2012-03-17T09:28:03Z</time>
      </trkpt>
      <trkpt lat="45.82229" lon="5.8782">
        <ele>890.31811523438</ele>
        <time>2012-03-17T09:28:05Z</time>
      </trkpt>
      <trkpt lat="45.82214" lon="5.87814">
        <ele>888.3955078125</ele>
        <time>2012-03-17T09:28:09Z</time>
      </trkpt>
      <trkpt lat="45.82206" lon="5.8781">
        <ele>887.91479492188</ele>
        <time>2012-03-17T09:28:11Z</time>
      </trkpt>
      <trkpt lat="45.82193" lon="5.87801">
        <ele>886.47290039062</ele>
        <time>2012-03-17T09:28:14Z</time>
      </trkpt>
      <trkpt lat="45.82171" lon="5.8779">
        <ele>885.03100585938</ele>
        <time>2012-03-17T09:28:19Z</time>
      </trkpt>
      <trkpt lat="45.8217" lon="5.87791">
        <ele>885.03100585938</ele>
        <time>2012-03-17T09:28:22Z</time>
      </trkpt>
      <trkpt lat="45.82169" lon="5.87794">
        <ele>888.87622070312</ele>
        <time>2012-03-17T09:28:30Z</time>
      </trkpt>
      <trkpt lat="45.82167" lon="5.87793">
        <ele>888.3955078125</ele>
        <time>2012-03-17T09:28:44Z</time>
      </trkpt>
      <trkpt lat="45.82154" lon="5.87795">
        <ele>887.91479492188</ele>
        <time>2012-03-17T09:28:50Z</time>
      </trkpt>
      <trkpt lat="45.82139" lon="5.87795">
        <ele>885.9921875</ele>
        <time>2012-03-17T09:28:56Z</time>
      </trkpt>
      <trkpt lat="45.82119" lon="5.87789">
        <ele>887.43408203125</ele>
        <time>2012-03-17T09:29:02Z</time>
      </trkpt>
      <trkpt lat="45.82096" lon="5.87786">
        <ele>886.95336914062</ele>
        <time>2012-03-17T09:29:07Z</time>
      </trkpt>
      <trkpt lat="45.82087" lon="5.87784">
        <ele>887.91479492188</ele>
        <time>2012-03-17T09:29:09Z</time>
      </trkpt>
      <trkpt lat="45.82059" lon="5.87789">
        <ele>884.55029296875</ele>
        <time>2012-03-17T09:29:14Z</time>
      </trkpt>
      <trkpt lat="45.82031" lon="5.87802">
        <ele>882.62768554688</ele>
        <time>2012-03-17T09:29:20Z</time>
      </trkpt>
      <trkpt lat="45.82014" lon="5.87818">
        <ele>879.74365234375</ele>
        <time>2012-03-17T09:29:24Z</time>
      </trkpt>
      <trkpt lat="45.81992" lon="5.87826">
        <ele>875.89819335938</ele>
        <time>2012-03-17T09:29:29Z</time>
      </trkpt>
      <trkpt lat="45.81979" lon="5.87825">
        <ele>873.01440429688</ele>
        <time>2012-03-17T09:29:32Z</time>
      </trkpt>
      <trkpt lat="45.81969" lon="5.87825">
        <ele>870.61108398438</ele>
        <time>2012-03-17T09:29:35Z</time>
      </trkpt>
      <trkpt lat="45.81963" lon="5.87825">
        <ele>869.64990234375</ele>
        <time>2012-03-17T09:29:37Z</time>
      </trkpt>
      <trkpt lat="45.81955" lon="5.87826">
        <ele>867.72705078125</ele>
        <time>2012-03-17T09:29:40Z</time>
      </trkpt>
      <trkpt lat="45.81935" lon="5.87823">
        <ele>868.20776367188</ele>
        <time>2012-03-17T09:29:47Z</time>
      </trkpt>
      <trkpt lat="45.81914" lon="5.87817">
        <ele>868.6884765625</ele>
        <time>2012-03-17T09:29:54Z</time>
      </trkpt>
      <trkpt lat="45.81895" lon="5.87816">
        <ele>867.72705078125</ele>
        <time>2012-03-17T09:30:00Z</time>
      </trkpt>
      <trkpt lat="45.81873" lon="5.8781">
        <ele>868.20776367188</ele>
        <time>2012-03-17T09:30:07Z</time>
      </trkpt>
      <trkpt lat="45.81856" lon="5.87804">
        <ele>868.20776367188</ele>
        <time>2012-03-17T09:30:13Z</time>
      </trkpt>
      <trkpt lat="45.81836" lon="5.878">
        <ele>866.76586914062</ele>
        <time>2012-03-17T09:30:21Z</time>
      </trkpt>
      <trkpt lat="45.81823" lon="5.87798">
        <ele>864.84326171875</ele>
        <time>2012-03-17T09:30:27Z</time>
      </trkpt>
      <trkpt lat="45.81809" lon="5.87796">
        <ele>863.8818359375</ele>
        <time>2012-03-17T09:30:33Z</time>
      </trkpt>
      <trkpt lat="45.81797" lon="5.87791">
        <ele>864.84326171875</ele>
        <time>2012-03-17T09:30:38Z</time>
      </trkpt>
      <trkpt lat="45.81786" lon="5.87784">
        <ele>864.36254882812</ele>
        <time>2012-03-17T09:30:44Z</time>
      </trkpt>
      <trkpt lat="45.81775" lon="5.87778">
        <ele>865.8046875</ele>
        <time>2012-03-17T09:30:50Z</time>
      </trkpt>
      <trkpt lat="45.81766" lon="5.87773">
        <ele>866.76586914062</ele>
        <time>2012-03-17T09:30:55Z</time>
      </trkpt>
      <trkpt lat="45.81754" lon="5.87769">
        <ele>867.24658203125</ele>
        <time>2012-03-17T09:31:02Z</time>
      </trkpt>
      <trkpt lat="45.81742" lon="5.87765">
        <ele>864.84326171875</ele>
        <time>2012-03-17T09:31:09Z</time>
      </trkpt>
      <trkpt lat="45.81727" lon="5.87753">
        <ele>862.92065429688</ele>
        <time>2012-03-17T09:31:17Z</time>
      </trkpt>
      <trkpt lat="45.81714" lon="5.87743">
        <ele>862.92065429688</ele>
        <time>2012-03-17T09:31:22Z</time>
      </trkpt>
      <trkpt lat="45.81697" lon="5.87735">
        <ele>860.998046875</ele>
        <time>2012-03-17T09:31:28Z</time>
      </trkpt>
      <trkpt lat="45.81682" lon="5.87724">
        <ele>859.0751953125</ele>
        <time>2012-03-17T09:31:33Z</time>
      </trkpt>
      <trkpt lat="45.81671" lon="5.87718">
        <ele>857.63330078125</ele>
        <time>2012-03-17T09:31:37Z</time>
      </trkpt>
      <trkpt lat="45.81654" lon="5.87707">
        <ele>854.74926757812</ele>
        <time>2012-03-17T09:31:43Z</time>
      </trkpt>
      <trkpt lat="45.81639" lon="5.87702">
        <ele>853.30737304688</ele>
        <time>2012-03-17T09:31:48Z</time>
      </trkpt>
      <trkpt lat="45.8162" lon="5.87703">
        <ele>850.90405273438</ele>
        <time>2012-03-17T09:31:55Z</time>
      </trkpt>
      <trkpt lat="45.81601" lon="5.877">
        <ele>848.9814453125</ele>
        <time>2012-03-17T09:32:01Z</time>
      </trkpt>
      <trkpt lat="45.81583" lon="5.87686">
        <ele>848.02026367188</ele>
        <time>2012-03-17T09:32:06Z</time>
      </trkpt>
      <trkpt lat="45.81566" lon="5.87679">
        <ele>847.05883789062</ele>
        <time>2012-03-17T09:32:10Z</time>
      </trkpt>
      <trkpt lat="45.81557" lon="5.87672">
        <ele>845.61694335938</ele>
        <time>2012-03-17T09:32:15Z</time>
      </trkpt>
      <trkpt lat="45.81556" lon="5.87671">
        <ele>844.65551757812</ele>
        <time>2012-03-17T09:32:16Z</time>
      </trkpt>
      <trkpt lat="45.81554" lon="5.87669">
        <ele>846.09765625</ele>
        <time>2012-03-17T09:32:21Z</time>
      </trkpt>
      <trkpt lat="45.81554" lon="5.8767">
        <ele>845.61694335938</ele>
        <time>2012-03-17T09:32:26Z</time>
      </trkpt>
      <trkpt lat="45.81553" lon="5.8767">
        <ele>845.13623046875</ele>
        <time>2012-03-17T09:32:33Z</time>
      </trkpt>
      <trkpt lat="45.81552" lon="5.8767">
        <ele>846.09765625</ele>
        <time>2012-03-17T09:32:41Z</time>
      </trkpt>
      <trkpt lat="45.81552" lon="5.8767">
        <ele>847.05883789062</ele>
        <time>2012-03-17T09:32:50Z</time>
      </trkpt>
      <trkpt lat="45.81552" lon="5.87671">
        <ele>847.53955078125</ele>
        <time>2012-03-17T09:33:05Z</time>
      </trkpt>
      <trkpt lat="45.81552" lon="5.8767">
        <ele>847.05883789062</ele>
        <time>2012-03-17T09:33:25Z</time>
      </trkpt>
      <trkpt lat="45.81553" lon="5.87669">
        <ele>846.57836914062</ele>
        <time>2012-03-17T09:33:28Z</time>
      </trkpt>
      <trkpt lat="45.81548" lon="5.87655">
        <ele>846.09765625</ele>
        <time>2012-03-17T09:33:32Z</time>
      </trkpt>
      <trkpt lat="45.81532" lon="5.87624">
        <ele>844.65551757812</ele>
        <time>2012-03-17T09:33:38Z</time>
      </trkpt>
      <trkpt lat="45.81519" lon="5.87601">
        <ele>843.69409179688</ele>
        <time>2012-03-17T09:33:42Z</time>
      </trkpt>
      <trkpt lat="45.81516" lon="5.87594">
        <ele>843.21337890625</ele>
        <time>2012-03-17T09:33:43Z</time>
      </trkpt>
      <trkpt lat="45.81513" lon="5.87588">
        <ele>842.73291015625</ele>
        <time>2012-03-17T09:33:44Z</time>
      </trkpt>
      <trkpt lat="45.81513" lon="5.87577">
        <ele>842.25219726562</ele>
        <time>2012-03-17T09:33:48Z</time>
      </trkpt>
      <trkpt lat="45.81514" lon="5.87572">
        <ele>842.25219726562</ele>
        <time>2012-03-17T09:33:50Z</time>
      </trkpt>
      <trkpt lat="45.81514" lon="5.87571">
        <ele>842.25219726562</ele>
        <time>2012-03-17T09:33:51Z</time>
      </trkpt>
      <trkpt lat="45.81514" lon="5.87565">
        <ele>841.771484375</ele>
        <time>2012-03-17T09:33:54Z</time>
      </trkpt>
      <trkpt lat="45.81514" lon="5.87563">
        <ele>841.771484375</ele>
        <time>2012-03-17T09:33:55Z</time>
      </trkpt>
      <trkpt lat="45.81514" lon="5.87559">
        <ele>842.73291015625</ele>
        <time>2012-03-17T09:33:57Z</time>
      </trkpt>
      <trkpt lat="45.81514" lon="5.87557">
        <ele>842.73291015625</ele>
        <time>2012-03-17T09:33:58Z</time>
      </trkpt>
      <trkpt lat="45.81513" lon="5.87549">
        <ele>844.65551757812</ele>
        <time>2012-03-17T09:34:02Z</time>
      </trkpt>
      <trkpt lat="45.81511" lon="5.87536">
        <ele>848.02026367188</ele>
        <time>2012-03-17T09:34:09Z</time>
      </trkpt>
      <trkpt lat="45.81508" lon="5.87529">
        <ele>850.42358398438</ele>
        <time>2012-03-17T09:34:13Z</time>
      </trkpt>
      <trkpt lat="45.81505" lon="5.87521">
        <ele>854.26879882812</ele>
        <time>2012-03-17T09:34:18Z</time>
      </trkpt>
      <trkpt lat="45.81503" lon="5.87512">
        <ele>856.671875</ele>
        <time>2012-03-17T09:34:23Z</time>
      </trkpt>
      <trkpt lat="45.81502" lon="5.87505">
        <ele>856.671875</ele>
        <time>2012-03-17T09:34:27Z</time>
      </trkpt>
      <trkpt lat="45.81498" lon="5.8749">
        <ele>856.671875</ele>
        <time>2012-03-17T09:34:36Z</time>
      </trkpt>
      <trkpt lat="45.81497" lon="5.87482">
        <ele>856.671875</ele>
        <time>2012-03-17T09:34:43Z</time>
      </trkpt>
      <trkpt lat="45.81497" lon="5.87479">
        <ele>856.19116210938</ele>
        <time>2012-03-17T09:34:50Z</time>
      </trkpt>
      <trkpt lat="45.81496" lon="5.8747">
        <ele>857.15258789062</ele>
        <time>2012-03-17T09:34:58Z</time>
      </trkpt>
      <trkpt lat="45.81495" lon="5.8746">
        <ele>860.51733398438</ele>
        <time>2012-03-17T09:35:06Z</time>
      </trkpt>
      <trkpt lat="45.81493" lon="5.87452">
        <ele>862.92065429688</ele>
        <time>2012-03-17T09:35:13Z</time>
      </trkpt>
      <trkpt lat="45.8149" lon="5.87441">
        <ele>863.8818359375</ele>
        <time>2012-03-17T09:35:22Z</time>
      </trkpt>
      <trkpt lat="45.81487" lon="5.87431">
        <ele>865.8046875</ele>
        <time>2012-03-17T09:35:29Z</time>
      </trkpt>
      <trkpt lat="45.81483" lon="5.87421">
        <ele>866.76586914062</ele>
        <time>2012-03-17T09:35:37Z</time>
      </trkpt>
      <trkpt lat="45.81477" lon="5.8741">
        <ele>865.32397460938</ele>
        <time>2012-03-17T09:35:47Z</time>
      </trkpt>
      <trkpt lat="45.81476" lon="5.87402">
        <ele>867.24658203125</ele>
        <time>2012-03-17T09:35:56Z</time>
      </trkpt>
      <trkpt lat="45.8148" lon="5.87395">
        <ele>875.41748046875</ele>
        <time>2012-03-17T09:36:03Z</time>
      </trkpt>
      <trkpt lat="45.81479" lon="5.87389">
        <ele>874.45629882812</ele>
        <time>2012-03-17T09:36:11Z</time>
      </trkpt>
      <trkpt lat="45.8148" lon="5.87383">
        <ele>876.85986328125</ele>
        <time>2012-03-17T09:36:18Z</time>
      </trkpt>
      <trkpt lat="45.81481" lon="5.87377">
        <ele>879.26293945312</ele>
        <time>2012-03-17T09:36:25Z</time>
      </trkpt>
      <trkpt lat="45.8148" lon="5.87369">
        <ele>880.705078125</ele>
        <time>2012-03-17T09:36:33Z</time>
      </trkpt>
      <trkpt lat="45.8148" lon="5.8736">
        <ele>880.705078125</ele>
        <time>2012-03-17T09:36:39Z</time>
      </trkpt>
      <trkpt lat="45.8148" lon="5.87356">
        <ele>880.22436523438</ele>
        <time>2012-03-17T09:36:41Z</time>
      </trkpt>
      <trkpt lat="45.81482" lon="5.87347">
        <ele>879.74365234375</ele>
        <time>2012-03-17T09:36:48Z</time>
      </trkpt>
      <trkpt lat="45.81486" lon="5.87342">
        <ele>881.66625976562</ele>
        <time>2012-03-17T09:36:57Z</time>
      </trkpt>
      <trkpt lat="45.8149" lon="5.87337">
        <ele>885.03100585938</ele>
        <time>2012-03-17T09:37:05Z</time>
      </trkpt>
      <trkpt lat="45.81493" lon="5.87334">
        <ele>885.9921875</ele>
        <time>2012-03-17T09:37:13Z</time>
      </trkpt>
      <trkpt lat="45.81497" lon="5.87327">
        <ele>886.47290039062</ele>
        <time>2012-03-17T09:37:22Z</time>
      </trkpt>
      <trkpt lat="45.815" lon="5.87317">
        <ele>886.95336914062</ele>
        <time>2012-03-17T09:37:31Z</time>
      </trkpt>
      <trkpt lat="45.81501" lon="5.87307">
        <ele>885.9921875</ele>
        <time>2012-03-17T09:37:38Z</time>
      </trkpt>
      <trkpt lat="45.81499" lon="5.87298">
        <ele>887.91479492188</ele>
        <time>2012-03-17T09:37:45Z</time>
      </trkpt>
      <trkpt lat="45.81498" lon="5.87288">
        <ele>889.35668945312</ele>
        <time>2012-03-17T09:37:52Z</time>
      </trkpt>
      <trkpt lat="45.81495" lon="5.87277">
        <ele>890.31811523438</ele>
        <time>2012-03-17T09:38:00Z</time>
      </trkpt>
      <trkpt lat="45.81496" lon="5.87274">
        <ele>891.279296875</ele>
        <time>2012-03-17T09:38:06Z</time>
      </trkpt>
      <trkpt lat="45.81495" lon="5.87275">
        <ele>891.76000976562</ele>
        <time>2012-03-17T09:38:15Z</time>
      </trkpt>
      <trkpt lat="45.81494" lon="5.87275">
        <ele>892.7216796875</ele>
        <time>2012-03-17T09:38:19Z</time>
      </trkpt>
      <trkpt lat="45.81493" lon="5.87275">
        <ele>893.68286132812</ele>
        <time>2012-03-17T09:38:23Z</time>
      </trkpt>
      <trkpt lat="45.81493" lon="5.87275">
        <ele>893.2021484375</ele>
        <time>2012-03-17T09:38:24Z</time>
      </trkpt>
      <trkpt lat="45.81493" lon="5.87275">
        <ele>894.16357421875</ele>
        <time>2012-03-17T09:38:31Z</time>
      </trkpt>
      <trkpt lat="45.81492" lon="5.87274">
        <ele>894.64404296875</ele>
        <time>2012-03-17T09:38:41Z</time>
      </trkpt>
      <trkpt lat="45.81491" lon="5.87271">
        <ele>894.16357421875</ele>
        <time>2012-03-17T09:38:43Z</time>
      </trkpt>
      <trkpt lat="45.81485" lon="5.87263">
        <ele>894.16357421875</ele>
        <time>2012-03-17T09:38:50Z</time>
      </trkpt>
      <trkpt lat="45.8148" lon="5.87256">
        <ele>897.52807617188</ele>
        <time>2012-03-17T09:38:58Z</time>
      </trkpt>
      <trkpt lat="45.81476" lon="5.87255">
        <ele>899.45068359375</ele>
        <time>2012-03-17T09:39:02Z</time>
      </trkpt>
      <trkpt lat="45.81466" lon="5.8726">
        <ele>902.33447265625</ele>
        <time>2012-03-17T09:39:10Z</time>
      </trkpt>
      <trkpt lat="45.8146" lon="5.87263">
        <ele>902.81518554688</ele>
        <time>2012-03-17T09:39:15Z</time>
      </trkpt>
      <trkpt lat="45.81452" lon="5.87262">
        <ele>905.21850585938</ele>
        <time>2012-03-17T09:39:24Z</time>
      </trkpt>
      <trkpt lat="45.81447" lon="5.87258">
        <ele>909.06396484375</ele>
        <time>2012-03-17T09:39:31Z</time>
      </trkpt>
      <trkpt lat="45.81441" lon="5.87253">
        <ele>909.54467773438</ele>
        <time>2012-03-17T09:39:38Z</time>
      </trkpt>
      <trkpt lat="45.8144" lon="5.87252">
        <ele>909.54467773438</ele>
        <time>2012-03-17T09:39:39Z</time>
      </trkpt>
      <trkpt lat="45.8144" lon="5.87248">
        <ele>910.02514648438</ele>
        <time>2012-03-17T09:39:42Z</time>
      </trkpt>
      <trkpt lat="45.81433" lon="5.8724">
        <ele>906.66040039062</ele>
        <time>2012-03-17T09:39:50Z</time>
      </trkpt>
      <trkpt lat="45.81429" lon="5.87235">
        <ele>906.1796875</ele>
        <time>2012-03-17T09:39:56Z</time>
      </trkpt>
      <trkpt lat="45.81427" lon="5.87234">
        <ele>906.66040039062</ele>
        <time>2012-03-17T09:39:58Z</time>
      </trkpt>
      <trkpt lat="45.81418" lon="5.87226">
        <ele>905.21850585938</ele>
        <time>2012-03-17T09:40:05Z</time>
      </trkpt>
      <trkpt lat="45.81413" lon="5.8722">
        <ele>905.69921875</ele>
        <time>2012-03-17T09:40:11Z</time>
      </trkpt>
      <trkpt lat="45.81406" lon="5.87216">
        <ele>906.1796875</ele>
        <time>2012-03-17T09:40:17Z</time>
      </trkpt>
      <trkpt lat="45.81403" lon="5.87214">
        <ele>908.58325195312</ele>
        <time>2012-03-17T09:40:23Z</time>
      </trkpt>
      <trkpt lat="45.81398" lon="5.8721">
        <ele>910.98657226562</ele>
        <time>2012-03-17T09:40:31Z</time>
      </trkpt>
      <trkpt lat="45.81395" lon="5.87209">
        <ele>910.505859375</ele>
        <time>2012-03-17T09:40:37Z</time>
      </trkpt>
      <trkpt lat="45.81392" lon="5.87204">
        <ele>913.38989257812</ele>
        <time>2012-03-17T09:40:47Z</time>
      </trkpt>
      <trkpt lat="45.81388" lon="5.87199">
        <ele>916.27368164062</ele>
        <time>2012-03-17T09:40:54Z</time>
      </trkpt>
      <trkpt lat="45.81382" lon="5.87195">
        <ele>917.71557617188</ele>
        <time>2012-03-17T09:41:02Z</time>
      </trkpt>
      <trkpt lat="45.81377" lon="5.87192">
        <ele>918.67700195312</ele>
        <time>2012-03-17T09:41:09Z</time>
      </trkpt>
      <trkpt lat="45.81368" lon="5.87189">
        <ele>920.11889648438</ele>
        <time>2012-03-17T09:41:17Z</time>
      </trkpt>
      <trkpt lat="45.81361" lon="5.87185">
        <ele>924.44506835938</ele>
        <time>2012-03-17T09:41:25Z</time>
      </trkpt>
      <trkpt lat="45.81355" lon="5.87182">
        <ele>926.84838867188</ele>
        <time>2012-03-17T09:41:31Z</time>
      </trkpt>
      <trkpt lat="45.81347" lon="5.87182">
        <ele>926.36767578125</ele>
        <time>2012-03-17T09:41:38Z</time>
      </trkpt>
      <trkpt lat="45.81339" lon="5.87179">
        <ele>926.36767578125</ele>
        <time>2012-03-17T09:41:45Z</time>
      </trkpt>
      <trkpt lat="45.81335" lon="5.87178">
        <ele>927.3291015625</ele>
        <time>2012-03-17T09:41:49Z</time>
      </trkpt>
      <trkpt lat="45.81328" lon="5.87177">
        <ele>927.8095703125</ele>
        <time>2012-03-17T09:41:56Z</time>
      </trkpt>
      <trkpt lat="45.81324" lon="5.87175">
        <ele>927.3291015625</ele>
        <time>2012-03-17T09:42:03Z</time>
      </trkpt>
      <trkpt lat="45.81322" lon="5.87175">
        <ele>927.3291015625</ele>
        <time>2012-03-17T09:42:04Z</time>
      </trkpt>
      <trkpt lat="45.81313" lon="5.8717">
        <ele>927.3291015625</ele>
        <time>2012-03-17T09:42:12Z</time>
      </trkpt>
      <trkpt lat="45.81304" lon="5.87159">
        <ele>930.69360351562</ele>
        <time>2012-03-17T09:42:19Z</time>
      </trkpt>
      <trkpt lat="45.81302" lon="5.87158">
        <ele>930.69360351562</ele>
        <time>2012-03-17T09:42:20Z</time>
      </trkpt>
      <trkpt lat="45.81293" lon="5.8715">
        <ele>929.25146484375</ele>
        <time>2012-03-17T09:42:28Z</time>
      </trkpt>
      <trkpt lat="45.81286" lon="5.8714">
        <ele>927.8095703125</ele>
        <time>2012-03-17T09:42:36Z</time>
      </trkpt>
      <trkpt lat="45.81278" lon="5.87129">
        <ele>927.3291015625</ele>
        <time>2012-03-17T09:42:44Z</time>
      </trkpt>
      <trkpt lat="45.81273" lon="5.87121">
        <ele>925.40625</ele>
        <time>2012-03-17T09:42:50Z</time>
      </trkpt>
      <trkpt lat="45.81268" lon="5.87112">
        <ele>924.44506835938</ele>
        <time>2012-03-17T09:42:57Z</time>
      </trkpt>
      <trkpt lat="45.81258" lon="5.87102">
        <ele>923.96411132812</ele>
        <time>2012-03-17T09:43:06Z</time>
      </trkpt>
      <trkpt lat="45.8125" lon="5.87094">
        <ele>926.36767578125</ele>
        <time>2012-03-17T09:43:14Z</time>
      </trkpt>
      <trkpt lat="45.81241" lon="5.87084">
        <ele>929.73217773438</ele>
        <time>2012-03-17T09:43:22Z</time>
      </trkpt>
      <trkpt lat="45.81233" lon="5.87081">
        <ele>927.8095703125</ele>
        <time>2012-03-17T09:43:30Z</time>
      </trkpt>
      <trkpt lat="45.81219" lon="5.8708">
        <ele>924.92578125</ele>
        <time>2012-03-17T09:43:40Z</time>
      </trkpt>
      <trkpt lat="45.81215" lon="5.87079">
        <ele>924.44506835938</ele>
        <time>2012-03-17T09:43:43Z</time>
      </trkpt>
      <trkpt lat="45.81205" lon="5.87073">
        <ele>926.84838867188</ele>
        <time>2012-03-17T09:43:51Z</time>
      </trkpt>
      <trkpt lat="45.81197" lon="5.87069">
        <ele>925.88696289062</ele>
        <time>2012-03-17T09:43:58Z</time>
      </trkpt>
      <trkpt lat="45.8119" lon="5.87064">
        <ele>925.88696289062</ele>
        <time>2012-03-17T09:44:04Z</time>
      </trkpt>
      <trkpt lat="45.81178" lon="5.87056">
        <ele>927.8095703125</ele>
        <time>2012-03-17T09:44:14Z</time>
      </trkpt>
      <trkpt lat="45.81166" lon="5.87048">
        <ele>930.212890625</ele>
        <time>2012-03-17T09:44:24Z</time>
      </trkpt>
      <trkpt lat="45.81158" lon="5.8704">
        <ele>935.5</ele>
        <time>2012-03-17T09:44:32Z</time>
      </trkpt>
      <trkpt lat="45.81148" lon="5.87035">
        <ele>935.01953125</ele>
        <time>2012-03-17T09:44:40Z</time>
      </trkpt>
      <trkpt lat="45.81136" lon="5.87029">
        <ele>936.46142578125</ele>
        <time>2012-03-17T09:44:48Z</time>
      </trkpt>
      <trkpt lat="45.81128" lon="5.87025">
        <ele>936.46142578125</ele>
        <time>2012-03-17T09:44:55Z</time>
      </trkpt>
      <trkpt lat="45.81119" lon="5.87025">
        <ele>935.5</ele>
        <time>2012-03-17T09:45:01Z</time>
      </trkpt>
      <trkpt lat="45.81109" lon="5.87024">
        <ele>932.6162109375</ele>
        <time>2012-03-17T09:45:08Z</time>
      </trkpt>
      <trkpt lat="45.81097" lon="5.87022">
        <ele>930.69360351562</ele>
        <time>2012-03-17T09:45:16Z</time>
      </trkpt>
      <trkpt lat="45.81086" lon="5.87019">
        <ele>928.29028320312</ele>
        <time>2012-03-17T09:45:22Z</time>
      </trkpt>
      <trkpt lat="45.81075" lon="5.87015">
        <ele>928.29028320312</ele>
        <time>2012-03-17T09:45:27Z</time>
      </trkpt>
      <trkpt lat="45.81059" lon="5.8701">
        <ele>928.77099609375</ele>
        <time>2012-03-17T09:45:33Z</time>
      </trkpt>
      <trkpt lat="45.81046" lon="5.87007">
        <ele>929.25146484375</ele>
        <time>2012-03-17T09:45:37Z</time>
      </trkpt>
      <trkpt lat="45.81032" lon="5.87001">
        <ele>931.17431640625</ele>
        <time>2012-03-17T09:45:41Z</time>
      </trkpt>
      <trkpt lat="45.81021" lon="5.86994">
        <ele>934.05810546875</ele>
        <time>2012-03-17T09:45:45Z</time>
      </trkpt>
      <trkpt lat="45.81015" lon="5.86991">
        <ele>935.5</ele>
        <time>2012-03-17T09:45:48Z</time>
      </trkpt>
      <trkpt lat="45.81006" lon="5.86985">
        <ele>938.38403320312</ele>
        <time>2012-03-17T09:45:53Z</time>
      </trkpt>
      <trkpt lat="45.80998" lon="5.86977">
        <ele>942.2294921875</ele>
        <time>2012-03-17T09:45:59Z</time>
      </trkpt>
      <trkpt lat="45.80989" lon="5.86972">
        <ele>944.15209960938</ele>
        <time>2012-03-17T09:46:05Z</time>
      </trkpt>
      <trkpt lat="45.80978" lon="5.86971">
        <ele>946.07470703125</ele>
        <time>2012-03-17T09:46:11Z</time>
      </trkpt>
      <trkpt lat="45.80969" lon="5.86971">
        <ele>947.99731445312</ele>
        <time>2012-03-17T09:46:17Z</time>
      </trkpt>
      <trkpt lat="45.80963" lon="5.86971">
        <ele>949.43920898438</ele>
        <time>2012-03-17T09:46:22Z</time>
      </trkpt>
      <trkpt lat="45.80951" lon="5.86971">
        <ele>951.84252929688</ele>
        <time>2012-03-17T09:46:30Z</time>
      </trkpt>
      <trkpt lat="45.80943" lon="5.86972">
        <ele>952.8037109375</ele>
        <time>2012-03-17T09:46:36Z</time>
      </trkpt>
      <trkpt lat="45.80941" lon="5.86972">
        <ele>953.76513671875</ele>
        <time>2012-03-17T09:46:39Z</time>
      </trkpt>
      <trkpt lat="45.80929" lon="5.86975">
        <ele>954.24584960938</ele>
        <time>2012-03-17T09:46:48Z</time>
      </trkpt>
      <trkpt lat="45.80923" lon="5.86975">
        <ele>954.72631835938</ele>
        <time>2012-03-17T09:46:52Z</time>
      </trkpt>
      <trkpt lat="45.80914" lon="5.86977">
        <ele>953.76513671875</ele>
        <time>2012-03-17T09:46:59Z</time>
      </trkpt>
      <trkpt lat="45.80906" lon="5.86979">
        <ele>953.76513671875</ele>
        <time>2012-03-17T09:47:05Z</time>
      </trkpt>
      <trkpt lat="45.80886" lon="5.86987">
        <ele>948.47778320312</ele>
        <time>2012-03-17T09:47:14Z</time>
      </trkpt>
      <trkpt lat="45.80882" lon="5.86989">
        <ele>947.5166015625</ele>
        <time>2012-03-17T09:47:16Z</time>
      </trkpt>
      <trkpt lat="45.8088" lon="5.86989">
        <ele>947.03588867188</ele>
        <time>2012-03-17T09:47:17Z</time>
      </trkpt>
      <trkpt lat="45.80865" lon="5.86993">
        <ele>944.63256835938</ele>
        <time>2012-03-17T09:47:23Z</time>
      </trkpt>
      <trkpt lat="45.80851" lon="5.87">
        <ele>940.30688476562</ele>
        <time>2012-03-17T09:47:28Z</time>
      </trkpt>
      <trkpt lat="45.80835" lon="5.87005">
        <ele>941.26806640625</ele>
        <time>2012-03-17T09:47:33Z</time>
      </trkpt>
      <trkpt lat="45.80812" lon="5.87011">
        <ele>941.74877929688</ele>
        <time>2012-03-17T09:47:40Z</time>
      </trkpt>
      <trkpt lat="45.80796" lon="5.87009">
        <ele>940.78735351562</ele>
        <time>2012-03-17T09:47:44Z</time>
      </trkpt>
      <trkpt lat="45.80774" lon="5.87">
        <ele>940.30688476562</ele>
        <time>2012-03-17T09:47:50Z</time>
      </trkpt>
      <trkpt lat="45.80764" lon="5.86998">
        <ele>940.30688476562</ele>
        <time>2012-03-17T09:47:56Z</time>
      </trkpt>
      <trkpt lat="45.80763" lon="5.87002">
        <ele>938.38403320312</ele>
        <time>2012-03-17T09:48:09Z</time>
      </trkpt>
      <trkpt lat="45.80761" lon="5.87005">
        <ele>938.38403320312</ele>
        <time>2012-03-17T09:48:21Z</time>
      </trkpt>
      <trkpt lat="45.80761" lon="5.87004">
        <ele>939.82592773438</ele>
        <time>2012-03-17T09:48:31Z</time>
      </trkpt>
      <trkpt lat="45.80754" lon="5.87001">
        <ele>938.38403320312</ele>
        <time>2012-03-17T09:48:37Z</time>
      </trkpt>
      <trkpt lat="45.80743" lon="5.86994">
        <ele>936.46142578125</ele>
        <time>2012-03-17T09:48:42Z</time>
      </trkpt>
      <trkpt lat="45.80733" lon="5.86991">
        <ele>934.53881835938</ele>
        <time>2012-03-17T09:48:46Z</time>
      </trkpt>
      <trkpt lat="45.80721" lon="5.86993">
        <ele>931.17431640625</ele>
        <time>2012-03-17T09:48:50Z</time>
      </trkpt>
      <trkpt lat="45.80701" lon="5.87003">
        <ele>927.3291015625</ele>
        <time>2012-03-17T09:48:55Z</time>
      </trkpt>
      <trkpt lat="45.80688" lon="5.87006">
        <ele>923.96411132812</ele>
        <time>2012-03-17T09:48:58Z</time>
      </trkpt>
      <trkpt lat="45.80661" lon="5.87008">
        <ele>922.52221679688</ele>
        <time>2012-03-17T09:49:04Z</time>
      </trkpt>
      <trkpt lat="45.80632" lon="5.87013">
        <ele>916.27368164062</ele>
        <time>2012-03-17T09:49:09Z</time>
      </trkpt>
      <trkpt lat="45.80622" lon="5.87012">
        <ele>914.83178710938</ele>
        <time>2012-03-17T09:49:11Z</time>
      </trkpt>
      <trkpt lat="45.80606" lon="5.87015">
        <ele>911.46728515625</ele>
        <time>2012-03-17T09:49:14Z</time>
      </trkpt>
      <trkpt lat="45.80593" lon="5.87017">
        <ele>908.58325195312</ele>
        <time>2012-03-17T09:49:17Z</time>
      </trkpt>
      <trkpt lat="45.80581" lon="5.87023">
        <ele>904.73779296875</ele>
        <time>2012-03-17T09:49:21Z</time>
      </trkpt>
      <trkpt lat="45.80574" lon="5.87029">
        <ele>901.37329101562</ele>
        <time>2012-03-17T09:49:23Z</time>
      </trkpt>
      <trkpt lat="45.80553" lon="5.87047">
        <ele>895.60546875</ele>
        <time>2012-03-17T09:49:28Z</time>
      </trkpt>
      <trkpt lat="45.80548" lon="5.87053">
        <ele>894.64404296875</ele>
        <time>2012-03-17T09:49:31Z</time>
      </trkpt>
      <trkpt lat="45.80541" lon="5.87055">
        <ele>893.2021484375</ele>
        <time>2012-03-17T09:49:35Z</time>
      </trkpt>
      <trkpt lat="45.8054" lon="5.87058">
        <ele>891.76000976562</ele>
        <time>2012-03-17T09:49:37Z</time>
      </trkpt>
      <trkpt lat="45.80538" lon="5.87059">
        <ele>890.79858398438</ele>
        <time>2012-03-17T09:49:43Z</time>
      </trkpt>
      <trkpt lat="45.80538" lon="5.8706">
        <ele>891.279296875</ele>
        <time>2012-03-17T09:49:52Z</time>
      </trkpt>
      <trkpt lat="45.80535" lon="5.87062">
        <ele>900.412109375</ele>
        <time>2012-03-17T09:50:10Z</time>
      </trkpt>
      <trkpt lat="45.80531" lon="5.87066">
        <ele>898.0087890625</ele>
        <time>2012-03-17T09:50:24Z</time>
      </trkpt>
      <trkpt lat="45.80518" lon="5.87078">
        <ele>894.16357421875</ele>
        <time>2012-03-17T09:50:29Z</time>
      </trkpt>
      <trkpt lat="45.805" lon="5.87088">
        <ele>889.35668945312</ele>
        <time>2012-03-17T09:50:35Z</time>
      </trkpt>
      <trkpt lat="45.80481" lon="5.87092">
        <ele>886.47290039062</ele>
        <time>2012-03-17T09:50:39Z</time>
      </trkpt>
      <trkpt lat="45.8047" lon="5.87095">
        <ele>885.03100585938</ele>
        <time>2012-03-17T09:50:41Z</time>
      </trkpt>
      <trkpt lat="45.80445" lon="5.871">
        <ele>880.705078125</ele>
        <time>2012-03-17T09:50:45Z</time>
      </trkpt>
      <trkpt lat="45.8042" lon="5.871">
        <ele>879.74365234375</ele>
        <time>2012-03-17T09:50:50Z</time>
      </trkpt>
      <trkpt lat="45.80399" lon="5.87104">
        <ele>877.34057617188</ele>
        <time>2012-03-17T09:50:56Z</time>
      </trkpt>
      <trkpt lat="45.8039" lon="5.87106">
        <ele>877.34057617188</ele>
        <time>2012-03-17T09:51:00Z</time>
      </trkpt>
      <trkpt lat="45.80374" lon="5.87113">
        <ele>876.37915039062</ele>
        <time>2012-03-17T09:51:06Z</time>
      </trkpt>
      <trkpt lat="45.80354" lon="5.87128">
        <ele>873.9755859375</ele>
        <time>2012-03-17T09:51:12Z</time>
      </trkpt>
      <trkpt lat="45.80338" lon="5.87133">
        <ele>874.45629882812</ele>
        <time>2012-03-17T09:51:17Z</time>
      </trkpt>
      <trkpt lat="45.80323" lon="5.87133">
        <ele>873.4951171875</ele>
        <time>2012-03-17T09:51:21Z</time>
      </trkpt>
      <trkpt lat="45.80302" lon="5.87123">
        <ele>873.01440429688</ele>
        <time>2012-03-17T09:51:26Z</time>
      </trkpt>
      <trkpt lat="45.80285" lon="5.87108">
        <ele>869.64990234375</ele>
        <time>2012-03-17T09:51:30Z</time>
      </trkpt>
      <trkpt lat="45.80268" lon="5.87099">
        <ele>868.20776367188</ele>
        <time>2012-03-17T09:51:34Z</time>
      </trkpt>
      <trkpt lat="45.80259" lon="5.87096">
        <ele>867.72705078125</ele>
        <time>2012-03-17T09:51:36Z</time>
      </trkpt>
      <trkpt lat="45.80244" lon="5.87091">
        <ele>865.32397460938</ele>
        <time>2012-03-17T09:51:40Z</time>
      </trkpt>
      <trkpt lat="45.80235" lon="5.87087">
        <ele>864.36254882812</ele>
        <time>2012-03-17T09:51:44Z</time>
      </trkpt>
      <trkpt lat="45.80216" lon="5.87091">
        <ele>858.11401367188</ele>
        <time>2012-03-17T09:51:50Z</time>
      </trkpt>
      <trkpt lat="45.80197" lon="5.87104">
        <ele>853.30737304688</ele>
        <time>2012-03-17T09:51:56Z</time>
      </trkpt>
      <trkpt lat="45.80179" lon="5.87109">
        <ele>851.86547851562</ele>
        <time>2012-03-17T09:52:00Z</time>
      </trkpt>
      <trkpt lat="45.80174" lon="5.8711">
        <ele>851.384765625</ele>
        <time>2012-03-17T09:52:01Z</time>
      </trkpt>
      <trkpt lat="45.80151" lon="5.8712">
        <ele>851.384765625</ele>
        <time>2012-03-17T09:52:06Z</time>
      </trkpt>
      <trkpt lat="45.80136" lon="5.87126">
        <ele>852.34594726562</ele>
        <time>2012-03-17T09:52:09Z</time>
      </trkpt>
      <trkpt lat="45.80114" lon="5.87146">
        <ele>841.771484375</ele>
        <time>2012-03-17T09:52:14Z</time>
      </trkpt>
      <trkpt lat="45.80084" lon="5.87172">
        <ele>828.31323242188</ele>
        <time>2012-03-17T09:52:20Z</time>
      </trkpt>
      <trkpt lat="45.80079" lon="5.87175">
        <ele>827.35180664062</ele>
        <time>2012-03-17T09:52:21Z</time>
      </trkpt>
      <trkpt lat="45.80057" lon="5.87198">
        <ele>821.58374023438</ele>
        <time>2012-03-17T09:52:26Z</time>
      </trkpt>
      <trkpt lat="45.80046" lon="5.87207">
        <ele>819.1806640625</ele>
        <time>2012-03-17T09:52:28Z</time>
      </trkpt>
      <trkpt lat="45.80026" lon="5.87226">
        <ele>814.85473632812</ele>
        <time>2012-03-17T09:52:32Z</time>
      </trkpt>
      <trkpt lat="45.79995" lon="5.87259">
        <ele>810.52856445312</ele>
        <time>2012-03-17T09:52:37Z</time>
      </trkpt>
      <trkpt lat="45.79978" lon="5.87287">
        <ele>807.64477539062</ele>
        <time>2012-03-17T09:52:41Z</time>
      </trkpt>
      <trkpt lat="45.79966" lon="5.87306">
        <ele>808.12548828125</ele>
        <time>2012-03-17T09:52:44Z</time>
      </trkpt>
      <trkpt lat="45.79964" lon="5.87324">
        <ele>807.1640625</ele>
        <time>2012-03-17T09:52:48Z</time>
      </trkpt>
      <trkpt lat="45.79961" lon="5.87333">
        <ele>807.64477539062</ele>
        <time>2012-03-17T09:52:50Z</time>
      </trkpt>
      <trkpt lat="45.7995" lon="5.87344">
        <ele>807.64477539062</ele>
        <time>2012-03-17T09:52:56Z</time>
      </trkpt>
      <trkpt lat="45.79943" lon="5.87359">
        <ele>804.2802734375</ele>
        <time>2012-03-17T09:53:00Z</time>
      </trkpt>
      <trkpt lat="45.79939" lon="5.87375">
        <ele>809.5673828125</ele>
        <time>2012-03-17T09:53:04Z</time>
      </trkpt>
      <trkpt lat="45.79938" lon="5.8738">
        <ele>810.52856445312</ele>
        <time>2012-03-17T09:53:05Z</time>
      </trkpt>
      <trkpt lat="45.7993" lon="5.87404">
        <ele>809.5673828125</ele>
        <time>2012-03-17T09:53:10Z</time>
      </trkpt>
      <trkpt lat="45.79925" lon="5.87415">
        <ele>811.970703125</ele>
        <time>2012-03-17T09:53:13Z</time>
      </trkpt>
      <trkpt lat="45.79918" lon="5.87418">
        <ele>813.89331054688</ele>
        <time>2012-03-17T09:53:17Z</time>
      </trkpt>
      <trkpt lat="45.79911" lon="5.87417">
        <ele>814.85473632812</ele>
        <time>2012-03-17T09:53:19Z</time>
      </trkpt>
      <trkpt lat="45.79901" lon="5.87413">
        <ele>815.33544921875</ele>
        <time>2012-03-17T09:53:23Z</time>
      </trkpt>
      <trkpt lat="45.79899" lon="5.87413">
        <ele>816.77734375</ele>
        <time>2012-03-17T09:53:31Z</time>
      </trkpt>
      <trkpt lat="45.799" lon="5.87415">
        <ele>813.41284179688</ele>
        <time>2012-03-17T09:53:40Z</time>
      </trkpt>
      <trkpt lat="45.79902" lon="5.87416">
        <ele>811.00927734375</ele>
        <time>2012-03-17T09:53:51Z</time>
      </trkpt>
      <trkpt lat="45.79902" lon="5.87416">
        <ele>810.52856445312</ele>
        <time>2012-03-17T09:53:54Z</time>
      </trkpt>
      <trkpt lat="45.79901" lon="5.87417">
        <ele>810.0478515625</ele>
        <time>2012-03-17T09:54:00Z</time>
      </trkpt>
      <trkpt lat="45.799" lon="5.87417">
        <ele>815.81616210938</ele>
        <time>2012-03-17T09:54:09Z</time>
      </trkpt>
      <trkpt lat="45.79901" lon="5.87417">
        <ele>816.29663085938</ele>
        <time>2012-03-17T09:54:17Z</time>
      </trkpt>
      <trkpt lat="45.79902" lon="5.87417">
        <ele>816.29663085938</ele>
        <time>2012-03-17T09:54:20Z</time>
      </trkpt>
      <trkpt lat="45.79901" lon="5.87416">
        <ele>821.58374023438</ele>
        <time>2012-03-17T09:54:30Z</time>
      </trkpt>
      <trkpt lat="45.79899" lon="5.87414">
        <ele>824.4677734375</ele>
        <time>2012-03-17T09:54:39Z</time>
      </trkpt>
      <trkpt lat="45.79898" lon="5.87404">
        <ele>821.10327148438</ele>
        <time>2012-03-17T09:54:44Z</time>
      </trkpt>
      <trkpt lat="45.79904" lon="5.87392">
        <ele>818.69995117188</ele>
        <time>2012-03-17T09:54:47Z</time>
      </trkpt>
      <trkpt lat="45.7991" lon="5.87385">
        <ele>816.77734375</ele>
        <time>2012-03-17T09:54:51Z</time>
      </trkpt>
      <trkpt lat="45.79906" lon="5.87384">
        <ele>813.89331054688</ele>
        <time>2012-03-17T09:54:55Z</time>
      </trkpt>
      <trkpt lat="45.79903" lon="5.87385">
        <ele>812.93212890625</ele>
        <time>2012-03-17T09:54:56Z</time>
      </trkpt>
      <trkpt lat="45.79883" lon="5.87397">
        <ele>806.68334960938</ele>
        <time>2012-03-17T09:55:02Z</time>
      </trkpt>
      <trkpt lat="45.79875" lon="5.87404">
        <ele>803.79956054688</ele>
        <time>2012-03-17T09:55:06Z</time>
      </trkpt>
      <trkpt lat="45.79869" lon="5.87416">
        <ele>803.31884765625</ele>
        <time>2012-03-17T09:55:12Z</time>
      </trkpt>
      <trkpt lat="45.79864" lon="5.8743">
        <ele>800.91552734375</ele>
        <time>2012-03-17T09:55:17Z</time>
      </trkpt>
      <trkpt lat="45.79853" lon="5.87445">
        <ele>798.99291992188</ele>
        <time>2012-03-17T09:55:20Z</time>
      </trkpt>
      <trkpt lat="45.7984" lon="5.87465">
        <ele>797.0703125</ele>
        <time>2012-03-17T09:55:23Z</time>
      </trkpt>
      <trkpt lat="45.7984" lon="5.87513">
        <ele>794.18627929688</ele>
        <time>2012-03-17T09:55:27Z</time>
      </trkpt>
      <trkpt lat="45.79837" lon="5.8754">
        <ele>791.30224609375</ele>
        <time>2012-03-17T09:55:29Z</time>
      </trkpt>
      <trkpt lat="45.79816" lon="5.87583">
        <ele>786.97631835938</ele>
        <time>2012-03-17T09:55:33Z</time>
      </trkpt>
      <trkpt lat="45.79809" lon="5.876">
        <ele>784.09252929688</ele>
        <time>2012-03-17T09:55:37Z</time>
      </trkpt>
      <trkpt lat="45.79809" lon="5.8761">
        <ele>785.05395507812</ele>
        <time>2012-03-17T09:55:44Z</time>
      </trkpt>
      <trkpt lat="45.7981" lon="5.87617">
        <ele>786.01513671875</ele>
        <time>2012-03-17T09:55:47Z</time>
      </trkpt>
      <trkpt lat="45.79809" lon="5.87634">
        <ele>788.41845703125</ele>
        <time>2012-03-17T09:55:54Z</time>
      </trkpt>
      <trkpt lat="45.7981" lon="5.87635">
        <ele>788.89916992188</ele>
        <time>2012-03-17T09:56:00Z</time>
      </trkpt>
      <trkpt lat="45.7981" lon="5.87635">
        <ele>788.41845703125</ele>
        <time>2012-03-17T09:56:05Z</time>
      </trkpt>
      <trkpt lat="45.7981" lon="5.87635">
        <ele>787.93774414062</ele>
        <time>2012-03-17T09:56:16Z</time>
      </trkpt>
      <trkpt lat="45.79811" lon="5.87635">
        <ele>788.41845703125</ele>
        <time>2012-03-17T09:56:33Z</time>
      </trkpt>
      <trkpt lat="45.79811" lon="5.87637">
        <ele>788.41845703125</ele>
        <time>2012-03-17T09:56:45Z</time>
      </trkpt>
      <trkpt lat="45.79811" lon="5.87639">
        <ele>788.89916992188</ele>
        <time>2012-03-17T09:56:52Z</time>
      </trkpt>
      <trkpt lat="45.7981" lon="5.87638">
        <ele>790.34106445312</ele>
        <time>2012-03-17T09:57:03Z</time>
      </trkpt>
      <trkpt lat="45.7981" lon="5.8764">
        <ele>792.263671875</ele>
        <time>2012-03-17T09:57:22Z</time>
      </trkpt>
      <trkpt lat="45.79812" lon="5.87644">
        <ele>790.82153320312</ele>
        <time>2012-03-17T09:57:35Z</time>
      </trkpt>
      <trkpt lat="45.79825" lon="5.87659">
        <ele>790.82153320312</ele>
        <time>2012-03-17T09:57:41Z</time>
      </trkpt>
      <trkpt lat="45.79843" lon="5.87681">
        <ele>789.37963867188</ele>
        <time>2012-03-17T09:57:48Z</time>
      </trkpt>
      <trkpt lat="45.79845" lon="5.87698">
        <ele>788.41845703125</ele>
        <time>2012-03-17T09:57:50Z</time>
      </trkpt>
      <trkpt lat="45.79863" lon="5.8773">
        <ele>785.53442382812</ele>
        <time>2012-03-17T09:57:54Z</time>
      </trkpt>
      <trkpt lat="45.79871" lon="5.87736">
        <ele>784.5732421875</ele>
        <time>2012-03-17T09:57:55Z</time>
      </trkpt>
      <trkpt lat="45.79909" lon="5.87786">
        <ele>779.28564453125</ele>
        <time>2012-03-17T09:58:00Z</time>
      </trkpt>
      <trkpt lat="45.79924" lon="5.8781">
        <ele>776.40185546875</ele>
        <time>2012-03-17T09:58:02Z</time>
      </trkpt>
      <trkpt lat="45.79955" lon="5.87845">
        <ele>772.07592773438</ele>
        <time>2012-03-17T09:58:06Z</time>
      </trkpt>
      <trkpt lat="45.7996" lon="5.87849">
        <ele>770.63403320312</ele>
        <time>2012-03-17T09:58:07Z</time>
      </trkpt>
      <trkpt lat="45.79962" lon="5.87863">
        <ele>765.82763671875</ele>
        <time>2012-03-17T09:58:10Z</time>
      </trkpt>
      <trkpt lat="45.79953" lon="5.87864">
        <ele>763.90454101562</ele>
        <time>2012-03-17T09:58:12Z</time>
      </trkpt>
      <trkpt lat="45.79919" lon="5.87859">
        <ele>763.42407226562</ele>
        <time>2012-03-17T09:58:18Z</time>
      </trkpt>
      <trkpt lat="45.79895" lon="5.87853">
        <ele>761.50146484375</ele>
        <time>2012-03-17T09:58:21Z</time>
      </trkpt>
      <trkpt lat="45.79878" lon="5.87859">
        <ele>759.09814453125</ele>
        <time>2012-03-17T09:58:24Z</time>
      </trkpt>
      <trkpt lat="45.79878" lon="5.87876">
        <ele>756.69482421875</ele>
        <time>2012-03-17T09:58:27Z</time>
      </trkpt>
      <trkpt lat="45.79882" lon="5.87878">
        <ele>755.73364257812</ele>
        <time>2012-03-17T09:58:28Z</time>
      </trkpt>
      <trkpt lat="45.79914" lon="5.87897">
        <ele>751.40771484375</ele>
        <time>2012-03-17T09:58:33Z</time>
      </trkpt>
      <trkpt lat="45.7993" lon="5.8792">
        <ele>749.9658203125</ele>
        <time>2012-03-17T09:58:37Z</time>
      </trkpt>
      <trkpt lat="45.7993" lon="5.87922">
        <ele>748.52368164062</ele>
        <time>2012-03-17T09:58:40Z</time>
      </trkpt>
      <trkpt lat="45.79917" lon="5.87922">
        <ele>746.60107421875</ele>
        <time>2012-03-17T09:58:45Z</time>
      </trkpt>
      <trkpt lat="45.79898" lon="5.87915">
        <ele>744.19775390625</ele>
        <time>2012-03-17T09:58:49Z</time>
      </trkpt>
      <trkpt lat="45.79885" lon="5.8792">
        <ele>743.236328125</ele>
        <time>2012-03-17T09:58:51Z</time>
      </trkpt>
      <trkpt lat="45.79862" lon="5.87931">
        <ele>740.3525390625</ele>
        <time>2012-03-17T09:58:54Z</time>
      </trkpt>
      <trkpt lat="45.79815" lon="5.87932">
        <ele>735.5458984375</ele>
        <time>2012-03-17T09:58:59Z</time>
      </trkpt>
      <trkpt lat="45.79797" lon="5.87916">
        <ele>733.62329101562</ele>
        <time>2012-03-17T09:59:02Z</time>
      </trkpt>
      <trkpt lat="45.79786" lon="5.87915">
        <ele>732.662109375</ele>
        <time>2012-03-17T09:59:05Z</time>
      </trkpt>
      <trkpt lat="45.79786" lon="5.87915">
        <ele>732.662109375</ele>
        <time>2012-03-17T09:59:09Z</time>
      </trkpt>
      <trkpt lat="45.79786" lon="5.87915">
        <ele>733.142578125</ele>
        <time>2012-03-17T09:59:13Z</time>
      </trkpt>
      <trkpt lat="45.79786" lon="5.87918">
        <ele>732.662109375</ele>
        <time>2012-03-17T09:59:20Z</time>
      </trkpt>
      <trkpt lat="45.79785" lon="5.8792">
        <ele>732.18139648438</ele>
        <time>2012-03-17T09:59:21Z</time>
      </trkpt>
      <trkpt lat="45.79775" lon="5.87923">
        <ele>730.7392578125</ele>
        <time>2012-03-17T09:59:26Z</time>
      </trkpt>
      <trkpt lat="45.7976" lon="5.87927">
        <ele>729.29711914062</ele>
        <time>2012-03-17T09:59:29Z</time>
      </trkpt>
      <trkpt lat="45.79737" lon="5.87929">
        <ele>727.37475585938</ele>
        <time>2012-03-17T09:59:32Z</time>
      </trkpt>
      <trkpt lat="45.79697" lon="5.87942">
        <ele>725.45190429688</ele>
        <time>2012-03-17T09:59:37Z</time>
      </trkpt>
      <trkpt lat="45.7966" lon="5.87937">
        <ele>724.97143554688</ele>
        <time>2012-03-17T09:59:42Z</time>
      </trkpt>
      <trkpt lat="45.79624" lon="5.87936">
        <ele>725.9326171875</ele>
        <time>2012-03-17T09:59:48Z</time>
      </trkpt>
      <trkpt lat="45.79601" lon="5.87937">
        <ele>725.45190429688</ele>
        <time>2012-03-17T09:59:52Z</time>
      </trkpt>
      <trkpt lat="45.79581" lon="5.87931">
        <ele>726.41333007812</ele>
        <time>2012-03-17T09:59:56Z</time>
      </trkpt>
      <trkpt lat="45.79579" lon="5.87929">
        <ele>726.41333007812</ele>
        <time>2012-03-17T09:59:57Z</time>
      </trkpt>
      <trkpt lat="45.7957" lon="5.87921">
        <ele>726.41333007812</ele>
        <time>2012-03-17T10:00:01Z</time>
      </trkpt>
      <trkpt lat="45.79565" lon="5.87918">
        <ele>726.89404296875</ele>
        <time>2012-03-17T10:00:03Z</time>
      </trkpt>
      <trkpt lat="45.79562" lon="5.87916">
        <ele>727.37475585938</ele>
        <time>2012-03-17T10:00:05Z</time>
      </trkpt>
      <trkpt lat="45.79557" lon="5.87913">
        <ele>727.37475585938</ele>
        <time>2012-03-17T10:00:07Z</time>
      </trkpt>
      <trkpt lat="45.79555" lon="5.87911">
        <ele>727.37475585938</ele>
        <time>2012-03-17T10:00:08Z</time>
      </trkpt>
      <trkpt lat="45.79539" lon="5.87898">
        <ele>726.89404296875</ele>
        <time>2012-03-17T10:00:13Z</time>
      </trkpt>
      <trkpt lat="45.79528" lon="5.87878">
        <ele>725.9326171875</ele>
        <time>2012-03-17T10:00:18Z</time>
      </trkpt>
      <trkpt lat="45.79519" lon="5.87854">
        <ele>723.048828125</ele>
        <time>2012-03-17T10:00:23Z</time>
      </trkpt>
      <trkpt lat="45.79509" lon="5.87847">
        <ele>721.12622070312</ele>
        <time>2012-03-17T10:00:25Z</time>
      </trkpt>
      <trkpt lat="45.79489" lon="5.87842">
        <ele>718.72290039062</ele>
        <time>2012-03-17T10:00:28Z</time>
      </trkpt>
      <trkpt lat="45.79477" lon="5.87842">
        <ele>717.28100585938</ele>
        <time>2012-03-17T10:00:30Z</time>
      </trkpt>
      <trkpt lat="45.79452" lon="5.87853">
        <ele>711.99365234375</ele>
        <time>2012-03-17T10:00:34Z</time>
      </trkpt>
      <trkpt lat="45.79421" lon="5.87858">
        <ele>711.99365234375</ele>
        <time>2012-03-17T10:00:38Z</time>
      </trkpt>
      <trkpt lat="45.79373" lon="5.87854">
        <ele>709.59033203125</ele>
        <time>2012-03-17T10:00:44Z</time>
      </trkpt>
      <trkpt lat="45.79333" lon="5.87864">
        <ele>705.7451171875</ele>
        <time>2012-03-17T10:00:49Z</time>
      </trkpt>
      <trkpt lat="45.79306" lon="5.87865">
        <ele>703.341796875</ele>
        <time>2012-03-17T10:00:53Z</time>
      </trkpt>
      <trkpt lat="45.7928" lon="5.87877">
        <ele>701.89990234375</ele>
        <time>2012-03-17T10:00:57Z</time>
      </trkpt>
      <trkpt lat="45.79247" lon="5.87908">
        <ele>699.49633789062</ele>
        <time>2012-03-17T10:01:02Z</time>
      </trkpt>
      <trkpt lat="45.79224" lon="5.87917">
        <ele>696.1318359375</ele>
        <time>2012-03-17T10:01:06Z</time>
      </trkpt>
      <trkpt lat="45.79218" lon="5.87914">
        <ele>695.17041015625</ele>
        <time>2012-03-17T10:01:07Z</time>
      </trkpt>
      <trkpt lat="45.79174" lon="5.87904">
        <ele>691.80590820312</ele>
        <time>2012-03-17T10:01:13Z</time>
      </trkpt>
      <trkpt lat="45.79137" lon="5.87873">
        <ele>689.88330078125</ele>
        <time>2012-03-17T10:01:18Z</time>
      </trkpt>
      <trkpt lat="45.79098" lon="5.87858">
        <ele>689.88330078125</ele>
        <time>2012-03-17T10:01:23Z</time>
      </trkpt>
      <trkpt lat="45.79092" lon="5.87857">
        <ele>689.88330078125</ele>
        <time>2012-03-17T10:01:24Z</time>
      </trkpt>
      <trkpt lat="45.7907" lon="5.87861">
        <ele>690.36401367188</ele>
        <time>2012-03-17T10:01:29Z</time>
      </trkpt>
      <trkpt lat="45.79065" lon="5.87863">
        <ele>690.84448242188</ele>
        <time>2012-03-17T10:01:31Z</time>
      </trkpt>
      <trkpt lat="45.79057" lon="5.87863">
        <ele>691.3251953125</ele>
        <time>2012-03-17T10:01:34Z</time>
      </trkpt>
      <trkpt lat="45.79052" lon="5.87856">
        <ele>691.80590820312</ele>
        <time>2012-03-17T10:01:38Z</time>
      </trkpt>
      <trkpt lat="45.7905" lon="5.87853">
        <ele>692.28662109375</ele>
        <time>2012-03-17T10:01:40Z</time>
      </trkpt>
      <trkpt lat="45.79045" lon="5.87847">
        <ele>693.24780273438</ele>
        <time>2012-03-17T10:01:43Z</time>
      </trkpt>
      <trkpt lat="45.79035" lon="5.87835">
        <ele>696.61254882812</ele>
        <time>2012-03-17T10:01:50Z</time>
      </trkpt>
      <trkpt lat="45.7903" lon="5.87824">
        <ele>696.61254882812</ele>
        <time>2012-03-17T10:01:55Z</time>
      </trkpt>
      <trkpt lat="45.7902" lon="5.87803">
        <ele>698.53491210938</ele>
        <time>2012-03-17T10:02:04Z</time>
      </trkpt>
      <trkpt lat="45.79013" lon="5.87786">
        <ele>699.49633789062</ele>
        <time>2012-03-17T10:02:10Z</time>
      </trkpt>
      <trkpt lat="45.79003" lon="5.87774">
        <ele>703.341796875</ele>
        <time>2012-03-17T10:02:16Z</time>
      </trkpt>
      <trkpt lat="45.78992" lon="5.87766">
        <ele>706.2255859375</ele>
        <time>2012-03-17T10:02:24Z</time>
      </trkpt>
      <trkpt lat="45.78988" lon="5.87765">
        <ele>703.82250976562</ele>
        <time>2012-03-17T10:02:28Z</time>
      </trkpt>
      <trkpt lat="45.78979" lon="5.87761">
        <ele>702.38037109375</ele>
        <time>2012-03-17T10:02:32Z</time>
      </trkpt>
      <trkpt lat="45.78972" lon="5.87759">
        <ele>699.015625</ele>
        <time>2012-03-17T10:02:35Z</time>
      </trkpt>
      <trkpt lat="45.78956" lon="5.87751">
        <ele>693.728515625</ele>
        <time>2012-03-17T10:02:39Z</time>
      </trkpt>
      <trkpt lat="45.78941" lon="5.87742">
        <ele>690.84448242188</ele>
        <time>2012-03-17T10:02:42Z</time>
      </trkpt>
      <trkpt lat="45.78921" lon="5.8773">
        <ele>690.36401367188</ele>
        <time>2012-03-17T10:02:46Z</time>
      </trkpt>
      <trkpt lat="45.78883" lon="5.87732">
        <ele>684.11547851562</ele>
        <time>2012-03-17T10:02:51Z</time>
      </trkpt>
      <trkpt lat="45.78867" lon="5.87729">
        <ele>682.67333984375</ele>
        <time>2012-03-17T10:02:53Z</time>
      </trkpt>
      <trkpt lat="45.78838" lon="5.87722">
        <ele>683.63452148438</ele>
        <time>2012-03-17T10:02:56Z</time>
      </trkpt>
      <trkpt lat="45.7879" lon="5.87704">
        <ele>682.67333984375</ele>
        <time>2012-03-17T10:03:02Z</time>
      </trkpt>
      <trkpt lat="45.78775" lon="5.87703">
        <ele>681.2314453125</ele>
        <time>2012-03-17T10:03:04Z</time>
      </trkpt>
      <trkpt lat="45.78745" lon="5.87702">
        <ele>681.2314453125</ele>
        <time>2012-03-17T10:03:09Z</time>
      </trkpt>
      <trkpt lat="45.78738" lon="5.87699">
        <ele>681.2314453125</ele>
        <time>2012-03-17T10:03:10Z</time>
      </trkpt>
      <trkpt lat="45.78708" lon="5.87679">
        <ele>681.7119140625</ele>
        <time>2012-03-17T10:03:16Z</time>
      </trkpt>
      <trkpt lat="45.78703" lon="5.87675">
        <ele>682.19262695312</ele>
        <time>2012-03-17T10:03:17Z</time>
      </trkpt>
      <trkpt lat="45.78696" lon="5.87668">
        <ele>682.67333984375</ele>
        <time>2012-03-17T10:03:19Z</time>
      </trkpt>
      <trkpt lat="45.78672" lon="5.87648">
        <ele>682.19262695312</ele>
        <time>2012-03-17T10:03:24Z</time>
      </trkpt>
      <trkpt lat="45.7864" lon="5.87643">
        <ele>681.2314453125</ele>
        <time>2012-03-17T10:03:29Z</time>
      </trkpt>
      <trkpt lat="45.78634" lon="5.87645">
        <ele>679.78930664062</ele>
        <time>2012-03-17T10:03:30Z</time>
      </trkpt>
      <trkpt lat="45.7862" lon="5.8765">
        <ele>679.78930664062</ele>
        <time>2012-03-17T10:03:32Z</time>
      </trkpt>
      <trkpt lat="45.78583" lon="5.87643">
        <ele>678.34741210938</ele>
        <time>2012-03-17T10:03:37Z</time>
      </trkpt>
      <trkpt lat="45.78548" lon="5.87623">
        <ele>673.06030273438</ele>
        <time>2012-03-17T10:03:42Z</time>
      </trkpt>
      <trkpt lat="45.78534" lon="5.87613">
        <ele>670.65698242188</ele>
        <time>2012-03-17T10:03:44Z</time>
      </trkpt>
      <trkpt lat="45.78496" lon="5.8759">
        <ele>665.85034179688</ele>
        <time>2012-03-17T10:03:49Z</time>
      </trkpt>
      <trkpt lat="45.78462" lon="5.87576">
        <ele>662.00512695312</ele>
        <time>2012-03-17T10:03:53Z</time>
      </trkpt>
      <trkpt lat="45.784" lon="5.87538">
        <ele>656.23706054688</ele>
        <time>2012-03-17T10:04:00Z</time>
      </trkpt>
      <trkpt lat="45.78388" lon="5.87531">
        <ele>654.31469726562</ele>
        <time>2012-03-17T10:04:02Z</time>
      </trkpt>
      <trkpt lat="45.78369" lon="5.87525">
        <ele>652.87255859375</ele>
        <time>2012-03-17T10:04:05Z</time>
      </trkpt>
      <trkpt lat="45.78338" lon="5.87521">
        <ele>646.14331054688</ele>
        <time>2012-03-17T10:04:10Z</time>
      </trkpt>
      <trkpt lat="45.78302" lon="5.87518">
        <ele>640.85595703125</ele>
        <time>2012-03-17T10:04:15Z</time>
      </trkpt>
      <trkpt lat="45.78281" lon="5.8752">
        <ele>641.8173828125</ele>
        <time>2012-03-17T10:04:17Z</time>
      </trkpt>
      <trkpt lat="45.78246" lon="5.8753">
        <ele>640.37548828125</ele>
        <time>2012-03-17T10:04:21Z</time>
      </trkpt>
      <trkpt lat="45.78205" lon="5.8755">
        <ele>637.0107421875</ele>
        <time>2012-03-17T10:04:26Z</time>
      </trkpt>
      <trkpt lat="45.78175" lon="5.87553">
        <ele>634.607421875</ele>
        <time>2012-03-17T10:04:30Z</time>
      </trkpt>
      <trkpt lat="45.78152" lon="5.87542">
        <ele>633.16528320312</ele>
        <time>2012-03-17T10:04:34Z</time>
      </trkpt>
      <trkpt lat="45.78133" lon="5.87531">
        <ele>634.12670898438</ele>
        <time>2012-03-17T10:04:39Z</time>
      </trkpt>
      <trkpt lat="45.78112" lon="5.87524">
        <ele>638.45288085938</ele>
        <time>2012-03-17T10:04:46Z</time>
      </trkpt>
      <trkpt lat="45.78099" lon="5.87523">
        <ele>640.37548828125</ele>
        <time>2012-03-17T10:04:51Z</time>
      </trkpt>
      <trkpt lat="45.78087" lon="5.87519">
        <ele>641.8173828125</ele>
        <time>2012-03-17T10:04:56Z</time>
      </trkpt>
      <trkpt lat="45.78077" lon="5.87519">
        <ele>641.33666992188</ele>
        <time>2012-03-17T10:05:01Z</time>
      </trkpt>
      <trkpt lat="45.78058" lon="5.87516">
        <ele>640.85595703125</ele>
        <time>2012-03-17T10:05:06Z</time>
      </trkpt>
      <trkpt lat="45.78046" lon="5.87526">
        <ele>638.45288085938</ele>
        <time>2012-03-17T10:05:09Z</time>
      </trkpt>
      <trkpt lat="45.78042" lon="5.87531">
        <ele>637.97216796875</ele>
        <time>2012-03-17T10:05:10Z</time>
      </trkpt>
      <trkpt lat="45.78028" lon="5.87543">
        <ele>635.56860351562</ele>
        <time>2012-03-17T10:05:14Z</time>
      </trkpt>
      <trkpt lat="45.78018" lon="5.8755">
        <ele>635.08813476562</ele>
        <time>2012-03-17T10:05:17Z</time>
      </trkpt>
      <trkpt lat="45.7801" lon="5.87546">
        <ele>633.16528320312</ele>
        <time>2012-03-17T10:05:21Z</time>
      </trkpt>
      <trkpt lat="45.78017" lon="5.87534">
        <ele>630.76220703125</ele>
        <time>2012-03-17T10:05:24Z</time>
      </trkpt>
      <trkpt lat="45.78028" lon="5.87509">
        <ele>627.87817382812</ele>
        <time>2012-03-17T10:05:28Z</time>
      </trkpt>
      <trkpt lat="45.78021" lon="5.87478">
        <ele>624.03295898438</ele>
        <time>2012-03-17T10:05:32Z</time>
      </trkpt>
      <trkpt lat="45.78006" lon="5.87454">
        <ele>620.66845703125</ele>
        <time>2012-03-17T10:05:36Z</time>
      </trkpt>
      <trkpt lat="45.77995" lon="5.87444">
        <ele>618.26489257812</ele>
        <time>2012-03-17T10:05:38Z</time>
      </trkpt>
      <trkpt lat="45.77966" lon="5.87435">
        <ele>615.38110351562</ele>
        <time>2012-03-17T10:05:42Z</time>
      </trkpt>
      <trkpt lat="45.77936" lon="5.87448">
        <ele>614.41967773438</ele>
        <time>2012-03-17T10:05:46Z</time>
      </trkpt>
      <trkpt lat="45.77905" lon="5.87471">
        <ele>614.900390625</ele>
        <time>2012-03-17T10:05:52Z</time>
      </trkpt>
      <trkpt lat="45.77898" lon="5.87475">
        <ele>615.38110351562</ele>
        <time>2012-03-17T10:05:55Z</time>
      </trkpt>
      <trkpt lat="45.77888" lon="5.87481">
        <ele>616.34228515625</ele>
        <time>2012-03-17T10:06:00Z</time>
      </trkpt>
      <trkpt lat="45.77882" lon="5.87484">
        <ele>616.82299804688</ele>
        <time>2012-03-17T10:06:03Z</time>
      </trkpt>
      <trkpt lat="45.77881" lon="5.87485">
        <ele>616.82299804688</ele>
        <time>2012-03-17T10:06:04Z</time>
      </trkpt>
      <trkpt lat="45.77875" lon="5.87489">
        <ele>616.34228515625</ele>
        <time>2012-03-17T10:06:07Z</time>
      </trkpt>
      <trkpt lat="45.77858" lon="5.87501">
        <ele>617.3037109375</ele>
        <time>2012-03-17T10:06:16Z</time>
      </trkpt>
      <trkpt lat="45.77846" lon="5.87507">
        <ele>619.22631835938</ele>
        <time>2012-03-17T10:06:22Z</time>
      </trkpt>
      <trkpt lat="45.77832" lon="5.87516">
        <ele>622.59106445312</ele>
        <time>2012-03-17T10:06:29Z</time>
      </trkpt>
      <trkpt lat="45.77815" lon="5.87524">
        <ele>624.99438476562</ele>
        <time>2012-03-17T10:06:37Z</time>
      </trkpt>
      <trkpt lat="45.77798" lon="5.87536">
        <ele>626.9169921875</ele>
        <time>2012-03-17T10:06:46Z</time>
      </trkpt>
      <trkpt lat="45.77781" lon="5.8755">
        <ele>628.83959960938</ele>
        <time>2012-03-17T10:06:55Z</time>
      </trkpt>
      <trkpt lat="45.77763" lon="5.87562">
        <ele>631.24291992188</ele>
        <time>2012-03-17T10:07:04Z</time>
      </trkpt>
      <trkpt lat="45.77748" lon="5.87562">
        <ele>632.2041015625</ele>
        <time>2012-03-17T10:07:11Z</time>
      </trkpt>
      <trkpt lat="45.77737" lon="5.8755">
        <ele>634.12670898438</ele>
        <time>2012-03-17T10:07:17Z</time>
      </trkpt>
      <trkpt lat="45.77723" lon="5.87532">
        <ele>637.97216796875</ele>
        <time>2012-03-17T10:07:27Z</time>
      </trkpt>
      <trkpt lat="45.77711" lon="5.87517">
        <ele>641.33666992188</ele>
        <time>2012-03-17T10:07:35Z</time>
      </trkpt>
      <trkpt lat="45.77704" lon="5.87492">
        <ele>644.220703125</ele>
        <time>2012-03-17T10:07:45Z</time>
      </trkpt>
      <trkpt lat="45.77704" lon="5.87478">
        <ele>645.66259765625</ele>
        <time>2012-03-17T10:07:52Z</time>
      </trkpt>
      <trkpt lat="45.77703" lon="5.87467">
        <ele>646.14331054688</ele>
        <time>2012-03-17T10:07:59Z</time>
      </trkpt>
      <trkpt lat="45.77702" lon="5.87462">
        <ele>646.14331054688</ele>
        <time>2012-03-17T10:08:02Z</time>
      </trkpt>
      <trkpt lat="45.77699" lon="5.87468">
        <ele>646.14331054688</ele>
        <time>2012-03-17T10:08:07Z</time>
      </trkpt>
      <trkpt lat="45.777" lon="5.87478">
        <ele>646.6240234375</ele>
        <time>2012-03-17T10:08:12Z</time>
      </trkpt>
      <trkpt lat="45.77694" lon="5.87481">
        <ele>647.58520507812</ele>
        <time>2012-03-17T10:08:16Z</time>
      </trkpt>
      <trkpt lat="45.77692" lon="5.87482">
        <ele>647.58520507812</ele>
        <time>2012-03-17T10:08:17Z</time>
      </trkpt>
      <trkpt lat="45.77686" lon="5.87489">
        <ele>648.54638671875</ele>
        <time>2012-03-17T10:08:23Z</time>
      </trkpt>
      <trkpt lat="45.77679" lon="5.87503">
        <ele>649.98852539062</ele>
        <time>2012-03-17T10:08:31Z</time>
      </trkpt>
      <trkpt lat="45.77676" lon="5.87507">
        <ele>650.94970703125</ele>
        <time>2012-03-17T10:08:34Z</time>
      </trkpt>
      <trkpt lat="45.77675" lon="5.87509">
        <ele>651.43041992188</ele>
        <time>2012-03-17T10:08:36Z</time>
      </trkpt>
      <trkpt lat="45.77676" lon="5.87511">
        <ele>652.39184570312</ele>
        <time>2012-03-17T10:08:42Z</time>
      </trkpt>
      <trkpt lat="45.77677" lon="5.87512">
        <ele>653.833984375</ele>
        <time>2012-03-17T10:08:53Z</time>
      </trkpt>
      <trkpt lat="45.77682" lon="5.87512">
        <ele>657.67919921875</ele>
        <time>2012-03-17T10:09:03Z</time>
      </trkpt>
      <trkpt lat="45.77681" lon="5.87514">
        <ele>657.67919921875</ele>
        <time>2012-03-17T10:09:07Z</time>
      </trkpt>
      <trkpt lat="45.77676" lon="5.87517">
        <ele>656.23706054688</ele>
        <time>2012-03-17T10:09:11Z</time>
      </trkpt>
      <trkpt lat="45.77673" lon="5.87518">
        <ele>655.27587890625</ele>
        <time>2012-03-17T10:09:15Z</time>
      </trkpt>
      <trkpt lat="45.7767" lon="5.87523">
        <ele>654.79516601562</ele>
        <time>2012-03-17T10:09:19Z</time>
      </trkpt>
      <trkpt lat="45.77665" lon="5.8753">
        <ele>654.31469726562</ele>
        <time>2012-03-17T10:09:25Z</time>
      </trkpt>
      <trkpt lat="45.77665" lon="5.87531">
        <ele>654.31469726562</ele>
        <time>2012-03-17T10:09:26Z</time>
      </trkpt>
      <trkpt lat="45.77662" lon="5.87534">
        <ele>654.31469726562</ele>
        <time>2012-03-17T10:09:30Z</time>
      </trkpt>
      <trkpt lat="45.77653" lon="5.87531">
        <ele>654.79516601562</ele>
        <time>2012-03-17T10:09:37Z</time>
      </trkpt>
      <trkpt lat="45.77653" lon="5.87523">
        <ele>656.23706054688</ele>
        <time>2012-03-17T10:09:42Z</time>
      </trkpt>
      <trkpt lat="45.77654" lon="5.8752">
        <ele>656.7177734375</ele>
        <time>2012-03-17T10:09:43Z</time>
      </trkpt>
      <trkpt lat="45.77662" lon="5.87497">
        <ele>656.7177734375</ele>
        <time>2012-03-17T10:09:55Z</time>
      </trkpt>
      <trkpt lat="45.77663" lon="5.87481">
        <ele>657.67919921875</ele>
        <time>2012-03-17T10:10:03Z</time>
      </trkpt>
      <trkpt lat="45.77658" lon="5.87464">
        <ele>657.19848632812</ele>
        <time>2012-03-17T10:10:12Z</time>
      </trkpt>
      <trkpt lat="45.77656" lon="5.87461">
        <ele>656.7177734375</ele>
        <time>2012-03-17T10:10:14Z</time>
      </trkpt>
      <trkpt lat="45.77652" lon="5.87453">
        <ele>655.75659179688</ele>
        <time>2012-03-17T10:10:19Z</time>
      </trkpt>
      <trkpt lat="45.77646" lon="5.8744">
        <ele>654.79516601562</ele>
        <time>2012-03-17T10:10:26Z</time>
      </trkpt>
      <trkpt lat="45.77644" lon="5.87425">
        <ele>656.7177734375</ele>
        <time>2012-03-17T10:10:32Z</time>
      </trkpt>
      <trkpt lat="45.77638" lon="5.87402">
        <ele>662.00512695312</ele>
        <time>2012-03-17T10:10:41Z</time>
      </trkpt>
      <trkpt lat="45.77633" lon="5.87385">
        <ele>663.44702148438</ele>
        <time>2012-03-17T10:10:49Z</time>
      </trkpt>
      <trkpt lat="45.77625" lon="5.87371">
        <ele>662.96630859375</ele>
        <time>2012-03-17T10:10:57Z</time>
      </trkpt>
      <trkpt lat="45.77615" lon="5.87365">
        <ele>663.92749023438</ele>
        <time>2012-03-17T10:11:04Z</time>
      </trkpt>
      <trkpt lat="45.77611" lon="5.87361">
        <ele>665.85034179688</ele>
        <time>2012-03-17T10:11:07Z</time>
      </trkpt>
      <trkpt lat="45.77599" lon="5.87359">
        <ele>668.734375</ele>
        <time>2012-03-17T10:11:15Z</time>
      </trkpt>
      <trkpt lat="45.77589" lon="5.8736">
        <ele>670.17626953125</ele>
        <time>2012-03-17T10:11:22Z</time>
      </trkpt>
      <trkpt lat="45.77576" lon="5.87359">
        <ele>672.09887695312</ele>
        <time>2012-03-17T10:11:30Z</time>
      </trkpt>
      <trkpt lat="45.77571" lon="5.87348">
        <ele>673.541015625</ele>
        <time>2012-03-17T10:11:36Z</time>
      </trkpt>
      <trkpt lat="45.77569" lon="5.87336">
        <ele>674.021484375</ele>
        <time>2012-03-17T10:11:42Z</time>
      </trkpt>
      <trkpt lat="45.7756" lon="5.87337">
        <ele>676.4248046875</ele>
        <time>2012-03-17T10:11:48Z</time>
      </trkpt>
      <trkpt lat="45.77554" lon="5.8735">
        <ele>678.34741210938</ele>
        <time>2012-03-17T10:11:55Z</time>
      </trkpt>
      <trkpt lat="45.77545" lon="5.87371">
        <ele>679.30859375</ele>
        <time>2012-03-17T10:12:06Z</time>
      </trkpt>
      <trkpt lat="45.77539" lon="5.87383">
        <ele>680.27001953125</ele>
        <time>2012-03-17T10:12:13Z</time>
      </trkpt>
      <trkpt lat="45.77534" lon="5.87395">
        <ele>681.2314453125</ele>
        <time>2012-03-17T10:12:20Z</time>
      </trkpt>
      <trkpt lat="45.77528" lon="5.87403">
        <ele>681.7119140625</ele>
        <time>2012-03-17T10:12:26Z</time>
      </trkpt>
      <trkpt lat="45.77522" lon="5.87417">
        <ele>682.67333984375</ele>
        <time>2012-03-17T10:12:34Z</time>
      </trkpt>
      <trkpt lat="45.77515" lon="5.87429">
        <ele>683.15380859375</ele>
        <time>2012-03-17T10:12:41Z</time>
      </trkpt>
      <trkpt lat="45.77509" lon="5.87432">
        <ele>684.59619140625</ele>
        <time>2012-03-17T10:12:46Z</time>
      </trkpt>
      <trkpt lat="45.77502" lon="5.87443">
        <ele>685.07690429688</ele>
        <time>2012-03-17T10:12:53Z</time>
      </trkpt>
      <trkpt lat="45.77493" lon="5.87454">
        <ele>685.07690429688</ele>
        <time>2012-03-17T10:13:01Z</time>
      </trkpt>
      <trkpt lat="45.77484" lon="5.87472">
        <ele>687.47998046875</ele>
        <time>2012-03-17T10:13:10Z</time>
      </trkpt>
      <trkpt lat="45.77479" lon="5.87488">
        <ele>688.44140625</ele>
        <time>2012-03-17T10:13:17Z</time>
      </trkpt>
      <trkpt lat="45.77472" lon="5.87491">
        <ele>690.84448242188</ele>
        <time>2012-03-17T10:13:21Z</time>
      </trkpt>
      <trkpt lat="45.77467" lon="5.87483">
        <ele>692.76733398438</ele>
        <time>2012-03-17T10:13:26Z</time>
      </trkpt>
      <trkpt lat="45.77468" lon="5.87478">
        <ele>692.76733398438</ele>
        <time>2012-03-17T10:13:28Z</time>
      </trkpt>
      <trkpt lat="45.77472" lon="5.87456">
        <ele>695.17041015625</ele>
        <time>2012-03-17T10:13:39Z</time>
      </trkpt>
      <trkpt lat="45.77467" lon="5.87443">
        <ele>696.61254882812</ele>
        <time>2012-03-17T10:13:45Z</time>
      </trkpt>
      <trkpt lat="45.77456" lon="5.87437">
        <ele>698.53491210938</ele>
        <time>2012-03-17T10:13:52Z</time>
      </trkpt>
      <trkpt lat="45.77439" lon="5.87437">
        <ele>700.4580078125</ele>
        <time>2012-03-17T10:14:02Z</time>
      </trkpt>
      <trkpt lat="45.7743" lon="5.87443">
        <ele>699.97705078125</ele>
        <time>2012-03-17T10:14:09Z</time>
      </trkpt>
      <trkpt lat="45.77423" lon="5.87456">
        <ele>701.41918945312</ele>
        <time>2012-03-17T10:14:16Z</time>
      </trkpt>
      <trkpt lat="45.77416" lon="5.87474">
        <ele>704.78369140625</ele>
        <time>2012-03-17T10:14:25Z</time>
      </trkpt>
      <trkpt lat="45.77406" lon="5.87484">
        <ele>708.1484375</ele>
        <time>2012-03-17T10:14:32Z</time>
      </trkpt>
      <trkpt lat="45.77394" lon="5.87493">
        <ele>709.59033203125</ele>
        <time>2012-03-17T10:14:37Z</time>
      </trkpt>
      <trkpt lat="45.77381" lon="5.87502">
        <ele>711.51293945312</ele>
        <time>2012-03-17T10:14:43Z</time>
      </trkpt>
      <trkpt lat="45.7737" lon="5.87511">
        <ele>712.95483398438</ele>
        <time>2012-03-17T10:14:48Z</time>
      </trkpt>
      <trkpt lat="45.77357" lon="5.87524">
        <ele>713.916015625</ele>
        <time>2012-03-17T10:14:53Z</time>
      </trkpt>
      <trkpt lat="45.77354" lon="5.87526">
        <ele>714.39672851562</ele>
        <time>2012-03-17T10:14:54Z</time>
      </trkpt>
      <trkpt lat="45.77345" lon="5.87521">
        <ele>716.31958007812</ele>
        <time>2012-03-17T10:14:58Z</time>
      </trkpt>
      <trkpt lat="45.77349" lon="5.87508">
        <ele>717.28100585938</ele>
        <time>2012-03-17T10:15:01Z</time>
      </trkpt>
      <trkpt lat="45.77364" lon="5.87484">
        <ele>717.28100585938</ele>
        <time>2012-03-17T10:15:09Z</time>
      </trkpt>
      <trkpt lat="45.77372" lon="5.87473">
        <ele>716.31958007812</ele>
        <time>2012-03-17T10:15:15Z</time>
      </trkpt>
      <trkpt lat="45.77375" lon="5.87472">
        <ele>716.31958007812</ele>
        <time>2012-03-17T10:15:17Z</time>
      </trkpt>
      <trkpt lat="45.77377" lon="5.87468">
        <ele>717.76147460938</ele>
        <time>2012-03-17T10:15:22Z</time>
      </trkpt>
      <trkpt lat="45.77378" lon="5.87468">
        <ele>720.6455078125</ele>
        <time>2012-03-17T10:15:34Z</time>
      </trkpt>
      <trkpt lat="45.77379" lon="5.87469">
        <ele>722.08740234375</ele>
        <time>2012-03-17T10:15:40Z</time>
      </trkpt>
      <trkpt lat="45.77379" lon="5.87469">
        <ele>722.08740234375</ele>
        <time>2012-03-17T10:15:45Z</time>
      </trkpt>
      <trkpt lat="45.77379" lon="5.87469">
        <ele>723.048828125</ele>
        <time>2012-03-17T10:15:53Z</time>
      </trkpt>
      <trkpt lat="45.77378" lon="5.87469">
        <ele>724.01000976562</ele>
        <time>2012-03-17T10:15:59Z</time>
      </trkpt>
      <trkpt lat="45.77375" lon="5.87468">
        <ele>725.9326171875</ele>
        <time>2012-03-17T10:16:11Z</time>
      </trkpt>
      <trkpt lat="45.77372" lon="5.8747">
        <ele>725.9326171875</ele>
        <time>2012-03-17T10:16:17Z</time>
      </trkpt>
      <trkpt lat="45.77369" lon="5.87472">
        <ele>725.45190429688</ele>
        <time>2012-03-17T10:16:22Z</time>
      </trkpt>
      <trkpt lat="45.77365" lon="5.87472">
        <ele>725.45190429688</ele>
        <time>2012-03-17T10:16:28Z</time>
      </trkpt>
      <trkpt lat="45.77364" lon="5.87469">
        <ele>725.9326171875</ele>
        <time>2012-03-17T10:16:31Z</time>
      </trkpt>
      <trkpt lat="45.77362" lon="5.87463">
        <ele>726.89404296875</ele>
        <time>2012-03-17T10:16:35Z</time>
      </trkpt>
      <trkpt lat="45.77362" lon="5.87461">
        <ele>726.89404296875</ele>
        <time>2012-03-17T10:16:37Z</time>
      </trkpt>
      <trkpt lat="45.77362" lon="5.87454">
        <ele>727.37475585938</ele>
        <time>2012-03-17T10:16:45Z</time>
      </trkpt>
      <trkpt lat="45.77359" lon="5.87454">
        <ele>724.97143554688</ele>
        <time>2012-03-17T10:16:55Z</time>
      </trkpt>
      <trkpt lat="45.77357" lon="5.87448">
        <ele>722.56811523438</ele>
        <time>2012-03-17T10:17:01Z</time>
      </trkpt>
      <trkpt lat="45.77354" lon="5.87439">
        <ele>720.6455078125</ele>
        <time>2012-03-17T10:17:08Z</time>
      </trkpt>
      <trkpt lat="45.77354" lon="5.87435">
        <ele>720.16479492188</ele>
        <time>2012-03-17T10:17:11Z</time>
      </trkpt>
      <trkpt lat="45.77354" lon="5.8743">
        <ele>722.08740234375</ele>
        <time>2012-03-17T10:17:19Z</time>
      </trkpt>
      <trkpt lat="45.77354" lon="5.87428">
        <ele>722.08740234375</ele>
        <time>2012-03-17T10:17:30Z</time>
      </trkpt>
      <trkpt lat="45.77355" lon="5.87429">
        <ele>722.56811523438</ele>
        <time>2012-03-17T10:17:41Z</time>
      </trkpt>
      <trkpt lat="45.77356" lon="5.87429">
        <ele>725.45190429688</ele>
        <time>2012-03-17T10:17:53Z</time>
      </trkpt>
      <trkpt lat="45.77356" lon="5.8743">
        <ele>725.45190429688</ele>
        <time>2012-03-17T10:17:56Z</time>
      </trkpt>
      <trkpt lat="45.77356" lon="5.8743">
        <ele>725.9326171875</ele>
        <time>2012-03-17T10:17:57Z</time>
      </trkpt>
      <trkpt lat="45.77353" lon="5.87433">
        <ele>726.89404296875</ele>
        <time>2012-03-17T10:18:08Z</time>
      </trkpt>
      <trkpt lat="45.77353" lon="5.87434">
        <ele>724.97143554688</ele>
        <time>2012-03-17T10:18:13Z</time>
      </trkpt>
      <trkpt lat="45.77352" lon="5.87434">
        <ele>723.048828125</ele>
        <time>2012-03-17T10:18:20Z</time>
      </trkpt>
      <trkpt lat="45.77352" lon="5.87436">
        <ele>720.6455078125</ele>
        <time>2012-03-17T10:18:38Z</time>
      </trkpt>
      <trkpt lat="45.77353" lon="5.87434">
        <ele>720.16479492188</ele>
        <time>2012-03-17T10:18:51Z</time>
      </trkpt>
      <trkpt lat="45.77353" lon="5.87433">
        <ele>719.68432617188</ele>
        <time>2012-03-17T10:18:56Z</time>
      </trkpt>
      <trkpt lat="45.77352" lon="5.8743">
        <ele>720.6455078125</ele>
        <time>2012-03-17T10:19:08Z</time>
      </trkpt>
      <trkpt lat="45.77351" lon="5.87428">
        <ele>723.52954101562</ele>
        <time>2012-03-17T10:19:20Z</time>
      </trkpt>
      <trkpt lat="45.77351" lon="5.87434">
        <ele>724.97143554688</ele>
        <time>2012-03-17T10:19:26Z</time>
      </trkpt>
      <trkpt lat="45.77353" lon="5.8744">
        <ele>726.41333007812</ele>
        <time>2012-03-17T10:19:33Z</time>
      </trkpt>
      <trkpt lat="45.77354" lon="5.87444">
        <ele>726.41333007812</ele>
        <time>2012-03-17T10:19:40Z</time>
      </trkpt>
      <trkpt lat="45.77356" lon="5.87451">
        <ele>724.49072265625</ele>
        <time>2012-03-17T10:19:47Z</time>
      </trkpt>
      <trkpt lat="45.77358" lon="5.87453">
        <ele>725.45190429688</ele>
        <time>2012-03-17T10:19:56Z</time>
      </trkpt>
      <trkpt lat="45.77359" lon="5.87461">
        <ele>724.49072265625</ele>
        <time>2012-03-17T10:20:02Z</time>
      </trkpt>
      <trkpt lat="45.7736" lon="5.87469">
        <ele>723.048828125</ele>
        <time>2012-03-17T10:20:07Z</time>
      </trkpt>
      <trkpt lat="45.77361" lon="5.87472">
        <ele>721.60668945312</ele>
        <time>2012-03-17T10:20:09Z</time>
      </trkpt>
      <trkpt lat="45.77365" lon="5.87476">
        <ele>719.68432617188</ele>
        <time>2012-03-17T10:20:13Z</time>
      </trkpt>
      <trkpt lat="45.77367" lon="5.87476">
        <ele>718.72290039062</ele>
        <time>2012-03-17T10:20:15Z</time>
      </trkpt>
      <trkpt lat="45.77367" lon="5.87471">
        <ele>718.72290039062</ele>
        <time>2012-03-17T10:20:19Z</time>
      </trkpt>
      <trkpt lat="45.77366" lon="5.8747">
        <ele>722.08740234375</ele>
        <time>2012-03-17T10:20:26Z</time>
      </trkpt>
      <trkpt lat="45.77364" lon="5.87473">
        <ele>726.89404296875</ele>
        <time>2012-03-17T10:20:38Z</time>
      </trkpt>
      <trkpt lat="45.77365" lon="5.87471">
        <ele>730.25854492188</ele>
        <time>2012-03-17T10:20:49Z</time>
      </trkpt>
      <trkpt lat="45.77368" lon="5.87476">
        <ele>735.0654296875</ele>
        <time>2012-03-17T10:20:58Z</time>
      </trkpt>
      <trkpt lat="45.77369" lon="5.87476">
        <ele>735.0654296875</ele>
        <time>2012-03-17T10:21:09Z</time>
      </trkpt>
      <trkpt lat="45.77365" lon="5.87475">
        <ele>734.10400390625</ele>
        <time>2012-03-17T10:21:27Z</time>
      </trkpt>
      <trkpt lat="45.77366" lon="5.8748">
        <ele>736.02661132812</ele>
        <time>2012-03-17T10:21:38Z</time>
      </trkpt>
      <trkpt lat="45.77368" lon="5.87478">
        <ele>737.94921875</ele>
        <time>2012-03-17T10:21:46Z</time>
      </trkpt>
      <trkpt lat="45.77373" lon="5.87481">
        <ele>738.91064453125</ele>
        <time>2012-03-17T10:22:04Z</time>
      </trkpt>
      <trkpt lat="45.77372" lon="5.87485">
        <ele>741.31372070312</ele>
        <time>2012-03-17T10:22:18Z</time>
      </trkpt>
      <trkpt lat="45.7737" lon="5.87488">
        <ele>742.27514648438</ele>
        <time>2012-03-17T10:22:27Z</time>
      </trkpt>
      <trkpt lat="45.77368" lon="5.87486">
        <ele>740.8330078125</ele>
        <time>2012-03-17T10:22:36Z</time>
      </trkpt>
      <trkpt lat="45.77367" lon="5.87485">
        <ele>740.3525390625</ele>
        <time>2012-03-17T10:22:42Z</time>
      </trkpt>
      <trkpt lat="45.77366" lon="5.87484">
        <ele>738.91064453125</ele>
        <time>2012-03-17T10:22:51Z</time>
      </trkpt>
      <trkpt lat="45.77366" lon="5.87484">
        <ele>736.98779296875</ele>
        <time>2012-03-17T10:23:04Z</time>
      </trkpt>
      <trkpt lat="45.77369" lon="5.87485">
        <ele>733.142578125</ele>
        <time>2012-03-17T10:23:09Z</time>
      </trkpt>
      <trkpt lat="45.77374" lon="5.87485">
        <ele>728.3359375</ele>
        <time>2012-03-17T10:23:14Z</time>
      </trkpt>
      <trkpt lat="45.77375" lon="5.87482">
        <ele>726.41333007812</ele>
        <time>2012-03-17T10:23:19Z</time>
      </trkpt>
      <trkpt lat="45.77376" lon="5.87481">
        <ele>724.97143554688</ele>
        <time>2012-03-17T10:23:25Z</time>
      </trkpt>
      <trkpt lat="45.77377" lon="5.87479">
        <ele>725.45190429688</ele>
        <time>2012-03-17T10:23:35Z</time>
      </trkpt>
      <trkpt lat="45.77377" lon="5.87477">
        <ele>730.7392578125</ele>
        <time>2012-03-17T10:23:52Z</time>
      </trkpt>
      <trkpt lat="45.77377" lon="5.87478">
        <ele>731.21997070312</ele>
        <time>2012-03-17T10:23:59Z</time>
      </trkpt>
      <trkpt lat="45.77377" lon="5.87478">
        <ele>730.7392578125</ele>
        <time>2012-03-17T10:24:06Z</time>
      </trkpt>
      <trkpt lat="45.77377" lon="5.87479">
        <ele>730.7392578125</ele>
        <time>2012-03-17T10:24:08Z</time>
      </trkpt>
      <trkpt lat="45.77378" lon="5.87478">
        <ele>728.81665039062</ele>
        <time>2012-03-17T10:24:18Z</time>
      </trkpt>
      <trkpt lat="45.77376" lon="5.87476">
        <ele>728.81665039062</ele>
        <time>2012-03-17T10:24:21Z</time>
      </trkpt>
      <trkpt lat="45.7737" lon="5.8747">
        <ele>730.25854492188</ele>
        <time>2012-03-17T10:24:29Z</time>
      </trkpt>
      <trkpt lat="45.77368" lon="5.87472">
        <ele>736.98779296875</ele>
        <time>2012-03-17T10:24:40Z</time>
      </trkpt>
      <trkpt lat="45.77367" lon="5.87475">
        <ele>737.94921875</ele>
        <time>2012-03-17T10:24:59Z</time>
      </trkpt>
      <trkpt lat="45.77365" lon="5.87477">
        <ele>737.94921875</ele>
        <time>2012-03-17T10:25:07Z</time>
      </trkpt>
      <trkpt lat="45.77365" lon="5.87476">
        <ele>736.98779296875</ele>
        <time>2012-03-17T10:25:16Z</time>
      </trkpt>
      <trkpt lat="45.77368" lon="5.87478">
        <ele>736.98779296875</ele>
        <time>2012-03-17T10:25:23Z</time>
      </trkpt>
      <trkpt lat="45.77373" lon="5.87482">
        <ele>734.58471679688</ele>
        <time>2012-03-17T10:25:27Z</time>
      </trkpt>
      <trkpt lat="45.77375" lon="5.87481">
        <ele>732.18139648438</ele>
        <time>2012-03-17T10:25:33Z</time>
      </trkpt>
      <trkpt lat="45.77377" lon="5.87478">
        <ele>727.85522460938</ele>
        <time>2012-03-17T10:25:42Z</time>
      </trkpt>
      <trkpt lat="45.77378" lon="5.87477">
        <ele>726.89404296875</ele>
        <time>2012-03-17T10:25:54Z</time>
      </trkpt>
      <trkpt lat="45.77381" lon="5.87477">
        <ele>727.85522460938</ele>
        <time>2012-03-17T10:26:06Z</time>
      </trkpt>
      <trkpt lat="45.77382" lon="5.87476">
        <ele>727.85522460938</ele>
        <time>2012-03-17T10:26:18Z</time>
      </trkpt>
      <trkpt lat="45.77381" lon="5.87475">
        <ele>726.89404296875</ele>
        <time>2012-03-17T10:26:29Z</time>
      </trkpt>
      <trkpt lat="45.7738" lon="5.87475">
        <ele>725.9326171875</ele>
        <time>2012-03-17T10:26:38Z</time>
      </trkpt>
      <trkpt lat="45.7738" lon="5.87475">
        <ele>725.9326171875</ele>
        <time>2012-03-17T10:26:48Z</time>
      </trkpt>
      <trkpt lat="45.77379" lon="5.87475">
        <ele>721.60668945312</ele>
        <time>2012-03-17T10:27:06Z</time>
      </trkpt>
      <trkpt lat="45.77378" lon="5.87475">
        <ele>722.08740234375</ele>
        <time>2012-03-17T10:27:13Z</time>
      </trkpt>
      <trkpt lat="45.77376" lon="5.87475">
        <ele>721.60668945312</ele>
        <time>2012-03-17T10:27:16Z</time>
      </trkpt>
      <trkpt lat="45.77373" lon="5.87473">
        <ele>724.01000976562</ele>
        <time>2012-03-17T10:27:21Z</time>
      </trkpt>
      <trkpt lat="45.7737" lon="5.87472">
        <ele>724.49072265625</ele>
        <time>2012-03-17T10:27:26Z</time>
      </trkpt>
      <trkpt lat="45.77369" lon="5.8747">
        <ele>724.97143554688</ele>
        <time>2012-03-17T10:27:31Z</time>
      </trkpt>
      <trkpt lat="45.77367" lon="5.87469">
        <ele>726.41333007812</ele>
        <time>2012-03-17T10:27:39Z</time>
      </trkpt>
      <trkpt lat="45.77367" lon="5.87471">
        <ele>726.89404296875</ele>
        <time>2012-03-17T10:27:47Z</time>
      </trkpt>
      <trkpt lat="45.77367" lon="5.8747">
        <ele>726.89404296875</ele>
        <time>2012-03-17T10:27:53Z</time>
      </trkpt>
      <trkpt lat="45.77368" lon="5.87476">
        <ele>726.89404296875</ele>
        <time>2012-03-17T10:27:59Z</time>
      </trkpt>
      <trkpt lat="45.77367" lon="5.87479">
        <ele>727.85522460938</ele>
        <time>2012-03-17T10:28:06Z</time>
      </trkpt>
      <trkpt lat="45.77366" lon="5.8748">
        <ele>727.37475585938</ele>
        <time>2012-03-17T10:28:10Z</time>
      </trkpt>
      <trkpt lat="45.77365" lon="5.87479">
        <ele>729.29711914062</ele>
        <time>2012-03-17T10:28:15Z</time>
      </trkpt>
      <trkpt lat="45.77364" lon="5.87484">
        <ele>728.81665039062</ele>
        <time>2012-03-17T10:28:22Z</time>
      </trkpt>
      <trkpt lat="45.77362" lon="5.87487">
        <ele>728.3359375</ele>
        <time>2012-03-17T10:28:24Z</time>
      </trkpt>
      <trkpt lat="45.77358" lon="5.87493">
        <ele>727.37475585938</ele>
        <time>2012-03-17T10:28:29Z</time>
      </trkpt>
      <trkpt lat="45.77347" lon="5.87508">
        <ele>724.49072265625</ele>
        <time>2012-03-17T10:28:37Z</time>
      </trkpt>
      <trkpt lat="45.77342" lon="5.87523">
        <ele>722.56811523438</ele>
        <time>2012-03-17T10:28:42Z</time>
      </trkpt>
      <trkpt lat="45.77338" lon="5.87535">
        <ele>721.12622070312</ele>
        <time>2012-03-17T10:28:47Z</time>
      </trkpt>
      <trkpt lat="45.77332" lon="5.87551">
        <ele>719.68432617188</ele>
        <time>2012-03-17T10:28:51Z</time>
      </trkpt>
      <trkpt lat="45.77324" lon="5.87583">
        <ele>716.80029296875</ele>
        <time>2012-03-17T10:28:54Z</time>
      </trkpt>
      <trkpt lat="45.77316" lon="5.87603">
        <ele>715.8388671875</ele>
        <time>2012-03-17T10:28:56Z</time>
      </trkpt>
      <trkpt lat="45.773" lon="5.87621">
        <ele>712.47412109375</ele>
        <time>2012-03-17T10:29:00Z</time>
      </trkpt>
      <trkpt lat="45.77287" lon="5.87638">
        <ele>712.47412109375</ele>
        <time>2012-03-17T10:29:07Z</time>
      </trkpt>
      <trkpt lat="45.77278" lon="5.8765">
        <ele>712.95483398438</ele>
        <time>2012-03-17T10:29:12Z</time>
      </trkpt>
      <trkpt lat="45.77274" lon="5.87656">
        <ele>713.435546875</ele>
        <time>2012-03-17T10:29:14Z</time>
      </trkpt>
      <trkpt lat="45.77266" lon="5.87667">
        <ele>715.8388671875</ele>
        <time>2012-03-17T10:29:17Z</time>
      </trkpt>
      <trkpt lat="45.77264" lon="5.87671">
        <ele>715.8388671875</ele>
        <time>2012-03-17T10:29:19Z</time>
      </trkpt>
      <trkpt lat="45.77263" lon="5.87674">
        <ele>715.8388671875</ele>
        <time>2012-03-17T10:29:20Z</time>
      </trkpt>
      <trkpt lat="45.77259" lon="5.87683">
        <ele>716.31958007812</ele>
        <time>2012-03-17T10:29:24Z</time>
      </trkpt>
      <trkpt lat="45.77258" lon="5.87686">
        <ele>716.31958007812</ele>
        <time>2012-03-17T10:29:25Z</time>
      </trkpt>
      <trkpt lat="45.7725" lon="5.87702">
        <ele>716.31958007812</ele>
        <time>2012-03-17T10:29:32Z</time>
      </trkpt>
      <trkpt lat="45.77242" lon="5.87718">
        <ele>715.8388671875</ele>
        <time>2012-03-17T10:29:38Z</time>
      </trkpt>
      <trkpt lat="45.77228" lon="5.87739">
        <ele>717.28100585938</ele>
        <time>2012-03-17T10:29:46Z</time>
      </trkpt>
      <trkpt lat="45.77216" lon="5.87757">
        <ele>714.87744140625</ele>
        <time>2012-03-17T10:29:52Z</time>
      </trkpt>
      <trkpt lat="45.77208" lon="5.87767">
        <ele>712.95483398438</ele>
        <time>2012-03-17T10:29:56Z</time>
      </trkpt>
      <trkpt lat="45.77209" lon="5.87774">
        <ele>712.47412109375</ele>
        <time>2012-03-17T10:30:00Z</time>
      </trkpt>
      <trkpt lat="45.77214" lon="5.8779">
        <ele>713.916015625</ele>
        <time>2012-03-17T10:30:06Z</time>
      </trkpt>
      <trkpt lat="45.77221" lon="5.87802">
        <ele>715.35815429688</ele>
        <time>2012-03-17T10:30:11Z</time>
      </trkpt>
      <trkpt lat="45.77224" lon="5.87806">
        <ele>715.35815429688</ele>
        <time>2012-03-17T10:30:13Z</time>
      </trkpt>
      <trkpt lat="45.77229" lon="5.87812">
        <ele>715.35815429688</ele>
        <time>2012-03-17T10:30:17Z</time>
      </trkpt>
      <trkpt lat="45.77231" lon="5.87814">
        <ele>715.35815429688</ele>
        <time>2012-03-17T10:30:20Z</time>
      </trkpt>
      <trkpt lat="45.77232" lon="5.87816">
        <ele>715.8388671875</ele>
        <time>2012-03-17T10:30:26Z</time>
      </trkpt>
      <trkpt lat="45.77236" lon="5.87818">
        <ele>715.35815429688</ele>
        <time>2012-03-17T10:30:37Z</time>
      </trkpt>
      <trkpt lat="45.7724" lon="5.87819">
        <ele>713.916015625</ele>
        <time>2012-03-17T10:30:40Z</time>
      </trkpt>
      <trkpt lat="45.77244" lon="5.87819">
        <ele>712.95483398438</ele>
        <time>2012-03-17T10:30:44Z</time>
      </trkpt>
      <trkpt lat="45.7725" lon="5.87819">
        <ele>710.07080078125</ele>
        <time>2012-03-17T10:30:50Z</time>
      </trkpt>
      <trkpt lat="45.77256" lon="5.87817">
        <ele>706.70629882812</ele>
        <time>2012-03-17T10:30:54Z</time>
      </trkpt>
      <trkpt lat="45.77266" lon="5.87804">
        <ele>703.341796875</ele>
        <time>2012-03-17T10:30:59Z</time>
      </trkpt>
      <trkpt lat="45.77269" lon="5.87799">
        <ele>702.38037109375</ele>
        <time>2012-03-17T10:31:01Z</time>
      </trkpt>
      <trkpt lat="45.77277" lon="5.8779">
        <ele>699.49633789062</ele>
        <time>2012-03-17T10:31:07Z</time>
      </trkpt>
      <trkpt lat="45.77283" lon="5.87779">
        <ele>698.53491210938</ele>
        <time>2012-03-17T10:31:12Z</time>
      </trkpt>
      <trkpt lat="45.77287" lon="5.87776">
        <ele>704.30322265625</ele>
        <time>2012-03-17T10:31:23Z</time>
      </trkpt>
      <trkpt lat="45.77288" lon="5.87777">
        <ele>705.26440429688</ele>
        <time>2012-03-17T10:31:28Z</time>
      </trkpt>
      <trkpt lat="45.77287" lon="5.87782">
        <ele>709.59033203125</ele>
        <time>2012-03-17T10:31:33Z</time>
      </trkpt>
      <trkpt lat="45.77285" lon="5.87785">
        <ele>711.51293945312</ele>
        <time>2012-03-17T10:31:37Z</time>
      </trkpt>
      <trkpt lat="45.7728" lon="5.87795">
        <ele>712.95483398438</ele>
        <time>2012-03-17T10:31:43Z</time>
      </trkpt>
      <trkpt lat="45.77275" lon="5.87806">
        <ele>715.35815429688</ele>
        <time>2012-03-17T10:31:48Z</time>
      </trkpt>
      <trkpt lat="45.77271" lon="5.87813">
        <ele>716.80029296875</ele>
        <time>2012-03-17T10:31:52Z</time>
      </trkpt>
      <trkpt lat="45.77267" lon="5.87815">
        <ele>717.76147460938</ele>
        <time>2012-03-17T10:31:56Z</time>
      </trkpt>
      <trkpt lat="45.77262" lon="5.87817">
        <ele>721.12622070312</ele>
        <time>2012-03-17T10:32:05Z</time>
      </trkpt>
      <trkpt lat="45.77256" lon="5.87817">
        <ele>725.9326171875</ele>
        <time>2012-03-17T10:32:14Z</time>
      </trkpt>
      <trkpt lat="45.7725" lon="5.87818">
        <ele>728.81665039062</ele>
        <time>2012-03-17T10:32:21Z</time>
      </trkpt>
      <trkpt lat="45.77244" lon="5.87816">
        <ele>730.7392578125</ele>
        <time>2012-03-17T10:32:28Z</time>
      </trkpt>
      <trkpt lat="45.77236" lon="5.87812">
        <ele>727.37475585938</ele>
        <time>2012-03-17T10:32:33Z</time>
      </trkpt>
      <trkpt lat="45.77227" lon="5.87801">
        <ele>724.97143554688</ele>
        <time>2012-03-17T10:32:38Z</time>
      </trkpt>
      <trkpt lat="45.77216" lon="5.87783">
        <ele>722.08740234375</ele>
        <time>2012-03-17T10:32:43Z</time>
      </trkpt>
      <trkpt lat="45.77212" lon="5.87773">
        <ele>721.12622070312</ele>
        <time>2012-03-17T10:32:45Z</time>
      </trkpt>
      <trkpt lat="45.77201" lon="5.87769">
        <ele>721.12622070312</ele>
        <time>2012-03-17T10:32:50Z</time>
      </trkpt>
      <trkpt lat="45.772" lon="5.8777">
        <ele>721.12622070312</ele>
        <time>2012-03-17T10:32:53Z</time>
      </trkpt>
      <trkpt lat="45.77195" lon="5.87775">
        <ele>719.20361328125</ele>
        <time>2012-03-17T10:33:01Z</time>
      </trkpt>
      <trkpt lat="45.7719" lon="5.87778">
        <ele>719.20361328125</ele>
        <time>2012-03-17T10:33:08Z</time>
      </trkpt>
      <trkpt lat="45.77187" lon="5.87784">
        <ele>721.12622070312</ele>
        <time>2012-03-17T10:33:13Z</time>
      </trkpt>
      <trkpt lat="45.77182" lon="5.87792">
        <ele>721.12622070312</ele>
        <time>2012-03-17T10:33:20Z</time>
      </trkpt>
      <trkpt lat="45.7718" lon="5.87795">
        <ele>721.12622070312</ele>
        <time>2012-03-17T10:33:22Z</time>
      </trkpt>
      <trkpt lat="45.77177" lon="5.87798">
        <ele>719.20361328125</ele>
        <time>2012-03-17T10:33:30Z</time>
      </trkpt>
      <trkpt lat="45.77175" lon="5.87803">
        <ele>716.31958007812</ele>
        <time>2012-03-17T10:33:39Z</time>
      </trkpt>
      <trkpt lat="45.77169" lon="5.8781">
        <ele>717.28100585938</ele>
        <time>2012-03-17T10:33:46Z</time>
      </trkpt>
      <trkpt lat="45.77166" lon="5.87813">
        <ele>717.76147460938</ele>
        <time>2012-03-17T10:33:49Z</time>
      </trkpt>
      <trkpt lat="45.77165" lon="5.87816">
        <ele>719.20361328125</ele>
        <time>2012-03-17T10:33:52Z</time>
      </trkpt>
      <trkpt lat="45.77164" lon="5.87823">
        <ele>720.16479492188</ele>
        <time>2012-03-17T10:33:59Z</time>
      </trkpt>
      <trkpt lat="45.77162" lon="5.87827">
        <ele>721.60668945312</ele>
        <time>2012-03-17T10:34:06Z</time>
      </trkpt>
      <trkpt lat="45.7716" lon="5.87831">
        <ele>722.08740234375</ele>
        <time>2012-03-17T10:34:12Z</time>
      </trkpt>
      <trkpt lat="45.77155" lon="5.87832">
        <ele>722.56811523438</ele>
        <time>2012-03-17T10:34:18Z</time>
      </trkpt>
      <trkpt lat="45.77152" lon="5.87837">
        <ele>723.048828125</ele>
        <time>2012-03-17T10:34:23Z</time>
      </trkpt>
      <trkpt lat="45.77147" lon="5.87842">
        <ele>724.01000976562</ele>
        <time>2012-03-17T10:34:29Z</time>
      </trkpt>
      <trkpt lat="45.77144" lon="5.87849">
        <ele>724.49072265625</ele>
        <time>2012-03-17T10:34:36Z</time>
      </trkpt>
      <trkpt lat="45.77139" lon="5.87852">
        <ele>725.9326171875</ele>
        <time>2012-03-17T10:34:42Z</time>
      </trkpt>
      <trkpt lat="45.77136" lon="5.87859">
        <ele>728.3359375</ele>
        <time>2012-03-17T10:34:50Z</time>
      </trkpt>
      <trkpt lat="45.77135" lon="5.87863">
        <ele>728.81665039062</ele>
        <time>2012-03-17T10:34:55Z</time>
      </trkpt>
      <trkpt lat="45.77132" lon="5.8787">
        <ele>729.29711914062</ele>
        <time>2012-03-17T10:35:02Z</time>
      </trkpt>
      <trkpt lat="45.77133" lon="5.87882">
        <ele>727.37475585938</ele>
        <time>2012-03-17T10:35:10Z</time>
      </trkpt>
      <trkpt lat="45.77132" lon="5.87892">
        <ele>727.85522460938</ele>
        <time>2012-03-17T10:35:17Z</time>
      </trkpt>
      <trkpt lat="45.77132" lon="5.87893">
        <ele>727.37475585938</ele>
        <time>2012-03-17T10:35:18Z</time>
      </trkpt>
      <trkpt lat="45.77125" lon="5.87898">
        <ele>728.81665039062</ele>
        <time>2012-03-17T10:35:25Z</time>
      </trkpt>
      <trkpt lat="45.77124" lon="5.87903">
        <ele>725.9326171875</ele>
        <time>2012-03-17T10:35:32Z</time>
      </trkpt>
      <trkpt lat="45.77121" lon="5.87906">
        <ele>724.01000976562</ele>
        <time>2012-03-17T10:35:37Z</time>
      </trkpt>
      <trkpt lat="45.7712" lon="5.87913">
        <ele>722.08740234375</ele>
        <time>2012-03-17T10:35:42Z</time>
      </trkpt>
      <trkpt lat="45.77118" lon="5.87941">
        <ele>719.68432617188</ele>
        <time>2012-03-17T10:35:49Z</time>
      </trkpt>
      <trkpt lat="45.77113" lon="5.87958">
        <ele>719.68432617188</ele>
        <time>2012-03-17T10:35:56Z</time>
      </trkpt>
      <trkpt lat="45.77112" lon="5.87961">
        <ele>720.16479492188</ele>
        <time>2012-03-17T10:35:57Z</time>
      </trkpt>
      <trkpt lat="45.77108" lon="5.87976">
        <ele>722.08740234375</ele>
        <time>2012-03-17T10:36:04Z</time>
      </trkpt>
      <trkpt lat="45.77104" lon="5.87983">
        <ele>722.56811523438</ele>
        <time>2012-03-17T10:36:08Z</time>
      </trkpt>
      <trkpt lat="45.77095" lon="5.87999">
        <ele>723.048828125</ele>
        <time>2012-03-17T10:36:16Z</time>
      </trkpt>
      <trkpt lat="45.77094" lon="5.88002">
        <ele>723.048828125</ele>
        <time>2012-03-17T10:36:18Z</time>
      </trkpt>
      <trkpt lat="45.77092" lon="5.88014">
        <ele>722.08740234375</ele>
        <time>2012-03-17T10:36:25Z</time>
      </trkpt>
      <trkpt lat="45.7709" lon="5.88017">
        <ele>722.08740234375</ele>
        <time>2012-03-17T10:36:27Z</time>
      </trkpt>
      <trkpt lat="45.77083" lon="5.88029">
        <ele>724.01000976562</ele>
        <time>2012-03-17T10:36:35Z</time>
      </trkpt>
      <trkpt lat="45.77077" lon="5.88037">
        <ele>724.97143554688</ele>
        <time>2012-03-17T10:36:41Z</time>
      </trkpt>
      <trkpt lat="45.77071" lon="5.88042">
        <ele>726.41333007812</ele>
        <time>2012-03-17T10:36:47Z</time>
      </trkpt>
      <trkpt lat="45.77065" lon="5.88047">
        <ele>727.37475585938</ele>
        <time>2012-03-17T10:36:52Z</time>
      </trkpt>
      <trkpt lat="45.7706" lon="5.88051">
        <ele>728.81665039062</ele>
        <time>2012-03-17T10:36:58Z</time>
      </trkpt>
      <trkpt lat="45.7706" lon="5.88051">
        <ele>728.81665039062</ele>
        <time>2012-03-17T10:36:59Z</time>
      </trkpt>
      <trkpt lat="45.77055" lon="5.8806">
        <ele>728.3359375</ele>
        <time>2012-03-17T10:37:06Z</time>
      </trkpt>
      <trkpt lat="45.77046" lon="5.88067">
        <ele>727.37475585938</ele>
        <time>2012-03-17T10:37:14Z</time>
      </trkpt>
      <trkpt lat="45.77036" lon="5.88066">
        <ele>727.85522460938</ele>
        <time>2012-03-17T10:37:21Z</time>
      </trkpt>
      <trkpt lat="45.77031" lon="5.88064">
        <ele>727.85522460938</ele>
        <time>2012-03-17T10:37:24Z</time>
      </trkpt>
      <trkpt lat="45.77024" lon="5.88054">
        <ele>729.77783203125</ele>
        <time>2012-03-17T10:37:32Z</time>
      </trkpt>
      <trkpt lat="45.77018" lon="5.8804">
        <ele>732.662109375</ele>
        <time>2012-03-17T10:37:41Z</time>
      </trkpt>
      <trkpt lat="45.77016" lon="5.88037">
        <ele>733.142578125</ele>
        <time>2012-03-17T10:37:44Z</time>
      </trkpt>
      <trkpt lat="45.77011" lon="5.88031">
        <ele>732.18139648438</ele>
        <time>2012-03-17T10:37:49Z</time>
      </trkpt>
      <trkpt lat="45.77009" lon="5.88026">
        <ele>733.142578125</ele>
        <time>2012-03-17T10:37:53Z</time>
      </trkpt>
      <trkpt lat="45.77002" lon="5.88017">
        <ele>735.5458984375</ele>
        <time>2012-03-17T10:38:02Z</time>
      </trkpt>
      <trkpt lat="45.76996" lon="5.88005">
        <ele>737.94921875</ele>
        <time>2012-03-17T10:38:11Z</time>
      </trkpt>
      <trkpt lat="45.76989" lon="5.87994">
        <ele>739.87182617188</ele>
        <time>2012-03-17T10:38:19Z</time>
      </trkpt>
      <trkpt lat="45.76983" lon="5.87985">
        <ele>740.8330078125</ele>
        <time>2012-03-17T10:38:26Z</time>
      </trkpt>
      <trkpt lat="45.76975" lon="5.87979">
        <ele>742.27514648438</ele>
        <time>2012-03-17T10:38:31Z</time>
      </trkpt>
      <trkpt lat="45.76969" lon="5.87978">
        <ele>744.67822265625</ele>
        <time>2012-03-17T10:38:36Z</time>
      </trkpt>
      <trkpt lat="45.76968" lon="5.87977">
        <ele>745.15893554688</ele>
        <time>2012-03-17T10:38:37Z</time>
      </trkpt>
      <trkpt lat="45.76957" lon="5.87977">
        <ele>745.6396484375</ele>
        <time>2012-03-17T10:38:44Z</time>
      </trkpt>
      <trkpt lat="45.76948" lon="5.87976">
        <ele>747.08154296875</ele>
        <time>2012-03-17T10:38:50Z</time>
      </trkpt>
      <trkpt lat="45.76934" lon="5.87982">
        <ele>746.12036132812</ele>
        <time>2012-03-17T10:38:58Z</time>
      </trkpt>
      <trkpt lat="45.76922" lon="5.8799">
        <ele>744.19775390625</ele>
        <time>2012-03-17T10:39:05Z</time>
      </trkpt>
      <trkpt lat="45.76916" lon="5.87994">
        <ele>744.19775390625</ele>
        <time>2012-03-17T10:39:09Z</time>
      </trkpt>
      <trkpt lat="45.76907" lon="5.88002">
        <ele>744.67822265625</ele>
        <time>2012-03-17T10:39:16Z</time>
      </trkpt>
      <trkpt lat="45.76902" lon="5.88008">
        <ele>746.12036132812</ele>
        <time>2012-03-17T10:39:21Z</time>
      </trkpt>
      <trkpt lat="45.76895" lon="5.88012">
        <ele>748.04321289062</ele>
        <time>2012-03-17T10:39:25Z</time>
      </trkpt>
      <trkpt lat="45.76886" lon="5.88019">
        <ele>750.44653320312</ele>
        <time>2012-03-17T10:39:32Z</time>
      </trkpt>
      <trkpt lat="45.76877" lon="5.88026">
        <ele>751.40771484375</ele>
        <time>2012-03-17T10:39:40Z</time>
      </trkpt>
      <trkpt lat="45.76876" lon="5.88027">
        <ele>751.40771484375</ele>
        <time>2012-03-17T10:39:41Z</time>
      </trkpt>
      <trkpt lat="45.76869" lon="5.88031">
        <ele>753.81103515625</ele>
        <time>2012-03-17T10:39:46Z</time>
      </trkpt>
      <trkpt lat="45.76864" lon="5.88036">
        <ele>757.65625</ele>
        <time>2012-03-17T10:39:51Z</time>
      </trkpt>
      <trkpt lat="45.7686" lon="5.88047">
        <ele>756.21411132812</ele>
        <time>2012-03-17T10:39:57Z</time>
      </trkpt>
      <trkpt lat="45.76855" lon="5.88054">
        <ele>757.65625</ele>
        <time>2012-03-17T10:40:02Z</time>
      </trkpt>
      <trkpt lat="45.7685" lon="5.88061">
        <ele>759.57885742188</ele>
        <time>2012-03-17T10:40:08Z</time>
      </trkpt>
      <trkpt lat="45.76847" lon="5.88062">
        <ele>760.05932617188</ele>
        <time>2012-03-17T10:40:17Z</time>
      </trkpt>
      <trkpt lat="45.76847" lon="5.88062">
        <ele>758.61743164062</ele>
        <time>2012-03-17T10:40:22Z</time>
      </trkpt>
      <trkpt lat="45.76847" lon="5.88063">
        <ele>757.65625</ele>
        <time>2012-03-17T10:40:25Z</time>
      </trkpt>
      <trkpt lat="45.76844" lon="5.88065">
        <ele>758.13696289062</ele>
        <time>2012-03-17T10:40:31Z</time>
      </trkpt>
      <trkpt lat="45.76841" lon="5.88067">
        <ele>758.61743164062</ele>
        <time>2012-03-17T10:40:37Z</time>
      </trkpt>
      <trkpt lat="45.76838" lon="5.88069">
        <ele>761.98217773438</ele>
        <time>2012-03-17T10:40:42Z</time>
      </trkpt>
      <trkpt lat="45.76834" lon="5.88071">
        <ele>763.90454101562</ele>
        <time>2012-03-17T10:40:48Z</time>
      </trkpt>
      <trkpt lat="45.7683" lon="5.88075">
        <ele>766.30810546875</ele>
        <time>2012-03-17T10:40:54Z</time>
      </trkpt>
      <trkpt lat="45.76828" lon="5.88081">
        <ele>766.30810546875</ele>
        <time>2012-03-17T10:41:00Z</time>
      </trkpt>
      <trkpt lat="45.76826" lon="5.88084">
        <ele>765.82763671875</ele>
        <time>2012-03-17T10:41:05Z</time>
      </trkpt>
      <trkpt lat="45.76823" lon="5.88087">
        <ele>768.23071289062</ele>
        <time>2012-03-17T10:41:12Z</time>
      </trkpt>
      <trkpt lat="45.7682" lon="5.8809">
        <ele>770.63403320312</ele>
        <time>2012-03-17T10:41:21Z</time>
      </trkpt>
      <trkpt lat="45.76817" lon="5.88101">
        <ele>769.6728515625</ele>
        <time>2012-03-17T10:41:28Z</time>
      </trkpt>
      <trkpt lat="45.76815" lon="5.88116">
        <ele>770.63403320312</ele>
        <time>2012-03-17T10:41:36Z</time>
      </trkpt>
      <trkpt lat="45.76812" lon="5.88124">
        <ele>771.11474609375</ele>
        <time>2012-03-17T10:41:41Z</time>
      </trkpt>
      <trkpt lat="45.76809" lon="5.88133">
        <ele>770.63403320312</ele>
        <time>2012-03-17T10:41:45Z</time>
      </trkpt>
      <trkpt lat="45.76807" lon="5.88149">
        <ele>773.03735351562</ele>
        <time>2012-03-17T10:41:53Z</time>
      </trkpt>
      <trkpt lat="45.76803" lon="5.8816">
        <ele>774.9599609375</ele>
        <time>2012-03-17T10:42:00Z</time>
      </trkpt>
      <trkpt lat="45.76802" lon="5.88168">
        <ele>775.4404296875</ele>
        <time>2012-03-17T10:42:04Z</time>
      </trkpt>
      <trkpt lat="45.76802" lon="5.88181">
        <ele>774.9599609375</ele>
        <time>2012-03-17T10:42:12Z</time>
      </trkpt>
      <trkpt lat="45.76802" lon="5.88183">
        <ele>774.9599609375</ele>
        <time>2012-03-17T10:42:13Z</time>
      </trkpt>
      <trkpt lat="45.76799" lon="5.88197">
        <ele>775.92114257812</ele>
        <time>2012-03-17T10:42:21Z</time>
      </trkpt>
      <trkpt lat="45.76794" lon="5.8821">
        <ele>779.28564453125</ele>
        <time>2012-03-17T10:42:28Z</time>
      </trkpt>
      <trkpt lat="45.76793" lon="5.88222">
        <ele>779.76635742188</ele>
        <time>2012-03-17T10:42:34Z</time>
      </trkpt>
      <trkpt lat="45.76791" lon="5.88237">
        <ele>779.76635742188</ele>
        <time>2012-03-17T10:42:41Z</time>
      </trkpt>
      <trkpt lat="45.76792" lon="5.88248">
        <ele>778.32446289062</ele>
        <time>2012-03-17T10:42:46Z</time>
      </trkpt>
      <trkpt lat="45.76787" lon="5.88259">
        <ele>780.24731445312</ele>
        <time>2012-03-17T10:42:52Z</time>
      </trkpt>
      <trkpt lat="45.76786" lon="5.88268">
        <ele>780.24731445312</ele>
        <time>2012-03-17T10:42:56Z</time>
      </trkpt>
      <trkpt lat="45.76783" lon="5.88282">
        <ele>779.28564453125</ele>
        <time>2012-03-17T10:43:03Z</time>
      </trkpt>
      <trkpt lat="45.76782" lon="5.88297">
        <ele>780.24731445312</ele>
        <time>2012-03-17T10:43:10Z</time>
      </trkpt>
      <trkpt lat="45.76779" lon="5.88308">
        <ele>779.76635742188</ele>
        <time>2012-03-17T10:43:15Z</time>
      </trkpt>
      <trkpt lat="45.76777" lon="5.88317">
        <ele>780.72802734375</ele>
        <time>2012-03-17T10:43:20Z</time>
      </trkpt>
      <trkpt lat="45.76776" lon="5.88321">
        <ele>781.68920898438</ele>
        <time>2012-03-17T10:43:22Z</time>
      </trkpt>
      <trkpt lat="45.76775" lon="5.88324">
        <ele>780.24731445312</ele>
        <time>2012-03-17T10:43:24Z</time>
      </trkpt>
      <trkpt lat="45.76772" lon="5.88335">
        <ele>779.76635742188</ele>
        <time>2012-03-17T10:43:30Z</time>
      </trkpt>
      <trkpt lat="45.76764" lon="5.88349">
        <ele>777.36328125</ele>
        <time>2012-03-17T10:43:37Z</time>
      </trkpt>
      <trkpt lat="45.76761" lon="5.88355">
        <ele>779.28564453125</ele>
        <time>2012-03-17T10:43:41Z</time>
      </trkpt>
      <trkpt lat="45.76757" lon="5.8836">
        <ele>785.05395507812</ele>
        <time>2012-03-17T10:43:46Z</time>
      </trkpt>
      <trkpt lat="45.76754" lon="5.88373">
        <ele>785.53442382812</ele>
        <time>2012-03-17T10:43:53Z</time>
      </trkpt>
      <trkpt lat="45.76748" lon="5.88382">
        <ele>787.45703125</ele>
        <time>2012-03-17T10:44:00Z</time>
      </trkpt>
      <trkpt lat="45.76747" lon="5.88383">
        <ele>787.93774414062</ele>
        <time>2012-03-17T10:44:01Z</time>
      </trkpt>
      <trkpt lat="45.76741" lon="5.88395">
        <ele>786.97631835938</ele>
        <time>2012-03-17T10:44:09Z</time>
      </trkpt>
      <trkpt lat="45.76738" lon="5.88398">
        <ele>786.49584960938</ele>
        <time>2012-03-17T10:44:12Z</time>
      </trkpt>
      <trkpt lat="45.76735" lon="5.88403">
        <ele>785.53442382812</ele>
        <time>2012-03-17T10:44:17Z</time>
      </trkpt>
      <trkpt lat="45.76734" lon="5.88405">
        <ele>784.5732421875</ele>
        <time>2012-03-17T10:44:18Z</time>
      </trkpt>
      <trkpt lat="45.76731" lon="5.88408">
        <ele>782.169921875</ele>
        <time>2012-03-17T10:44:22Z</time>
      </trkpt>
      <trkpt lat="45.76726" lon="5.88417">
        <ele>779.76635742188</ele>
        <time>2012-03-17T10:44:29Z</time>
      </trkpt>
      <trkpt lat="45.76725" lon="5.88418">
        <ele>779.28564453125</ele>
        <time>2012-03-17T10:44:30Z</time>
      </trkpt>
      <trkpt lat="45.76722" lon="5.88423">
        <ele>776.40185546875</ele>
        <time>2012-03-17T10:44:33Z</time>
      </trkpt>
      <trkpt lat="45.76719" lon="5.88429">
        <ele>774.9599609375</ele>
        <time>2012-03-17T10:44:37Z</time>
      </trkpt>
      <trkpt lat="45.76711" lon="5.88446">
        <ele>776.88256835938</ele>
        <time>2012-03-17T10:44:43Z</time>
      </trkpt>
      <trkpt lat="45.76709" lon="5.88452">
        <ele>775.4404296875</ele>
        <time>2012-03-17T10:44:45Z</time>
      </trkpt>
      <trkpt lat="45.76713" lon="5.88475">
        <ele>775.92114257812</ele>
        <time>2012-03-17T10:44:51Z</time>
      </trkpt>
      <trkpt lat="45.76717" lon="5.88493">
        <ele>772.07592773438</ele>
        <time>2012-03-17T10:44:57Z</time>
      </trkpt>
      <trkpt lat="45.76718" lon="5.88498">
        <ele>773.03735351562</ele>
        <time>2012-03-17T10:44:59Z</time>
      </trkpt>
      <trkpt lat="45.76713" lon="5.88512">
        <ele>777.84375</ele>
        <time>2012-03-17T10:45:04Z</time>
      </trkpt>
      <trkpt lat="45.76709" lon="5.88522">
        <ele>781.68920898438</ele>
        <time>2012-03-17T10:45:08Z</time>
      </trkpt>
      <trkpt lat="45.76701" lon="5.88534">
        <ele>782.65063476562</ele>
        <time>2012-03-17T10:45:15Z</time>
      </trkpt>
      <trkpt lat="45.76693" lon="5.88536">
        <ele>786.01513671875</ele>
        <time>2012-03-17T10:45:20Z</time>
      </trkpt>
      <trkpt lat="45.76686" lon="5.88536">
        <ele>788.41845703125</ele>
        <time>2012-03-17T10:45:26Z</time>
      </trkpt>
      <trkpt lat="45.76679" lon="5.88535">
        <ele>792.74438476562</ele>
        <time>2012-03-17T10:45:32Z</time>
      </trkpt>
      <trkpt lat="45.76675" lon="5.88535">
        <ele>796.58984375</ele>
        <time>2012-03-17T10:45:36Z</time>
      </trkpt>
      <trkpt lat="45.76665" lon="5.88534">
        <ele>798.99291992188</ele>
        <time>2012-03-17T10:45:43Z</time>
      </trkpt>
      <trkpt lat="45.76659" lon="5.88533">
        <ele>803.79956054688</ele>
        <time>2012-03-17T10:45:48Z</time>
      </trkpt>
      <trkpt lat="45.76651" lon="5.88534">
        <ele>806.20263671875</ele>
        <time>2012-03-17T10:45:54Z</time>
      </trkpt>
      <trkpt lat="45.76645" lon="5.88535">
        <ele>805.24145507812</ele>
        <time>2012-03-17T10:46:07Z</time>
      </trkpt>
      <trkpt lat="45.76643" lon="5.88535">
        <ele>804.2802734375</ele>
        <time>2012-03-17T10:46:16Z</time>
      </trkpt>
      <trkpt lat="45.76638" lon="5.88534">
        <ele>805.24145507812</ele>
        <time>2012-03-17T10:46:23Z</time>
      </trkpt>
      <trkpt lat="45.76633" lon="5.88535">
        <ele>807.1640625</ele>
        <time>2012-03-17T10:46:31Z</time>
      </trkpt>
      <trkpt lat="45.76631" lon="5.88539">
        <ele>805.72216796875</ele>
        <time>2012-03-17T10:46:36Z</time>
      </trkpt>
      <trkpt lat="45.76626" lon="5.88542">
        <ele>810.0478515625</ele>
        <time>2012-03-17T10:46:45Z</time>
      </trkpt>
      <trkpt lat="45.76624" lon="5.88542">
        <ele>811.970703125</ele>
        <time>2012-03-17T10:46:50Z</time>
      </trkpt>
      <trkpt lat="45.76619" lon="5.88543">
        <ele>817.25805664062</ele>
        <time>2012-03-17T10:46:57Z</time>
      </trkpt>
      <trkpt lat="45.76614" lon="5.88543">
        <ele>820.62255859375</ele>
        <time>2012-03-17T10:47:04Z</time>
      </trkpt>
      <trkpt lat="45.76609" lon="5.88542">
        <ele>822.064453125</ele>
        <time>2012-03-17T10:47:10Z</time>
      </trkpt>
      <trkpt lat="45.76603" lon="5.88541">
        <ele>823.50659179688</ele>
        <time>2012-03-17T10:47:17Z</time>
      </trkpt>
      <trkpt lat="45.76598" lon="5.88542">
        <ele>824.94848632812</ele>
        <time>2012-03-17T10:47:24Z</time>
      </trkpt>
      <trkpt lat="45.76591" lon="5.88543">
        <ele>822.54516601562</ele>
        <time>2012-03-17T10:47:30Z</time>
      </trkpt>
      <trkpt lat="45.76587" lon="5.88546">
        <ele>823.50659179688</ele>
        <time>2012-03-17T10:47:38Z</time>
      </trkpt>
      <trkpt lat="45.76581" lon="5.88546">
        <ele>826.39038085938</ele>
        <time>2012-03-17T10:47:46Z</time>
      </trkpt>
      <trkpt lat="45.76576" lon="5.8855">
        <ele>826.87109375</ele>
        <time>2012-03-17T10:47:53Z</time>
      </trkpt>
      <trkpt lat="45.76572" lon="5.88552">
        <ele>826.87109375</ele>
        <time>2012-03-17T10:47:59Z</time>
      </trkpt>
      <trkpt lat="45.76567" lon="5.88552">
        <ele>830.23583984375</ele>
        <time>2012-03-17T10:48:07Z</time>
      </trkpt>
      <trkpt lat="45.76563" lon="5.88552">
        <ele>832.15844726562</ele>
        <time>2012-03-17T10:48:13Z</time>
      </trkpt>
      <trkpt lat="45.76555" lon="5.88554">
        <ele>832.63916015625</ele>
        <time>2012-03-17T10:48:22Z</time>
      </trkpt>
      <trkpt lat="45.7655" lon="5.88553">
        <ele>834.56176757812</ele>
        <time>2012-03-17T10:48:27Z</time>
      </trkpt>
      <trkpt lat="45.76546" lon="5.88554">
        <ele>834.0810546875</ele>
        <time>2012-03-17T10:48:30Z</time>
      </trkpt>
      <trkpt lat="45.76543" lon="5.88555">
        <ele>834.0810546875</ele>
        <time>2012-03-17T10:48:34Z</time>
      </trkpt>
      <trkpt lat="45.76534" lon="5.88557">
        <ele>831.197265625</ele>
        <time>2012-03-17T10:48:42Z</time>
      </trkpt>
      <trkpt lat="45.76524" lon="5.88562">
        <ele>830.71655273438</ele>
        <time>2012-03-17T10:48:51Z</time>
      </trkpt>
      <trkpt lat="45.76524" lon="5.88563">
        <ele>830.71655273438</ele>
        <time>2012-03-17T10:48:52Z</time>
      </trkpt>
      <trkpt lat="45.76516" lon="5.88565">
        <ele>828.31323242188</ele>
        <time>2012-03-17T10:48:57Z</time>
      </trkpt>
      <trkpt lat="45.76511" lon="5.88566">
        <ele>827.83227539062</ele>
        <time>2012-03-17T10:49:00Z</time>
      </trkpt>
      <trkpt lat="45.76503" lon="5.88567">
        <ele>833.60034179688</ele>
        <time>2012-03-17T10:49:08Z</time>
      </trkpt>
      <trkpt lat="45.76499" lon="5.88569">
        <ele>832.15844726562</ele>
        <time>2012-03-17T10:49:11Z</time>
      </trkpt>
      <trkpt lat="45.76495" lon="5.88569">
        <ele>830.23583984375</ele>
        <time>2012-03-17T10:49:15Z</time>
      </trkpt>
      <trkpt lat="45.76493" lon="5.88569">
        <ele>829.75512695312</ele>
        <time>2012-03-17T10:49:17Z</time>
      </trkpt>
      <trkpt lat="45.76485" lon="5.88572">
        <ele>829.2744140625</ele>
        <time>2012-03-17T10:49:24Z</time>
      </trkpt>
      <trkpt lat="45.76479" lon="5.88572">
        <ele>829.2744140625</ele>
        <time>2012-03-17T10:49:29Z</time>
      </trkpt>
      <trkpt lat="45.76477" lon="5.88573">
        <ele>828.7939453125</ele>
        <time>2012-03-17T10:49:31Z</time>
      </trkpt>
      <trkpt lat="45.76465" lon="5.88579">
        <ele>827.83227539062</ele>
        <time>2012-03-17T10:49:37Z</time>
      </trkpt>
      <trkpt lat="45.76461" lon="5.88584">
        <ele>829.2744140625</ele>
        <time>2012-03-17T10:49:41Z</time>
      </trkpt>
      <trkpt lat="45.76455" lon="5.88587">
        <ele>828.7939453125</ele>
        <time>2012-03-17T10:49:53Z</time>
      </trkpt>
      <trkpt lat="45.76449" lon="5.88585">
        <ele>827.83227539062</ele>
        <time>2012-03-17T10:49:59Z</time>
      </trkpt>
      <trkpt lat="45.76445" lon="5.88583">
        <ele>827.83227539062</ele>
        <time>2012-03-17T10:50:03Z</time>
      </trkpt>
      <trkpt lat="45.76439" lon="5.88582">
        <ele>827.83227539062</ele>
        <time>2012-03-17T10:50:10Z</time>
      </trkpt>
      <trkpt lat="45.76432" lon="5.88584">
        <ele>829.2744140625</ele>
        <time>2012-03-17T10:50:16Z</time>
      </trkpt>
      <trkpt lat="45.76425" lon="5.88586">
        <ele>830.23583984375</ele>
        <time>2012-03-17T10:50:22Z</time>
      </trkpt>
      <trkpt lat="45.76421" lon="5.88588">
        <ele>830.71655273438</ele>
        <time>2012-03-17T10:50:25Z</time>
      </trkpt>
      <trkpt lat="45.76411" lon="5.88593">
        <ele>831.677734375</ele>
        <time>2012-03-17T10:50:32Z</time>
      </trkpt>
      <trkpt lat="45.7641" lon="5.88596">
        <ele>832.15844726562</ele>
        <time>2012-03-17T10:50:34Z</time>
      </trkpt>
      <trkpt lat="45.76403" lon="5.88603">
        <ele>830.23583984375</ele>
        <time>2012-03-17T10:50:39Z</time>
      </trkpt>
      <trkpt lat="45.76398" lon="5.88605">
        <ele>831.677734375</ele>
        <time>2012-03-17T10:50:42Z</time>
      </trkpt>
      <trkpt lat="45.76386" lon="5.88602">
        <ele>834.0810546875</ele>
        <time>2012-03-17T10:50:49Z</time>
      </trkpt>
      <trkpt lat="45.76385" lon="5.88603">
        <ele>834.56176757812</ele>
        <time>2012-03-17T10:50:50Z</time>
      </trkpt>
      <trkpt lat="45.76371" lon="5.88609">
        <ele>834.0810546875</ele>
        <time>2012-03-17T10:50:57Z</time>
      </trkpt>
      <trkpt lat="45.76365" lon="5.88614">
        <ele>832.15844726562</ele>
        <time>2012-03-17T10:51:02Z</time>
      </trkpt>
      <trkpt lat="45.76355" lon="5.88623">
        <ele>828.7939453125</ele>
        <time>2012-03-17T10:51:07Z</time>
      </trkpt>
      <trkpt lat="45.7634" lon="5.88642">
        <ele>823.98706054688</ele>
        <time>2012-03-17T10:51:12Z</time>
      </trkpt>
      <trkpt lat="45.76325" lon="5.88651">
        <ele>824.94848632812</ele>
        <time>2012-03-17T10:51:16Z</time>
      </trkpt>
      <trkpt lat="45.76307" lon="5.88657">
        <ele>827.35180664062</ele>
        <time>2012-03-17T10:51:22Z</time>
      </trkpt>
      <trkpt lat="45.76304" lon="5.88667">
        <ele>826.39038085938</ele>
        <time>2012-03-17T10:51:26Z</time>
      </trkpt>
      <trkpt lat="45.76302" lon="5.88667">
        <ele>829.2744140625</ele>
        <time>2012-03-17T10:51:34Z</time>
      </trkpt>
      <trkpt lat="45.76302" lon="5.88675">
        <ele>827.35180664062</ele>
        <time>2012-03-17T10:51:41Z</time>
      </trkpt>
      <trkpt lat="45.763" lon="5.88693">
        <ele>831.677734375</ele>
        <time>2012-03-17T10:51:46Z</time>
      </trkpt>
      <trkpt lat="45.76303" lon="5.88709">
        <ele>830.23583984375</ele>
        <time>2012-03-17T10:51:51Z</time>
      </trkpt>
      <trkpt lat="45.76304" lon="5.88718">
        <ele>828.7939453125</ele>
        <time>2012-03-17T10:51:55Z</time>
      </trkpt>
      <trkpt lat="45.76299" lon="5.88727">
        <ele>824.94848632812</ele>
        <time>2012-03-17T10:52:00Z</time>
      </trkpt>
      <trkpt lat="45.76288" lon="5.88739">
        <ele>824.4677734375</ele>
        <time>2012-03-17T10:52:05Z</time>
      </trkpt>
      <trkpt lat="45.76279" lon="5.88748">
        <ele>825.90966796875</ele>
        <time>2012-03-17T10:52:10Z</time>
      </trkpt>
      <trkpt lat="45.76265" lon="5.88763">
        <ele>823.50659179688</ele>
        <time>2012-03-17T10:52:14Z</time>
      </trkpt>
      <trkpt lat="45.76256" lon="5.88777">
        <ele>821.58374023438</ele>
        <time>2012-03-17T10:52:16Z</time>
      </trkpt>
      <trkpt lat="45.76245" lon="5.88791">
        <ele>821.10327148438</ele>
        <time>2012-03-17T10:52:18Z</time>
      </trkpt>
      <trkpt lat="45.76236" lon="5.88802">
        <ele>819.66137695312</ele>
        <time>2012-03-17T10:52:20Z</time>
      </trkpt>
      <trkpt lat="45.76212" lon="5.88819">
        <ele>818.69995117188</ele>
        <time>2012-03-17T10:52:25Z</time>
      </trkpt>
      <trkpt lat="45.76202" lon="5.88822">
        <ele>819.66137695312</ele>
        <time>2012-03-17T10:52:28Z</time>
      </trkpt>
      <trkpt lat="45.76197" lon="5.8882">
        <ele>822.064453125</ele>
        <time>2012-03-17T10:52:31Z</time>
      </trkpt>
      <trkpt lat="45.76192" lon="5.88817">
        <ele>821.10327148438</ele>
        <time>2012-03-17T10:52:37Z</time>
      </trkpt>
      <trkpt lat="45.76191" lon="5.88817">
        <ele>820.14184570312</ele>
        <time>2012-03-17T10:52:39Z</time>
      </trkpt>
      <trkpt lat="45.7617" lon="5.88816">
        <ele>814.85473632812</ele>
        <time>2012-03-17T10:52:45Z</time>
      </trkpt>
      <trkpt lat="45.76156" lon="5.88814">
        <ele>814.85473632812</ele>
        <time>2012-03-17T10:52:50Z</time>
      </trkpt>
      <trkpt lat="45.76149" lon="5.88814">
        <ele>814.3740234375</ele>
        <time>2012-03-17T10:52:54Z</time>
      </trkpt>
      <trkpt lat="45.76149" lon="5.88814">
        <ele>814.85473632812</ele>
        <time>2012-03-17T10:52:55Z</time>
      </trkpt>
      <trkpt lat="45.76146" lon="5.88814">
        <ele>815.81616210938</ele>
        <time>2012-03-17T10:52:58Z</time>
      </trkpt>
      <trkpt lat="45.76144" lon="5.88813">
        <ele>817.25805664062</ele>
        <time>2012-03-17T10:53:02Z</time>
      </trkpt>
      <trkpt lat="45.7614" lon="5.88813">
        <ele>818.69995117188</ele>
        <time>2012-03-17T10:53:07Z</time>
      </trkpt>
      <trkpt lat="45.76135" lon="5.88813">
        <ele>819.66137695312</ele>
        <time>2012-03-17T10:53:13Z</time>
      </trkpt>
      <trkpt lat="45.76133" lon="5.88813">
        <ele>818.69995117188</ele>
        <time>2012-03-17T10:53:15Z</time>
      </trkpt>
      <trkpt lat="45.76118" lon="5.88825">
        <ele>813.41284179688</ele>
        <time>2012-03-17T10:53:20Z</time>
      </trkpt>
      <trkpt lat="45.76099" lon="5.88848">
        <ele>806.68334960938</ele>
        <time>2012-03-17T10:53:25Z</time>
      </trkpt>
      <trkpt lat="45.76092" lon="5.88852">
        <ele>808.12548828125</ele>
        <time>2012-03-17T10:53:27Z</time>
      </trkpt>
      <trkpt lat="45.76081" lon="5.88855">
        <ele>815.33544921875</ele>
        <time>2012-03-17T10:53:34Z</time>
      </trkpt>
      <trkpt lat="45.76072" lon="5.88854">
        <ele>813.41284179688</ele>
        <time>2012-03-17T10:53:39Z</time>
      </trkpt>
      <trkpt lat="45.76061" lon="5.88858">
        <ele>811.48999023438</ele>
        <time>2012-03-17T10:53:45Z</time>
      </trkpt>
      <trkpt lat="45.7605" lon="5.88863">
        <ele>813.89331054688</ele>
        <time>2012-03-17T10:53:51Z</time>
      </trkpt>
      <trkpt lat="45.76039" lon="5.88876">
        <ele>812.93212890625</ele>
        <time>2012-03-17T10:53:56Z</time>
      </trkpt>
      <trkpt lat="45.7602" lon="5.88885">
        <ele>815.33544921875</ele>
        <time>2012-03-17T10:54:04Z</time>
      </trkpt>
      <trkpt lat="45.76008" lon="5.8889">
        <ele>815.33544921875</ele>
        <time>2012-03-17T10:54:09Z</time>
      </trkpt>
      <trkpt lat="45.75998" lon="5.88894">
        <ele>815.81616210938</ele>
        <time>2012-03-17T10:54:14Z</time>
      </trkpt>
      <trkpt lat="45.75983" lon="5.88899">
        <ele>816.77734375</ele>
        <time>2012-03-17T10:54:21Z</time>
      </trkpt>
      <trkpt lat="45.75978" lon="5.88902">
        <ele>815.33544921875</ele>
        <time>2012-03-17T10:54:23Z</time>
      </trkpt>
      <trkpt lat="45.75969" lon="5.88911">
        <ele>809.08666992188</ele>
        <time>2012-03-17T10:54:29Z</time>
      </trkpt>
      <trkpt lat="45.75966" lon="5.88914">
        <ele>808.60595703125</ele>
        <time>2012-03-17T10:54:30Z</time>
      </trkpt>
      <trkpt lat="45.75951" lon="5.88931">
        <ele>810.52856445312</ele>
        <time>2012-03-17T10:54:35Z</time>
      </trkpt>
      <trkpt lat="45.75934" lon="5.88942">
        <ele>804.7607421875</ele>
        <time>2012-03-17T10:54:40Z</time>
      </trkpt>
      <trkpt lat="45.75922" lon="5.88953">
        <ele>800.91552734375</ele>
        <time>2012-03-17T10:54:44Z</time>
      </trkpt>
      <trkpt lat="45.75917" lon="5.88959">
        <ele>803.31884765625</ele>
        <time>2012-03-17T10:54:48Z</time>
      </trkpt>
      <trkpt lat="45.75915" lon="5.8896">
        <ele>804.7607421875</ele>
        <time>2012-03-17T10:54:49Z</time>
      </trkpt>
      <trkpt lat="45.75911" lon="5.88969">
        <ele>811.00927734375</ele>
        <time>2012-03-17T10:55:05Z</time>
      </trkpt>
      <trkpt lat="45.75912" lon="5.8897">
        <ele>807.1640625</ele>
        <time>2012-03-17T10:55:13Z</time>
      </trkpt>
      <trkpt lat="45.75911" lon="5.88971">
        <ele>806.20263671875</ele>
        <time>2012-03-17T10:55:14Z</time>
      </trkpt>
      <trkpt lat="45.75905" lon="5.88972">
        <ele>805.24145507812</ele>
        <time>2012-03-17T10:55:18Z</time>
      </trkpt>
      <trkpt lat="45.75894" lon="5.88979">
        <ele>804.2802734375</ele>
        <time>2012-03-17T10:55:21Z</time>
      </trkpt>
      <trkpt lat="45.75883" lon="5.88992">
        <ele>804.2802734375</ele>
        <time>2012-03-17T10:55:24Z</time>
      </trkpt>
      <trkpt lat="45.7587" lon="5.88997">
        <ele>809.5673828125</ele>
        <time>2012-03-17T10:55:27Z</time>
      </trkpt>
      <trkpt lat="45.75866" lon="5.88997">
        <ele>808.60595703125</ele>
        <time>2012-03-17T10:55:28Z</time>
      </trkpt>
      <trkpt lat="45.75856" lon="5.88996">
        <ele>807.1640625</ele>
        <time>2012-03-17T10:55:32Z</time>
      </trkpt>
      <trkpt lat="45.75853" lon="5.88996">
        <ele>807.64477539062</ele>
        <time>2012-03-17T10:55:34Z</time>
      </trkpt>
      <trkpt lat="45.75842" lon="5.88998">
        <ele>808.12548828125</ele>
        <time>2012-03-17T10:55:40Z</time>
      </trkpt>
      <trkpt lat="45.75831" lon="5.88999">
        <ele>806.20263671875</ele>
        <time>2012-03-17T10:55:46Z</time>
      </trkpt>
      <trkpt lat="45.75822" lon="5.88997">
        <ele>806.68334960938</ele>
        <time>2012-03-17T10:55:51Z</time>
      </trkpt>
      <trkpt lat="45.75814" lon="5.88999">
        <ele>805.72216796875</ele>
        <time>2012-03-17T10:55:56Z</time>
      </trkpt>
      <trkpt lat="45.75806" lon="5.88998">
        <ele>804.7607421875</ele>
        <time>2012-03-17T10:56:02Z</time>
      </trkpt>
      <trkpt lat="45.75798" lon="5.88997">
        <ele>806.68334960938</ele>
        <time>2012-03-17T10:56:09Z</time>
      </trkpt>
      <trkpt lat="45.75788" lon="5.89001">
        <ele>809.5673828125</ele>
        <time>2012-03-17T10:56:17Z</time>
      </trkpt>
      <trkpt lat="45.75783" lon="5.89006">
        <ele>807.64477539062</ele>
        <time>2012-03-17T10:56:23Z</time>
      </trkpt>
      <trkpt lat="45.75769" lon="5.89014">
        <ele>804.7607421875</ele>
        <time>2012-03-17T10:56:30Z</time>
      </trkpt>
      <trkpt lat="45.75762" lon="5.89021">
        <ele>801.876953125</ele>
        <time>2012-03-17T10:56:33Z</time>
      </trkpt>
      <trkpt lat="45.75744" lon="5.89034">
        <ele>798.99291992188</ele>
        <time>2012-03-17T10:56:38Z</time>
      </trkpt>
      <trkpt lat="45.75737" lon="5.89037">
        <ele>798.51220703125</ele>
        <time>2012-03-17T10:56:42Z</time>
      </trkpt>
      <trkpt lat="45.75728" lon="5.89041">
        <ele>798.03173828125</ele>
        <time>2012-03-17T10:56:48Z</time>
      </trkpt>
      <trkpt lat="45.75727" lon="5.89041">
        <ele>798.03173828125</ele>
        <time>2012-03-17T10:56:49Z</time>
      </trkpt>
      <trkpt lat="45.75722" lon="5.89042">
        <ele>801.39624023438</ele>
        <time>2012-03-17T10:57:00Z</time>
      </trkpt>
      <trkpt lat="45.75719" lon="5.89043">
        <ele>801.39624023438</ele>
        <time>2012-03-17T10:57:05Z</time>
      </trkpt>
      <trkpt lat="45.75718" lon="5.89045">
        <ele>796.10913085938</ele>
        <time>2012-03-17T10:57:10Z</time>
      </trkpt>
      <trkpt lat="45.75713" lon="5.89045">
        <ele>789.37963867188</ele>
        <time>2012-03-17T10:57:18Z</time>
      </trkpt>
      <trkpt lat="45.75707" lon="5.89043">
        <ele>787.45703125</ele>
        <time>2012-03-17T10:57:25Z</time>
      </trkpt>
      <trkpt lat="45.75699" lon="5.89045">
        <ele>787.45703125</ele>
        <time>2012-03-17T10:57:31Z</time>
      </trkpt>
      <trkpt lat="45.75697" lon="5.89045">
        <ele>786.49584960938</ele>
        <time>2012-03-17T10:57:32Z</time>
      </trkpt>
      <trkpt lat="45.75681" lon="5.89036">
        <ele>782.169921875</ele>
        <time>2012-03-17T10:57:38Z</time>
      </trkpt>
      <trkpt lat="45.75668" lon="5.89033">
        <ele>781.20874023438</ele>
        <time>2012-03-17T10:57:43Z</time>
      </trkpt>
      <trkpt lat="45.75668" lon="5.89034">
        <ele>785.53442382812</ele>
        <time>2012-03-17T10:57:51Z</time>
      </trkpt>
      <trkpt lat="45.75675" lon="5.89032">
        <ele>790.82153320312</ele>
        <time>2012-03-17T10:58:15Z</time>
      </trkpt>
      <trkpt lat="45.75673" lon="5.89033">
        <ele>794.66674804688</ele>
        <time>2012-03-17T10:58:23Z</time>
      </trkpt>
      <trkpt lat="45.7567" lon="5.89037">
        <ele>791.78295898438</ele>
        <time>2012-03-17T10:58:32Z</time>
      </trkpt>
      <trkpt lat="45.75666" lon="5.89038">
        <ele>789.8603515625</ele>
        <time>2012-03-17T10:58:35Z</time>
      </trkpt>
      <trkpt lat="45.75665" lon="5.89037">
        <ele>783.61181640625</ele>
        <time>2012-03-17T10:58:42Z</time>
      </trkpt>
      <trkpt lat="45.75665" lon="5.89034">
        <ele>785.05395507812</ele>
        <time>2012-03-17T10:58:49Z</time>
      </trkpt>
      <trkpt lat="45.75668" lon="5.89038">
        <ele>778.80517578125</ele>
        <time>2012-03-17T10:59:01Z</time>
      </trkpt>
      <trkpt lat="45.75674" lon="5.89044">
        <ele>771.11474609375</ele>
        <time>2012-03-17T10:59:14Z</time>
      </trkpt>
      <trkpt lat="45.75669" lon="5.89043">
        <ele>772.07592773438</ele>
        <time>2012-03-17T10:59:21Z</time>
      </trkpt>
      <trkpt lat="45.75664" lon="5.89054">
        <ele>768.71142578125</ele>
        <time>2012-03-17T10:59:27Z</time>
      </trkpt>
      <trkpt lat="45.75661" lon="5.89061">
        <ele>766.78881835938</ele>
        <time>2012-03-17T10:59:29Z</time>
      </trkpt>
      <trkpt lat="45.75652" lon="5.89085">
        <ele>761.98217773438</ele>
        <time>2012-03-17T10:59:34Z</time>
      </trkpt>
      <trkpt lat="45.75642" lon="5.89103">
        <ele>757.17553710938</ele>
        <time>2012-03-17T10:59:39Z</time>
      </trkpt>
      <trkpt lat="45.7564" lon="5.89106">
        <ele>757.17553710938</ele>
        <time>2012-03-17T10:59:40Z</time>
      </trkpt>
      <trkpt lat="45.75626" lon="5.89125">
        <ele>759.09814453125</ele>
        <time>2012-03-17T10:59:46Z</time>
      </trkpt>
      <trkpt lat="45.7562" lon="5.89132">
        <ele>763.90454101562</ele>
        <time>2012-03-17T10:59:47Z</time>
      </trkpt>
      <trkpt lat="45.75606" lon="5.8915">
        <ele>780.24731445312</ele>
        <time>2012-03-17T10:59:50Z</time>
      </trkpt>
      <trkpt lat="45.75588" lon="5.89177">
        <ele>788.89916992188</ele>
        <time>2012-03-17T10:59:56Z</time>
      </trkpt>
      <trkpt lat="45.75586" lon="5.89181">
        <ele>788.41845703125</ele>
        <time>2012-03-17T10:59:57Z</time>
      </trkpt>
      <trkpt lat="45.75582" lon="5.89198">
        <ele>790.34106445312</ele>
        <time>2012-03-17T11:00:02Z</time>
      </trkpt>
      <trkpt lat="45.75586" lon="5.89208">
        <ele>788.41845703125</ele>
        <time>2012-03-17T11:00:06Z</time>
      </trkpt>
      <trkpt lat="45.75592" lon="5.89218">
        <ele>778.32446289062</ele>
        <time>2012-03-17T11:00:13Z</time>
      </trkpt>
      <trkpt lat="45.75592" lon="5.89225">
        <ele>783.13110351562</ele>
        <time>2012-03-17T11:00:19Z</time>
      </trkpt>
      <trkpt lat="45.75596" lon="5.89231">
        <ele>784.5732421875</ele>
        <time>2012-03-17T11:00:38Z</time>
      </trkpt>
      <trkpt lat="45.75596" lon="5.89235">
        <ele>782.65063476562</ele>
        <time>2012-03-17T11:00:40Z</time>
      </trkpt>
      <trkpt lat="45.7559" lon="5.89241">
        <ele>778.80517578125</ele>
        <time>2012-03-17T11:00:45Z</time>
      </trkpt>
      <trkpt lat="45.75587" lon="5.89249">
        <ele>774.9599609375</ele>
        <time>2012-03-17T11:00:50Z</time>
      </trkpt>
      <trkpt lat="45.75588" lon="5.89264">
        <ele>772.07592773438</ele>
        <time>2012-03-17T11:00:56Z</time>
      </trkpt>
      <trkpt lat="45.75587" lon="5.89268">
        <ele>771.11474609375</ele>
        <time>2012-03-17T11:00:58Z</time>
      </trkpt>
      <trkpt lat="45.75579" lon="5.89273">
        <ele>774.47924804688</ele>
        <time>2012-03-17T11:01:04Z</time>
      </trkpt>
      <trkpt lat="45.75581" lon="5.89272">
        <ele>776.40185546875</ele>
        <time>2012-03-17T11:01:07Z</time>
      </trkpt>
      <trkpt lat="45.75584" lon="5.89263">
        <ele>773.99853515625</ele>
        <time>2012-03-17T11:01:11Z</time>
      </trkpt>
      <trkpt lat="45.75586" lon="5.89256">
        <ele>770.63403320312</ele>
        <time>2012-03-17T11:01:14Z</time>
      </trkpt>
      <trkpt lat="45.75588" lon="5.89233">
        <ele>767.75</ele>
        <time>2012-03-17T11:01:21Z</time>
      </trkpt>
      <trkpt lat="45.75587" lon="5.89216">
        <ele>765.34692382812</ele>
        <time>2012-03-17T11:01:25Z</time>
      </trkpt>
      <trkpt lat="45.75584" lon="5.89198">
        <ele>765.34692382812</ele>
        <time>2012-03-17T11:01:29Z</time>
      </trkpt>
      <trkpt lat="45.75587" lon="5.89178">
        <ele>768.23071289062</ele>
        <time>2012-03-17T11:01:34Z</time>
      </trkpt>
      <trkpt lat="45.75589" lon="5.89163">
        <ele>764.8662109375</ele>
        <time>2012-03-17T11:01:39Z</time>
      </trkpt>
      <trkpt lat="45.75592" lon="5.89159">
        <ele>761.02075195312</ele>
        <time>2012-03-17T11:01:41Z</time>
      </trkpt>
      <trkpt lat="45.75597" lon="5.8914">
        <ele>758.61743164062</ele>
        <time>2012-03-17T11:01:50Z</time>
      </trkpt>
      <trkpt lat="45.75602" lon="5.89128">
        <ele>768.71142578125</ele>
        <time>2012-03-17T11:01:57Z</time>
      </trkpt>
      <trkpt lat="45.75601" lon="5.89115">
        <ele>773.51806640625</ele>
        <time>2012-03-17T11:02:03Z</time>
      </trkpt>
      <trkpt lat="45.75599" lon="5.89103">
        <ele>776.40185546875</ele>
        <time>2012-03-17T11:02:09Z</time>
      </trkpt>
      <trkpt lat="45.75598" lon="5.89097">
        <ele>778.80517578125</ele>
        <time>2012-03-17T11:02:12Z</time>
      </trkpt>
      <trkpt lat="45.75599" lon="5.89087">
        <ele>780.72802734375</ele>
        <time>2012-03-17T11:02:18Z</time>
      </trkpt>
      <trkpt lat="45.75599" lon="5.89075">
        <ele>783.13110351562</ele>
        <time>2012-03-17T11:02:25Z</time>
      </trkpt>
      <trkpt lat="45.75601" lon="5.89073">
        <ele>783.61181640625</ele>
        <time>2012-03-17T11:02:28Z</time>
      </trkpt>
      <trkpt lat="45.75599" lon="5.89073">
        <ele>788.41845703125</ele>
        <time>2012-03-17T11:02:36Z</time>
      </trkpt>
      <trkpt lat="45.75602" lon="5.89071">
        <ele>790.82153320312</ele>
        <time>2012-03-17T11:02:42Z</time>
      </trkpt>
      <trkpt lat="45.75602" lon="5.89069">
        <ele>789.37963867188</ele>
        <time>2012-03-17T11:02:45Z</time>
      </trkpt>
      <trkpt lat="45.75603" lon="5.89057">
        <ele>783.61181640625</ele>
        <time>2012-03-17T11:02:52Z</time>
      </trkpt>
      <trkpt lat="45.75599" lon="5.8905">
        <ele>781.20874023438</ele>
        <time>2012-03-17T11:02:56Z</time>
      </trkpt>
      <trkpt lat="45.75588" lon="5.89048">
        <ele>779.28564453125</ele>
        <time>2012-03-17T11:03:03Z</time>
      </trkpt>
      <trkpt lat="45.75585" lon="5.89048">
        <ele>778.32446289062</ele>
        <time>2012-03-17T11:03:06Z</time>
      </trkpt>
      <trkpt lat="45.75583" lon="5.89047">
        <ele>778.32446289062</ele>
        <time>2012-03-17T11:03:08Z</time>
      </trkpt>
      <trkpt lat="45.7558" lon="5.89045">
        <ele>777.84375</ele>
        <time>2012-03-17T11:03:10Z</time>
      </trkpt>
      <trkpt lat="45.75567" lon="5.8904">
        <ele>776.40185546875</ele>
        <time>2012-03-17T11:03:15Z</time>
      </trkpt>
      <trkpt lat="45.7556" lon="5.89041">
        <ele>776.40185546875</ele>
        <time>2012-03-17T11:03:17Z</time>
      </trkpt>
      <trkpt lat="45.75554" lon="5.89044">
        <ele>774.47924804688</ele>
        <time>2012-03-17T11:03:21Z</time>
      </trkpt>
      <trkpt lat="45.75551" lon="5.89046">
        <ele>775.92114257812</ele>
        <time>2012-03-17T11:03:23Z</time>
      </trkpt>
      <trkpt lat="45.75546" lon="5.89056">
        <ele>780.24731445312</ele>
        <time>2012-03-17T11:03:30Z</time>
      </trkpt>
      <trkpt lat="45.75544" lon="5.89057">
        <ele>779.76635742188</ele>
        <time>2012-03-17T11:03:31Z</time>
      </trkpt>
      <trkpt lat="45.75531" lon="5.89065">
        <ele>775.4404296875</ele>
        <time>2012-03-17T11:03:40Z</time>
      </trkpt>
      <trkpt lat="45.75523" lon="5.89075">
        <ele>771.11474609375</ele>
        <time>2012-03-17T11:03:47Z</time>
      </trkpt>
      <trkpt lat="45.75522" lon="5.89078">
        <ele>769.6728515625</ele>
        <time>2012-03-17T11:03:49Z</time>
      </trkpt>
      <trkpt lat="45.7551" lon="5.89088">
        <ele>776.40185546875</ele>
        <time>2012-03-17T11:03:55Z</time>
      </trkpt>
      <trkpt lat="45.75501" lon="5.89096">
        <ele>783.13110351562</ele>
        <time>2012-03-17T11:04:00Z</time>
      </trkpt>
      <trkpt lat="45.75493" lon="5.89106">
        <ele>789.37963867188</ele>
        <time>2012-03-17T11:04:04Z</time>
      </trkpt>
      <trkpt lat="45.75486" lon="5.89116">
        <ele>789.8603515625</ele>
        <time>2012-03-17T11:04:08Z</time>
      </trkpt>
      <trkpt lat="45.7548" lon="5.89123">
        <ele>794.66674804688</ele>
        <time>2012-03-17T11:04:12Z</time>
      </trkpt>
      <trkpt lat="45.75471" lon="5.89134">
        <ele>793.22485351562</ele>
        <time>2012-03-17T11:04:19Z</time>
      </trkpt>
      <trkpt lat="45.75463" lon="5.89141">
        <ele>793.22485351562</ele>
        <time>2012-03-17T11:04:23Z</time>
      </trkpt>
      <trkpt lat="45.75456" lon="5.8915">
        <ele>794.66674804688</ele>
        <time>2012-03-17T11:04:28Z</time>
      </trkpt>
      <trkpt lat="45.75452" lon="5.89167">
        <ele>790.34106445312</ele>
        <time>2012-03-17T11:04:35Z</time>
      </trkpt>
      <trkpt lat="45.75452" lon="5.89169">
        <ele>790.34106445312</ele>
        <time>2012-03-17T11:04:36Z</time>
      </trkpt>
      <trkpt lat="45.75454" lon="5.89184">
        <ele>787.93774414062</ele>
        <time>2012-03-17T11:04:43Z</time>
      </trkpt>
      <trkpt lat="45.75458" lon="5.89199">
        <ele>786.97631835938</ele>
        <time>2012-03-17T11:04:50Z</time>
      </trkpt>
      <trkpt lat="45.7546" lon="5.89217">
        <ele>786.01513671875</ele>
        <time>2012-03-17T11:04:58Z</time>
      </trkpt>
      <trkpt lat="45.75462" lon="5.89224">
        <ele>786.49584960938</ele>
        <time>2012-03-17T11:05:02Z</time>
      </trkpt>
      <trkpt lat="45.75465" lon="5.89234">
        <ele>789.37963867188</ele>
        <time>2012-03-17T11:05:08Z</time>
      </trkpt>
      <trkpt lat="45.75466" lon="5.89249">
        <ele>789.8603515625</ele>
        <time>2012-03-17T11:05:17Z</time>
      </trkpt>
      <trkpt lat="45.75466" lon="5.89252">
        <ele>789.37963867188</ele>
        <time>2012-03-17T11:05:19Z</time>
      </trkpt>
      <trkpt lat="45.75466" lon="5.89265">
        <ele>789.8603515625</ele>
        <time>2012-03-17T11:05:26Z</time>
      </trkpt>
      <trkpt lat="45.75466" lon="5.89272">
        <ele>790.82153320312</ele>
        <time>2012-03-17T11:05:30Z</time>
      </trkpt>
      <trkpt lat="45.75465" lon="5.89275">
        <ele>793.70556640625</ele>
        <time>2012-03-17T11:05:36Z</time>
      </trkpt>
      <trkpt lat="45.75465" lon="5.89274">
        <ele>795.1474609375</ele>
        <time>2012-03-17T11:05:38Z</time>
      </trkpt>
      <trkpt lat="45.75468" lon="5.89271">
        <ele>799.95434570312</ele>
        <time>2012-03-17T11:05:48Z</time>
      </trkpt>
      <trkpt lat="45.75461" lon="5.89276">
        <ele>805.24145507812</ele>
        <time>2012-03-17T11:06:07Z</time>
      </trkpt>
      <trkpt lat="45.7546" lon="5.89276">
        <ele>805.72216796875</ele>
        <time>2012-03-17T11:06:10Z</time>
      </trkpt>
      <trkpt lat="45.75451" lon="5.89279">
        <ele>806.68334960938</ele>
        <time>2012-03-17T11:06:22Z</time>
      </trkpt>
      <trkpt lat="45.75445" lon="5.89283">
        <ele>806.68334960938</ele>
        <time>2012-03-17T11:06:27Z</time>
      </trkpt>
      <trkpt lat="45.75443" lon="5.89285">
        <ele>805.72216796875</ele>
        <time>2012-03-17T11:06:29Z</time>
      </trkpt>
      <trkpt lat="45.75443" lon="5.89291">
        <ele>804.7607421875</ele>
        <time>2012-03-17T11:06:32Z</time>
      </trkpt>
      <trkpt lat="45.75439" lon="5.89298">
        <ele>803.79956054688</ele>
        <time>2012-03-17T11:06:38Z</time>
      </trkpt>
      <trkpt lat="45.75438" lon="5.89301">
        <ele>804.7607421875</ele>
        <time>2012-03-17T11:06:41Z</time>
      </trkpt>
      <trkpt lat="45.75434" lon="5.89306">
        <ele>805.24145507812</ele>
        <time>2012-03-17T11:06:45Z</time>
      </trkpt>
      <trkpt lat="45.75433" lon="5.89313">
        <ele>807.1640625</ele>
        <time>2012-03-17T11:06:50Z</time>
      </trkpt>
      <trkpt lat="45.75431" lon="5.89316">
        <ele>808.12548828125</ele>
        <time>2012-03-17T11:06:54Z</time>
      </trkpt>
      <trkpt lat="45.75426" lon="5.89322">
        <ele>809.08666992188</ele>
        <time>2012-03-17T11:07:01Z</time>
      </trkpt>
      <trkpt lat="45.75423" lon="5.89327">
        <ele>808.60595703125</ele>
        <time>2012-03-17T11:07:06Z</time>
      </trkpt>
      <trkpt lat="45.7542" lon="5.89332">
        <ele>810.0478515625</ele>
        <time>2012-03-17T11:07:12Z</time>
      </trkpt>
      <trkpt lat="45.75416" lon="5.89337">
        <ele>812.45141601562</ele>
        <time>2012-03-17T11:07:18Z</time>
      </trkpt>
      <trkpt lat="45.75414" lon="5.89346">
        <ele>814.3740234375</ele>
        <time>2012-03-17T11:07:24Z</time>
      </trkpt>
      <trkpt lat="45.75412" lon="5.89361">
        <ele>812.93212890625</ele>
        <time>2012-03-17T11:07:32Z</time>
      </trkpt>
      <trkpt lat="45.75408" lon="5.89366">
        <ele>813.41284179688</ele>
        <time>2012-03-17T11:07:37Z</time>
      </trkpt>
      <trkpt lat="45.75402" lon="5.89368">
        <ele>816.29663085938</ele>
        <time>2012-03-17T11:07:45Z</time>
      </trkpt>
      <trkpt lat="45.75398" lon="5.89367">
        <ele>820.14184570312</ele>
        <time>2012-03-17T11:07:52Z</time>
      </trkpt>
      <trkpt lat="45.75386" lon="5.89368">
        <ele>821.58374023438</ele>
        <time>2012-03-17T11:08:01Z</time>
      </trkpt>
      <trkpt lat="45.75383" lon="5.89369">
        <ele>822.54516601562</ele>
        <time>2012-03-17T11:08:04Z</time>
      </trkpt>
      <trkpt lat="45.75382" lon="5.89369">
        <ele>823.98706054688</ele>
        <time>2012-03-17T11:08:14Z</time>
      </trkpt>
      <trkpt lat="45.75382" lon="5.89371">
        <ele>819.1806640625</ele>
        <time>2012-03-17T11:08:23Z</time>
      </trkpt>
      <trkpt lat="45.75385" lon="5.8937">
        <ele>821.10327148438</ele>
        <time>2012-03-17T11:08:34Z</time>
      </trkpt>
      <trkpt lat="45.75382" lon="5.89372">
        <ele>820.14184570312</ele>
        <time>2012-03-17T11:08:41Z</time>
      </trkpt>
      <trkpt lat="45.75375" lon="5.89373">
        <ele>823.50659179688</ele>
        <time>2012-03-17T11:08:51Z</time>
      </trkpt>
      <trkpt lat="45.75372" lon="5.89374">
        <ele>823.02587890625</ele>
        <time>2012-03-17T11:08:53Z</time>
      </trkpt>
      <trkpt lat="45.75368" lon="5.89377">
        <ele>825.42895507812</ele>
        <time>2012-03-17T11:08:59Z</time>
      </trkpt>
      <trkpt lat="45.75364" lon="5.89376">
        <ele>828.7939453125</ele>
        <time>2012-03-17T11:09:05Z</time>
      </trkpt>
      <trkpt lat="45.75358" lon="5.89376">
        <ele>829.2744140625</ele>
        <time>2012-03-17T11:09:11Z</time>
      </trkpt>
      <trkpt lat="45.75356" lon="5.89377">
        <ele>828.7939453125</ele>
        <time>2012-03-17T11:09:13Z</time>
      </trkpt>
      <trkpt lat="45.75348" lon="5.89379">
        <ele>827.35180664062</ele>
        <time>2012-03-17T11:09:22Z</time>
      </trkpt>
      <trkpt lat="45.75341" lon="5.89381">
        <ele>826.87109375</ele>
        <time>2012-03-17T11:09:29Z</time>
      </trkpt>
      <trkpt lat="45.75337" lon="5.89383">
        <ele>825.42895507812</ele>
        <time>2012-03-17T11:09:34Z</time>
      </trkpt>
      <trkpt lat="45.75334" lon="5.89385">
        <ele>827.35180664062</ele>
        <time>2012-03-17T11:09:39Z</time>
      </trkpt>
      <trkpt lat="45.75327" lon="5.89386">
        <ele>827.35180664062</ele>
        <time>2012-03-17T11:09:47Z</time>
      </trkpt>
      <trkpt lat="45.75322" lon="5.89386">
        <ele>826.39038085938</ele>
        <time>2012-03-17T11:09:54Z</time>
      </trkpt>
      <trkpt lat="45.75317" lon="5.89389">
        <ele>824.4677734375</ele>
        <time>2012-03-17T11:10:01Z</time>
      </trkpt>
      <trkpt lat="45.75308" lon="5.89387">
        <ele>823.98706054688</ele>
        <time>2012-03-17T11:10:04Z</time>
      </trkpt>
      <trkpt lat="45.75298" lon="5.89397">
        <ele>824.94848632812</ele>
        <time>2012-03-17T11:10:11Z</time>
      </trkpt>
      <trkpt lat="45.75295" lon="5.89402">
        <ele>824.4677734375</ele>
        <time>2012-03-17T11:10:14Z</time>
      </trkpt>
      <trkpt lat="45.75292" lon="5.89412">
        <ele>822.54516601562</ele>
        <time>2012-03-17T11:10:20Z</time>
      </trkpt>
      <trkpt lat="45.7529" lon="5.89419">
        <ele>823.50659179688</ele>
        <time>2012-03-17T11:10:25Z</time>
      </trkpt>
      <trkpt lat="45.7529" lon="5.89428">
        <ele>820.14184570312</ele>
        <time>2012-03-17T11:10:29Z</time>
      </trkpt>
      <trkpt lat="45.75284" lon="5.89442">
        <ele>816.29663085938</ele>
        <time>2012-03-17T11:10:33Z</time>
      </trkpt>
      <trkpt lat="45.75282" lon="5.89444">
        <ele>818.69995117188</ele>
        <time>2012-03-17T11:10:34Z</time>
      </trkpt>
      <trkpt lat="45.75274" lon="5.89453">
        <ele>822.064453125</ele>
        <time>2012-03-17T11:10:41Z</time>
      </trkpt>
      <trkpt lat="45.75268" lon="5.89462">
        <ele>818.21923828125</ele>
        <time>2012-03-17T11:10:48Z</time>
      </trkpt>
      <trkpt lat="45.75267" lon="5.89463">
        <ele>818.21923828125</ele>
        <time>2012-03-17T11:10:49Z</time>
      </trkpt>
      <trkpt lat="45.75264" lon="5.89473">
        <ele>818.21923828125</ele>
        <time>2012-03-17T11:10:54Z</time>
      </trkpt>
      <trkpt lat="45.75257" lon="5.89475">
        <ele>819.66137695312</ele>
        <time>2012-03-17T11:10:59Z</time>
      </trkpt>
      <trkpt lat="45.75255" lon="5.89475">
        <ele>820.14184570312</ele>
        <time>2012-03-17T11:11:01Z</time>
      </trkpt>
      <trkpt lat="45.75249" lon="5.89476">
        <ele>821.58374023438</ele>
        <time>2012-03-17T11:11:07Z</time>
      </trkpt>
      <trkpt lat="45.75243" lon="5.89476">
        <ele>825.90966796875</ele>
        <time>2012-03-17T11:11:11Z</time>
      </trkpt>
      <trkpt lat="45.75241" lon="5.89475">
        <ele>829.75512695312</ele>
        <time>2012-03-17T11:11:16Z</time>
      </trkpt>
      <trkpt lat="45.75239" lon="5.89476">
        <ele>829.75512695312</ele>
        <time>2012-03-17T11:11:21Z</time>
      </trkpt>
      <trkpt lat="45.75236" lon="5.89477">
        <ele>831.677734375</ele>
        <time>2012-03-17T11:11:27Z</time>
      </trkpt>
      <trkpt lat="45.75231" lon="5.8948">
        <ele>833.11962890625</ele>
        <time>2012-03-17T11:11:34Z</time>
      </trkpt>
      <trkpt lat="45.7523" lon="5.89479">
        <ele>835.52294921875</ele>
        <time>2012-03-17T11:11:40Z</time>
      </trkpt>
      <trkpt lat="45.75228" lon="5.89481">
        <ele>836.00366210938</ele>
        <time>2012-03-17T11:11:47Z</time>
      </trkpt>
      <trkpt lat="45.75223" lon="5.89482">
        <ele>837.92626953125</ele>
        <time>2012-03-17T11:11:53Z</time>
      </trkpt>
      <trkpt lat="45.75218" lon="5.89484">
        <ele>838.40698242188</ele>
        <time>2012-03-17T11:12:00Z</time>
      </trkpt>
      <trkpt lat="45.75215" lon="5.89485">
        <ele>839.3681640625</ele>
        <time>2012-03-17T11:12:07Z</time>
      </trkpt>
      <trkpt lat="45.7521" lon="5.89488">
        <ele>838.40698242188</ele>
        <time>2012-03-17T11:12:18Z</time>
      </trkpt>
      <trkpt lat="45.75204" lon="5.8949">
        <ele>837.92626953125</ele>
        <time>2012-03-17T11:12:25Z</time>
      </trkpt>
      <trkpt lat="45.752" lon="5.89492">
        <ele>836.00366210938</ele>
        <time>2012-03-17T11:12:34Z</time>
      </trkpt>
      <trkpt lat="45.75196" lon="5.89494">
        <ele>835.04248046875</ele>
        <time>2012-03-17T11:12:42Z</time>
      </trkpt>
      <trkpt lat="45.75193" lon="5.89497">
        <ele>836.00366210938</ele>
        <time>2012-03-17T11:12:49Z</time>
      </trkpt>
      <trkpt lat="45.7519" lon="5.89497">
        <ele>837.44555664062</ele>
        <time>2012-03-17T11:12:56Z</time>
      </trkpt>
      <trkpt lat="45.75183" lon="5.89498">
        <ele>835.04248046875</ele>
        <time>2012-03-17T11:13:09Z</time>
      </trkpt>
      <trkpt lat="45.75178" lon="5.89502">
        <ele>836.00366210938</ele>
        <time>2012-03-17T11:13:15Z</time>
      </trkpt>
      <trkpt lat="45.75174" lon="5.89507">
        <ele>837.92626953125</ele>
        <time>2012-03-17T11:13:22Z</time>
      </trkpt>
      <trkpt lat="45.75172" lon="5.89512">
        <ele>839.3681640625</ele>
        <time>2012-03-17T11:13:27Z</time>
      </trkpt>
      <trkpt lat="45.75169" lon="5.89517">
        <ele>840.32958984375</ele>
        <time>2012-03-17T11:13:31Z</time>
      </trkpt>
      <trkpt lat="45.75165" lon="5.89519">
        <ele>841.771484375</ele>
        <time>2012-03-17T11:13:38Z</time>
      </trkpt>
      <trkpt lat="45.75162" lon="5.89518">
        <ele>842.25219726562</ele>
        <time>2012-03-17T11:13:45Z</time>
      </trkpt>
      <trkpt lat="45.75156" lon="5.89526">
        <ele>841.771484375</ele>
        <time>2012-03-17T11:13:54Z</time>
      </trkpt>
      <trkpt lat="45.75152" lon="5.89531">
        <ele>841.771484375</ele>
        <time>2012-03-17T11:13:59Z</time>
      </trkpt>
      <trkpt lat="45.75151" lon="5.89538">
        <ele>840.81005859375</ele>
        <time>2012-03-17T11:14:03Z</time>
      </trkpt>
      <trkpt lat="45.7515" lon="5.89543">
        <ele>838.40698242188</ele>
        <time>2012-03-17T11:14:06Z</time>
      </trkpt>
      <trkpt lat="45.75146" lon="5.89552">
        <ele>836.484375</ele>
        <time>2012-03-17T11:14:13Z</time>
      </trkpt>
      <trkpt lat="45.75142" lon="5.89557">
        <ele>836.484375</ele>
        <time>2012-03-17T11:14:18Z</time>
      </trkpt>
      <trkpt lat="45.75139" lon="5.89567">
        <ele>837.92626953125</ele>
        <time>2012-03-17T11:14:26Z</time>
      </trkpt>
      <trkpt lat="45.75137" lon="5.89573">
        <ele>837.92626953125</ele>
        <time>2012-03-17T11:14:32Z</time>
      </trkpt>
      <trkpt lat="45.75133" lon="5.8958">
        <ele>838.8876953125</ele>
        <time>2012-03-17T11:14:39Z</time>
      </trkpt>
      <trkpt lat="45.75129" lon="5.89586">
        <ele>839.84887695312</ele>
        <time>2012-03-17T11:14:45Z</time>
      </trkpt>
      <trkpt lat="45.75127" lon="5.89594">
        <ele>839.84887695312</ele>
        <time>2012-03-17T11:14:51Z</time>
      </trkpt>
      <trkpt lat="45.75123" lon="5.89596">
        <ele>845.61694335938</ele>
        <time>2012-03-17T11:14:58Z</time>
      </trkpt>
      <trkpt lat="45.75122" lon="5.89597">
        <ele>848.50073242188</ele>
        <time>2012-03-17T11:15:09Z</time>
      </trkpt>
      <trkpt lat="45.75122" lon="5.89601">
        <ele>848.9814453125</ele>
        <time>2012-03-17T11:15:13Z</time>
      </trkpt>
      <trkpt lat="45.75119" lon="5.89608">
        <ele>848.50073242188</ele>
        <time>2012-03-17T11:15:17Z</time>
      </trkpt>
      <trkpt lat="45.75119" lon="5.89612">
        <ele>847.05883789062</ele>
        <time>2012-03-17T11:15:20Z</time>
      </trkpt>
      <trkpt lat="45.75109" lon="5.89617">
        <ele>845.13623046875</ele>
        <time>2012-03-17T11:15:25Z</time>
      </trkpt>
      <trkpt lat="45.75101" lon="5.89625">
        <ele>843.69409179688</ele>
        <time>2012-03-17T11:15:28Z</time>
      </trkpt>
      <trkpt lat="45.75095" lon="5.89634">
        <ele>843.21337890625</ele>
        <time>2012-03-17T11:15:35Z</time>
      </trkpt>
      <trkpt lat="45.75084" lon="5.89645">
        <ele>842.73291015625</ele>
        <time>2012-03-17T11:15:40Z</time>
      </trkpt>
      <trkpt lat="45.75078" lon="5.89666">
        <ele>841.29077148438</ele>
        <time>2012-03-17T11:15:44Z</time>
      </trkpt>
      <trkpt lat="45.75069" lon="5.89671">
        <ele>839.3681640625</ele>
        <time>2012-03-17T11:15:48Z</time>
      </trkpt>
      <trkpt lat="45.75067" lon="5.89665">
        <ele>837.44555664062</ele>
        <time>2012-03-17T11:15:52Z</time>
      </trkpt>
      <trkpt lat="45.75063" lon="5.89658">
        <ele>834.0810546875</ele>
        <time>2012-03-17T11:15:57Z</time>
      </trkpt>
      <trkpt lat="45.75058" lon="5.89653">
        <ele>833.11962890625</ele>
        <time>2012-03-17T11:16:02Z</time>
      </trkpt>
      <trkpt lat="45.75051" lon="5.89651">
        <ele>833.11962890625</ele>
        <time>2012-03-17T11:16:09Z</time>
      </trkpt>
      <trkpt lat="45.75047" lon="5.89657">
        <ele>846.09765625</ele>
        <time>2012-03-17T11:16:21Z</time>
      </trkpt>
      <trkpt lat="45.75045" lon="5.89657">
        <ele>847.53955078125</ele>
        <time>2012-03-17T11:16:27Z</time>
      </trkpt>
      <trkpt lat="45.75047" lon="5.89654">
        <ele>840.81005859375</ele>
        <time>2012-03-17T11:16:41Z</time>
      </trkpt>
      <trkpt lat="45.75043" lon="5.89657">
        <ele>847.53955078125</ele>
        <time>2012-03-17T11:16:51Z</time>
      </trkpt>
      <trkpt lat="45.75037" lon="5.8966">
        <ele>844.65551757812</ele>
        <time>2012-03-17T11:16:57Z</time>
      </trkpt>
      <trkpt lat="45.75032" lon="5.89664">
        <ele>847.05883789062</ele>
        <time>2012-03-17T11:17:02Z</time>
      </trkpt>
      <trkpt lat="45.75031" lon="5.89664">
        <ele>844.17504882812</ele>
        <time>2012-03-17T11:17:08Z</time>
      </trkpt>
      <trkpt lat="45.75027" lon="5.89661">
        <ele>839.84887695312</ele>
        <time>2012-03-17T11:17:13Z</time>
      </trkpt>
      <trkpt lat="45.7502" lon="5.89664">
        <ele>838.8876953125</ele>
        <time>2012-03-17T11:17:20Z</time>
      </trkpt>
      <trkpt lat="45.7502" lon="5.89664">
        <ele>838.8876953125</ele>
        <time>2012-03-17T11:17:21Z</time>
      </trkpt>
      <trkpt lat="45.75018" lon="5.89667">
        <ele>837.92626953125</ele>
        <time>2012-03-17T11:17:24Z</time>
      </trkpt>
      <trkpt lat="45.75015" lon="5.89668">
        <ele>837.44555664062</ele>
        <time>2012-03-17T11:17:27Z</time>
      </trkpt>
      <trkpt lat="45.75013" lon="5.89671">
        <ele>836.96484375</ele>
        <time>2012-03-17T11:17:32Z</time>
      </trkpt>
      <trkpt lat="45.7501" lon="5.89675">
        <ele>838.8876953125</ele>
        <time>2012-03-17T11:17:39Z</time>
      </trkpt>
      <trkpt lat="45.75005" lon="5.89678">
        <ele>840.81005859375</ele>
        <time>2012-03-17T11:17:45Z</time>
      </trkpt>
      <trkpt lat="45.75004" lon="5.89685">
        <ele>839.3681640625</ele>
        <time>2012-03-17T11:17:51Z</time>
      </trkpt>
      <trkpt lat="45.75" lon="5.8969">
        <ele>838.8876953125</ele>
        <time>2012-03-17T11:17:59Z</time>
      </trkpt>
      <trkpt lat="45.74999" lon="5.89695">
        <ele>839.84887695312</ele>
        <time>2012-03-17T11:18:06Z</time>
      </trkpt>
      <trkpt lat="45.74996" lon="5.897">
        <ele>840.81005859375</ele>
        <time>2012-03-17T11:18:12Z</time>
      </trkpt>
      <trkpt lat="45.74991" lon="5.89708">
        <ele>841.29077148438</ele>
        <time>2012-03-17T11:18:20Z</time>
      </trkpt>
      <trkpt lat="45.74987" lon="5.89713">
        <ele>843.21337890625</ele>
        <time>2012-03-17T11:18:26Z</time>
      </trkpt>
      <trkpt lat="45.74986" lon="5.89714">
        <ele>843.69409179688</ele>
        <time>2012-03-17T11:18:27Z</time>
      </trkpt>
      <trkpt lat="45.74983" lon="5.89717">
        <ele>845.13623046875</ele>
        <time>2012-03-17T11:18:30Z</time>
      </trkpt>
      <trkpt lat="45.74982" lon="5.8972">
        <ele>846.09765625</ele>
        <time>2012-03-17T11:18:33Z</time>
      </trkpt>
      <trkpt lat="45.7498" lon="5.89727">
        <ele>846.57836914062</ele>
        <time>2012-03-17T11:18:39Z</time>
      </trkpt>
      <trkpt lat="45.74977" lon="5.89727">
        <ele>845.61694335938</ele>
        <time>2012-03-17T11:18:41Z</time>
      </trkpt>
      <trkpt lat="45.74973" lon="5.89725">
        <ele>844.17504882812</ele>
        <time>2012-03-17T11:18:46Z</time>
      </trkpt>
      <trkpt lat="45.74973" lon="5.89724">
        <ele>844.17504882812</ele>
        <time>2012-03-17T11:18:52Z</time>
      </trkpt>
      <trkpt lat="45.74971" lon="5.89724">
        <ele>845.13623046875</ele>
        <time>2012-03-17T11:19:00Z</time>
      </trkpt>
      <trkpt lat="45.74971" lon="5.89722">
        <ele>844.65551757812</ele>
        <time>2012-03-17T11:19:07Z</time>
      </trkpt>
      <trkpt lat="45.74971" lon="5.89721">
        <ele>843.69409179688</ele>
        <time>2012-03-17T11:19:16Z</time>
      </trkpt>
      <trkpt lat="45.74969" lon="5.89721">
        <ele>844.65551757812</ele>
        <time>2012-03-17T11:19:22Z</time>
      </trkpt>
      <trkpt lat="45.74966" lon="5.8972">
        <ele>854.74926757812</ele>
        <time>2012-03-17T11:19:41Z</time>
      </trkpt>
      <trkpt lat="45.7497" lon="5.8972">
        <ele>846.09765625</ele>
        <time>2012-03-17T11:20:08Z</time>
      </trkpt>
      <trkpt lat="45.74969" lon="5.89721">
        <ele>846.57836914062</ele>
        <time>2012-03-17T11:20:22Z</time>
      </trkpt>
      <trkpt lat="45.74968" lon="5.89722">
        <ele>847.05883789062</ele>
        <time>2012-03-17T11:20:30Z</time>
      </trkpt>
      <trkpt lat="45.74968" lon="5.89722">
        <ele>849.46215820312</ele>
        <time>2012-03-17T11:20:51Z</time>
      </trkpt>
      <trkpt lat="45.7497" lon="5.89726">
        <ele>847.05883789062</ele>
        <time>2012-03-17T11:20:55Z</time>
      </trkpt>
      <trkpt lat="45.74971" lon="5.89726">
        <ele>845.61694335938</ele>
        <time>2012-03-17T11:21:01Z</time>
      </trkpt>
      <trkpt lat="45.74971" lon="5.89725">
        <ele>845.13623046875</ele>
        <time>2012-03-17T11:21:15Z</time>
      </trkpt>
      <trkpt lat="45.74972" lon="5.89729">
        <ele>843.69409179688</ele>
        <time>2012-03-17T11:21:20Z</time>
      </trkpt>
      <trkpt lat="45.74971" lon="5.89738">
        <ele>842.73291015625</ele>
        <time>2012-03-17T11:21:26Z</time>
      </trkpt>
      <trkpt lat="45.74969" lon="5.89741">
        <ele>842.25219726562</ele>
        <time>2012-03-17T11:21:31Z</time>
      </trkpt>
      <trkpt lat="45.74969" lon="5.89743">
        <ele>841.771484375</ele>
        <time>2012-03-17T11:21:33Z</time>
      </trkpt>
      <trkpt lat="45.74967" lon="5.89747">
        <ele>841.29077148438</ele>
        <time>2012-03-17T11:21:35Z</time>
      </trkpt>
      <trkpt lat="45.74966" lon="5.89759">
        <ele>839.3681640625</ele>
        <time>2012-03-17T11:21:40Z</time>
      </trkpt>
      <trkpt lat="45.74961" lon="5.89771">
        <ele>838.40698242188</ele>
        <time>2012-03-17T11:21:46Z</time>
      </trkpt>
      <trkpt lat="45.74961" lon="5.8978">
        <ele>837.44555664062</ele>
        <time>2012-03-17T11:21:52Z</time>
      </trkpt>
      <trkpt lat="45.74961" lon="5.89781">
        <ele>837.44555664062</ele>
        <time>2012-03-17T11:21:53Z</time>
      </trkpt>
      <trkpt lat="45.7496" lon="5.8979">
        <ele>837.44555664062</ele>
        <time>2012-03-17T11:21:59Z</time>
      </trkpt>
      <trkpt lat="45.7496" lon="5.89796">
        <ele>837.44555664062</ele>
        <time>2012-03-17T11:22:02Z</time>
      </trkpt>
      <trkpt lat="45.74957" lon="5.89801">
        <ele>842.73291015625</ele>
        <time>2012-03-17T11:22:07Z</time>
      </trkpt>
      <trkpt lat="45.74955" lon="5.89804">
        <ele>847.53955078125</ele>
        <time>2012-03-17T11:22:16Z</time>
      </trkpt>
      <trkpt lat="45.74952" lon="5.89807">
        <ele>848.9814453125</ele>
        <time>2012-03-17T11:22:22Z</time>
      </trkpt>
      <trkpt lat="45.7495" lon="5.89811">
        <ele>851.86547851562</ele>
        <time>2012-03-17T11:22:29Z</time>
      </trkpt>
      <trkpt lat="45.74946" lon="5.89815">
        <ele>852.82666015625</ele>
        <time>2012-03-17T11:22:36Z</time>
      </trkpt>
      <trkpt lat="45.74945" lon="5.89819">
        <ele>848.9814453125</ele>
        <time>2012-03-17T11:22:42Z</time>
      </trkpt>
      <trkpt lat="45.74945" lon="5.89825">
        <ele>846.57836914062</ele>
        <time>2012-03-17T11:22:47Z</time>
      </trkpt>
      <trkpt lat="45.74945" lon="5.89832">
        <ele>843.21337890625</ele>
        <time>2012-03-17T11:22:53Z</time>
      </trkpt>
      <trkpt lat="45.74944" lon="5.89835">
        <ele>843.69409179688</ele>
        <time>2012-03-17T11:22:59Z</time>
      </trkpt>
      <trkpt lat="45.74939" lon="5.89834">
        <ele>844.65551757812</ele>
        <time>2012-03-17T11:23:05Z</time>
      </trkpt>
      <trkpt lat="45.74937" lon="5.89835">
        <ele>844.17504882812</ele>
        <time>2012-03-17T11:23:10Z</time>
      </trkpt>
      <trkpt lat="45.74938" lon="5.89838">
        <ele>843.69409179688</ele>
        <time>2012-03-17T11:23:23Z</time>
      </trkpt>
      <trkpt lat="45.74936" lon="5.89836">
        <ele>844.17504882812</ele>
        <time>2012-03-17T11:23:29Z</time>
      </trkpt>
      <trkpt lat="45.74931" lon="5.89834">
        <ele>842.25219726562</ele>
        <time>2012-03-17T11:23:37Z</time>
      </trkpt>
      <trkpt lat="45.74927" lon="5.89831">
        <ele>840.81005859375</ele>
        <time>2012-03-17T11:23:42Z</time>
      </trkpt>
      <trkpt lat="45.74923" lon="5.89827">
        <ele>837.92626953125</ele>
        <time>2012-03-17T11:23:51Z</time>
      </trkpt>
      <trkpt lat="45.74917" lon="5.89828">
        <ele>837.44555664062</ele>
        <time>2012-03-17T11:23:56Z</time>
      </trkpt>
      <trkpt lat="45.74915" lon="5.89829">
        <ele>836.96484375</ele>
        <time>2012-03-17T11:23:57Z</time>
      </trkpt>
      <trkpt lat="45.7491" lon="5.89828">
        <ele>835.52294921875</ele>
        <time>2012-03-17T11:24:00Z</time>
      </trkpt>
      <trkpt lat="45.74903" lon="5.89825">
        <ele>835.52294921875</ele>
        <time>2012-03-17T11:24:03Z</time>
      </trkpt>
      <trkpt lat="45.74898" lon="5.89819">
        <ele>834.0810546875</ele>
        <time>2012-03-17T11:24:08Z</time>
      </trkpt>
      <trkpt lat="45.74894" lon="5.89826">
        <ele>833.11962890625</ele>
        <time>2012-03-17T11:24:13Z</time>
      </trkpt>
      <trkpt lat="45.74893" lon="5.89827">
        <ele>832.15844726562</ele>
        <time>2012-03-17T11:24:14Z</time>
      </trkpt>
      <trkpt lat="45.74892" lon="5.89829">
        <ele>830.23583984375</ele>
        <time>2012-03-17T11:24:16Z</time>
      </trkpt>
      <trkpt lat="45.74887" lon="5.89839">
        <ele>828.7939453125</ele>
        <time>2012-03-17T11:24:23Z</time>
      </trkpt>
      <trkpt lat="45.74885" lon="5.89841">
        <ele>829.75512695312</ele>
        <time>2012-03-17T11:24:24Z</time>
      </trkpt>
      <trkpt lat="45.74876" lon="5.89859">
        <ele>827.83227539062</ele>
        <time>2012-03-17T11:24:28Z</time>
      </trkpt>
      <trkpt lat="45.74863" lon="5.89891">
        <ele>832.63916015625</ele>
        <time>2012-03-17T11:24:33Z</time>
      </trkpt>
      <trkpt lat="45.74858" lon="5.89907">
        <ele>836.484375</ele>
        <time>2012-03-17T11:24:36Z</time>
      </trkpt>
      <trkpt lat="45.74855" lon="5.89918">
        <ele>837.92626953125</ele>
        <time>2012-03-17T11:24:40Z</time>
      </trkpt>
      <trkpt lat="45.74854" lon="5.89925">
        <ele>844.17504882812</ele>
        <time>2012-03-17T11:24:50Z</time>
      </trkpt>
      <trkpt lat="45.74852" lon="5.89924">
        <ele>836.96484375</ele>
        <time>2012-03-17T11:25:01Z</time>
      </trkpt>
      <trkpt lat="45.74853" lon="5.89922">
        <ele>828.7939453125</ele>
        <time>2012-03-17T11:25:16Z</time>
      </trkpt>
      <trkpt lat="45.74852" lon="5.89924">
        <ele>830.23583984375</ele>
        <time>2012-03-17T11:25:20Z</time>
      </trkpt>
      <trkpt lat="45.74852" lon="5.89925">
        <ele>831.197265625</ele>
        <time>2012-03-17T11:25:23Z</time>
      </trkpt>
      <trkpt lat="45.74851" lon="5.89927">
        <ele>835.04248046875</ele>
        <time>2012-03-17T11:25:30Z</time>
      </trkpt>
      <trkpt lat="45.74854" lon="5.89924">
        <ele>828.31323242188</ele>
        <time>2012-03-17T11:25:40Z</time>
      </trkpt>
      <trkpt lat="45.74853" lon="5.89924">
        <ele>828.7939453125</ele>
        <time>2012-03-17T11:25:49Z</time>
      </trkpt>
      <trkpt lat="45.74851" lon="5.89922">
        <ele>836.484375</ele>
        <time>2012-03-17T11:26:00Z</time>
      </trkpt>
      <trkpt lat="45.74852" lon="5.89922">
        <ele>834.0810546875</ele>
        <time>2012-03-17T11:26:12Z</time>
      </trkpt>
      <trkpt lat="45.74851" lon="5.89924">
        <ele>836.484375</ele>
        <time>2012-03-17T11:26:23Z</time>
      </trkpt>
      <trkpt lat="45.74852" lon="5.89924">
        <ele>835.04248046875</ele>
        <time>2012-03-17T11:26:29Z</time>
      </trkpt>
      <trkpt lat="45.74855" lon="5.89923">
        <ele>827.83227539062</ele>
        <time>2012-03-17T11:26:36Z</time>
      </trkpt>
      <trkpt lat="45.74854" lon="5.89927">
        <ele>831.197265625</ele>
        <time>2012-03-17T11:26:46Z</time>
      </trkpt>
      <trkpt lat="45.74849" lon="5.89935">
        <ele>830.23583984375</ele>
        <time>2012-03-17T11:26:52Z</time>
      </trkpt>
      <trkpt lat="45.74844" lon="5.89944">
        <ele>832.15844726562</ele>
        <time>2012-03-17T11:26:58Z</time>
      </trkpt>
      <trkpt lat="45.74836" lon="5.89949">
        <ele>834.0810546875</ele>
        <time>2012-03-17T11:27:05Z</time>
      </trkpt>
      <trkpt lat="45.74827" lon="5.89959">
        <ele>838.8876953125</ele>
        <time>2012-03-17T11:27:12Z</time>
      </trkpt>
      <trkpt lat="45.74821" lon="5.89967">
        <ele>841.771484375</ele>
        <time>2012-03-17T11:27:18Z</time>
      </trkpt>
      <trkpt lat="45.74813" lon="5.89977">
        <ele>840.81005859375</ele>
        <time>2012-03-17T11:27:24Z</time>
      </trkpt>
      <trkpt lat="45.74809" lon="5.89992">
        <ele>839.3681640625</ele>
        <time>2012-03-17T11:27:32Z</time>
      </trkpt>
      <trkpt lat="45.74804" lon="5.90003">
        <ele>840.32958984375</ele>
        <time>2012-03-17T11:27:39Z</time>
      </trkpt>
      <trkpt lat="45.748" lon="5.90016">
        <ele>838.40698242188</ele>
        <time>2012-03-17T11:27:46Z</time>
      </trkpt>
      <trkpt lat="45.74796" lon="5.90031">
        <ele>837.44555664062</ele>
        <time>2012-03-17T11:27:52Z</time>
      </trkpt>
      <trkpt lat="45.74791" lon="5.90052">
        <ele>834.56176757812</ele>
        <time>2012-03-17T11:28:00Z</time>
      </trkpt>
      <trkpt lat="45.74788" lon="5.90068">
        <ele>835.52294921875</ele>
        <time>2012-03-17T11:28:06Z</time>
      </trkpt>
      <trkpt lat="45.74785" lon="5.90076">
        <ele>836.484375</ele>
        <time>2012-03-17T11:28:11Z</time>
      </trkpt>
      <trkpt lat="45.74776" lon="5.90092">
        <ele>840.32958984375</ele>
        <time>2012-03-17T11:28:17Z</time>
      </trkpt>
      <trkpt lat="45.74769" lon="5.90108">
        <ele>839.84887695312</ele>
        <time>2012-03-17T11:28:22Z</time>
      </trkpt>
      <trkpt lat="45.7476" lon="5.9013">
        <ele>841.29077148438</ele>
        <time>2012-03-17T11:28:27Z</time>
      </trkpt>
      <trkpt lat="45.74753" lon="5.90162">
        <ele>832.15844726562</ele>
        <time>2012-03-17T11:28:33Z</time>
      </trkpt>
      <trkpt lat="45.74749" lon="5.90183">
        <ele>830.71655273438</ele>
        <time>2012-03-17T11:28:36Z</time>
      </trkpt>
      <trkpt lat="45.74742" lon="5.9021">
        <ele>832.15844726562</ele>
        <time>2012-03-17T11:28:39Z</time>
      </trkpt>
      <trkpt lat="45.74738" lon="5.90229">
        <ele>833.60034179688</ele>
        <time>2012-03-17T11:28:41Z</time>
      </trkpt>
      <trkpt lat="45.74736" lon="5.90262">
        <ele>825.90966796875</ele>
        <time>2012-03-17T11:28:46Z</time>
      </trkpt>
      <trkpt lat="45.74735" lon="5.90266">
        <ele>823.98706054688</ele>
        <time>2012-03-17T11:28:47Z</time>
      </trkpt>
      <trkpt lat="45.74729" lon="5.90276">
        <ele>820.62255859375</ele>
        <time>2012-03-17T11:28:54Z</time>
      </trkpt>
      <trkpt lat="45.74728" lon="5.90277">
        <ele>820.62255859375</ele>
        <time>2012-03-17T11:28:55Z</time>
      </trkpt>
      <trkpt lat="45.74726" lon="5.90278">
        <ele>821.10327148438</ele>
        <time>2012-03-17T11:28:57Z</time>
      </trkpt>
      <trkpt lat="45.74719" lon="5.90279">
        <ele>821.10327148438</ele>
        <time>2012-03-17T11:29:04Z</time>
      </trkpt>
      <trkpt lat="45.7471" lon="5.90283">
        <ele>824.94848632812</ele>
        <time>2012-03-17T11:29:11Z</time>
      </trkpt>
      <trkpt lat="45.74709" lon="5.90283">
        <ele>824.4677734375</ele>
        <time>2012-03-17T11:29:12Z</time>
      </trkpt>
      <trkpt lat="45.74703" lon="5.90286">
        <ele>824.4677734375</ele>
        <time>2012-03-17T11:29:17Z</time>
      </trkpt>
      <trkpt lat="45.74697" lon="5.90291">
        <ele>825.90966796875</ele>
        <time>2012-03-17T11:29:23Z</time>
      </trkpt>
      <trkpt lat="45.74694" lon="5.90299">
        <ele>827.35180664062</ele>
        <time>2012-03-17T11:29:28Z</time>
      </trkpt>
      <trkpt lat="45.74689" lon="5.90305">
        <ele>829.75512695312</ele>
        <time>2012-03-17T11:29:32Z</time>
      </trkpt>
      <trkpt lat="45.74685" lon="5.90313">
        <ele>826.87109375</ele>
        <time>2012-03-17T11:29:38Z</time>
      </trkpt>
      <trkpt lat="45.7468" lon="5.90324">
        <ele>824.4677734375</ele>
        <time>2012-03-17T11:29:45Z</time>
      </trkpt>
      <trkpt lat="45.7468" lon="5.90326">
        <ele>823.98706054688</ele>
        <time>2012-03-17T11:29:46Z</time>
      </trkpt>
      <trkpt lat="45.74672" lon="5.90337">
        <ele>823.02587890625</ele>
        <time>2012-03-17T11:29:50Z</time>
      </trkpt>
      <trkpt lat="45.74659" lon="5.9036">
        <ele>824.4677734375</ele>
        <time>2012-03-17T11:29:56Z</time>
      </trkpt>
      <trkpt lat="45.74651" lon="5.9037">
        <ele>825.90966796875</ele>
        <time>2012-03-17T11:30:03Z</time>
      </trkpt>
      <trkpt lat="45.74649" lon="5.90375">
        <ele>825.90966796875</ele>
        <time>2012-03-17T11:30:06Z</time>
      </trkpt>
      <trkpt lat="45.74644" lon="5.90388">
        <ele>825.90966796875</ele>
        <time>2012-03-17T11:30:12Z</time>
      </trkpt>
      <trkpt lat="45.74641" lon="5.90396">
        <ele>828.7939453125</ele>
        <time>2012-03-17T11:30:18Z</time>
      </trkpt>
      <trkpt lat="45.74639" lon="5.90398">
        <ele>837.92626953125</ele>
        <time>2012-03-17T11:30:44Z</time>
      </trkpt>
      <trkpt lat="45.74636" lon="5.90404">
        <ele>837.44555664062</ele>
        <time>2012-03-17T11:30:50Z</time>
      </trkpt>
      <trkpt lat="45.74632" lon="5.90417">
        <ele>839.3681640625</ele>
        <time>2012-03-17T11:30:57Z</time>
      </trkpt>
      <trkpt lat="45.74625" lon="5.9043">
        <ele>837.92626953125</ele>
        <time>2012-03-17T11:31:03Z</time>
      </trkpt>
      <trkpt lat="45.74619" lon="5.90441">
        <ele>837.92626953125</ele>
        <time>2012-03-17T11:31:09Z</time>
      </trkpt>
      <trkpt lat="45.74614" lon="5.90453">
        <ele>836.484375</ele>
        <time>2012-03-17T11:31:17Z</time>
      </trkpt>
      <trkpt lat="45.74613" lon="5.90455">
        <ele>834.56176757812</ele>
        <time>2012-03-17T11:31:22Z</time>
      </trkpt>
      <trkpt lat="45.74614" lon="5.90454">
        <ele>835.04248046875</ele>
        <time>2012-03-17T11:31:32Z</time>
      </trkpt>
      <trkpt lat="45.74613" lon="5.90455">
        <ele>834.56176757812</ele>
        <time>2012-03-17T11:31:36Z</time>
      </trkpt>
      <trkpt lat="45.74614" lon="5.90456">
        <ele>834.0810546875</ele>
        <time>2012-03-17T11:31:42Z</time>
      </trkpt>
      <trkpt lat="45.74614" lon="5.90457">
        <ele>833.11962890625</ele>
        <time>2012-03-17T11:31:51Z</time>
      </trkpt>
      <trkpt lat="45.7461" lon="5.90464">
        <ele>832.63916015625</ele>
        <time>2012-03-17T11:31:55Z</time>
      </trkpt>
      <trkpt lat="45.74598" lon="5.90477">
        <ele>831.197265625</ele>
        <time>2012-03-17T11:31:59Z</time>
      </trkpt>
      <trkpt lat="45.74592" lon="5.90477">
        <ele>830.23583984375</ele>
        <time>2012-03-17T11:32:03Z</time>
      </trkpt>
      <trkpt lat="45.74595" lon="5.90478">
        <ele>827.83227539062</ele>
        <time>2012-03-17T11:32:34Z</time>
      </trkpt>
      <trkpt lat="45.74595" lon="5.90478">
        <ele>826.87109375</ele>
        <time>2012-03-17T11:32:42Z</time>
      </trkpt>
      <trkpt lat="45.74595" lon="5.90478">
        <ele>826.87109375</ele>
        <time>2012-03-17T11:32:49Z</time>
      </trkpt>
      <trkpt lat="45.74594" lon="5.90478">
        <ele>826.39038085938</ele>
        <time>2012-03-17T11:32:58Z</time>
      </trkpt>
      <trkpt lat="45.74596" lon="5.9048">
        <ele>827.35180664062</ele>
        <time>2012-03-17T11:33:03Z</time>
      </trkpt>
      <trkpt lat="45.74595" lon="5.90477">
        <ele>829.75512695312</ele>
        <time>2012-03-17T11:33:09Z</time>
      </trkpt>
      <trkpt lat="45.7459" lon="5.90475">
        <ele>836.484375</ele>
        <time>2012-03-17T11:33:16Z</time>
      </trkpt>
      <trkpt lat="45.74586" lon="5.90469">
        <ele>841.29077148438</ele>
        <time>2012-03-17T11:33:24Z</time>
      </trkpt>
      <trkpt lat="45.74585" lon="5.90465">
        <ele>843.21337890625</ele>
        <time>2012-03-17T11:33:29Z</time>
      </trkpt>
      <trkpt lat="45.74584" lon="5.90464">
        <ele>844.17504882812</ele>
        <time>2012-03-17T11:33:31Z</time>
      </trkpt>
      <trkpt lat="45.74585" lon="5.90459">
        <ele>845.13623046875</ele>
        <time>2012-03-17T11:33:36Z</time>
      </trkpt>
      <trkpt lat="45.74586" lon="5.90457">
        <ele>845.61694335938</ele>
        <time>2012-03-17T11:33:39Z</time>
      </trkpt>
      <trkpt lat="45.74586" lon="5.90455">
        <ele>847.53955078125</ele>
        <time>2012-03-17T11:33:46Z</time>
      </trkpt>
      <trkpt lat="45.74586" lon="5.90451">
        <ele>847.53955078125</ele>
        <time>2012-03-17T11:33:51Z</time>
      </trkpt>
      <trkpt lat="45.74587" lon="5.90448">
        <ele>848.50073242188</ele>
        <time>2012-03-17T11:33:58Z</time>
      </trkpt>
      <trkpt lat="45.74587" lon="5.90445">
        <ele>846.09765625</ele>
        <time>2012-03-17T11:34:02Z</time>
      </trkpt>
      <trkpt lat="45.74588" lon="5.90445">
        <ele>845.13623046875</ele>
        <time>2012-03-17T11:34:07Z</time>
      </trkpt>
      <trkpt lat="45.7459" lon="5.90446">
        <ele>845.13623046875</ele>
        <time>2012-03-17T11:34:13Z</time>
      </trkpt>
      <trkpt lat="45.7459" lon="5.90445">
        <ele>845.61694335938</ele>
        <time>2012-03-17T11:34:20Z</time>
      </trkpt>
      <trkpt lat="45.74592" lon="5.90443">
        <ele>843.21337890625</ele>
        <time>2012-03-17T11:34:28Z</time>
      </trkpt>
      <trkpt lat="45.74593" lon="5.90444">
        <ele>842.25219726562</ele>
        <time>2012-03-17T11:34:31Z</time>
      </trkpt>
      <trkpt lat="45.7459" lon="5.90482">
        <ele>829.2744140625</ele>
        <time>2012-03-17T11:44:33Z</time>
      </trkpt>
      <trkpt lat="45.74591" lon="5.90482">
        <ele>828.7939453125</ele>
        <time>2012-03-17T11:44:34Z</time>
      </trkpt>
      <trkpt lat="45.74591" lon="5.90481">
        <ele>827.83227539062</ele>
        <time>2012-03-17T11:44:39Z</time>
      </trkpt>
      <trkpt lat="45.74595" lon="5.90483">
        <ele>827.35180664062</ele>
        <time>2012-03-17T11:44:48Z</time>
      </trkpt>
      <trkpt lat="45.74604" lon="5.9047">
        <ele>826.87109375</ele>
        <time>2012-03-17T11:44:56Z</time>
      </trkpt>
      <trkpt lat="45.74606" lon="5.90468">
        <ele>827.35180664062</ele>
        <time>2012-03-17T11:44:58Z</time>
      </trkpt>
      <trkpt lat="45.74607" lon="5.90466">
        <ele>827.35180664062</ele>
        <time>2012-03-17T11:45:01Z</time>
      </trkpt>
      <trkpt lat="45.74612" lon="5.90458">
        <ele>827.83227539062</ele>
        <time>2012-03-17T11:45:04Z</time>
      </trkpt>
      <trkpt lat="45.74616" lon="5.90451">
        <ele>827.35180664062</ele>
        <time>2012-03-17T11:45:08Z</time>
      </trkpt>
      <trkpt lat="45.74619" lon="5.90442">
        <ele>826.87109375</ele>
        <time>2012-03-17T11:45:12Z</time>
      </trkpt>
      <trkpt lat="45.74626" lon="5.90426">
        <ele>823.98706054688</ele>
        <time>2012-03-17T11:45:17Z</time>
      </trkpt>
      <trkpt lat="45.74633" lon="5.90399">
        <ele>821.58374023438</ele>
        <time>2012-03-17T11:45:21Z</time>
      </trkpt>
      <trkpt lat="45.74643" lon="5.90367">
        <ele>815.81616210938</ele>
        <time>2012-03-17T11:45:25Z</time>
      </trkpt>
      <trkpt lat="45.74656" lon="5.90334">
        <ele>809.08666992188</ele>
        <time>2012-03-17T11:45:30Z</time>
      </trkpt>
      <trkpt lat="45.74667" lon="5.90317">
        <ele>804.2802734375</ele>
        <time>2012-03-17T11:45:35Z</time>
      </trkpt>
      <trkpt lat="45.74672" lon="5.90309">
        <ele>800.91552734375</ele>
        <time>2012-03-17T11:45:37Z</time>
      </trkpt>
      <trkpt lat="45.74691" lon="5.90292">
        <ele>793.70556640625</ele>
        <time>2012-03-17T11:45:42Z</time>
      </trkpt>
      <trkpt lat="45.74705" lon="5.90286">
        <ele>789.8603515625</ele>
        <time>2012-03-17T11:45:46Z</time>
      </trkpt>
      <trkpt lat="45.74715" lon="5.90274">
        <ele>787.45703125</ele>
        <time>2012-03-17T11:45:49Z</time>
      </trkpt>
      <trkpt lat="45.74728" lon="5.90265">
        <ele>790.34106445312</ele>
        <time>2012-03-17T11:45:55Z</time>
      </trkpt>
      <trkpt lat="45.74749" lon="5.90265">
        <ele>817.73852539062</ele>
        <time>2012-03-17T11:46:17Z</time>
      </trkpt>
      <trkpt lat="45.74754" lon="5.90265">
        <ele>820.14184570312</ele>
        <time>2012-03-17T11:46:22Z</time>
      </trkpt>
      <trkpt lat="45.7476" lon="5.90276">
        <ele>822.54516601562</ele>
        <time>2012-03-17T11:46:28Z</time>
      </trkpt>
      <trkpt lat="45.74767" lon="5.90292">
        <ele>820.62255859375</ele>
        <time>2012-03-17T11:46:32Z</time>
      </trkpt>
      <trkpt lat="45.7477" lon="5.90295">
        <ele>820.62255859375</ele>
        <time>2012-03-17T11:46:33Z</time>
      </trkpt>
      <trkpt lat="45.74775" lon="5.9031">
        <ele>814.85473632812</ele>
        <time>2012-03-17T11:46:37Z</time>
      </trkpt>
      <trkpt lat="45.74776" lon="5.90313">
        <ele>812.93212890625</ele>
        <time>2012-03-17T11:46:38Z</time>
      </trkpt>
      <trkpt lat="45.74793" lon="5.90309">
        <ele>804.2802734375</ele>
        <time>2012-03-17T11:46:43Z</time>
      </trkpt>
      <trkpt lat="45.74801" lon="5.90303">
        <ele>802.83813476562</ele>
        <time>2012-03-17T11:46:45Z</time>
      </trkpt>
      <trkpt lat="45.74815" lon="5.90293">
        <ele>803.31884765625</ele>
        <time>2012-03-17T11:46:48Z</time>
      </trkpt>
      <trkpt lat="45.74829" lon="5.90281">
        <ele>804.7607421875</ele>
        <time>2012-03-17T11:46:52Z</time>
      </trkpt>
      <trkpt lat="45.74845" lon="5.90266">
        <ele>804.2802734375</ele>
        <time>2012-03-17T11:46:58Z</time>
      </trkpt>
      <trkpt lat="45.74857" lon="5.90251">
        <ele>804.7607421875</ele>
        <time>2012-03-17T11:47:05Z</time>
      </trkpt>
      <trkpt lat="45.74867" lon="5.90231">
        <ele>799.95434570312</ele>
        <time>2012-03-17T11:47:11Z</time>
      </trkpt>
      <trkpt lat="45.74876" lon="5.9022">
        <ele>796.10913085938</ele>
        <time>2012-03-17T11:47:17Z</time>
      </trkpt>
      <trkpt lat="45.74881" lon="5.90218">
        <ele>796.10913085938</ele>
        <time>2012-03-17T11:47:20Z</time>
      </trkpt>
      <trkpt lat="45.74892" lon="5.90208">
        <ele>794.18627929688</ele>
        <time>2012-03-17T11:47:26Z</time>
      </trkpt>
      <trkpt lat="45.74907" lon="5.90192">
        <ele>791.78295898438</ele>
        <time>2012-03-17T11:47:30Z</time>
      </trkpt>
      <trkpt lat="45.74927" lon="5.90168">
        <ele>789.37963867188</ele>
        <time>2012-03-17T11:47:35Z</time>
      </trkpt>
      <trkpt lat="45.74933" lon="5.90161">
        <ele>789.37963867188</ele>
        <time>2012-03-17T11:47:37Z</time>
      </trkpt>
      <trkpt lat="45.74951" lon="5.90153">
        <ele>789.8603515625</ele>
        <time>2012-03-17T11:47:42Z</time>
      </trkpt>
      <trkpt lat="45.74958" lon="5.90145">
        <ele>789.8603515625</ele>
        <time>2012-03-17T11:47:44Z</time>
      </trkpt>
      <trkpt lat="45.74974" lon="5.90125">
        <ele>791.78295898438</ele>
        <time>2012-03-17T11:47:50Z</time>
      </trkpt>
      <trkpt lat="45.74976" lon="5.90122">
        <ele>794.66674804688</ele>
        <time>2012-03-17T11:47:54Z</time>
      </trkpt>
      <trkpt lat="45.74977" lon="5.90121">
        <ele>798.99291992188</ele>
        <time>2012-03-17T11:48:05Z</time>
      </trkpt>
      <trkpt lat="45.7498" lon="5.90117">
        <ele>798.99291992188</ele>
        <time>2012-03-17T11:48:09Z</time>
      </trkpt>
      <trkpt lat="45.74989" lon="5.90113">
        <ele>800.43505859375</ele>
        <time>2012-03-17T11:48:14Z</time>
      </trkpt>
      <trkpt lat="45.75005" lon="5.90106">
        <ele>797.0703125</ele>
        <time>2012-03-17T11:48:19Z</time>
      </trkpt>
      <trkpt lat="45.75023" lon="5.90098">
        <ele>798.51220703125</ele>
        <time>2012-03-17T11:48:23Z</time>
      </trkpt>
      <trkpt lat="45.75032" lon="5.90094">
        <ele>798.51220703125</ele>
        <time>2012-03-17T11:48:27Z</time>
      </trkpt>
      <trkpt lat="45.75044" lon="5.90094">
        <ele>801.39624023438</ele>
        <time>2012-03-17T11:48:31Z</time>
      </trkpt>
      <trkpt lat="45.7505" lon="5.90095">
        <ele>801.876953125</ele>
        <time>2012-03-17T11:48:35Z</time>
      </trkpt>
      <trkpt lat="45.75058" lon="5.90101">
        <ele>800.91552734375</ele>
        <time>2012-03-17T11:48:40Z</time>
      </trkpt>
      <trkpt lat="45.75072" lon="5.90122">
        <ele>800.43505859375</ele>
        <time>2012-03-17T11:48:45Z</time>
      </trkpt>
      <trkpt lat="45.75085" lon="5.90149">
        <ele>799.95434570312</ele>
        <time>2012-03-17T11:48:49Z</time>
      </trkpt>
      <trkpt lat="45.751" lon="5.90169">
        <ele>802.357421875</ele>
        <time>2012-03-17T11:48:53Z</time>
      </trkpt>
      <trkpt lat="45.75103" lon="5.90173">
        <ele>803.31884765625</ele>
        <time>2012-03-17T11:49:01Z</time>
      </trkpt>
      <trkpt lat="45.75103" lon="5.90173">
        <ele>802.83813476562</ele>
        <time>2012-03-17T11:49:03Z</time>
      </trkpt>
      <trkpt lat="45.751" lon="5.90173">
        <ele>802.83813476562</ele>
        <time>2012-03-17T11:49:05Z</time>
      </trkpt>
      <trkpt lat="45.75096" lon="5.90172">
        <ele>798.03173828125</ele>
        <time>2012-03-17T11:49:13Z</time>
      </trkpt>
      <trkpt lat="45.75096" lon="5.90171">
        <ele>796.10913085938</ele>
        <time>2012-03-17T11:49:19Z</time>
      </trkpt>
      <trkpt lat="45.75098" lon="5.9017">
        <ele>796.10913085938</ele>
        <time>2012-03-17T11:49:25Z</time>
      </trkpt>
      <trkpt lat="45.75097" lon="5.90176">
        <ele>796.10913085938</ele>
        <time>2012-03-17T11:49:31Z</time>
      </trkpt>
      <trkpt lat="45.75097" lon="5.90181">
        <ele>795.62817382812</ele>
        <time>2012-03-17T11:49:34Z</time>
      </trkpt>
      <trkpt lat="45.75097" lon="5.90185">
        <ele>794.66674804688</ele>
        <time>2012-03-17T11:49:42Z</time>
      </trkpt>
      <trkpt lat="45.75097" lon="5.90184">
        <ele>795.62817382812</ele>
        <time>2012-03-17T11:49:48Z</time>
      </trkpt>
      <trkpt lat="45.75096" lon="5.90185">
        <ele>796.10913085938</ele>
        <time>2012-03-17T11:49:56Z</time>
      </trkpt>
      <trkpt lat="45.75097" lon="5.90189">
        <ele>798.03173828125</ele>
        <time>2012-03-17T11:50:03Z</time>
      </trkpt>
      <trkpt lat="45.75096" lon="5.9019">
        <ele>798.03173828125</ele>
        <time>2012-03-17T11:50:07Z</time>
      </trkpt>
      <trkpt lat="45.75095" lon="5.90193">
        <ele>801.876953125</ele>
        <time>2012-03-17T11:50:18Z</time>
      </trkpt>
      <trkpt lat="45.75094" lon="5.90193">
        <ele>802.83813476562</ele>
        <time>2012-03-17T11:50:23Z</time>
      </trkpt>
      <trkpt lat="45.75094" lon="5.90193">
        <ele>803.79956054688</ele>
        <time>2012-03-17T11:50:30Z</time>
      </trkpt>
      <trkpt lat="45.75096" lon="5.90191">
        <ele>801.39624023438</ele>
        <time>2012-03-17T11:50:35Z</time>
      </trkpt>
      <trkpt lat="45.75097" lon="5.90195">
        <ele>802.83813476562</ele>
        <time>2012-03-17T11:50:43Z</time>
      </trkpt>
      <trkpt lat="45.75095" lon="5.90199">
        <ele>804.7607421875</ele>
        <time>2012-03-17T11:50:48Z</time>
      </trkpt>
      <trkpt lat="45.75095" lon="5.90193">
        <ele>802.83813476562</ele>
        <time>2012-03-17T11:50:53Z</time>
      </trkpt>
      <trkpt lat="45.75096" lon="5.90191">
        <ele>799.95434570312</ele>
        <time>2012-03-17T11:51:01Z</time>
      </trkpt>
      <trkpt lat="45.75096" lon="5.90191">
        <ele>800.43505859375</ele>
        <time>2012-03-17T11:51:02Z</time>
      </trkpt>
      <trkpt lat="45.75104" lon="5.90162">
        <ele>797.55102539062</ele>
        <time>2012-03-17T14:24:51Z</time>
      </trkpt>
      <trkpt lat="45.75104" lon="5.90162">
        <ele>797.0703125</ele>
        <time>2012-03-17T14:24:52Z</time>
      </trkpt>
      <trkpt lat="45.75104" lon="5.90163">
        <ele>796.58984375</ele>
        <time>2012-03-17T14:24:53Z</time>
      </trkpt>
      <trkpt lat="45.75103" lon="5.90164">
        <ele>798.03173828125</ele>
        <time>2012-03-17T14:24:58Z</time>
      </trkpt>
      <trkpt lat="45.75103" lon="5.90163">
        <ele>797.0703125</ele>
        <time>2012-03-17T14:25:01Z</time>
      </trkpt>
      <trkpt lat="45.75105" lon="5.9016">
        <ele>798.99291992188</ele>
        <time>2012-03-17T14:25:10Z</time>
      </trkpt>
      <trkpt lat="45.75104" lon="5.90161">
        <ele>800.43505859375</ele>
        <time>2012-03-17T14:25:17Z</time>
      </trkpt>
      <trkpt lat="45.75104" lon="5.90166">
        <ele>803.31884765625</ele>
        <time>2012-03-17T14:25:32Z</time>
      </trkpt>
      <trkpt lat="45.75105" lon="5.90168">
        <ele>800.43505859375</ele>
        <time>2012-03-17T14:25:36Z</time>
      </trkpt>
      <trkpt lat="45.751" lon="5.90168">
        <ele>800.43505859375</ele>
        <time>2012-03-17T14:25:44Z</time>
      </trkpt>
      <trkpt lat="45.75098" lon="5.90169">
        <ele>802.357421875</ele>
        <time>2012-03-17T14:25:50Z</time>
      </trkpt>
      <trkpt lat="45.75098" lon="5.90176">
        <ele>803.31884765625</ele>
        <time>2012-03-17T14:26:00Z</time>
      </trkpt>
      <trkpt lat="45.75097" lon="5.90187">
        <ele>811.48999023438</ele>
        <time>2012-03-17T14:26:10Z</time>
      </trkpt>
      <trkpt lat="45.75098" lon="5.90191">
        <ele>808.12548828125</ele>
        <time>2012-03-17T14:26:16Z</time>
      </trkpt>
      <trkpt lat="45.75097" lon="5.90194">
        <ele>806.20263671875</ele>
        <time>2012-03-17T14:26:21Z</time>
      </trkpt>
      <trkpt lat="45.75097" lon="5.90194">
        <ele>804.7607421875</ele>
        <time>2012-03-17T14:26:31Z</time>
      </trkpt>
      <trkpt lat="45.75097" lon="5.90195">
        <ele>802.83813476562</ele>
        <time>2012-03-17T14:26:40Z</time>
      </trkpt>
      <trkpt lat="45.75097" lon="5.90195">
        <ele>803.79956054688</ele>
        <time>2012-03-17T14:26:45Z</time>
      </trkpt>
      <trkpt lat="45.75097" lon="5.90195">
        <ele>802.83813476562</ele>
        <time>2012-03-17T14:26:47Z</time>
      </trkpt>
      <trkpt lat="45.75099" lon="5.90194">
        <ele>800.43505859375</ele>
        <time>2012-03-17T14:27:03Z</time>
      </trkpt>
      <trkpt lat="45.751" lon="5.90191">
        <ele>798.03173828125</ele>
        <time>2012-03-17T14:27:05Z</time>
      </trkpt>
      <trkpt lat="45.75103" lon="5.90178">
        <ele>790.82153320312</ele>
        <time>2012-03-17T14:27:12Z</time>
      </trkpt>
      <trkpt lat="45.75102" lon="5.90174">
        <ele>790.34106445312</ele>
        <time>2012-03-17T14:27:14Z</time>
      </trkpt>
      <trkpt lat="45.75101" lon="5.90168">
        <ele>791.78295898438</ele>
        <time>2012-03-17T14:27:17Z</time>
      </trkpt>
      <trkpt lat="45.75102" lon="5.90162">
        <ele>796.58984375</ele>
        <time>2012-03-17T14:27:24Z</time>
      </trkpt>
      <trkpt lat="45.75101" lon="5.90161">
        <ele>799.95434570312</ele>
        <time>2012-03-17T14:27:29Z</time>
      </trkpt>
      <trkpt lat="45.75101" lon="5.90161">
        <ele>799.95434570312</ele>
        <time>2012-03-17T14:27:32Z</time>
      </trkpt>
      <trkpt lat="45.75104" lon="5.90162">
        <ele>798.51220703125</ele>
        <time>2012-03-17T14:27:35Z</time>
      </trkpt>
      <trkpt lat="45.75106" lon="5.90167">
        <ele>798.99291992188</ele>
        <time>2012-03-17T14:27:38Z</time>
      </trkpt>
      <trkpt lat="45.75119" lon="5.90173">
        <ele>794.18627929688</ele>
        <time>2012-03-17T14:27:45Z</time>
      </trkpt>
      <trkpt lat="45.75125" lon="5.90176">
        <ele>792.263671875</ele>
        <time>2012-03-17T14:27:48Z</time>
      </trkpt>
      <trkpt lat="45.75134" lon="5.90183">
        <ele>795.62817382812</ele>
        <time>2012-03-17T14:27:53Z</time>
      </trkpt>
      <trkpt lat="45.75136" lon="5.90183">
        <ele>796.10913085938</ele>
        <time>2012-03-17T14:27:54Z</time>
      </trkpt>
      <trkpt lat="45.75153" lon="5.90181">
        <ele>793.22485351562</ele>
        <time>2012-03-17T14:28:00Z</time>
      </trkpt>
      <trkpt lat="45.75158" lon="5.90178">
        <ele>792.263671875</ele>
        <time>2012-03-17T14:28:02Z</time>
      </trkpt>
      <trkpt lat="45.75167" lon="5.90167">
        <ele>786.97631835938</ele>
        <time>2012-03-17T14:28:08Z</time>
      </trkpt>
      <trkpt lat="45.75177" lon="5.90146">
        <ele>781.20874023438</ele>
        <time>2012-03-17T14:28:13Z</time>
      </trkpt>
      <trkpt lat="45.75191" lon="5.90121">
        <ele>776.40185546875</ele>
        <time>2012-03-17T14:28:18Z</time>
      </trkpt>
      <trkpt lat="45.752" lon="5.90105">
        <ele>774.47924804688</ele>
        <time>2012-03-17T14:28:23Z</time>
      </trkpt>
      <trkpt lat="45.75203" lon="5.90101">
        <ele>773.99853515625</ele>
        <time>2012-03-17T14:28:25Z</time>
      </trkpt>
      <trkpt lat="45.75211" lon="5.90092">
        <ele>776.88256835938</ele>
        <time>2012-03-17T14:28:29Z</time>
      </trkpt>
      <trkpt lat="45.75223" lon="5.90082">
        <ele>780.72802734375</ele>
        <time>2012-03-17T14:28:35Z</time>
      </trkpt>
      <trkpt lat="45.75229" lon="5.90075">
        <ele>799.4736328125</ele>
        <time>2012-03-17T14:28:47Z</time>
      </trkpt>
      <trkpt lat="45.75232" lon="5.90071">
        <ele>802.357421875</ele>
        <time>2012-03-17T14:28:52Z</time>
      </trkpt>
      <trkpt lat="45.75238" lon="5.90059">
        <ele>798.99291992188</ele>
        <time>2012-03-17T14:28:58Z</time>
      </trkpt>
      <trkpt lat="45.7525" lon="5.90044">
        <ele>797.0703125</ele>
        <time>2012-03-17T14:29:05Z</time>
      </trkpt>
      <trkpt lat="45.75254" lon="5.90041">
        <ele>795.62817382812</ele>
        <time>2012-03-17T14:29:07Z</time>
      </trkpt>
      <trkpt lat="45.75259" lon="5.90038">
        <ele>794.66674804688</ele>
        <time>2012-03-17T14:29:09Z</time>
      </trkpt>
      <trkpt lat="45.75261" lon="5.90045">
        <ele>786.97631835938</ele>
        <time>2012-03-17T14:29:14Z</time>
      </trkpt>
      <trkpt lat="45.75262" lon="5.90054">
        <ele>781.20874023438</ele>
        <time>2012-03-17T14:29:19Z</time>
      </trkpt>
      <trkpt lat="45.75264" lon="5.90068">
        <ele>779.76635742188</ele>
        <time>2012-03-17T14:29:24Z</time>
      </trkpt>
      <trkpt lat="45.75268" lon="5.90094">
        <ele>780.24731445312</ele>
        <time>2012-03-17T14:29:30Z</time>
      </trkpt>
      <trkpt lat="45.75277" lon="5.9012">
        <ele>778.80517578125</ele>
        <time>2012-03-17T14:29:36Z</time>
      </trkpt>
      <trkpt lat="45.75283" lon="5.90143">
        <ele>777.36328125</ele>
        <time>2012-03-17T14:29:40Z</time>
      </trkpt>
      <trkpt lat="45.75288" lon="5.90164">
        <ele>776.40185546875</ele>
        <time>2012-03-17T14:29:45Z</time>
      </trkpt>
      <trkpt lat="45.75291" lon="5.90179">
        <ele>774.9599609375</ele>
        <time>2012-03-17T14:29:50Z</time>
      </trkpt>
      <trkpt lat="45.75296" lon="5.90186">
        <ele>769.6728515625</ele>
        <time>2012-03-17T14:29:55Z</time>
      </trkpt>
      <trkpt lat="45.75303" lon="5.90193">
        <ele>764.8662109375</ele>
        <time>2012-03-17T14:29:58Z</time>
      </trkpt>
      <trkpt lat="45.75311" lon="5.90192">
        <ele>762.943359375</ele>
        <time>2012-03-17T14:30:03Z</time>
      </trkpt>
      <trkpt lat="45.75314" lon="5.90191">
        <ele>761.02075195312</ele>
        <time>2012-03-17T14:30:10Z</time>
      </trkpt>
      <trkpt lat="45.75315" lon="5.90191">
        <ele>760.5400390625</ele>
        <time>2012-03-17T14:30:16Z</time>
      </trkpt>
      <trkpt lat="45.75317" lon="5.90189">
        <ele>761.98217773438</ele>
        <time>2012-03-17T14:30:25Z</time>
      </trkpt>
      <trkpt lat="45.75316" lon="5.90189">
        <ele>766.30810546875</ele>
        <time>2012-03-17T14:30:37Z</time>
      </trkpt>
      <trkpt lat="45.7533" lon="5.90182">
        <ele>762.46264648438</ele>
        <time>2012-03-17T14:30:42Z</time>
      </trkpt>
      <trkpt lat="45.75343" lon="5.90177">
        <ele>760.05932617188</ele>
        <time>2012-03-17T14:30:44Z</time>
      </trkpt>
      <trkpt lat="45.75373" lon="5.90152">
        <ele>755.2529296875</ele>
        <time>2012-03-17T14:30:49Z</time>
      </trkpt>
      <trkpt lat="45.75407" lon="5.90119">
        <ele>754.29174804688</ele>
        <time>2012-03-17T14:30:54Z</time>
      </trkpt>
      <trkpt lat="45.7541" lon="5.90116">
        <ele>756.69482421875</ele>
        <time>2012-03-17T14:30:57Z</time>
      </trkpt>
      <trkpt lat="45.7541" lon="5.90116">
        <ele>757.17553710938</ele>
        <time>2012-03-17T14:30:58Z</time>
      </trkpt>
      <trkpt lat="45.75406" lon="5.90117">
        <ele>757.17553710938</ele>
        <time>2012-03-17T14:31:06Z</time>
      </trkpt>
      <trkpt lat="45.75406" lon="5.90115">
        <ele>758.61743164062</ele>
        <time>2012-03-17T14:31:21Z</time>
      </trkpt>
      <trkpt lat="45.75425" lon="5.90116">
        <ele>753.33032226562</ele>
        <time>2012-03-17T14:31:26Z</time>
      </trkpt>
      <trkpt lat="45.75444" lon="5.90117">
        <ele>750.92700195312</ele>
        <time>2012-03-17T14:31:29Z</time>
      </trkpt>
      <trkpt lat="45.75474" lon="5.90107">
        <ele>747.08154296875</ele>
        <time>2012-03-17T14:31:34Z</time>
      </trkpt>
      <trkpt lat="45.75478" lon="5.90105">
        <ele>746.60107421875</ele>
        <time>2012-03-17T14:31:35Z</time>
      </trkpt>
      <trkpt lat="45.75494" lon="5.90097">
        <ele>741.79443359375</ele>
        <time>2012-03-17T14:31:42Z</time>
      </trkpt>
      <trkpt lat="45.75519" lon="5.90081">
        <ele>736.02661132812</ele>
        <time>2012-03-17T14:31:49Z</time>
      </trkpt>
      <trkpt lat="45.75533" lon="5.90066">
        <ele>735.0654296875</ele>
        <time>2012-03-17T14:31:53Z</time>
      </trkpt>
      <trkpt lat="45.75548" lon="5.90044">
        <ele>735.0654296875</ele>
        <time>2012-03-17T14:31:57Z</time>
      </trkpt>
      <trkpt lat="45.75558" lon="5.9003">
        <ele>733.62329101562</ele>
        <time>2012-03-17T14:32:00Z</time>
      </trkpt>
      <trkpt lat="45.75572" lon="5.90015">
        <ele>734.10400390625</ele>
        <time>2012-03-17T14:32:05Z</time>
      </trkpt>
      <trkpt lat="45.75581" lon="5.90008">
        <ele>735.5458984375</ele>
        <time>2012-03-17T14:32:07Z</time>
      </trkpt>
      <trkpt lat="45.75596" lon="5.9">
        <ele>731.70043945312</ele>
        <time>2012-03-17T14:32:11Z</time>
      </trkpt>
      <trkpt lat="45.75609" lon="5.89997">
        <ele>729.29711914062</ele>
        <time>2012-03-17T14:32:14Z</time>
      </trkpt>
      <trkpt lat="45.75627" lon="5.89983">
        <ele>725.45190429688</ele>
        <time>2012-03-17T14:32:18Z</time>
      </trkpt>
      <trkpt lat="45.75635" lon="5.89972">
        <ele>724.49072265625</ele>
        <time>2012-03-17T14:32:19Z</time>
      </trkpt>
      <trkpt lat="45.75651" lon="5.89944">
        <ele>721.60668945312</ele>
        <time>2012-03-17T14:32:23Z</time>
      </trkpt>
      <trkpt lat="45.75665" lon="5.89935">
        <ele>720.16479492188</ele>
        <time>2012-03-17T14:32:26Z</time>
      </trkpt>
      <trkpt lat="45.75688" lon="5.899">
        <ele>719.68432617188</ele>
        <time>2012-03-17T14:32:31Z</time>
      </trkpt>
      <trkpt lat="45.75699" lon="5.89877">
        <ele>719.20361328125</ele>
        <time>2012-03-17T14:32:34Z</time>
      </trkpt>
      <trkpt lat="45.75706" lon="5.89869">
        <ele>724.01000976562</ele>
        <time>2012-03-17T14:32:38Z</time>
      </trkpt>
      <trkpt lat="45.75706" lon="5.89873">
        <ele>726.89404296875</ele>
        <time>2012-03-17T14:32:41Z</time>
      </trkpt>
      <trkpt lat="45.75719" lon="5.89859">
        <ele>721.60668945312</ele>
        <time>2012-03-17T14:32:49Z</time>
      </trkpt>
      <trkpt lat="45.75732" lon="5.89837">
        <ele>709.10961914062</ele>
        <time>2012-03-17T14:32:55Z</time>
      </trkpt>
      <trkpt lat="45.7574" lon="5.89818">
        <ele>699.97705078125</ele>
        <time>2012-03-17T14:32:59Z</time>
      </trkpt>
      <trkpt lat="45.75748" lon="5.89799">
        <ele>694.20922851562</ele>
        <time>2012-03-17T14:33:02Z</time>
      </trkpt>
      <trkpt lat="45.75768" lon="5.89785">
        <ele>689.88330078125</ele>
        <time>2012-03-17T14:33:06Z</time>
      </trkpt>
      <trkpt lat="45.75774" lon="5.89783">
        <ele>688.92211914062</ele>
        <time>2012-03-17T14:33:07Z</time>
      </trkpt>
      <trkpt lat="45.75801" lon="5.89772">
        <ele>689.40258789062</ele>
        <time>2012-03-17T14:33:11Z</time>
      </trkpt>
      <trkpt lat="45.7584" lon="5.89746">
        <ele>690.84448242188</ele>
        <time>2012-03-17T14:33:16Z</time>
      </trkpt>
      <trkpt lat="45.75856" lon="5.89736">
        <ele>690.84448242188</ele>
        <time>2012-03-17T14:33:18Z</time>
      </trkpt>
      <trkpt lat="45.75884" lon="5.89719">
        <ele>691.3251953125</ele>
        <time>2012-03-17T14:33:22Z</time>
      </trkpt>
      <trkpt lat="45.75892" lon="5.89712">
        <ele>691.80590820312</ele>
        <time>2012-03-17T14:33:24Z</time>
      </trkpt>
      <trkpt lat="45.75906" lon="5.89697">
        <ele>691.80590820312</ele>
        <time>2012-03-17T14:33:28Z</time>
      </trkpt>
      <trkpt lat="45.75917" lon="5.89678">
        <ele>692.28662109375</ele>
        <time>2012-03-17T14:33:31Z</time>
      </trkpt>
      <trkpt lat="45.7594" lon="5.89677">
        <ele>694.68969726562</ele>
        <time>2012-03-17T14:33:35Z</time>
      </trkpt>
      <trkpt lat="45.75955" lon="5.89685">
        <ele>692.76733398438</ele>
        <time>2012-03-17T14:33:39Z</time>
      </trkpt>
      <trkpt lat="45.75963" lon="5.89681">
        <ele>690.36401367188</ele>
        <time>2012-03-17T14:33:42Z</time>
      </trkpt>
      <trkpt lat="45.75975" lon="5.89664">
        <ele>688.44140625</ele>
        <time>2012-03-17T14:33:48Z</time>
      </trkpt>
      <trkpt lat="45.75986" lon="5.89647">
        <ele>688.92211914062</ele>
        <time>2012-03-17T14:33:53Z</time>
      </trkpt>
      <trkpt lat="45.75995" lon="5.89634">
        <ele>687.47998046875</ele>
        <time>2012-03-17T14:33:57Z</time>
      </trkpt>
      <trkpt lat="45.75998" lon="5.8963">
        <ele>687.96069335938</ele>
        <time>2012-03-17T14:33:59Z</time>
      </trkpt>
      <trkpt lat="45.76019" lon="5.89617">
        <ele>686.0380859375</ele>
        <time>2012-03-17T14:34:06Z</time>
      </trkpt>
      <trkpt lat="45.76039" lon="5.89607">
        <ele>685.55737304688</ele>
        <time>2012-03-17T14:34:11Z</time>
      </trkpt>
      <trkpt lat="45.76054" lon="5.89595">
        <ele>685.55737304688</ele>
        <time>2012-03-17T14:34:14Z</time>
      </trkpt>
      <trkpt lat="45.76067" lon="5.89582">
        <ele>684.11547851562</ele>
        <time>2012-03-17T14:34:18Z</time>
      </trkpt>
      <trkpt lat="45.76089" lon="5.89578">
        <ele>684.11547851562</ele>
        <time>2012-03-17T14:34:22Z</time>
      </trkpt>
      <trkpt lat="45.76122" lon="5.89572">
        <ele>683.15380859375</ele>
        <time>2012-03-17T14:34:27Z</time>
      </trkpt>
      <trkpt lat="45.76137" lon="5.89567">
        <ele>682.67333984375</ele>
        <time>2012-03-17T14:34:31Z</time>
      </trkpt>
      <trkpt lat="45.76155" lon="5.89554">
        <ele>681.2314453125</ele>
        <time>2012-03-17T14:34:36Z</time>
      </trkpt>
      <trkpt lat="45.76166" lon="5.89541">
        <ele>679.78930664062</ele>
        <time>2012-03-17T14:34:41Z</time>
      </trkpt>
      <trkpt lat="45.76171" lon="5.89535">
        <ele>679.78930664062</ele>
        <time>2012-03-17T14:34:43Z</time>
      </trkpt>
      <trkpt lat="45.76181" lon="5.89532">
        <ele>680.75073242188</ele>
        <time>2012-03-17T14:34:47Z</time>
      </trkpt>
      <trkpt lat="45.762" lon="5.89522">
        <ele>680.27001953125</ele>
        <time>2012-03-17T14:34:53Z</time>
      </trkpt>
      <trkpt lat="45.762" lon="5.89516">
        <ele>677.38623046875</ele>
        <time>2012-03-17T14:34:57Z</time>
      </trkpt>
      <trkpt lat="45.76201" lon="5.89511">
        <ele>674.98291015625</ele>
        <time>2012-03-17T14:35:00Z</time>
      </trkpt>
      <trkpt lat="45.76202" lon="5.89513">
        <ele>674.021484375</ele>
        <time>2012-03-17T14:35:05Z</time>
      </trkpt>
      <trkpt lat="45.76205" lon="5.89529">
        <ele>672.57958984375</ele>
        <time>2012-03-17T14:35:10Z</time>
      </trkpt>
      <trkpt lat="45.76212" lon="5.89539">
        <ele>668.734375</ele>
        <time>2012-03-17T14:35:15Z</time>
      </trkpt>
      <trkpt lat="45.76213" lon="5.89541">
        <ele>668.25366210938</ele>
        <time>2012-03-17T14:35:16Z</time>
      </trkpt>
      <trkpt lat="45.76216" lon="5.89555">
        <ele>664.408203125</ele>
        <time>2012-03-17T14:35:22Z</time>
      </trkpt>
      <trkpt lat="45.76223" lon="5.8956">
        <ele>661.5244140625</ele>
        <time>2012-03-17T14:35:27Z</time>
      </trkpt>
      <trkpt lat="45.76239" lon="5.89558">
        <ele>660.08227539062</ele>
        <time>2012-03-17T14:35:32Z</time>
      </trkpt>
      <trkpt lat="45.76251" lon="5.89558">
        <ele>660.08227539062</ele>
        <time>2012-03-17T14:35:35Z</time>
      </trkpt>
      <trkpt lat="45.76255" lon="5.8957">
        <ele>655.75659179688</ele>
        <time>2012-03-17T14:35:42Z</time>
      </trkpt>
      <trkpt lat="45.76259" lon="5.8959">
        <ele>651.9111328125</ele>
        <time>2012-03-17T14:35:47Z</time>
      </trkpt>
      <trkpt lat="45.76263" lon="5.89599">
        <ele>644.701171875</ele>
        <time>2012-03-17T14:35:51Z</time>
      </trkpt>
      <trkpt lat="45.76265" lon="5.89597">
        <ele>640.85595703125</ele>
        <time>2012-03-17T14:35:52Z</time>
      </trkpt>
      <trkpt lat="45.76272" lon="5.89584">
        <ele>639.4140625</ele>
        <time>2012-03-17T14:35:58Z</time>
      </trkpt>
      <trkpt lat="45.76278" lon="5.89579">
        <ele>640.85595703125</ele>
        <time>2012-03-17T14:36:07Z</time>
      </trkpt>
      <trkpt lat="45.76276" lon="5.89575">
        <ele>649.02709960938</ele>
        <time>2012-03-17T14:36:15Z</time>
      </trkpt>
      <trkpt lat="45.76281" lon="5.89579">
        <ele>654.79516601562</ele>
        <time>2012-03-17T14:36:19Z</time>
      </trkpt>
      <trkpt lat="45.76285" lon="5.89586">
        <ele>657.19848632812</ele>
        <time>2012-03-17T14:36:26Z</time>
      </trkpt>
      <trkpt lat="45.76286" lon="5.89586">
        <ele>652.87255859375</ele>
        <time>2012-03-17T14:36:31Z</time>
      </trkpt>
      <trkpt lat="45.76285" lon="5.89588">
        <ele>650.94970703125</ele>
        <time>2012-03-17T14:36:39Z</time>
      </trkpt>
      <trkpt lat="45.76284" lon="5.89589">
        <ele>651.43041992188</ele>
        <time>2012-03-17T14:36:46Z</time>
      </trkpt>
      <trkpt lat="45.76283" lon="5.8959">
        <ele>654.79516601562</ele>
        <time>2012-03-17T14:36:49Z</time>
      </trkpt>
      <trkpt lat="45.76283" lon="5.89591">
        <ele>655.27587890625</ele>
        <time>2012-03-17T14:36:50Z</time>
      </trkpt>
      <trkpt lat="45.7628" lon="5.89595">
        <ele>649.5078125</ele>
        <time>2012-03-17T14:37:06Z</time>
      </trkpt>
      <trkpt lat="45.76279" lon="5.89594">
        <ele>649.5078125</ele>
        <time>2012-03-17T14:37:10Z</time>
      </trkpt>
      <trkpt lat="45.7628" lon="5.89592">
        <ele>649.98852539062</ele>
        <time>2012-03-17T14:37:17Z</time>
      </trkpt>
      <trkpt lat="45.76276" lon="5.89595">
        <ele>660.56298828125</ele>
        <time>2012-03-17T14:37:33Z</time>
      </trkpt>
      <trkpt lat="45.76276" lon="5.89601">
        <ele>663.44702148438</ele>
        <time>2012-03-17T14:37:39Z</time>
      </trkpt>
      <trkpt lat="45.76279" lon="5.89601">
        <ele>654.79516601562</ele>
        <time>2012-03-17T14:37:49Z</time>
      </trkpt>
      <trkpt lat="45.76279" lon="5.89602">
        <ele>651.9111328125</ele>
        <time>2012-03-17T14:37:53Z</time>
      </trkpt>
      <trkpt lat="45.7628" lon="5.896">
        <ele>649.02709960938</ele>
        <time>2012-03-17T14:37:56Z</time>
      </trkpt>
      <trkpt lat="45.76281" lon="5.89599">
        <ele>645.66259765625</ele>
        <time>2012-03-17T14:38:06Z</time>
      </trkpt>
      <trkpt lat="45.76282" lon="5.89601">
        <ele>644.220703125</ele>
        <time>2012-03-17T14:38:25Z</time>
      </trkpt>
      <trkpt lat="45.76283" lon="5.89599">
        <ele>643.73999023438</ele>
        <time>2012-03-17T14:38:33Z</time>
      </trkpt>
      <trkpt lat="45.76282" lon="5.896">
        <ele>645.18188476562</ele>
        <time>2012-03-17T14:38:36Z</time>
      </trkpt>
      <trkpt lat="45.76275" lon="5.89601">
        <ele>663.92749023438</ele>
        <time>2012-03-17T14:38:55Z</time>
      </trkpt>
      <trkpt lat="45.76274" lon="5.89604">
        <ele>665.85034179688</ele>
        <time>2012-03-17T14:38:59Z</time>
      </trkpt>
      <trkpt lat="45.76272" lon="5.89616">
        <ele>673.541015625</ele>
        <time>2012-03-17T14:39:05Z</time>
      </trkpt>
      <trkpt lat="45.76276" lon="5.89614">
        <ele>673.541015625</ele>
        <time>2012-03-17T14:39:14Z</time>
      </trkpt>
      <trkpt lat="45.76281" lon="5.89607">
        <ele>662.48559570312</ele>
        <time>2012-03-17T14:39:28Z</time>
      </trkpt>
      <trkpt lat="45.76287" lon="5.89592">
        <ele>637.49145507812</ele>
        <time>2012-03-17T14:39:36Z</time>
      </trkpt>
      <trkpt lat="45.76289" lon="5.89584">
        <ele>623.07177734375</ele>
        <time>2012-03-17T14:39:41Z</time>
      </trkpt>
      <trkpt lat="45.76288" lon="5.89581">
        <ele>624.03295898438</ele>
        <time>2012-03-17T14:39:45Z</time>
      </trkpt>
      <trkpt lat="45.7629" lon="5.89579">
        <ele>622.59106445312</ele>
        <time>2012-03-17T14:39:47Z</time>
      </trkpt>
      <trkpt lat="45.76301" lon="5.8958">
        <ele>622.59106445312</ele>
        <time>2012-03-17T14:39:52Z</time>
      </trkpt>
      <trkpt lat="45.76315" lon="5.89579">
        <ele>626.43627929688</ele>
        <time>2012-03-17T14:39:57Z</time>
      </trkpt>
      <trkpt lat="45.76323" lon="5.89585">
        <ele>628.35888671875</ele>
        <time>2012-03-17T14:40:01Z</time>
      </trkpt>
      <trkpt lat="45.76324" lon="5.89588">
        <ele>628.35888671875</ele>
        <time>2012-03-17T14:40:02Z</time>
      </trkpt>
      <trkpt lat="45.76323" lon="5.896">
        <ele>631.72338867188</ele>
        <time>2012-03-17T14:40:09Z</time>
      </trkpt>
      <trkpt lat="45.76325" lon="5.89598">
        <ele>628.35888671875</ele>
        <time>2012-03-17T14:40:20Z</time>
      </trkpt>
      <trkpt lat="45.76324" lon="5.89606">
        <ele>624.513671875</ele>
        <time>2012-03-17T14:40:26Z</time>
      </trkpt>
      <trkpt lat="45.76326" lon="5.89629">
        <ele>628.35888671875</ele>
        <time>2012-03-17T14:40:31Z</time>
      </trkpt>
      <trkpt lat="45.76324" lon="5.89647">
        <ele>630.28149414062</ele>
        <time>2012-03-17T14:40:35Z</time>
      </trkpt>
      <trkpt lat="45.76325" lon="5.8965">
        <ele>629.80078125</ele>
        <time>2012-03-17T14:40:36Z</time>
      </trkpt>
      <trkpt lat="45.76333" lon="5.89658">
        <ele>626.43627929688</ele>
        <time>2012-03-17T14:40:40Z</time>
      </trkpt>
      <trkpt lat="45.76344" lon="5.89667">
        <ele>622.1103515625</ele>
        <time>2012-03-17T14:40:45Z</time>
      </trkpt>
      <trkpt lat="45.76357" lon="5.8967">
        <ele>616.82299804688</ele>
        <time>2012-03-17T14:40:50Z</time>
      </trkpt>
      <trkpt lat="45.76361" lon="5.8967">
        <ele>613.93896484375</ele>
        <time>2012-03-17T14:40:52Z</time>
      </trkpt>
      <trkpt lat="45.76368" lon="5.89671">
        <ele>610.57446289062</ele>
        <time>2012-03-17T14:40:56Z</time>
      </trkpt>
      <trkpt lat="45.76379" lon="5.89686">
        <ele>609.13256835938</ele>
        <time>2012-03-17T14:41:02Z</time>
      </trkpt>
      <trkpt lat="45.76387" lon="5.89698">
        <ele>601.44189453125</ele>
        <time>2012-03-17T14:41:08Z</time>
      </trkpt>
      <trkpt lat="45.76388" lon="5.89702">
        <ele>600.48071289062</ele>
        <time>2012-03-17T14:41:09Z</time>
      </trkpt>
      <trkpt lat="45.76381" lon="5.89728">
        <ele>601.44189453125</ele>
        <time>2012-03-17T14:41:15Z</time>
      </trkpt>
      <trkpt lat="45.76382" lon="5.89736">
        <ele>600.48071289062</ele>
        <time>2012-03-17T14:41:17Z</time>
      </trkpt>
      <trkpt lat="45.76386" lon="5.89766">
        <ele>599.03857421875</ele>
        <time>2012-03-17T14:41:23Z</time>
      </trkpt>
      <trkpt lat="45.76388" lon="5.89769">
        <ele>598.55786132812</ele>
        <time>2012-03-17T14:41:26Z</time>
      </trkpt>
      <trkpt lat="45.76388" lon="5.89774">
        <ele>600.96118164062</ele>
        <time>2012-03-17T14:41:37Z</time>
      </trkpt>
      <trkpt lat="45.76389" lon="5.89775">
        <ele>600</ele>
        <time>2012-03-17T14:41:38Z</time>
      </trkpt>
      <trkpt lat="45.76389" lon="5.89779">
        <ele>601.92260742188</ele>
        <time>2012-03-17T14:41:47Z</time>
      </trkpt>
      <trkpt lat="45.7639" lon="5.89799">
        <ele>600</ele>
        <time>2012-03-17T14:41:53Z</time>
      </trkpt>
      <trkpt lat="45.76392" lon="5.89815">
        <ele>597.5966796875</ele>
        <time>2012-03-17T14:41:57Z</time>
      </trkpt>
      <trkpt lat="45.76392" lon="5.89823">
        <ele>597.11596679688</ele>
        <time>2012-03-17T14:42:00Z</time>
      </trkpt>
      <trkpt lat="45.7639" lon="5.89828">
        <ele>598.55786132812</ele>
        <time>2012-03-17T14:42:02Z</time>
      </trkpt>
      <trkpt lat="45.76391" lon="5.89837">
        <ele>600</ele>
        <time>2012-03-17T14:42:05Z</time>
      </trkpt>
      <trkpt lat="45.76389" lon="5.89852">
        <ele>598.07739257812</ele>
        <time>2012-03-17T14:42:11Z</time>
      </trkpt>
      <trkpt lat="45.76385" lon="5.89855">
        <ele>597.11596679688</ele>
        <time>2012-03-17T14:42:15Z</time>
      </trkpt>
      <trkpt lat="45.76384" lon="5.89858">
        <ele>598.55786132812</ele>
        <time>2012-03-17T14:42:23Z</time>
      </trkpt>
      <trkpt lat="45.76382" lon="5.89862">
        <ele>597.11596679688</ele>
        <time>2012-03-17T14:42:27Z</time>
      </trkpt>
      <trkpt lat="45.76383" lon="5.89871">
        <ele>597.5966796875</ele>
        <time>2012-03-17T14:42:32Z</time>
      </trkpt>
      <trkpt lat="45.76384" lon="5.89874">
        <ele>594.71264648438</ele>
        <time>2012-03-17T14:42:37Z</time>
      </trkpt>
      <trkpt lat="45.76384" lon="5.89883">
        <ele>591.82885742188</ele>
        <time>2012-03-17T14:42:55Z</time>
      </trkpt>
      <trkpt lat="45.76391" lon="5.89891">
        <ele>588.94506835938</ele>
        <time>2012-03-17T14:42:59Z</time>
      </trkpt>
      <trkpt lat="45.76403" lon="5.89895">
        <ele>583.65747070312</ele>
        <time>2012-03-17T14:43:04Z</time>
      </trkpt>
      <trkpt lat="45.76406" lon="5.89898">
        <ele>581.73486328125</ele>
        <time>2012-03-17T14:43:06Z</time>
      </trkpt>
      <trkpt lat="45.76412" lon="5.89906">
        <ele>575.96704101562</ele>
        <time>2012-03-17T14:43:10Z</time>
      </trkpt>
      <trkpt lat="45.76419" lon="5.8991">
        <ele>573.08325195312</ele>
        <time>2012-03-17T14:43:15Z</time>
      </trkpt>
      <trkpt lat="45.76419" lon="5.89908">
        <ele>575.486328125</ele>
        <time>2012-03-17T14:43:23Z</time>
      </trkpt>
      <trkpt lat="45.76423" lon="5.89906">
        <ele>575.486328125</ele>
        <time>2012-03-17T14:43:30Z</time>
      </trkpt>
      <trkpt lat="45.76425" lon="5.89906">
        <ele>575.005859375</ele>
        <time>2012-03-17T14:43:32Z</time>
      </trkpt>
      <trkpt lat="45.76438" lon="5.899">
        <ele>569.71850585938</ele>
        <time>2012-03-17T14:43:38Z</time>
      </trkpt>
      <trkpt lat="45.76453" lon="5.89893">
        <ele>565.87329101562</ele>
        <time>2012-03-17T14:43:42Z</time>
      </trkpt>
      <trkpt lat="45.76464" lon="5.89886">
        <ele>562.02807617188</ele>
        <time>2012-03-17T14:43:46Z</time>
      </trkpt>
      <trkpt lat="45.76476" lon="5.8987">
        <ele>554.81787109375</ele>
        <time>2012-03-17T14:43:52Z</time>
      </trkpt>
      <trkpt lat="45.76485" lon="5.89861">
        <ele>551.45336914062</ele>
        <time>2012-03-17T14:43:55Z</time>
      </trkpt>
      <trkpt lat="45.76508" lon="5.89843">
        <ele>545.20483398438</ele>
        <time>2012-03-17T14:44:00Z</time>
      </trkpt>
      <trkpt lat="45.76547" lon="5.89819">
        <ele>542.80151367188</ele>
        <time>2012-03-17T14:44:05Z</time>
      </trkpt>
      <trkpt lat="45.76567" lon="5.89803">
        <ele>540.87890625</ele>
        <time>2012-03-17T14:44:10Z</time>
      </trkpt>
      <trkpt lat="45.7658" lon="5.89795">
        <ele>541.84020996094</ele>
        <time>2012-03-17T14:44:13Z</time>
      </trkpt>
      <trkpt lat="45.76587" lon="5.89788">
        <ele>541.35949707031</ele>
        <time>2012-03-17T14:44:16Z</time>
      </trkpt>
      <trkpt lat="45.76596" lon="5.89774">
        <ele>538.95629882812</ele>
        <time>2012-03-17T14:44:20Z</time>
      </trkpt>
      <trkpt lat="45.76614" lon="5.89751">
        <ele>537.99499511719</ele>
        <time>2012-03-17T14:44:26Z</time>
      </trkpt>
      <trkpt lat="45.76631" lon="5.89731">
        <ele>537.03369140625</ele>
        <time>2012-03-17T14:44:31Z</time>
      </trkpt>
      <trkpt lat="45.76649" lon="5.8972">
        <ele>536.55310058594</ele>
        <time>2012-03-17T14:44:36Z</time>
      </trkpt>
      <trkpt lat="45.76652" lon="5.8972">
        <ele>537.51428222656</ele>
        <time>2012-03-17T14:44:37Z</time>
      </trkpt>
      <trkpt lat="45.7667" lon="5.89719">
        <ele>536.07238769531</ele>
        <time>2012-03-17T14:44:43Z</time>
      </trkpt>
      <trkpt lat="45.76696" lon="5.8972">
        <ele>534.63037109375</ele>
        <time>2012-03-17T14:44:48Z</time>
      </trkpt>
      <trkpt lat="45.76702" lon="5.89724">
        <ele>533.6689453125</ele>
        <time>2012-03-17T14:44:49Z</time>
      </trkpt>
      <trkpt lat="45.76701" lon="5.89745">
        <ele>533.6689453125</ele>
        <time>2012-03-17T14:44:52Z</time>
      </trkpt>
      <trkpt lat="45.767" lon="5.89749">
        <ele>531.74633789062</ele>
        <time>2012-03-17T14:44:53Z</time>
      </trkpt>
      <trkpt lat="45.76698" lon="5.89752">
        <ele>530.78515625</ele>
        <time>2012-03-17T14:44:56Z</time>
      </trkpt>
      <trkpt lat="45.76702" lon="5.89763">
        <ele>530.30444335938</ele>
        <time>2012-03-17T14:45:02Z</time>
      </trkpt>
      <trkpt lat="45.76713" lon="5.89783">
        <ele>526.45910644531</ele>
        <time>2012-03-17T14:45:07Z</time>
      </trkpt>
      <trkpt lat="45.76715" lon="5.89799">
        <ele>522.61389160156</ele>
        <time>2012-03-17T14:45:11Z</time>
      </trkpt>
      <trkpt lat="45.76715" lon="5.89807">
        <ele>522.13317871094</ele>
        <time>2012-03-17T14:45:13Z</time>
      </trkpt>
      <trkpt lat="45.7671" lon="5.89832">
        <ele>520.21057128906</ele>
        <time>2012-03-17T14:45:18Z</time>
      </trkpt>
      <trkpt lat="45.76708" lon="5.8986">
        <ele>518.28784179688</ele>
        <time>2012-03-17T14:45:22Z</time>
      </trkpt>
      <trkpt lat="45.76707" lon="5.89873">
        <ele>517.80725097656</ele>
        <time>2012-03-17T14:45:24Z</time>
      </trkpt>
      <trkpt lat="45.76706" lon="5.89891">
        <ele>514.92333984375</ele>
        <time>2012-03-17T14:45:28Z</time>
      </trkpt>
      <trkpt lat="45.76702" lon="5.89917">
        <ele>510.59729003906</ele>
        <time>2012-03-17T14:45:33Z</time>
      </trkpt>
      <trkpt lat="45.76699" lon="5.89945">
        <ele>507.71350097656</ele>
        <time>2012-03-17T14:45:38Z</time>
      </trkpt>
      <trkpt lat="45.76694" lon="5.8996">
        <ele>502.42614746094</ele>
        <time>2012-03-17T14:45:42Z</time>
      </trkpt>
      <trkpt lat="45.76691" lon="5.89984">
        <ele>498.10034179688</ele>
        <time>2012-03-17T14:45:48Z</time>
      </trkpt>
      <trkpt lat="45.76688" lon="5.89996">
        <ele>495.21618652344</ele>
        <time>2012-03-17T14:45:51Z</time>
      </trkpt>
      <trkpt lat="45.76688" lon="5.90011">
        <ele>490.89038085938</ele>
        <time>2012-03-17T14:45:55Z</time>
      </trkpt>
      <trkpt lat="45.76688" lon="5.90035">
        <ele>486.564453125</ele>
        <time>2012-03-17T14:46:00Z</time>
      </trkpt>
      <trkpt lat="45.76689" lon="5.90051">
        <ele>484.64184570312</ele>
        <time>2012-03-17T14:46:03Z</time>
      </trkpt>
      <trkpt lat="45.76697" lon="5.90077">
        <ele>477.43188476562</ele>
        <time>2012-03-17T14:46:08Z</time>
      </trkpt>
      <trkpt lat="45.76696" lon="5.9008">
        <ele>476.95129394531</ele>
        <time>2012-03-17T14:46:09Z</time>
      </trkpt>
      <trkpt lat="45.76692" lon="5.90083">
        <ele>484.64184570312</ele>
        <time>2012-03-17T14:46:16Z</time>
      </trkpt>
      <trkpt lat="45.76693" lon="5.90081">
        <ele>483.19982910156</ele>
        <time>2012-03-17T14:46:22Z</time>
      </trkpt>
      <trkpt lat="45.76699" lon="5.90084">
        <ele>481.7578125</ele>
        <time>2012-03-17T14:46:49Z</time>
      </trkpt>
      <trkpt lat="45.76698" lon="5.90084">
        <ele>478.39318847656</ele>
        <time>2012-03-17T14:46:56Z</time>
      </trkpt>
      <trkpt lat="45.76697" lon="5.90086">
        <ele>479.3544921875</ele>
        <time>2012-03-17T14:46:59Z</time>
      </trkpt>
      <trkpt lat="45.76697" lon="5.90088">
        <ele>482.23852539062</ele>
        <time>2012-03-17T14:47:02Z</time>
      </trkpt>
      <trkpt lat="45.76696" lon="5.90088">
        <ele>482.71923828125</ele>
        <time>2012-03-17T14:47:03Z</time>
      </trkpt>
      <trkpt lat="45.76693" lon="5.90088">
        <ele>478.87390136719</ele>
        <time>2012-03-17T14:47:11Z</time>
      </trkpt>
      <trkpt lat="45.7669" lon="5.90091">
        <ele>486.564453125</ele>
        <time>2012-03-17T14:47:31Z</time>
      </trkpt>
      <trkpt lat="45.76694" lon="5.90092">
        <ele>491.37097167969</ele>
        <time>2012-03-17T14:47:41Z</time>
      </trkpt>
      <trkpt lat="45.76695" lon="5.9009">
        <ele>490.40979003906</ele>
        <time>2012-03-17T14:47:45Z</time>
      </trkpt>
      <trkpt lat="45.76695" lon="5.9009">
        <ele>490.89038085938</ele>
        <time>2012-03-17T14:47:46Z</time>
      </trkpt>
      <trkpt lat="45.76694" lon="5.90091">
        <ele>492.33239746094</ele>
        <time>2012-03-17T14:47:55Z</time>
      </trkpt>
      <trkpt lat="45.76696" lon="5.90089">
        <ele>488.00646972656</ele>
        <time>2012-03-17T14:48:00Z</time>
      </trkpt>
      <trkpt lat="45.767" lon="5.90094">
        <ele>488.00646972656</ele>
        <time>2012-03-17T14:48:08Z</time>
      </trkpt>
      <trkpt lat="45.76701" lon="5.90091">
        <ele>479.83508300781</ele>
        <time>2012-03-17T14:48:14Z</time>
      </trkpt>
      <trkpt lat="45.76702" lon="5.90083">
        <ele>468.29931640625</ele>
        <time>2012-03-17T14:48:21Z</time>
      </trkpt>
      <trkpt lat="45.76702" lon="5.90083">
        <ele>464.93481445312</ele>
        <time>2012-03-17T14:48:24Z</time>
      </trkpt>
      <trkpt lat="45.76699" lon="5.90084">
        <ele>469.2607421875</ele>
        <time>2012-03-17T14:48:30Z</time>
      </trkpt>
      <trkpt lat="45.76693" lon="5.90088">
        <ele>486.564453125</ele>
        <time>2012-03-17T14:48:45Z</time>
      </trkpt>
      <trkpt lat="45.7669" lon="5.90085">
        <ele>494.73559570312</ele>
        <time>2012-03-17T14:49:06Z</time>
      </trkpt>
      <trkpt lat="45.76693" lon="5.90083">
        <ele>493.29357910156</ele>
        <time>2012-03-17T14:49:13Z</time>
      </trkpt>
      <trkpt lat="45.76694" lon="5.90083">
        <ele>494.25500488281</ele>
        <time>2012-03-17T14:49:16Z</time>
      </trkpt>
      <trkpt lat="45.76697" lon="5.90083">
        <ele>486.564453125</ele>
        <time>2012-03-17T14:49:37Z</time>
      </trkpt>
      <trkpt lat="45.76697" lon="5.90084">
        <ele>479.83508300781</ele>
        <time>2012-03-17T14:49:46Z</time>
      </trkpt>
      <trkpt lat="45.76694" lon="5.90085">
        <ele>479.83508300781</ele>
        <time>2012-03-17T14:49:48Z</time>
      </trkpt>
      <trkpt lat="45.76682" lon="5.90095">
        <ele>476.95129394531</ele>
        <time>2012-03-17T14:49:55Z</time>
      </trkpt>
      <trkpt lat="45.76677" lon="5.90106">
        <ele>477.43188476562</ele>
        <time>2012-03-17T14:49:59Z</time>
      </trkpt>
      <trkpt lat="45.76674" lon="5.9012">
        <ele>475.02868652344</ele>
        <time>2012-03-17T14:50:03Z</time>
      </trkpt>
      <trkpt lat="45.76676" lon="5.90124">
        <ele>473.58666992188</ele>
        <time>2012-03-17T14:50:04Z</time>
      </trkpt>
      <trkpt lat="45.76684" lon="5.90145">
        <ele>468.78002929688</ele>
        <time>2012-03-17T14:50:11Z</time>
      </trkpt>
      <trkpt lat="45.76686" lon="5.90144">
        <ele>466.857421875</ele>
        <time>2012-03-17T14:50:15Z</time>
      </trkpt>
      <trkpt lat="45.76689" lon="5.9015">
        <ele>463.01208496094</ele>
        <time>2012-03-17T14:50:35Z</time>
      </trkpt>
      <trkpt lat="45.76694" lon="5.90166">
        <ele>461.08947753906</ele>
        <time>2012-03-17T14:50:40Z</time>
      </trkpt>
      <trkpt lat="45.76701" lon="5.90178">
        <ele>459.16687011719</ele>
        <time>2012-03-17T14:50:44Z</time>
      </trkpt>
      <trkpt lat="45.76718" lon="5.90187">
        <ele>457.72497558594</ele>
        <time>2012-03-17T14:50:49Z</time>
      </trkpt>
      <trkpt lat="45.76736" lon="5.90194">
        <ele>454.8408203125</ele>
        <time>2012-03-17T14:50:54Z</time>
      </trkpt>
      <trkpt lat="45.7676" lon="5.90201">
        <ele>452.91821289062</ele>
        <time>2012-03-17T14:51:01Z</time>
      </trkpt>
      <trkpt lat="45.76768" lon="5.90203">
        <ele>453.39892578125</ele>
        <time>2012-03-17T14:51:05Z</time>
      </trkpt>
      <trkpt lat="45.76768" lon="5.90203">
        <ele>452.91821289062</ele>
        <time>2012-03-17T14:51:11Z</time>
      </trkpt>
      <trkpt lat="45.76769" lon="5.90201">
        <ele>450.51501464844</ele>
        <time>2012-03-17T14:51:27Z</time>
      </trkpt>
      <trkpt lat="45.76768" lon="5.90201">
        <ele>449.5537109375</ele>
        <time>2012-03-17T14:51:33Z</time>
      </trkpt>
      <trkpt lat="45.76768" lon="5.90202">
        <ele>451.95703125</ele>
        <time>2012-03-17T14:51:41Z</time>
      </trkpt>
      <trkpt lat="45.76768" lon="5.90201">
        <ele>453.39892578125</ele>
        <time>2012-03-17T14:51:44Z</time>
      </trkpt>
      <trkpt lat="45.76769" lon="5.90201">
        <ele>453.87963867188</ele>
        <time>2012-03-17T14:51:48Z</time>
      </trkpt>
      <trkpt lat="45.76769" lon="5.90201">
        <ele>453.87963867188</ele>
        <time>2012-03-17T14:51:49Z</time>
      </trkpt>
      <trkpt lat="45.7677" lon="5.90199">
        <ele>454.36022949219</ele>
        <time>2012-03-17T14:51:50Z</time>
      </trkpt>
      <trkpt lat="45.76784" lon="5.90191">
        <ele>453.39892578125</ele>
        <time>2012-03-17T14:51:55Z</time>
      </trkpt>
      <trkpt lat="45.76788" lon="5.90189">
        <ele>453.39892578125</ele>
        <time>2012-03-17T14:51:56Z</time>
      </trkpt>
      <trkpt lat="45.76795" lon="5.90182">
        <ele>453.87963867188</ele>
        <time>2012-03-17T14:52:00Z</time>
      </trkpt>
      <trkpt lat="45.76796" lon="5.90179">
        <ele>455.80224609375</ele>
        <time>2012-03-17T14:52:31Z</time>
      </trkpt>
      <trkpt lat="45.76797" lon="5.90181">
        <ele>455.80224609375</ele>
        <time>2012-03-17T14:52:33Z</time>
      </trkpt>
      <trkpt lat="45.76807" lon="5.90194">
        <ele>454.36022949219</ele>
        <time>2012-03-17T14:52:38Z</time>
      </trkpt>
      <trkpt lat="45.76821" lon="5.90216">
        <ele>452.43762207031</ele>
        <time>2012-03-17T14:52:43Z</time>
      </trkpt>
      <trkpt lat="45.76842" lon="5.90253">
        <ele>450.03442382812</ele>
        <time>2012-03-17T14:52:49Z</time>
      </trkpt>
      <trkpt lat="45.76858" lon="5.90281">
        <ele>448.59240722656</ele>
        <time>2012-03-17T14:52:53Z</time>
      </trkpt>
      <trkpt lat="45.76868" lon="5.90296">
        <ele>447.15026855469</ele>
        <time>2012-03-17T14:52:55Z</time>
      </trkpt>
      <trkpt lat="45.76889" lon="5.90327">
        <ele>446.18908691406</ele>
        <time>2012-03-17T14:52:59Z</time>
      </trkpt>
      <trkpt lat="45.76936" lon="5.90399">
        <ele>442.34387207031</ele>
        <time>2012-03-17T14:53:08Z</time>
      </trkpt>
      <trkpt lat="45.7696" lon="5.90437">
        <ele>442.82446289062</ele>
        <time>2012-03-17T14:53:13Z</time>
      </trkpt>
      <trkpt lat="45.7697" lon="5.90462">
        <ele>442.34387207031</ele>
        <time>2012-03-17T14:53:17Z</time>
      </trkpt>
      <trkpt lat="45.76975" lon="5.90478">
        <ele>441.86315917969</ele>
        <time>2012-03-17T14:53:20Z</time>
      </trkpt>
      <trkpt lat="45.76984" lon="5.90505">
        <ele>439.9404296875</ele>
        <time>2012-03-17T14:53:25Z</time>
      </trkpt>
      <trkpt lat="45.77006" lon="5.90553">
        <ele>436.57592773438</ele>
        <time>2012-03-17T14:53:32Z</time>
      </trkpt>
      <trkpt lat="45.77027" lon="5.90595">
        <ele>435.61450195312</ele>
        <time>2012-03-17T14:53:38Z</time>
      </trkpt>
      <trkpt lat="45.77029" lon="5.90601">
        <ele>435.61450195312</ele>
        <time>2012-03-17T14:53:39Z</time>
      </trkpt>
      <trkpt lat="45.77033" lon="5.9062">
        <ele>435.61450195312</ele>
        <time>2012-03-17T14:53:42Z</time>
      </trkpt>
      <trkpt lat="45.77032" lon="5.9064">
        <ele>436.09521484375</ele>
        <time>2012-03-17T14:53:46Z</time>
      </trkpt>
      <trkpt lat="45.77033" lon="5.90654">
        <ele>437.05651855469</ele>
        <time>2012-03-17T14:53:51Z</time>
      </trkpt>
      <trkpt lat="45.77033" lon="5.9065">
        <ele>437.537109375</ele>
        <time>2012-03-17T14:53:54Z</time>
      </trkpt>
      <trkpt lat="45.77027" lon="5.90656">
        <ele>438.01782226562</ele>
        <time>2012-03-17T14:53:57Z</time>
      </trkpt>
      <trkpt lat="45.77025" lon="5.90659">
        <ele>438.01782226562</ele>
        <time>2012-03-17T14:53:58Z</time>
      </trkpt>
      <trkpt lat="45.7701" lon="5.9068">
        <ele>437.05651855469</ele>
        <time>2012-03-17T14:54:05Z</time>
      </trkpt>
      <trkpt lat="45.76994" lon="5.90705">
        <ele>437.537109375</ele>
        <time>2012-03-17T14:54:13Z</time>
      </trkpt>
      <trkpt lat="45.76988" lon="5.90719">
        <ele>438.97912597656</ele>
        <time>2012-03-17T14:54:17Z</time>
      </trkpt>
      <trkpt lat="45.76976" lon="5.90745">
        <ele>440.42126464844</ele>
        <time>2012-03-17T14:54:25Z</time>
      </trkpt>
      <trkpt lat="45.76971" lon="5.90761">
        <ele>439.45971679688</ele>
        <time>2012-03-17T14:54:30Z</time>
      </trkpt>
      <trkpt lat="45.76968" lon="5.90778">
        <ele>438.01782226562</ele>
        <time>2012-03-17T14:54:36Z</time>
      </trkpt>
      <trkpt lat="45.76962" lon="5.90797">
        <ele>437.537109375</ele>
        <time>2012-03-17T14:54:42Z</time>
      </trkpt>
      <trkpt lat="45.76954" lon="5.90823">
        <ele>437.537109375</ele>
        <time>2012-03-17T14:54:47Z</time>
      </trkpt>
      <trkpt lat="45.76943" lon="5.90863">
        <ele>436.09521484375</ele>
        <time>2012-03-17T14:54:52Z</time>
      </trkpt>
      <trkpt lat="45.76932" lon="5.90918">
        <ele>434.17260742188</ele>
        <time>2012-03-17T14:54:57Z</time>
      </trkpt>
      <trkpt lat="45.7693" lon="5.90932">
        <ele>433.69189453125</ele>
        <time>2012-03-17T14:54:58Z</time>
      </trkpt>
      <trkpt lat="45.76931" lon="5.90974">
        <ele>429.84655761719</ele>
        <time>2012-03-17T14:55:01Z</time>
      </trkpt>
      <trkpt lat="45.76933" lon="5.90988">
        <ele>428.88537597656</ele>
        <time>2012-03-17T14:55:02Z</time>
      </trkpt>
      <trkpt lat="45.76939" lon="5.91038">
        <ele>425.04016113281</ele>
        <time>2012-03-17T14:55:06Z</time>
      </trkpt>
      <trkpt lat="45.76941" lon="5.91053">
        <ele>423.59802246094</ele>
        <time>2012-03-17T14:55:09Z</time>
      </trkpt>
      <trkpt lat="45.76941" lon="5.91056">
        <ele>423.11743164062</ele>
        <time>2012-03-17T14:55:10Z</time>
      </trkpt>
      <trkpt lat="45.76942" lon="5.91061">
        <ele>422.15600585938</ele>
        <time>2012-03-17T14:55:14Z</time>
      </trkpt>
      <trkpt lat="45.76943" lon="5.91061">
        <ele>421.19482421875</ele>
        <time>2012-03-17T14:55:28Z</time>
      </trkpt>
      <trkpt lat="45.76941" lon="5.91076">
        <ele>421.67541503906</ele>
        <time>2012-03-17T14:55:32Z</time>
      </trkpt>
      <trkpt lat="45.7694" lon="5.91096">
        <ele>422.15600585938</ele>
        <time>2012-03-17T14:55:36Z</time>
      </trkpt>
      <trkpt lat="45.76944" lon="5.91127">
        <ele>422.63671875</ele>
        <time>2012-03-17T14:55:42Z</time>
      </trkpt>
      <trkpt lat="45.7695" lon="5.91158">
        <ele>423.59802246094</ele>
        <time>2012-03-17T14:55:49Z</time>
      </trkpt>
      <trkpt lat="45.76954" lon="5.91183">
        <ele>424.07873535156</ele>
        <time>2012-03-17T14:55:55Z</time>
      </trkpt>
      <trkpt lat="45.76963" lon="5.91201">
        <ele>424.55944824219</ele>
        <time>2012-03-17T14:56:00Z</time>
      </trkpt>
      <trkpt lat="45.76973" lon="5.91212">
        <ele>425.04016113281</ele>
        <time>2012-03-17T14:56:05Z</time>
      </trkpt>
      <trkpt lat="45.76987" lon="5.91222">
        <ele>425.52075195312</ele>
        <time>2012-03-17T14:56:12Z</time>
      </trkpt>
      <trkpt lat="45.77001" lon="5.91232">
        <ele>425.52075195312</ele>
        <time>2012-03-17T14:56:19Z</time>
      </trkpt>
      <trkpt lat="45.77018" lon="5.91242">
        <ele>425.52075195312</ele>
        <time>2012-03-17T14:56:27Z</time>
      </trkpt>
      <trkpt lat="45.77028" lon="5.91252">
        <ele>428.40466308594</ele>
        <time>2012-03-17T14:56:33Z</time>
      </trkpt>
      <trkpt lat="45.77036" lon="5.9126">
        <ele>432.73071289062</ele>
        <time>2012-03-17T14:56:38Z</time>
      </trkpt>
      <trkpt lat="45.77047" lon="5.91276">
        <ele>433.69189453125</ele>
        <time>2012-03-17T14:56:45Z</time>
      </trkpt>
      <trkpt lat="45.77057" lon="5.91297">
        <ele>431.28857421875</ele>
        <time>2012-03-17T14:56:53Z</time>
      </trkpt>
      <trkpt lat="45.77058" lon="5.91298">
        <ele>434.6533203125</ele>
        <time>2012-03-17T14:57:00Z</time>
      </trkpt>
      <trkpt lat="45.77058" lon="5.91299">
        <ele>438.01782226562</ele>
        <time>2012-03-17T14:57:07Z</time>
      </trkpt>
      <trkpt lat="45.77061" lon="5.91307">
        <ele>439.9404296875</ele>
        <time>2012-03-17T14:57:14Z</time>
      </trkpt>
      <trkpt lat="45.77064" lon="5.91323">
        <ele>441.38244628906</ele>
        <time>2012-03-17T14:57:20Z</time>
      </trkpt>
      <trkpt lat="45.77067" lon="5.91345">
        <ele>441.86315917969</ele>
        <time>2012-03-17T14:57:27Z</time>
      </trkpt>
      <trkpt lat="45.77065" lon="5.91365">
        <ele>442.34387207031</ele>
        <time>2012-03-17T14:57:33Z</time>
      </trkpt>
      <trkpt lat="45.7706" lon="5.91377">
        <ele>442.82446289062</ele>
        <time>2012-03-17T14:57:37Z</time>
      </trkpt>
      <trkpt lat="45.77054" lon="5.91388">
        <ele>444.26647949219</ele>
        <time>2012-03-17T14:57:42Z</time>
      </trkpt>
      <trkpt lat="45.77046" lon="5.91403">
        <ele>444.7470703125</ele>
        <time>2012-03-17T14:57:49Z</time>
      </trkpt>
      <trkpt lat="45.77038" lon="5.91419">
        <ele>446.66967773438</ele>
        <time>2012-03-17T14:57:55Z</time>
      </trkpt>
      <trkpt lat="45.77031" lon="5.91437">
        <ele>447.63098144531</ele>
        <time>2012-03-17T14:58:02Z</time>
      </trkpt>
      <trkpt lat="45.77025" lon="5.91459">
        <ele>449.5537109375</ele>
        <time>2012-03-17T14:58:10Z</time>
      </trkpt>
      <trkpt lat="45.77016" lon="5.91475">
        <ele>451.47631835938</ele>
        <time>2012-03-17T14:58:15Z</time>
      </trkpt>
      <trkpt lat="45.77005" lon="5.91494">
        <ele>452.43762207031</ele>
        <time>2012-03-17T14:58:19Z</time>
      </trkpt>
      <trkpt lat="45.76993" lon="5.91514">
        <ele>454.8408203125</ele>
        <time>2012-03-17T14:58:24Z</time>
      </trkpt>
      <trkpt lat="45.76982" lon="5.91531">
        <ele>456.28295898438</ele>
        <time>2012-03-17T14:58:30Z</time>
      </trkpt>
      <trkpt lat="45.76973" lon="5.91552">
        <ele>456.76354980469</ele>
        <time>2012-03-17T14:58:37Z</time>
      </trkpt>
      <trkpt lat="45.76964" lon="5.9158">
        <ele>457.24426269531</ele>
        <time>2012-03-17T14:58:46Z</time>
      </trkpt>
      <trkpt lat="45.76956" lon="5.91604">
        <ele>458.68615722656</ele>
        <time>2012-03-17T14:58:54Z</time>
      </trkpt>
      <trkpt lat="45.76947" lon="5.91631">
        <ele>459.16687011719</ele>
        <time>2012-03-17T14:59:02Z</time>
      </trkpt>
      <trkpt lat="45.76936" lon="5.91664">
        <ele>460.60876464844</ele>
        <time>2012-03-17T14:59:11Z</time>
      </trkpt>
      <trkpt lat="45.76935" lon="5.9167">
        <ele>460.60876464844</ele>
        <time>2012-03-17T14:59:13Z</time>
      </trkpt>
      <trkpt lat="45.76934" lon="5.91671">
        <ele>462.05078125</ele>
        <time>2012-03-17T14:59:19Z</time>
      </trkpt>
      <trkpt lat="45.76934" lon="5.9167">
        <ele>465.41552734375</ele>
        <time>2012-03-17T14:59:27Z</time>
      </trkpt>
      <trkpt lat="45.76934" lon="5.9167">
        <ele>469.2607421875</ele>
        <time>2012-03-17T14:59:41Z</time>
      </trkpt>
      <trkpt lat="45.76934" lon="5.91669">
        <ele>470.70263671875</ele>
        <time>2012-03-17T14:59:48Z</time>
      </trkpt>
      <trkpt lat="45.76932" lon="5.91667">
        <ele>474.06726074219</ele>
        <time>2012-03-17T15:00:08Z</time>
      </trkpt>
      <trkpt lat="45.76928" lon="5.91661">
        <ele>475.02868652344</ele>
        <time>2012-03-17T15:00:31Z</time>
      </trkpt>
      <trkpt lat="45.76929" lon="5.9166">
        <ele>477.91247558594</ele>
        <time>2012-03-17T15:00:45Z</time>
      </trkpt>
      <trkpt lat="45.76929" lon="5.91659">
        <ele>478.39318847656</ele>
        <time>2012-03-17T15:00:49Z</time>
      </trkpt>
      <trkpt lat="45.76929" lon="5.91662">
        <ele>477.43188476562</ele>
        <time>2012-03-17T15:00:55Z</time>
      </trkpt>
      <trkpt lat="45.76929" lon="5.91662">
        <ele>477.43188476562</ele>
        <time>2012-03-17T15:00:57Z</time>
      </trkpt>
      <trkpt lat="45.76931" lon="5.91665">
        <ele>476.95129394531</ele>
        <time>2012-03-17T15:01:02Z</time>
      </trkpt>
      <trkpt lat="45.76932" lon="5.91669">
        <ele>474.06726074219</ele>
        <time>2012-03-17T15:01:12Z</time>
      </trkpt>
      <trkpt lat="45.76931" lon="5.91672">
        <ele>471.66394042969</ele>
        <time>2012-03-17T15:01:23Z</time>
      </trkpt>
      <trkpt lat="45.7693" lon="5.91676">
        <ele>471.18334960938</ele>
        <time>2012-03-17T15:01:25Z</time>
      </trkpt>
      <trkpt lat="45.76928" lon="5.91686">
        <ele>471.66394042969</ele>
        <time>2012-03-17T15:01:29Z</time>
      </trkpt>
      <trkpt lat="45.76927" lon="5.91689">
        <ele>471.66394042969</ele>
        <time>2012-03-17T15:01:30Z</time>
      </trkpt>
      <trkpt lat="45.76925" lon="5.91696">
        <ele>470.70263671875</ele>
        <time>2012-03-17T15:01:33Z</time>
      </trkpt>
      <trkpt lat="45.76923" lon="5.91702">
        <ele>470.70263671875</ele>
        <time>2012-03-17T15:01:35Z</time>
      </trkpt>
      <trkpt lat="45.76919" lon="5.91713">
        <ele>470.22192382812</ele>
        <time>2012-03-17T15:01:39Z</time>
      </trkpt>
      <trkpt lat="45.76912" lon="5.91734">
        <ele>469.2607421875</ele>
        <time>2012-03-17T15:01:47Z</time>
      </trkpt>
      <trkpt lat="45.76906" lon="5.91755">
        <ele>469.2607421875</ele>
        <time>2012-03-17T15:01:54Z</time>
      </trkpt>
      <trkpt lat="45.76902" lon="5.91774">
        <ele>469.2607421875</ele>
        <time>2012-03-17T15:02:00Z</time>
      </trkpt>
      <trkpt lat="45.76901" lon="5.91795">
        <ele>469.74133300781</ele>
        <time>2012-03-17T15:02:06Z</time>
      </trkpt>
      <trkpt lat="45.76904" lon="5.91822">
        <ele>470.22192382812</ele>
        <time>2012-03-17T15:02:13Z</time>
      </trkpt>
      <trkpt lat="45.76908" lon="5.91851">
        <ele>470.70263671875</ele>
        <time>2012-03-17T15:02:21Z</time>
      </trkpt>
      <trkpt lat="45.76908" lon="5.91853">
        <ele>471.18334960938</ele>
        <time>2012-03-17T15:02:25Z</time>
      </trkpt>
      <trkpt lat="45.76908" lon="5.91853">
        <ele>471.18334960938</ele>
        <time>2012-03-17T15:02:32Z</time>
      </trkpt>
      <trkpt lat="45.76909" lon="5.91853">
        <ele>471.18334960938</ele>
        <time>2012-03-17T15:02:41Z</time>
      </trkpt>
      <trkpt lat="45.76909" lon="5.91853">
        <ele>471.18334960938</ele>
        <time>2012-03-17T15:02:45Z</time>
      </trkpt>
      <trkpt lat="45.76909" lon="5.91852">
        <ele>471.18334960938</ele>
        <time>2012-03-17T15:02:54Z</time>
      </trkpt>
      <trkpt lat="45.76908" lon="5.91852">
        <ele>471.18334960938</ele>
        <time>2012-03-17T15:03:01Z</time>
      </trkpt>
      <trkpt lat="45.76908" lon="5.91852">
        <ele>471.18334960938</ele>
        <time>2012-03-17T15:03:04Z</time>
      </trkpt>
      <trkpt lat="45.76908" lon="5.91853">
        <ele>472.14465332031</ele>
        <time>2012-03-17T15:03:28Z</time>
      </trkpt>
      <trkpt lat="45.76908" lon="5.91854">
        <ele>472.62536621094</ele>
        <time>2012-03-17T15:03:29Z</time>
      </trkpt>
      <trkpt lat="45.7691" lon="5.91876">
        <ele>474.06726074219</ele>
        <time>2012-03-17T15:03:36Z</time>
      </trkpt>
      <trkpt lat="45.76913" lon="5.91902">
        <ele>474.06726074219</ele>
        <time>2012-03-17T15:03:43Z</time>
      </trkpt>
      <trkpt lat="45.76917" lon="5.91937">
        <ele>475.02868652344</ele>
        <time>2012-03-17T15:03:52Z</time>
      </trkpt>
      <trkpt lat="45.7692" lon="5.9197">
        <ele>474.54797363281</ele>
        <time>2012-03-17T15:04:00Z</time>
      </trkpt>
      <trkpt lat="45.7692" lon="5.92">
        <ele>475.02868652344</ele>
        <time>2012-03-17T15:04:07Z</time>
      </trkpt>
      <trkpt lat="45.76918" lon="5.92033">
        <ele>476.95129394531</ele>
        <time>2012-03-17T15:04:15Z</time>
      </trkpt>
      <trkpt lat="45.76915" lon="5.92057">
        <ele>479.3544921875</ele>
        <time>2012-03-17T15:04:21Z</time>
      </trkpt>
      <trkpt lat="45.76913" lon="5.92082">
        <ele>480.79663085938</ele>
        <time>2012-03-17T15:04:27Z</time>
      </trkpt>
      <trkpt lat="45.76915" lon="5.92103">
        <ele>482.23852539062</ele>
        <time>2012-03-17T15:04:32Z</time>
      </trkpt>
      <trkpt lat="45.76917" lon="5.92127">
        <ele>485.12243652344</ele>
        <time>2012-03-17T15:04:38Z</time>
      </trkpt>
      <trkpt lat="45.76921" lon="5.92156">
        <ele>486.564453125</ele>
        <time>2012-03-17T15:04:46Z</time>
      </trkpt>
      <trkpt lat="45.76923" lon="5.92186">
        <ele>487.52563476562</ele>
        <time>2012-03-17T15:04:55Z</time>
      </trkpt>
      <trkpt lat="45.76925" lon="5.92213">
        <ele>487.04504394531</ele>
        <time>2012-03-17T15:05:01Z</time>
      </trkpt>
      <trkpt lat="45.76939" lon="5.9224">
        <ele>486.08374023438</ele>
        <time>2012-03-17T15:05:06Z</time>
      </trkpt>
      <trkpt lat="45.7695" lon="5.92258">
        <ele>486.564453125</ele>
        <time>2012-03-17T15:05:10Z</time>
      </trkpt>
      <trkpt lat="45.76963" lon="5.92293">
        <ele>484.64184570312</ele>
        <time>2012-03-17T15:05:17Z</time>
      </trkpt>
      <trkpt lat="45.7697" lon="5.92313">
        <ele>483.19982910156</ele>
        <time>2012-03-17T15:05:21Z</time>
      </trkpt>
      <trkpt lat="45.76983" lon="5.92351">
        <ele>477.43188476562</ele>
        <time>2012-03-17T15:05:29Z</time>
      </trkpt>
      <trkpt lat="45.76986" lon="5.92359">
        <ele>478.39318847656</ele>
        <time>2012-03-17T15:05:32Z</time>
      </trkpt>
      <trkpt lat="45.76993" lon="5.92375">
        <ele>478.87390136719</ele>
        <time>2012-03-17T15:05:39Z</time>
      </trkpt>
      <trkpt lat="45.77" lon="5.92387">
        <ele>479.3544921875</ele>
        <time>2012-03-17T15:05:45Z</time>
      </trkpt>
      <trkpt lat="45.77008" lon="5.92407">
        <ele>479.83508300781</ele>
        <time>2012-03-17T15:05:52Z</time>
      </trkpt>
      <trkpt lat="45.7701" lon="5.92413">
        <ele>482.23852539062</ele>
        <time>2012-03-17T15:05:57Z</time>
      </trkpt>
      <trkpt lat="45.77008" lon="5.92411">
        <ele>487.04504394531</ele>
        <time>2012-03-17T15:06:07Z</time>
      </trkpt>
      <trkpt lat="45.77007" lon="5.92411">
        <ele>488.9677734375</ele>
        <time>2012-03-17T15:06:26Z</time>
      </trkpt>
      <trkpt lat="45.77008" lon="5.92412">
        <ele>488.9677734375</ele>
        <time>2012-03-17T15:06:35Z</time>
      </trkpt>
      <trkpt lat="45.77009" lon="5.92411">
        <ele>487.04504394531</ele>
        <time>2012-03-17T15:07:03Z</time>
      </trkpt>
      <trkpt lat="45.77009" lon="5.92411">
        <ele>488.00646972656</ele>
        <time>2012-03-17T15:07:12Z</time>
      </trkpt>
      <trkpt lat="45.77009" lon="5.92411">
        <ele>488.00646972656</ele>
        <time>2012-03-17T15:07:19Z</time>
      </trkpt>
      <trkpt lat="45.77008" lon="5.9241">
        <ele>491.37097167969</ele>
        <time>2012-03-17T15:07:40Z</time>
      </trkpt>
      <trkpt lat="45.7701" lon="5.92411">
        <ele>488.9677734375</ele>
        <time>2012-03-17T15:07:50Z</time>
      </trkpt>
      <trkpt lat="45.77009" lon="5.92409">
        <ele>492.81298828125</ele>
        <time>2012-03-17T15:08:10Z</time>
      </trkpt>
      <trkpt lat="45.7701" lon="5.92412">
        <ele>490.40979003906</ele>
        <time>2012-03-17T15:08:21Z</time>
      </trkpt>
      <trkpt lat="45.77012" lon="5.92414">
        <ele>489.92907714844</ele>
        <time>2012-03-17T15:08:29Z</time>
      </trkpt>
      <trkpt lat="45.77021" lon="5.92427">
        <ele>489.92907714844</ele>
        <time>2012-03-17T15:08:35Z</time>
      </trkpt>
      <trkpt lat="45.7703" lon="5.92445">
        <ele>488.9677734375</ele>
        <time>2012-03-17T15:08:40Z</time>
      </trkpt>
      <trkpt lat="45.77046" lon="5.9247">
        <ele>484.1611328125</ele>
        <time>2012-03-17T15:08:46Z</time>
      </trkpt>
      <trkpt lat="45.77062" lon="5.92489">
        <ele>481.27722167969</ele>
        <time>2012-03-17T15:08:51Z</time>
      </trkpt>
      <trkpt lat="45.77079" lon="5.92501">
        <ele>479.83508300781</ele>
        <time>2012-03-17T15:08:55Z</time>
      </trkpt>
      <trkpt lat="45.77092" lon="5.92509">
        <ele>476.95129394531</ele>
        <time>2012-03-17T15:08:59Z</time>
      </trkpt>
      <trkpt lat="45.77085" lon="5.92518">
        <ele>475.98986816406</ele>
        <time>2012-03-17T15:09:02Z</time>
      </trkpt>
      <trkpt lat="45.77073" lon="5.92528">
        <ele>472.14465332031</ele>
        <time>2012-03-17T15:09:08Z</time>
      </trkpt>
      <trkpt lat="45.77062" lon="5.92544">
        <ele>467.81872558594</ele>
        <time>2012-03-17T15:09:14Z</time>
      </trkpt>
      <trkpt lat="45.7705" lon="5.92559">
        <ele>464.93481445312</ele>
        <time>2012-03-17T15:09:18Z</time>
      </trkpt>
      <trkpt lat="45.77036" lon="5.92572">
        <ele>462.53137207031</ele>
        <time>2012-03-17T15:09:22Z</time>
      </trkpt>
      <trkpt lat="45.77026" lon="5.92586">
        <ele>459.16687011719</ele>
        <time>2012-03-17T15:09:25Z</time>
      </trkpt>
      <trkpt lat="45.77019" lon="5.92614">
        <ele>454.8408203125</ele>
        <time>2012-03-17T15:09:30Z</time>
      </trkpt>
      <trkpt lat="45.77007" lon="5.92678">
        <ele>453.87963867188</ele>
        <time>2012-03-17T15:09:37Z</time>
      </trkpt>
      <trkpt lat="45.76999" lon="5.92738">
        <ele>453.39892578125</ele>
        <time>2012-03-17T15:09:44Z</time>
      </trkpt>
      <trkpt lat="45.76995" lon="5.92756">
        <ele>451.95703125</ele>
        <time>2012-03-17T15:09:48Z</time>
      </trkpt>
      <trkpt lat="45.76988" lon="5.92791">
        <ele>448.11181640625</ele>
        <time>2012-03-17T15:09:54Z</time>
      </trkpt>
      <trkpt lat="45.76982" lon="5.92822">
        <ele>445.22766113281</ele>
        <time>2012-03-17T15:09:59Z</time>
      </trkpt>
      <trkpt lat="45.76977" lon="5.92841">
        <ele>443.30505371094</ele>
        <time>2012-03-17T15:10:05Z</time>
      </trkpt>
      <trkpt lat="45.76975" lon="5.92861">
        <ele>441.86315917969</ele>
        <time>2012-03-17T15:10:09Z</time>
      </trkpt>
      <trkpt lat="45.76982" lon="5.92892">
        <ele>439.45971679688</ele>
        <time>2012-03-17T15:10:13Z</time>
      </trkpt>
      <trkpt lat="45.76986" lon="5.929">
        <ele>438.97912597656</ele>
        <time>2012-03-17T15:10:14Z</time>
      </trkpt>
      <trkpt lat="45.76997" lon="5.92923">
        <ele>438.01782226562</ele>
        <time>2012-03-17T15:10:17Z</time>
      </trkpt>
      <trkpt lat="45.77016" lon="5.92944">
        <ele>437.05651855469</ele>
        <time>2012-03-17T15:10:21Z</time>
      </trkpt>
      <trkpt lat="45.77031" lon="5.92954">
        <ele>435.13391113281</ele>
        <time>2012-03-17T15:10:24Z</time>
      </trkpt>
      <trkpt lat="45.77044" lon="5.92972">
        <ele>434.17260742188</ele>
        <time>2012-03-17T15:10:29Z</time>
      </trkpt>
      <trkpt lat="45.77047" lon="5.92987">
        <ele>432.73071289062</ele>
        <time>2012-03-17T15:10:31Z</time>
      </trkpt>
      <trkpt lat="45.77046" lon="5.93021">
        <ele>428.40466308594</ele>
        <time>2012-03-17T15:10:35Z</time>
      </trkpt>
      <trkpt lat="45.77045" lon="5.93037">
        <ele>426.96276855469</ele>
        <time>2012-03-17T15:10:37Z</time>
      </trkpt>
      <trkpt lat="45.77034" lon="5.93091">
        <ele>422.63671875</ele>
        <time>2012-03-17T15:10:43Z</time>
      </trkpt>
      <trkpt lat="45.77024" lon="5.9313">
        <ele>421.19482421875</ele>
        <time>2012-03-17T15:10:47Z</time>
      </trkpt>
      <trkpt lat="45.77019" lon="5.93185">
        <ele>418.31079101562</ele>
        <time>2012-03-17T15:10:52Z</time>
      </trkpt>
      <trkpt lat="45.77011" lon="5.93236">
        <ele>416.38818359375</ele>
        <time>2012-03-17T15:10:57Z</time>
      </trkpt>
      <trkpt lat="45.77002" lon="5.9328">
        <ele>414.94616699219</ele>
        <time>2012-03-17T15:11:02Z</time>
      </trkpt>
      <trkpt lat="45.76994" lon="5.93331">
        <ele>414.94616699219</ele>
        <time>2012-03-17T15:11:08Z</time>
      </trkpt>
      <trkpt lat="45.76991" lon="5.93345">
        <ele>415.42687988281</ele>
        <time>2012-03-17T15:11:10Z</time>
      </trkpt>
      <trkpt lat="45.76986" lon="5.93369">
        <ele>416.38818359375</ele>
        <time>2012-03-17T15:11:15Z</time>
      </trkpt>
      <trkpt lat="45.76985" lon="5.93373">
        <ele>416.86889648438</ele>
        <time>2012-03-17T15:11:16Z</time>
      </trkpt>
      <trkpt lat="45.76981" lon="5.93393">
        <ele>417.83020019531</ele>
        <time>2012-03-17T15:11:22Z</time>
      </trkpt>
      <trkpt lat="45.76976" lon="5.93415">
        <ele>417.83020019531</ele>
        <time>2012-03-17T15:11:29Z</time>
      </trkpt>
      <trkpt lat="45.76976" lon="5.9343">
        <ele>417.349609375</ele>
        <time>2012-03-17T15:11:34Z</time>
      </trkpt>
      <trkpt lat="45.76973" lon="5.93451">
        <ele>417.83020019531</ele>
        <time>2012-03-17T15:11:40Z</time>
      </trkpt>
      <trkpt lat="45.76971" lon="5.93463">
        <ele>418.31079101562</ele>
        <time>2012-03-17T15:11:44Z</time>
      </trkpt>
      <trkpt lat="45.7697" lon="5.93474">
        <ele>419.27221679688</ele>
        <time>2012-03-17T15:11:48Z</time>
      </trkpt>
      <trkpt lat="45.76967" lon="5.93494">
        <ele>424.07873535156</ele>
        <time>2012-03-17T15:11:55Z</time>
      </trkpt>
      <trkpt lat="45.76965" lon="5.93506">
        <ele>426.96276855469</ele>
        <time>2012-03-17T15:12:00Z</time>
      </trkpt>
      <trkpt lat="45.76962" lon="5.93517">
        <ele>428.40466308594</ele>
        <time>2012-03-17T15:12:04Z</time>
      </trkpt>
      <trkpt lat="45.76962" lon="5.9352">
        <ele>428.40466308594</ele>
        <time>2012-03-17T15:12:05Z</time>
      </trkpt>
      <trkpt lat="45.76958" lon="5.93544">
        <ele>429.36596679688</ele>
        <time>2012-03-17T15:12:15Z</time>
      </trkpt>
      <trkpt lat="45.76955" lon="5.93566">
        <ele>429.84655761719</ele>
        <time>2012-03-17T15:12:23Z</time>
      </trkpt>
      <trkpt lat="45.76951" lon="5.93586">
        <ele>430.32727050781</ele>
        <time>2012-03-17T15:12:30Z</time>
      </trkpt>
      <trkpt lat="45.7695" lon="5.93604">
        <ele>429.84655761719</ele>
        <time>2012-03-17T15:12:36Z</time>
      </trkpt>
      <trkpt lat="45.76949" lon="5.93634">
        <ele>428.40466308594</ele>
        <time>2012-03-17T15:12:43Z</time>
      </trkpt>
      <trkpt lat="45.76949" lon="5.93668">
        <ele>426.48205566406</ele>
        <time>2012-03-17T15:12:49Z</time>
      </trkpt>
      <trkpt lat="45.76948" lon="5.93704">
        <ele>424.55944824219</ele>
        <time>2012-03-17T15:12:54Z</time>
      </trkpt>
      <trkpt lat="45.76948" lon="5.93732">
        <ele>423.59802246094</ele>
        <time>2012-03-17T15:12:58Z</time>
      </trkpt>
      <trkpt lat="45.76948" lon="5.93781">
        <ele>421.67541503906</ele>
        <time>2012-03-17T15:13:05Z</time>
      </trkpt>
      <trkpt lat="45.7695" lon="5.93814">
        <ele>419.27221679688</ele>
        <time>2012-03-17T15:13:11Z</time>
      </trkpt>
      <trkpt lat="45.76954" lon="5.93853">
        <ele>415.90747070312</ele>
        <time>2012-03-17T15:13:18Z</time>
      </trkpt>
      <trkpt lat="45.76953" lon="5.93873">
        <ele>413.02355957031</ele>
        <time>2012-03-17T15:13:22Z</time>
      </trkpt>
      <trkpt lat="45.76951" lon="5.93887">
        <ele>411.58166503906</ele>
        <time>2012-03-17T15:13:26Z</time>
      </trkpt>
      <trkpt lat="45.76951" lon="5.939">
        <ele>410.1396484375</ele>
        <time>2012-03-17T15:13:31Z</time>
      </trkpt>
      <trkpt lat="45.76947" lon="5.93917">
        <ele>408.69763183594</ele>
        <time>2012-03-17T15:13:37Z</time>
      </trkpt>
      <trkpt lat="45.76945" lon="5.93925">
        <ele>409.17834472656</ele>
        <time>2012-03-17T15:13:42Z</time>
      </trkpt>
      <trkpt lat="45.76951" lon="5.93938">
        <ele>408.69763183594</ele>
        <time>2012-03-17T15:13:46Z</time>
      </trkpt>
      <trkpt lat="45.76956" lon="5.93944">
        <ele>408.21704101562</ele>
        <time>2012-03-17T15:13:49Z</time>
      </trkpt>
      <trkpt lat="45.76957" lon="5.93944">
        <ele>408.21704101562</ele>
        <time>2012-03-17T15:13:54Z</time>
      </trkpt>
      <trkpt lat="45.76956" lon="5.93944">
        <ele>408.69763183594</ele>
        <time>2012-03-17T15:13:55Z</time>
      </trkpt>
      <trkpt lat="45.76953" lon="5.93943">
        <ele>409.17834472656</ele>
        <time>2012-03-17T15:13:57Z</time>
      </trkpt>
      <trkpt lat="45.76951" lon="5.93942">
        <ele>409.65905761719</ele>
        <time>2012-03-17T15:14:03Z</time>
      </trkpt>
      <trkpt lat="45.76951" lon="5.93944">
        <ele>411.58166503906</ele>
        <time>2012-03-17T15:14:13Z</time>
      </trkpt>
      <trkpt lat="45.76951" lon="5.93946">
        <ele>413.02355957031</ele>
        <time>2012-03-17T15:14:25Z</time>
      </trkpt>
      <trkpt lat="45.76953" lon="5.93947">
        <ele>413.50427246094</ele>
        <time>2012-03-17T15:14:34Z</time>
      </trkpt>
      <trkpt lat="45.76954" lon="5.93947">
        <ele>413.02355957031</ele>
        <time>2012-03-17T15:14:50Z</time>
      </trkpt>
      <trkpt lat="45.76955" lon="5.93946">
        <ele>413.02355957031</ele>
        <time>2012-03-17T15:15:02Z</time>
      </trkpt>
      <trkpt lat="45.76955" lon="5.93946">
        <ele>412.06225585938</ele>
        <time>2012-03-17T15:15:16Z</time>
      </trkpt>
      <trkpt lat="45.76954" lon="5.93946">
        <ele>410.62023925781</ele>
        <time>2012-03-17T15:15:25Z</time>
      </trkpt>
      <trkpt lat="45.76955" lon="5.93946">
        <ele>410.62023925781</ele>
        <time>2012-03-17T15:15:36Z</time>
      </trkpt>
      <trkpt lat="45.76957" lon="5.93946">
        <ele>410.62023925781</ele>
        <time>2012-03-17T15:15:42Z</time>
      </trkpt>
      <trkpt lat="45.76957" lon="5.93945">
        <ele>410.62023925781</ele>
        <time>2012-03-17T15:15:48Z</time>
      </trkpt>
      <trkpt lat="45.76958" lon="5.93946">
        <ele>410.62023925781</ele>
        <time>2012-03-17T15:15:49Z</time>
      </trkpt>
      <trkpt lat="45.76969" lon="5.93955">
        <ele>410.1396484375</ele>
        <time>2012-03-17T15:15:54Z</time>
      </trkpt>
      <trkpt lat="45.77" lon="5.93982">
        <ele>407.736328125</ele>
        <time>2012-03-17T15:16:04Z</time>
      </trkpt>
      <trkpt lat="45.77025" lon="5.94002">
        <ele>405.81372070312</ele>
        <time>2012-03-17T15:16:10Z</time>
      </trkpt>
      <trkpt lat="45.77042" lon="5.94017">
        <ele>402.9296875</ele>
        <time>2012-03-17T15:16:15Z</time>
      </trkpt>
      <trkpt lat="45.77052" lon="5.94026">
        <ele>401.00708007812</ele>
        <time>2012-03-17T15:16:20Z</time>
      </trkpt>
      <trkpt lat="45.77055" lon="5.94031">
        <ele>400.52648925781</ele>
        <time>2012-03-17T15:16:26Z</time>
      </trkpt>
      <trkpt lat="45.77055" lon="5.94032">
        <ele>401.96850585938</ele>
        <time>2012-03-17T15:16:40Z</time>
      </trkpt>
      <trkpt lat="45.77055" lon="5.94032">
        <ele>402.44909667969</ele>
        <time>2012-03-17T15:16:47Z</time>
      </trkpt>
      <trkpt lat="45.77055" lon="5.9403">
        <ele>404.37170410156</ele>
        <time>2012-03-17T15:16:57Z</time>
      </trkpt>
      <trkpt lat="45.77043" lon="5.94023">
        <ele>402.9296875</ele>
        <time>2012-03-17T15:17:02Z</time>
      </trkpt>
      <trkpt lat="45.77034" lon="5.94022">
        <ele>402.44909667969</ele>
        <time>2012-03-17T15:17:04Z</time>
      </trkpt>
      <trkpt lat="45.77019" lon="5.94028">
        <ele>400.52648925781</ele>
        <time>2012-03-17T15:17:08Z</time>
      </trkpt>
      <trkpt lat="45.77004" lon="5.94043">
        <ele>398.60375976562</ele>
        <time>2012-03-17T15:17:12Z</time>
      </trkpt>
      <trkpt lat="45.76984" lon="5.94041">
        <ele>397.16174316406</ele>
        <time>2012-03-17T15:17:16Z</time>
      </trkpt>
      <trkpt lat="45.76974" lon="5.94038">
        <ele>397.16174316406</ele>
        <time>2012-03-17T15:17:18Z</time>
      </trkpt>
      <trkpt lat="45.7695" lon="5.94029">
        <ele>397.16174316406</ele>
        <time>2012-03-17T15:17:24Z</time>
      </trkpt>
      <trkpt lat="45.76944" lon="5.94029">
        <ele>397.64245605469</ele>
        <time>2012-03-17T15:17:27Z</time>
      </trkpt>
      <trkpt lat="45.76941" lon="5.94043">
        <ele>398.60375976562</ele>
        <time>2012-03-17T15:17:32Z</time>
      </trkpt>
      <trkpt lat="45.7694" lon="5.94049">
        <ele>398.60375976562</ele>
        <time>2012-03-17T15:17:33Z</time>
      </trkpt>
      <trkpt lat="45.76933" lon="5.94086">
        <ele>397.64245605469</ele>
        <time>2012-03-17T15:17:38Z</time>
      </trkpt>
      <trkpt lat="45.76917" lon="5.94133">
        <ele>395.23913574219</ele>
        <time>2012-03-17T15:17:43Z</time>
      </trkpt>
      <trkpt lat="45.76909" lon="5.94176">
        <ele>391.87451171875</ele>
        <time>2012-03-17T15:17:47Z</time>
      </trkpt>
      <trkpt lat="45.76908" lon="5.94223">
        <ele>388.99060058594</ele>
        <time>2012-03-17T15:17:51Z</time>
      </trkpt>
      <trkpt lat="45.76908" lon="5.94272">
        <ele>385.6259765625</ele>
        <time>2012-03-17T15:17:56Z</time>
      </trkpt>
      <trkpt lat="45.76906" lon="5.94297">
        <ele>383.22265625</ele>
        <time>2012-03-17T15:17:59Z</time>
      </trkpt>
      <trkpt lat="45.76909" lon="5.94362">
        <ele>378.41613769531</ele>
        <time>2012-03-17T15:18:05Z</time>
      </trkpt>
      <trkpt lat="45.7691" lon="5.94386">
        <ele>376.97424316406</ele>
        <time>2012-03-17T15:18:07Z</time>
      </trkpt>
      <trkpt lat="45.76912" lon="5.94437">
        <ele>374.57080078125</ele>
        <time>2012-03-17T15:18:11Z</time>
      </trkpt>
      <trkpt lat="45.76914" lon="5.94475">
        <ele>373.12890625</ele>
        <time>2012-03-17T15:18:14Z</time>
      </trkpt>
      <trkpt lat="45.76916" lon="5.94513">
        <ele>370.24487304688</ele>
        <time>2012-03-17T15:18:17Z</time>
      </trkpt>
      <trkpt lat="45.76908" lon="5.94569">
        <ele>364.95764160156</ele>
        <time>2012-03-17T15:18:21Z</time>
      </trkpt>
      <trkpt lat="45.76892" lon="5.94631">
        <ele>360.15112304688</ele>
        <time>2012-03-17T15:18:25Z</time>
      </trkpt>
      <trkpt lat="45.76886" lon="5.94702">
        <ele>354.86376953125</ele>
        <time>2012-03-17T15:18:29Z</time>
      </trkpt>
      <trkpt lat="45.7689" lon="5.94739">
        <ele>351.49914550781</ele>
        <time>2012-03-17T15:18:31Z</time>
      </trkpt>
      <trkpt lat="45.76898" lon="5.94835">
        <ele>345.25061035156</ele>
        <time>2012-03-17T15:18:36Z</time>
      </trkpt>
      <trkpt lat="45.76901" lon="5.94877">
        <ele>342.84729003906</ele>
        <time>2012-03-17T15:18:39Z</time>
      </trkpt>
      <trkpt lat="45.76902" lon="5.94895">
        <ele>340.92468261719</ele>
        <time>2012-03-17T15:18:42Z</time>
      </trkpt>
      <trkpt lat="45.76902" lon="5.94897">
        <ele>339.96337890625</ele>
        <time>2012-03-17T15:18:43Z</time>
      </trkpt>
      <trkpt lat="45.7691" lon="5.94901">
        <ele>337.07946777344</ele>
        <time>2012-03-17T15:18:48Z</time>
      </trkpt>
      <trkpt lat="45.76928" lon="5.94891">
        <ele>335.15673828125</ele>
        <time>2012-03-17T15:18:55Z</time>
      </trkpt>
      <trkpt lat="45.76944" lon="5.94885">
        <ele>334.67614746094</ele>
        <time>2012-03-17T15:19:02Z</time>
      </trkpt>
      <trkpt lat="45.76965" lon="5.94876">
        <ele>335.63732910156</ele>
        <time>2012-03-17T15:19:09Z</time>
      </trkpt>
      <trkpt lat="45.76978" lon="5.94872">
        <ele>335.63732910156</ele>
        <time>2012-03-17T15:19:14Z</time>
      </trkpt>
      <trkpt lat="45.7699" lon="5.94865">
        <ele>334.67614746094</ele>
        <time>2012-03-17T15:19:19Z</time>
      </trkpt>
      <trkpt lat="45.77007" lon="5.94847">
        <ele>332.27282714844</ele>
        <time>2012-03-17T15:19:25Z</time>
      </trkpt>
      <trkpt lat="45.7702" lon="5.94835">
        <ele>332.75354003906</ele>
        <time>2012-03-17T15:19:30Z</time>
      </trkpt>
      <trkpt lat="45.77033" lon="5.94826">
        <ele>332.75354003906</ele>
        <time>2012-03-17T15:19:36Z</time>
      </trkpt>
      <trkpt lat="45.77046" lon="5.94822">
        <ele>332.75354003906</ele>
        <time>2012-03-17T15:19:40Z</time>
      </trkpt>
      <trkpt lat="45.77063" lon="5.94819">
        <ele>333.71472167969</ele>
        <time>2012-03-17T15:19:45Z</time>
      </trkpt>
      <trkpt lat="45.77082" lon="5.94816">
        <ele>337.07946777344</ele>
        <time>2012-03-17T15:19:51Z</time>
      </trkpt>
      <trkpt lat="45.771" lon="5.94814">
        <ele>338.521484375</ele>
        <time>2012-03-17T15:19:57Z</time>
      </trkpt>
      <trkpt lat="45.77112" lon="5.94814">
        <ele>339.00207519531</ele>
        <time>2012-03-17T15:20:02Z</time>
      </trkpt>
      <trkpt lat="45.77125" lon="5.94814">
        <ele>339.00207519531</ele>
        <time>2012-03-17T15:20:06Z</time>
      </trkpt>
      <trkpt lat="45.77142" lon="5.94811">
        <ele>339.48266601562</ele>
        <time>2012-03-17T15:20:11Z</time>
      </trkpt>
      <trkpt lat="45.77156" lon="5.94811">
        <ele>339.00207519531</ele>
        <time>2012-03-17T15:20:16Z</time>
      </trkpt>
      <trkpt lat="45.77171" lon="5.94812">
        <ele>338.521484375</ele>
        <time>2012-03-17T15:20:22Z</time>
      </trkpt>
      <trkpt lat="45.77187" lon="5.94811">
        <ele>338.521484375</ele>
        <time>2012-03-17T15:20:28Z</time>
      </trkpt>
      <trkpt lat="45.77205" lon="5.94813">
        <ele>339.48266601562</ele>
        <time>2012-03-17T15:20:34Z</time>
      </trkpt>
      <trkpt lat="45.77217" lon="5.94808">
        <ele>340.44409179688</ele>
        <time>2012-03-17T15:20:39Z</time>
      </trkpt>
      <trkpt lat="45.77229" lon="5.94807">
        <ele>340.44409179688</ele>
        <time>2012-03-17T15:20:45Z</time>
      </trkpt>
      <trkpt lat="45.77242" lon="5.94807">
        <ele>341.88598632812</ele>
        <time>2012-03-17T15:20:50Z</time>
      </trkpt>
      <trkpt lat="45.77257" lon="5.94803">
        <ele>343.32788085938</ele>
        <time>2012-03-17T15:20:56Z</time>
      </trkpt>
      <trkpt lat="45.77269" lon="5.94795">
        <ele>342.36669921875</ele>
        <time>2012-03-17T15:21:01Z</time>
      </trkpt>
      <trkpt lat="45.77281" lon="5.94788">
        <ele>341.4052734375</ele>
        <time>2012-03-17T15:21:06Z</time>
      </trkpt>
      <trkpt lat="45.77295" lon="5.94781">
        <ele>341.4052734375</ele>
        <time>2012-03-17T15:21:12Z</time>
      </trkpt>
      <trkpt lat="45.77306" lon="5.94783">
        <ele>342.84729003906</ele>
        <time>2012-03-17T15:21:17Z</time>
      </trkpt>
      <trkpt lat="45.7732" lon="5.94787">
        <ele>343.80859375</ele>
        <time>2012-03-17T15:21:23Z</time>
      </trkpt>
      <trkpt lat="45.77333" lon="5.94792">
        <ele>344.77001953125</ele>
        <time>2012-03-17T15:21:29Z</time>
      </trkpt>
      <trkpt lat="45.77349" lon="5.94798">
        <ele>345.73132324219</ele>
        <time>2012-03-17T15:21:36Z</time>
      </trkpt>
      <trkpt lat="45.77362" lon="5.94802">
        <ele>346.21203613281</ele>
        <time>2012-03-17T15:21:42Z</time>
      </trkpt>
      <trkpt lat="45.77376" lon="5.94806">
        <ele>346.21203613281</ele>
        <time>2012-03-17T15:21:48Z</time>
      </trkpt>
      <trkpt lat="45.77396" lon="5.94808">
        <ele>347.65393066406</ele>
        <time>2012-03-17T15:21:55Z</time>
      </trkpt>
      <trkpt lat="45.7741" lon="5.94808">
        <ele>348.615234375</ele>
        <time>2012-03-17T15:22:00Z</time>
      </trkpt>
      <trkpt lat="45.77422" lon="5.94824">
        <ele>348.13464355469</ele>
        <time>2012-03-17T15:22:06Z</time>
      </trkpt>
      <trkpt lat="45.77436" lon="5.94841">
        <ele>348.615234375</ele>
        <time>2012-03-17T15:22:13Z</time>
      </trkpt>
      <trkpt lat="45.77444" lon="5.94852">
        <ele>348.13464355469</ele>
        <time>2012-03-17T15:22:18Z</time>
      </trkpt>
      <trkpt lat="45.77451" lon="5.94875">
        <ele>347.17321777344</ele>
        <time>2012-03-17T15:22:24Z</time>
      </trkpt>
      <trkpt lat="45.77453" lon="5.94902">
        <ele>345.25061035156</ele>
        <time>2012-03-17T15:22:29Z</time>
      </trkpt>
      <trkpt lat="45.77452" lon="5.94918">
        <ele>344.28942871094</ele>
        <time>2012-03-17T15:22:32Z</time>
      </trkpt>
      <trkpt lat="45.77452" lon="5.94923">
        <ele>343.80859375</ele>
        <time>2012-03-17T15:22:33Z</time>
      </trkpt>
      <trkpt lat="45.77452" lon="5.94932">
        <ele>343.32788085938</ele>
        <time>2012-03-17T15:22:35Z</time>
      </trkpt>
      <trkpt lat="45.77465" lon="5.94941">
        <ele>342.84729003906</ele>
        <time>2012-03-17T15:22:39Z</time>
      </trkpt>
      <trkpt lat="45.77484" lon="5.94941">
        <ele>341.4052734375</ele>
        <time>2012-03-17T15:22:45Z</time>
      </trkpt>
      <trkpt lat="45.77501" lon="5.94942">
        <ele>341.4052734375</ele>
        <time>2012-03-17T15:22:51Z</time>
      </trkpt>
      <trkpt lat="45.77518" lon="5.94942">
        <ele>341.4052734375</ele>
        <time>2012-03-17T15:22:58Z</time>
      </trkpt>
      <trkpt lat="45.77544" lon="5.94941">
        <ele>341.4052734375</ele>
        <time>2012-03-17T15:23:06Z</time>
      </trkpt>
      <trkpt lat="45.77581" lon="5.94941">
        <ele>341.88598632812</ele>
        <time>2012-03-17T15:23:16Z</time>
      </trkpt>
      <trkpt lat="45.77615" lon="5.94939">
        <ele>342.36669921875</ele>
        <time>2012-03-17T15:23:25Z</time>
      </trkpt>
      <trkpt lat="45.77654" lon="5.94939">
        <ele>342.36669921875</ele>
        <time>2012-03-17T15:23:35Z</time>
      </trkpt>
      <trkpt lat="45.77687" lon="5.94935">
        <ele>342.84729003906</ele>
        <time>2012-03-17T15:23:43Z</time>
      </trkpt>
      <trkpt lat="45.77731" lon="5.94933">
        <ele>342.36669921875</ele>
        <time>2012-03-17T15:23:53Z</time>
      </trkpt>
      <trkpt lat="45.77781" lon="5.94931">
        <ele>342.84729003906</ele>
        <time>2012-03-17T15:24:04Z</time>
      </trkpt>
      <trkpt lat="45.77832" lon="5.94927">
        <ele>343.80859375</ele>
        <time>2012-03-17T15:24:15Z</time>
      </trkpt>
      <trkpt lat="45.77864" lon="5.94926">
        <ele>343.80859375</ele>
        <time>2012-03-17T15:24:22Z</time>
      </trkpt>
      <trkpt lat="45.77899" lon="5.94923">
        <ele>344.77001953125</ele>
        <time>2012-03-17T15:24:30Z</time>
      </trkpt>
      <trkpt lat="45.77945" lon="5.94918">
        <ele>344.77001953125</ele>
        <time>2012-03-17T15:24:41Z</time>
      </trkpt>
      <trkpt lat="45.77983" lon="5.94913">
        <ele>345.25061035156</ele>
        <time>2012-03-17T15:24:50Z</time>
      </trkpt>
      <trkpt lat="45.78003" lon="5.9491">
        <ele>345.73132324219</ele>
        <time>2012-03-17T15:24:55Z</time>
      </trkpt>
      <trkpt lat="45.78026" lon="5.94912">
        <ele>346.69262695312</ele>
        <time>2012-03-17T15:25:02Z</time>
      </trkpt>
      <trkpt lat="45.78043" lon="5.94911">
        <ele>346.21203613281</ele>
        <time>2012-03-17T15:25:07Z</time>
      </trkpt>
      <trkpt lat="45.78067" lon="5.9491">
        <ele>346.69262695312</ele>
        <time>2012-03-17T15:25:14Z</time>
      </trkpt>
      <trkpt lat="45.78094" lon="5.94909">
        <ele>346.21203613281</ele>
        <time>2012-03-17T15:25:22Z</time>
      </trkpt>
      <trkpt lat="45.78123" lon="5.94907">
        <ele>346.69262695312</ele>
        <time>2012-03-17T15:25:30Z</time>
      </trkpt>
      <trkpt lat="45.78161" lon="5.94905">
        <ele>347.17321777344</ele>
        <time>2012-03-17T15:25:40Z</time>
      </trkpt>
      <trkpt lat="45.78196" lon="5.94905">
        <ele>347.65393066406</ele>
        <time>2012-03-17T15:25:49Z</time>
      </trkpt>
      <trkpt lat="45.7822" lon="5.94905">
        <ele>347.65393066406</ele>
        <time>2012-03-17T15:25:55Z</time>
      </trkpt>
      <trkpt lat="45.78251" lon="5.94904">
        <ele>347.17321777344</ele>
        <time>2012-03-17T15:26:03Z</time>
      </trkpt>
      <trkpt lat="45.78291" lon="5.94906">
        <ele>347.17321777344</ele>
        <time>2012-03-17T15:26:13Z</time>
      </trkpt>
      <trkpt lat="45.78321" lon="5.94905">
        <ele>348.13464355469</ele>
        <time>2012-03-17T15:26:21Z</time>
      </trkpt>
      <trkpt lat="45.78341" lon="5.94904">
        <ele>349.09582519531</ele>
        <time>2012-03-17T15:26:27Z</time>
      </trkpt>
      <trkpt lat="45.7836" lon="5.94905">
        <ele>348.615234375</ele>
        <time>2012-03-17T15:26:34Z</time>
      </trkpt>
      <trkpt lat="45.7838" lon="5.94918">
        <ele>348.13464355469</ele>
        <time>2012-03-17T15:26:41Z</time>
      </trkpt>
      <trkpt lat="45.78401" lon="5.94937">
        <ele>346.69262695312</ele>
        <time>2012-03-17T15:26:47Z</time>
      </trkpt>
      <trkpt lat="45.78418" lon="5.94958">
        <ele>346.21203613281</ele>
        <time>2012-03-17T15:26:52Z</time>
      </trkpt>
      <trkpt lat="45.78427" lon="5.94976">
        <ele>346.21203613281</ele>
        <time>2012-03-17T15:26:56Z</time>
      </trkpt>
      <trkpt lat="45.78439" lon="5.9498">
        <ele>346.21203613281</ele>
        <time>2012-03-17T15:27:00Z</time>
      </trkpt>
      <trkpt lat="45.78448" lon="5.94969">
        <ele>347.17321777344</ele>
        <time>2012-03-17T15:27:03Z</time>
      </trkpt>
      <trkpt lat="45.78476" lon="5.94923">
        <ele>348.13464355469</ele>
        <time>2012-03-17T15:27:14Z</time>
      </trkpt>
      <trkpt lat="45.78502" lon="5.94899">
        <ele>348.13464355469</ele>
        <time>2012-03-17T15:27:22Z</time>
      </trkpt>
      <trkpt lat="45.78525" lon="5.94893">
        <ele>348.13464355469</ele>
        <time>2012-03-17T15:27:28Z</time>
      </trkpt>
      <trkpt lat="45.78563" lon="5.9489">
        <ele>348.615234375</ele>
        <time>2012-03-17T15:27:38Z</time>
      </trkpt>
      <trkpt lat="45.78596" lon="5.94888">
        <ele>348.615234375</ele>
        <time>2012-03-17T15:27:47Z</time>
      </trkpt>
      <trkpt lat="45.78625" lon="5.94886">
        <ele>349.09582519531</ele>
        <time>2012-03-17T15:27:55Z</time>
      </trkpt>
      <trkpt lat="45.78648" lon="5.94883">
        <ele>349.57653808594</ele>
        <time>2012-03-17T15:28:03Z</time>
      </trkpt>
      <trkpt lat="45.78659" lon="5.94881">
        <ele>351.01843261719</ele>
        <time>2012-03-17T15:28:09Z</time>
      </trkpt>
      <trkpt lat="45.78661" lon="5.94881">
        <ele>351.01843261719</ele>
        <time>2012-03-17T15:28:14Z</time>
      </trkpt>
      <trkpt lat="45.78662" lon="5.9488">
        <ele>352.94116210938</ele>
        <time>2012-03-17T15:28:22Z</time>
      </trkpt>
      <trkpt lat="45.78661" lon="5.94878">
        <ele>354.38317871094</ele>
        <time>2012-03-17T15:28:30Z</time>
      </trkpt>
      <trkpt lat="45.78662" lon="5.94876">
        <ele>356.30578613281</ele>
        <time>2012-03-17T15:28:39Z</time>
      </trkpt>
      <trkpt lat="45.78667" lon="5.94865">
        <ele>356.30578613281</ele>
        <time>2012-03-17T15:28:44Z</time>
      </trkpt>
      <trkpt lat="45.78672" lon="5.94857">
        <ele>355.8251953125</ele>
        <time>2012-03-17T15:28:47Z</time>
      </trkpt>
      <trkpt lat="45.78682" lon="5.94854">
        <ele>354.86376953125</ele>
        <time>2012-03-17T15:28:50Z</time>
      </trkpt>
      <trkpt lat="45.78701" lon="5.94854">
        <ele>353.90258789062</ele>
        <time>2012-03-17T15:28:55Z</time>
      </trkpt>
      <trkpt lat="45.78728" lon="5.94853">
        <ele>352.94116210938</ele>
        <time>2012-03-17T15:29:03Z</time>
      </trkpt>
      <trkpt lat="45.78745" lon="5.94853">
        <ele>351.97985839844</ele>
        <time>2012-03-17T15:29:09Z</time>
      </trkpt>
      <trkpt lat="45.78767" lon="5.94852">
        <ele>352.94116210938</ele>
        <time>2012-03-17T15:29:16Z</time>
      </trkpt>
      <trkpt lat="45.78794" lon="5.94848">
        <ele>355.8251953125</ele>
        <time>2012-03-17T15:29:24Z</time>
      </trkpt>
      <trkpt lat="45.78827" lon="5.94846">
        <ele>354.38317871094</ele>
        <time>2012-03-17T15:29:34Z</time>
      </trkpt>
      <trkpt lat="45.78858" lon="5.94843">
        <ele>353.90258789062</ele>
        <time>2012-03-17T15:29:44Z</time>
      </trkpt>
      <trkpt lat="45.78887" lon="5.94841">
        <ele>353.421875</ele>
        <time>2012-03-17T15:29:53Z</time>
      </trkpt>
      <trkpt lat="45.78921" lon="5.94839">
        <ele>352.46057128906</ele>
        <time>2012-03-17T15:30:03Z</time>
      </trkpt>
      <trkpt lat="45.78946" lon="5.94834">
        <ele>352.46057128906</ele>
        <time>2012-03-17T15:30:11Z</time>
      </trkpt>
      <trkpt lat="45.78972" lon="5.94834">
        <ele>352.46057128906</ele>
        <time>2012-03-17T15:30:19Z</time>
      </trkpt>
      <trkpt lat="45.78996" lon="5.94833">
        <ele>351.49914550781</ele>
        <time>2012-03-17T15:30:26Z</time>
      </trkpt>
      <trkpt lat="45.79019" lon="5.94831">
        <ele>351.49914550781</ele>
        <time>2012-03-17T15:30:33Z</time>
      </trkpt>
      <trkpt lat="45.79051" lon="5.94831">
        <ele>351.01843261719</ele>
        <time>2012-03-17T15:30:41Z</time>
      </trkpt>
      <trkpt lat="45.79086" lon="5.94832">
        <ele>350.53784179688</ele>
        <time>2012-03-17T15:30:48Z</time>
      </trkpt>
      <trkpt lat="45.79111" lon="5.9483">
        <ele>350.05725097656</ele>
        <time>2012-03-17T15:30:53Z</time>
      </trkpt>
      <trkpt lat="45.79145" lon="5.94829">
        <ele>349.57653808594</ele>
        <time>2012-03-17T15:31:00Z</time>
      </trkpt>
      <trkpt lat="45.7919" lon="5.94825">
        <ele>349.09582519531</ele>
        <time>2012-03-17T15:31:10Z</time>
      </trkpt>
      <trkpt lat="45.79229" lon="5.94821">
        <ele>349.57653808594</ele>
        <time>2012-03-17T15:31:19Z</time>
      </trkpt>
      <trkpt lat="45.79254" lon="5.9482">
        <ele>351.01843261719</ele>
        <time>2012-03-17T15:31:25Z</time>
      </trkpt>
      <trkpt lat="45.79258" lon="5.9482">
        <ele>351.01843261719</ele>
        <time>2012-03-17T15:31:26Z</time>
      </trkpt>
      <trkpt lat="45.79289" lon="5.94821">
        <ele>351.97985839844</ele>
        <time>2012-03-17T15:31:33Z</time>
      </trkpt>
      <trkpt lat="45.79302" lon="5.94821">
        <ele>351.97985839844</ele>
        <time>2012-03-17T15:31:36Z</time>
      </trkpt>
      <trkpt lat="45.79311" lon="5.94822">
        <ele>352.94116210938</ele>
        <time>2012-03-17T15:31:38Z</time>
      </trkpt>
      <trkpt lat="45.79361" lon="5.94825">
        <ele>355.8251953125</ele>
        <time>2012-03-17T15:31:50Z</time>
      </trkpt>
      <trkpt lat="45.79394" lon="5.94829">
        <ele>356.30578613281</ele>
        <time>2012-03-17T15:31:57Z</time>
      </trkpt>
      <trkpt lat="45.79432" lon="5.94834">
        <ele>352.94116210938</ele>
        <time>2012-03-17T15:32:05Z</time>
      </trkpt>
      <trkpt lat="45.79459" lon="5.94839">
        <ele>351.49914550781</ele>
        <time>2012-03-17T15:32:11Z</time>
      </trkpt>
      <trkpt lat="45.79498" lon="5.94848">
        <ele>350.05725097656</ele>
        <time>2012-03-17T15:32:20Z</time>
      </trkpt>
      <trkpt lat="45.79542" lon="5.94861">
        <ele>350.05725097656</ele>
        <time>2012-03-17T15:32:31Z</time>
      </trkpt>
      <trkpt lat="45.79581" lon="5.94875">
        <ele>350.53784179688</ele>
        <time>2012-03-17T15:32:41Z</time>
      </trkpt>
      <trkpt lat="45.79609" lon="5.94887">
        <ele>351.01843261719</ele>
        <time>2012-03-17T15:32:48Z</time>
      </trkpt>
      <trkpt lat="45.79653" lon="5.94908">
        <ele>351.01843261719</ele>
        <time>2012-03-17T15:32:59Z</time>
      </trkpt>
      <trkpt lat="45.79661" lon="5.94912">
        <ele>351.01843261719</ele>
        <time>2012-03-17T15:33:01Z</time>
      </trkpt>
      <trkpt lat="45.79698" lon="5.94934">
        <ele>351.49914550781</ele>
        <time>2012-03-17T15:33:10Z</time>
      </trkpt>
      <trkpt lat="45.79723" lon="5.94959">
        <ele>351.97985839844</ele>
        <time>2012-03-17T15:33:17Z</time>
      </trkpt>
      <trkpt lat="45.79738" lon="5.94957">
        <ele>352.46057128906</ele>
        <time>2012-03-17T15:33:21Z</time>
      </trkpt>
      <trkpt lat="45.79749" lon="5.94944">
        <ele>352.94116210938</ele>
        <time>2012-03-17T15:33:26Z</time>
      </trkpt>
      <trkpt lat="45.79764" lon="5.94942">
        <ele>352.94116210938</ele>
        <time>2012-03-17T15:33:32Z</time>
      </trkpt>
      <trkpt lat="45.79779" lon="5.94954">
        <ele>352.46057128906</ele>
        <time>2012-03-17T15:33:38Z</time>
      </trkpt>
      <trkpt lat="45.79794" lon="5.94964">
        <ele>352.46057128906</ele>
        <time>2012-03-17T15:33:44Z</time>
      </trkpt>
      <trkpt lat="45.79811" lon="5.94977">
        <ele>352.46057128906</ele>
        <time>2012-03-17T15:33:51Z</time>
      </trkpt>
      <trkpt lat="45.79832" lon="5.94991">
        <ele>352.46057128906</ele>
        <time>2012-03-17T15:33:58Z</time>
      </trkpt>
      <trkpt lat="45.79855" lon="5.9501">
        <ele>351.49914550781</ele>
        <time>2012-03-17T15:34:05Z</time>
      </trkpt>
      <trkpt lat="45.79882" lon="5.95033">
        <ele>350.05725097656</ele>
        <time>2012-03-17T15:34:13Z</time>
      </trkpt>
      <trkpt lat="45.79914" lon="5.95062">
        <ele>349.09582519531</ele>
        <time>2012-03-17T15:34:22Z</time>
      </trkpt>
      <trkpt lat="45.7994" lon="5.95087">
        <ele>349.09582519531</ele>
        <time>2012-03-17T15:34:29Z</time>
      </trkpt>
      <trkpt lat="45.79968" lon="5.95116">
        <ele>350.05725097656</ele>
        <time>2012-03-17T15:34:37Z</time>
      </trkpt>
      <trkpt lat="45.80001" lon="5.95155">
        <ele>350.53784179688</ele>
        <time>2012-03-17T15:34:47Z</time>
      </trkpt>
      <trkpt lat="45.80035" lon="5.95198">
        <ele>351.97985839844</ele>
        <time>2012-03-17T15:34:58Z</time>
      </trkpt>
      <trkpt lat="45.80051" lon="5.95217">
        <ele>351.97985839844</ele>
        <time>2012-03-17T15:35:03Z</time>
      </trkpt>
      <trkpt lat="45.8006" lon="5.95227">
        <ele>351.97985839844</ele>
        <time>2012-03-17T15:35:06Z</time>
      </trkpt>
      <trkpt lat="45.80077" lon="5.95248">
        <ele>352.46057128906</ele>
        <time>2012-03-17T15:35:13Z</time>
      </trkpt>
      <trkpt lat="45.80096" lon="5.95269">
        <ele>351.97985839844</ele>
        <time>2012-03-17T15:35:22Z</time>
      </trkpt>
      <trkpt lat="45.80115" lon="5.95292">
        <ele>351.49914550781</ele>
        <time>2012-03-17T15:35:31Z</time>
      </trkpt>
      <trkpt lat="45.80143" lon="5.95325">
        <ele>351.97985839844</ele>
        <time>2012-03-17T15:35:44Z</time>
      </trkpt>
      <trkpt lat="45.80163" lon="5.95349">
        <ele>352.46057128906</ele>
        <time>2012-03-17T15:35:54Z</time>
      </trkpt>
      <trkpt lat="45.80171" lon="5.95358">
        <ele>352.94116210938</ele>
        <time>2012-03-17T15:36:00Z</time>
      </trkpt>
      <trkpt lat="45.80178" lon="5.95365">
        <ele>352.94116210938</ele>
        <time>2012-03-17T15:36:07Z</time>
      </trkpt>
      <trkpt lat="45.80177" lon="5.95365">
        <ele>352.46057128906</ele>
        <time>2012-03-17T15:36:12Z</time>
      </trkpt>
      <trkpt lat="45.80177" lon="5.95364">
        <ele>352.46057128906</ele>
        <time>2012-03-17T15:36:20Z</time>
      </trkpt>
      <trkpt lat="45.80182" lon="5.95367">
        <ele>351.97985839844</ele>
        <time>2012-03-17T15:36:33Z</time>
      </trkpt>
      <trkpt lat="45.80187" lon="5.95373">
        <ele>352.46057128906</ele>
        <time>2012-03-17T15:36:36Z</time>
      </trkpt>
      <trkpt lat="45.8021" lon="5.95399">
        <ele>352.94116210938</ele>
        <time>2012-03-17T15:36:46Z</time>
      </trkpt>
      <trkpt lat="45.80231" lon="5.95424">
        <ele>353.421875</ele>
        <time>2012-03-17T15:36:55Z</time>
      </trkpt>
      <trkpt lat="45.80246" lon="5.95439">
        <ele>354.38317871094</ele>
        <time>2012-03-17T15:37:02Z</time>
      </trkpt>
      <trkpt lat="45.80258" lon="5.95434">
        <ele>354.38317871094</ele>
        <time>2012-03-17T15:37:07Z</time>
      </trkpt>
      <trkpt lat="45.80264" lon="5.95419">
        <ele>354.38317871094</ele>
        <time>2012-03-17T15:37:12Z</time>
      </trkpt>
      <trkpt lat="45.80264" lon="5.95393">
        <ele>355.34448242188</ele>
        <time>2012-03-17T15:37:19Z</time>
      </trkpt>
      <trkpt lat="45.80263" lon="5.95374">
        <ele>355.8251953125</ele>
        <time>2012-03-17T15:37:25Z</time>
      </trkpt>
      <trkpt lat="45.80263" lon="5.95366">
        <ele>356.30578613281</ele>
        <time>2012-03-17T15:37:28Z</time>
      </trkpt>
      <trkpt lat="45.80264" lon="5.95363">
        <ele>356.30578613281</ele>
        <time>2012-03-17T15:37:30Z</time>
      </trkpt>
      <trkpt lat="45.80271" lon="5.95364">
        <ele>356.30578613281</ele>
        <time>2012-03-17T15:37:35Z</time>
      </trkpt>
      <trkpt lat="45.80276" lon="5.95357">
        <ele>356.78637695312</ele>
        <time>2012-03-17T15:37:40Z</time>
      </trkpt>
      <trkpt lat="45.80276" lon="5.95355">
        <ele>357.26708984375</ele>
        <time>2012-03-17T15:37:45Z</time>
      </trkpt>
      <trkpt lat="45.80276" lon="5.95354">
        <ele>359.18969726562</ele>
        <time>2012-03-17T15:37:54Z</time>
      </trkpt>
      <trkpt lat="45.80275" lon="5.95354">
        <ele>361.11242675781</ele>
        <time>2012-03-17T15:38:07Z</time>
      </trkpt>
      <trkpt lat="45.80274" lon="5.95352">
        <ele>362.55432128906</ele>
        <time>2012-03-17T15:38:17Z</time>
      </trkpt>
      <trkpt lat="45.80275" lon="5.95353">
        <ele>363.99633789062</ele>
        <time>2012-03-17T15:38:23Z</time>
      </trkpt>
      <trkpt lat="45.80275" lon="5.95353">
        <ele>364.47692871094</ele>
        <time>2012-03-17T15:38:32Z</time>
      </trkpt>
      <trkpt lat="45.80274" lon="5.95352">
        <ele>364.47692871094</ele>
        <time>2012-03-17T15:38:42Z</time>
      </trkpt>
    </trkseg>
  </trk>
</gpx>